<?xml version="1.0" encoding="UTF-8" standalone="no" ?>
<gpx xmlns="http://www.topografix.com/GPX/1/1" creator="MapSource 6.16.3" version="1.1" xmlns:xsi="http://www.w3.org/2001/XMLSchema-instance" xsi:schemaLocation="http://www.topografix.com/GPX/1/1 http://www.topografix.com/GPX/1/1/gpx.xsd">

  <metadata>
    <link href="http://www.garmin.com">
      <text>Garmin International</text>
    </link>
    <time>2016-09-17T12:29:49Z</time>
    <bounds maxlat="46.329925060272217" maxlon="8.12762975692749" minlat="46.176609992980957" minlon="7.950625419616699"/>
  </metadata>

  <wpt lat="46.198149975389242" lon="8.126383367925882">
    <name>ARRIVO GONDO</name>
    <cmt> E62</cmt>
    <desc> E62</desc>
    <sym>Diamond, Green</sym>
    <extensions>
      <gpxx:WaypointExtension xmlns:gpxx="http://www.garmin.com/xmlschemas/GpxExtensions/v3">
        <gpxx:DisplayMode>SymbolAndName</gpxx:DisplayMode>
      </gpxx:WaypointExtension>
    </extensions>
  </wpt>

  <wpt lat="46.306664021685719" lon="7.96390880830586">
    <name>BRIGA</name>
    <sym>Parking Area</sym>
    <extensions>
      <gpxx:WaypointExtension xmlns:gpxx="http://www.garmin.com/xmlschemas/GpxExtensions/v3">
        <gpxx:DisplayMode>SymbolAndName</gpxx:DisplayMode>
      </gpxx:WaypointExtension>
    </extensions>
  </wpt>

  <wpt lat="46.246033357456326" lon="8.024716665968299">
    <name>PARTENZA SEMPIONE</name>
    <cmt> E62</cmt>
    <desc> E62</desc>
    <sym>Trail Head</sym>
    <extensions>
      <gpxx:WaypointExtension xmlns:gpxx="http://www.garmin.com/xmlschemas/GpxExtensions/v3">
        <gpxx:DisplayMode>SymbolAndName</gpxx:DisplayMode>
      </gpxx:WaypointExtension>
    </extensions>
  </wpt>

  <wpt lat="46.257883356884122" lon="7.982366681098938">
    <name>USSERIE NANZLICKE</name>
    <sym>Summit</sym>
    <extensions>
      <gpxx:WaypointExtension xmlns:gpxx="http://www.garmin.com/xmlschemas/GpxExtensions/v3">
        <gpxx:DisplayMode>SymbolAndName</gpxx:DisplayMode>
      </gpxx:WaypointExtension>
    </extensions>
  </wpt>

  <trk>
    <name>ACTIVE LOG 001</name>
    <trkseg>
      <trkpt lat="46.246025562286377" lon="8.024718761444092">
        <ele>1998.71826171875</ele>
        <time>2008-07-27T07:34:13Z</time>
      </trkpt>
      <trkpt lat="46.246047019958496" lon="8.024826049804688">
        <ele>1998.71826171875</ele>
        <time>2008-07-27T07:34:29Z</time>
      </trkpt>
      <trkpt lat="46.246089935302734" lon="8.025104999542236">
        <ele>1998.71826171875</ele>
        <time>2008-07-27T07:34:37Z</time>
      </trkpt>
      <trkpt lat="46.246154308319092" lon="8.025362491607666">
        <ele>1998.237548828125</ele>
        <time>2008-07-27T07:34:45Z</time>
      </trkpt>
      <trkpt lat="46.24619722366333" lon="8.025662899017334">
        <ele>1998.237548828125</ele>
        <time>2008-07-27T07:34:53Z</time>
      </trkpt>
      <trkpt lat="46.246390342712402" lon="8.026156425476074">
        <ele>1998.71826171875</ele>
        <time>2008-07-27T07:35:06Z</time>
      </trkpt>
      <trkpt lat="46.246540546417236" lon="8.026478290557861">
        <ele>1998.71826171875</ele>
        <time>2008-07-27T07:35:15Z</time>
      </trkpt>
      <trkpt lat="46.246819496154785" lon="8.026928901672363">
        <ele>1998.71826171875</ele>
        <time>2008-07-27T07:35:29Z</time>
      </trkpt>
      <trkpt lat="46.247098445892334" lon="8.027315139770508">
        <ele>1999.198974609375</ele>
        <time>2008-07-27T07:35:41Z</time>
      </trkpt>
      <trkpt lat="46.24744176864624" lon="8.027722835540772">
        <ele>2000.640869140625</ele>
        <time>2008-07-27T07:35:55Z</time>
      </trkpt>
      <trkpt lat="46.247785091400146" lon="8.028173446655273">
        <ele>2001.602294921875</ele>
        <time>2008-07-27T07:36:10Z</time>
      </trkpt>
      <trkpt lat="46.248064041137695" lon="8.02875280380249">
        <ele>2003.044189453125</ele>
        <time>2008-07-27T07:36:26Z</time>
      </trkpt>
      <trkpt lat="46.248300075531006" lon="8.029224872589111">
        <ele>2004.966796875</ele>
        <time>2008-07-27T07:36:39Z</time>
      </trkpt>
      <trkpt lat="46.248428821563721" lon="8.029546737670898">
        <ele>2006.40869140625</ele>
        <time>2008-07-27T07:36:50Z</time>
      </trkpt>
      <trkpt lat="46.248471736907959" lon="8.029568195343018">
        <ele>2007.850830078125</ele>
        <time>2008-07-27T07:37:23Z</time>
      </trkpt>
      <trkpt lat="46.248600482940674" lon="8.029847145080566">
        <ele>2008.331298828125</ele>
        <time>2008-07-27T07:37:33Z</time>
      </trkpt>
      <trkpt lat="46.248836517333984" lon="8.03025484085083">
        <ele>2009.292724609375</ele>
        <time>2008-07-27T07:37:46Z</time>
      </trkpt>
      <trkpt lat="46.249051094055176" lon="8.030598163604736">
        <ele>2009.292724609375</ele>
        <time>2008-07-27T07:37:58Z</time>
      </trkpt>
      <trkpt lat="46.249372959136963" lon="8.030962944030762">
        <ele>2010.25390625</ele>
        <time>2008-07-27T07:38:12Z</time>
      </trkpt>
      <trkpt lat="46.24943733215332" lon="8.031027317047119">
        <ele>2010.25390625</ele>
        <time>2008-07-27T07:38:16Z</time>
      </trkpt>
      <trkpt lat="46.249523162841797" lon="8.030962944030762">
        <ele>2010.25390625</ele>
        <time>2008-07-27T07:38:20Z</time>
      </trkpt>
      <trkpt lat="46.249716281890869" lon="8.030855655670166">
        <ele>2008.81201171875</ele>
        <time>2008-07-27T07:38:27Z</time>
      </trkpt>
      <trkpt lat="46.249780654907227" lon="8.030898571014404">
        <ele>2008.331298828125</ele>
        <time>2008-07-27T07:38:29Z</time>
      </trkpt>
      <trkpt lat="46.250016689300537" lon="8.030984401702881">
        <ele>2008.331298828125</ele>
        <time>2008-07-27T07:38:34Z</time>
      </trkpt>
      <trkpt lat="46.250123977661133" lon="8.031005859375">
        <ele>2008.331298828125</ele>
        <time>2008-07-27T07:38:36Z</time>
      </trkpt>
      <trkpt lat="46.250252723693848" lon="8.031134605407715">
        <ele>2008.331298828125</ele>
        <time>2008-07-27T07:38:40Z</time>
      </trkpt>
      <trkpt lat="46.250574588775635" lon="8.03149938583374">
        <ele>2009.292724609375</ele>
        <time>2008-07-27T07:38:51Z</time>
      </trkpt>
      <trkpt lat="46.250896453857422" lon="8.031671047210693">
        <ele>2011.696044921875</ele>
        <time>2008-07-27T07:39:01Z</time>
      </trkpt>
      <trkpt lat="46.251025199890137" lon="8.031671047210693">
        <ele>2013.13818359375</ele>
        <time>2008-07-27T07:39:07Z</time>
      </trkpt>
      <trkpt lat="46.251025199890137" lon="8.031649589538574">
        <ele>2012.1767578125</ele>
        <time>2008-07-27T07:39:14Z</time>
      </trkpt>
      <trkpt lat="46.251025199890137" lon="8.031649589538574">
        <ele>2012.1767578125</ele>
        <time>2008-07-27T07:39:50Z</time>
      </trkpt>
      <trkpt lat="46.251111030578613" lon="8.03175687789917">
        <ele>2010.734619140625</ele>
        <time>2008-07-27T07:39:59Z</time>
      </trkpt>
      <trkpt lat="46.251153945922852" lon="8.031821250915527">
        <ele>2008.331298828125</ele>
        <time>2008-07-27T07:40:31Z</time>
      </trkpt>
      <trkpt lat="46.251218318939209" lon="8.031778335571289">
        <ele>2012.1767578125</ele>
        <time>2008-07-27T07:41:34Z</time>
      </trkpt>
      <trkpt lat="46.251325607299805" lon="8.031735420227051">
        <ele>2009.292724609375</ele>
        <time>2008-07-27T07:41:39Z</time>
      </trkpt>
      <trkpt lat="46.251411437988281" lon="8.031713962554932">
        <ele>2006.889404296875</ele>
        <time>2008-07-27T07:41:43Z</time>
      </trkpt>
      <trkpt lat="46.251497268676758" lon="8.031692504882813">
        <ele>2004.486083984375</ele>
        <time>2008-07-27T07:41:48Z</time>
      </trkpt>
      <trkpt lat="46.251540184020996" lon="8.031671047210693">
        <ele>2004.966796875</ele>
        <time>2008-07-27T07:41:54Z</time>
      </trkpt>
      <trkpt lat="46.251583099365234" lon="8.031628131866455">
        <ele>2003.52490234375</ele>
        <time>2008-07-27T07:42:02Z</time>
      </trkpt>
      <trkpt lat="46.25169038772583" lon="8.031563758850098">
        <ele>2002.5634765625</ele>
        <time>2008-07-27T07:42:10Z</time>
      </trkpt>
      <trkpt lat="46.251797676086426" lon="8.031327724456787">
        <ele>2000.640869140625</ele>
        <time>2008-07-27T07:42:16Z</time>
      </trkpt>
      <trkpt lat="46.251819133758545" lon="8.030941486358643">
        <ele>2000.640869140625</ele>
        <time>2008-07-27T07:42:25Z</time>
      </trkpt>
      <trkpt lat="46.251819133758545" lon="8.030490875244141">
        <ele>1999.6796875</ele>
        <time>2008-07-27T07:42:34Z</time>
      </trkpt>
      <trkpt lat="46.251776218414307" lon="8.029954433441162">
        <ele>1999.198974609375</ele>
        <time>2008-07-27T07:42:43Z</time>
      </trkpt>
      <trkpt lat="46.251776218414307" lon="8.029890060424805">
        <ele>1999.198974609375</ele>
        <time>2008-07-27T07:42:44Z</time>
      </trkpt>
      <trkpt lat="46.251668930053711" lon="8.029525279998779">
        <ele>1999.6796875</ele>
        <time>2008-07-27T07:42:50Z</time>
      </trkpt>
      <trkpt lat="46.25169038772583" lon="8.029224872589111">
        <ele>1999.198974609375</ele>
        <time>2008-07-27T07:42:55Z</time>
      </trkpt>
      <trkpt lat="46.251797676086426" lon="8.028903007507324">
        <ele>1997.757080078125</ele>
        <time>2008-07-27T07:43:03Z</time>
      </trkpt>
      <trkpt lat="46.251819133758545" lon="8.028838634490967">
        <ele>1996.795654296875</ele>
        <time>2008-07-27T07:43:08Z</time>
      </trkpt>
      <trkpt lat="46.251840591430664" lon="8.02875280380249">
        <ele>1995.834228515625</ele>
        <time>2008-07-27T07:43:50Z</time>
      </trkpt>
      <trkpt lat="46.251862049102783" lon="8.028495311737061">
        <ele>1993.91162109375</ele>
        <time>2008-07-27T07:43:55Z</time>
      </trkpt>
      <trkpt lat="46.251797676086426" lon="8.028194904327393">
        <ele>1991.027587890625</ele>
        <time>2008-07-27T07:44:00Z</time>
      </trkpt>
      <trkpt lat="46.251840591430664" lon="8.027894496917725">
        <ele>1987.6630859375</ele>
        <time>2008-07-27T07:44:05Z</time>
      </trkpt>
      <trkpt lat="46.251840591430664" lon="8.027873039245606">
        <ele>1987.6630859375</ele>
        <time>2008-07-27T07:44:06Z</time>
      </trkpt>
      <trkpt lat="46.251883506774902" lon="8.027808666229248">
        <ele>1987.182373046875</ele>
        <time>2008-07-27T07:44:12Z</time>
      </trkpt>
      <trkpt lat="46.251862049102783" lon="8.027722835540772">
        <ele>1988.143798828125</ele>
        <time>2008-07-27T07:44:21Z</time>
      </trkpt>
      <trkpt lat="46.251862049102783" lon="8.027679920196533">
        <ele>1988.62451171875</ele>
        <time>2008-07-27T07:44:24Z</time>
      </trkpt>
      <trkpt lat="46.251819133758545" lon="8.027572631835938">
        <ele>1991.027587890625</ele>
        <time>2008-07-27T07:44:35Z</time>
      </trkpt>
      <trkpt lat="46.251819133758545" lon="8.027486801147461">
        <ele>1993.430908203125</ele>
        <time>2008-07-27T07:44:43Z</time>
      </trkpt>
      <trkpt lat="46.251819133758545" lon="8.027465343475342">
        <ele>1994.872802734375</ele>
        <time>2008-07-27T07:44:49Z</time>
      </trkpt>
      <trkpt lat="46.251797676086426" lon="8.027379512786865">
        <ele>1996.795654296875</ele>
        <time>2008-07-27T07:44:59Z</time>
      </trkpt>
      <trkpt lat="46.251819133758545" lon="8.027336597442627">
        <ele>1997.2763671875</ele>
        <time>2008-07-27T07:45:06Z</time>
      </trkpt>
      <trkpt lat="46.251819133758545" lon="8.027315139770508">
        <ele>1998.237548828125</ele>
        <time>2008-07-27T07:45:12Z</time>
      </trkpt>
      <trkpt lat="46.251819133758545" lon="8.027293682098389">
        <ele>1998.71826171875</ele>
        <time>2008-07-27T07:45:18Z</time>
      </trkpt>
      <trkpt lat="46.251819133758545" lon="8.02725076675415">
        <ele>1999.6796875</ele>
        <time>2008-07-27T07:45:27Z</time>
      </trkpt>
      <trkpt lat="46.251797676086426" lon="8.027207851409912">
        <ele>2001.12158203125</ele>
        <time>2008-07-27T07:45:34Z</time>
      </trkpt>
      <trkpt lat="46.251819133758545" lon="8.027143478393555">
        <ele>2002.082763671875</ele>
        <time>2008-07-27T07:45:43Z</time>
      </trkpt>
      <trkpt lat="46.251797676086426" lon="8.027100563049316">
        <ele>2003.52490234375</ele>
        <time>2008-07-27T07:45:51Z</time>
      </trkpt>
      <trkpt lat="46.251819133758545" lon="8.027057647705078">
        <ele>2004.005615234375</ele>
        <time>2008-07-27T07:45:59Z</time>
      </trkpt>
      <trkpt lat="46.251819133758545" lon="8.027036190032959">
        <ele>2004.966796875</ele>
        <time>2008-07-27T07:46:06Z</time>
      </trkpt>
      <trkpt lat="46.251819133758545" lon="8.026950359344482">
        <ele>2006.889404296875</ele>
        <time>2008-07-27T07:46:16Z</time>
      </trkpt>
      <trkpt lat="46.251819133758545" lon="8.026885986328125">
        <ele>2008.81201171875</ele>
        <time>2008-07-27T07:46:25Z</time>
      </trkpt>
      <trkpt lat="46.251797676086426" lon="8.026843070983887">
        <ele>2009.773193359375</ele>
        <time>2008-07-27T07:46:33Z</time>
      </trkpt>
      <trkpt lat="46.251840591430664" lon="8.026778697967529">
        <ele>2011.696044921875</ele>
        <time>2008-07-27T07:46:42Z</time>
      </trkpt>
      <trkpt lat="46.251840591430664" lon="8.026735782623291">
        <ele>2012.1767578125</ele>
        <time>2008-07-27T07:46:49Z</time>
      </trkpt>
      <trkpt lat="46.251840591430664" lon="8.026714324951172">
        <ele>2012.1767578125</ele>
        <time>2008-07-27T07:46:51Z</time>
      </trkpt>
      <trkpt lat="46.251819133758545" lon="8.026671409606934">
        <ele>2012.1767578125</ele>
        <time>2008-07-27T07:46:58Z</time>
      </trkpt>
      <trkpt lat="46.251819133758545" lon="8.026671409606934">
        <ele>2009.292724609375</ele>
        <time>2008-07-27T07:57:19Z</time>
      </trkpt>
      <trkpt lat="46.251904964447021" lon="8.026585578918457">
        <ele>2011.21533203125</ele>
        <time>2008-07-27T07:57:28Z</time>
      </trkpt>
      <trkpt lat="46.251926422119141" lon="8.0265212059021">
        <ele>2013.61865234375</ele>
        <time>2008-07-27T07:57:35Z</time>
      </trkpt>
      <trkpt lat="46.25194787979126" lon="8.026456832885742">
        <ele>2014.580078125</ele>
        <time>2008-07-27T07:57:41Z</time>
      </trkpt>
      <trkpt lat="46.252012252807617" lon="8.026413917541504">
        <ele>2016.02197265625</ele>
        <time>2008-07-27T07:57:49Z</time>
      </trkpt>
      <trkpt lat="46.252055168151855" lon="8.026328086853027">
        <ele>2017.944580078125</ele>
        <time>2008-07-27T07:57:58Z</time>
      </trkpt>
      <trkpt lat="46.252098083496094" lon="8.026242256164551">
        <ele>2016.9833984375</ele>
        <time>2008-07-27T07:58:07Z</time>
      </trkpt>
      <trkpt lat="46.252119541168213" lon="8.026199340820313">
        <ele>2016.9833984375</ele>
        <time>2008-07-27T07:58:16Z</time>
      </trkpt>
      <trkpt lat="46.252162456512451" lon="8.026049137115479">
        <ele>2017.944580078125</ele>
        <time>2008-07-27T07:58:27Z</time>
      </trkpt>
      <trkpt lat="46.252205371856689" lon="8.025941848754883">
        <ele>2017.944580078125</ele>
        <time>2008-07-27T07:58:35Z</time>
      </trkpt>
      <trkpt lat="46.252226829528809" lon="8.025834560394287">
        <ele>2020.82861328125</ele>
        <time>2008-07-27T07:58:43Z</time>
      </trkpt>
      <trkpt lat="46.252226829528809" lon="8.02577018737793">
        <ele>2021.789794921875</ele>
        <time>2008-07-27T07:58:49Z</time>
      </trkpt>
      <trkpt lat="46.252248287200928" lon="8.025684356689453">
        <ele>2022.751220703125</ele>
        <time>2008-07-27T07:58:58Z</time>
      </trkpt>
      <trkpt lat="46.252248287200928" lon="8.025641441345215">
        <ele>2022.751220703125</ele>
        <time>2008-07-27T07:59:01Z</time>
      </trkpt>
      <trkpt lat="46.252205371856689" lon="8.0255126953125">
        <ele>2023.71240234375</ele>
        <time>2008-07-27T07:59:12Z</time>
      </trkpt>
      <trkpt lat="46.252162456512451" lon="8.025448322296143">
        <ele>2025.154296875</ele>
        <time>2008-07-27T07:59:19Z</time>
      </trkpt>
      <trkpt lat="46.252076625823975" lon="8.025383949279785">
        <ele>2026.596435546875</ele>
        <time>2008-07-27T07:59:30Z</time>
      </trkpt>
      <trkpt lat="46.252033710479736" lon="8.025298118591309">
        <ele>2027.5576171875</ele>
        <time>2008-07-27T07:59:38Z</time>
      </trkpt>
      <trkpt lat="46.25194787979126" lon="8.025190830230713">
        <ele>2028.519287109375</ele>
        <time>2008-07-27T07:59:49Z</time>
      </trkpt>
      <trkpt lat="46.251904964447021" lon="8.025083541870117">
        <ele>2030.44189453125</ele>
        <time>2008-07-27T07:59:59Z</time>
      </trkpt>
      <trkpt lat="46.251904964447021" lon="8.024997711181641">
        <ele>2031.403076171875</ele>
        <time>2008-07-27T08:00:07Z</time>
      </trkpt>
      <trkpt lat="46.251926422119141" lon="8.024826049804688">
        <ele>2031.403076171875</ele>
        <time>2008-07-27T08:00:20Z</time>
      </trkpt>
      <trkpt lat="46.251883506774902" lon="8.024654388427734">
        <ele>2031.403076171875</ele>
        <time>2008-07-27T08:00:31Z</time>
      </trkpt>
      <trkpt lat="46.251819133758545" lon="8.024547100067139">
        <ele>2032.364501953125</ele>
        <time>2008-07-27T08:00:40Z</time>
      </trkpt>
      <trkpt lat="46.25169038772583" lon="8.024439811706543">
        <ele>2032.844970703125</ele>
        <time>2008-07-27T08:00:49Z</time>
      </trkpt>
      <trkpt lat="46.251540184020996" lon="8.024332523345947">
        <ele>2033.806396484375</ele>
        <time>2008-07-27T08:01:00Z</time>
      </trkpt>
      <trkpt lat="46.25145435333252" lon="8.024117946624756">
        <ele>2036.690185546875</ele>
        <time>2008-07-27T08:01:11Z</time>
      </trkpt>
      <trkpt lat="46.251389980316162" lon="8.023903369903565">
        <ele>2037.651611328125</ele>
        <time>2008-07-27T08:01:21Z</time>
      </trkpt>
      <trkpt lat="46.251261234283447" lon="8.023710250854492">
        <ele>2039.093505859375</ele>
        <time>2008-07-27T08:01:33Z</time>
      </trkpt>
      <trkpt lat="46.251132488250732" lon="8.023538589477539">
        <ele>2040.535400390625</ele>
        <time>2008-07-27T08:01:44Z</time>
      </trkpt>
      <trkpt lat="46.251046657562256" lon="8.023324012756348">
        <ele>2040.535400390625</ele>
        <time>2008-07-27T08:01:53Z</time>
      </trkpt>
      <trkpt lat="46.25093936920166" lon="8.023109436035156">
        <ele>2041.496826171875</ele>
        <time>2008-07-27T08:02:00Z</time>
      </trkpt>
      <trkpt lat="46.250832080841064" lon="8.022916316986084">
        <ele>2041.496826171875</ele>
        <time>2008-07-27T08:02:10Z</time>
      </trkpt>
      <trkpt lat="46.250832080841064" lon="8.022701740264893">
        <ele>2041.9775390625</ele>
        <time>2008-07-27T08:02:19Z</time>
      </trkpt>
      <trkpt lat="46.250789165496826" lon="8.022444248199463">
        <ele>2042.938720703125</ele>
        <time>2008-07-27T08:02:29Z</time>
      </trkpt>
      <trkpt lat="46.250746250152588" lon="8.022229671478272">
        <ele>2042.938720703125</ele>
        <time>2008-07-27T08:02:37Z</time>
      </trkpt>
      <trkpt lat="46.250767707824707" lon="8.022100925445557">
        <ele>2044.380859375</ele>
        <time>2008-07-27T08:02:45Z</time>
      </trkpt>
      <trkpt lat="46.250767707824707" lon="8.022100925445557">
        <ele>2044.380859375</ele>
        <time>2008-07-27T08:03:27Z</time>
      </trkpt>
      <trkpt lat="46.250874996185303" lon="8.02201509475708">
        <ele>2042.938720703125</ele>
        <time>2008-07-27T08:03:38Z</time>
      </trkpt>
      <trkpt lat="46.25093936920166" lon="8.021929264068604">
        <ele>2043.900146484375</ele>
        <time>2008-07-27T08:03:47Z</time>
      </trkpt>
      <trkpt lat="46.250960826873779" lon="8.021864891052246">
        <ele>2044.380859375</ele>
        <time>2008-07-27T08:03:51Z</time>
      </trkpt>
      <trkpt lat="46.251046657562256" lon="8.021864891052246">
        <ele>2045.822998046875</ele>
        <time>2008-07-27T08:03:59Z</time>
      </trkpt>
      <trkpt lat="46.251132488250732" lon="8.021800518035889">
        <ele>2046.7841796875</ele>
        <time>2008-07-27T08:04:09Z</time>
      </trkpt>
      <trkpt lat="46.25119686126709" lon="8.02175760269165">
        <ele>2046.7841796875</ele>
        <time>2008-07-27T08:04:17Z</time>
      </trkpt>
      <trkpt lat="46.251261234283447" lon="8.021650314331055">
        <ele>2047.74560546875</ele>
        <time>2008-07-27T08:04:25Z</time>
      </trkpt>
      <trkpt lat="46.251261234283447" lon="8.021500110626221">
        <ele>2050.14892578125</ele>
        <time>2008-07-27T08:04:36Z</time>
      </trkpt>
      <trkpt lat="46.251261234283447" lon="8.021435737609863">
        <ele>2050.62939453125</ele>
        <time>2008-07-27T08:04:41Z</time>
      </trkpt>
      <trkpt lat="46.251218318939209" lon="8.021328449249268">
        <ele>2052.0712890625</ele>
        <time>2008-07-27T08:04:51Z</time>
      </trkpt>
      <trkpt lat="46.25119686126709" lon="8.021178245544434">
        <ele>2053.03271484375</ele>
        <time>2008-07-27T08:05:02Z</time>
      </trkpt>
      <trkpt lat="46.251218318939209" lon="8.021113872528076">
        <ele>2052.0712890625</ele>
        <time>2008-07-27T08:05:12Z</time>
      </trkpt>
      <trkpt lat="46.251239776611328" lon="8.021070957183838">
        <ele>2050.14892578125</ele>
        <time>2008-07-27T08:05:23Z</time>
      </trkpt>
      <trkpt lat="46.251304149627686" lon="8.020920753479004">
        <ele>2046.7841796875</ele>
        <time>2008-07-27T08:05:28Z</time>
      </trkpt>
      <trkpt lat="46.251389980316162" lon="8.020749092102051">
        <ele>2046.7841796875</ele>
        <time>2008-07-27T08:05:33Z</time>
      </trkpt>
      <trkpt lat="46.251389980316162" lon="8.020749092102051">
        <ele>2046.7841796875</ele>
        <time>2008-07-27T08:05:39Z</time>
      </trkpt>
      <trkpt lat="46.251368522644043" lon="8.020706176757813">
        <ele>2048.22607421875</ele>
        <time>2008-07-27T08:06:01Z</time>
      </trkpt>
      <trkpt lat="46.251304149627686" lon="8.020706176757813">
        <ele>2048.22607421875</ele>
        <time>2008-07-27T08:06:10Z</time>
      </trkpt>
      <trkpt lat="46.251261234283447" lon="8.020620346069336">
        <ele>2050.62939453125</ele>
        <time>2008-07-27T08:06:48Z</time>
      </trkpt>
      <trkpt lat="46.251132488250732" lon="8.020598888397217">
        <ele>2050.62939453125</ele>
        <time>2008-07-27T08:06:58Z</time>
      </trkpt>
      <trkpt lat="46.251132488250732" lon="8.020620346069336">
        <ele>2050.14892578125</ele>
        <time>2008-07-27T08:07:07Z</time>
      </trkpt>
      <trkpt lat="46.251068115234375" lon="8.020555973052979">
        <ele>2050.62939453125</ele>
        <time>2008-07-27T08:07:42Z</time>
      </trkpt>
      <trkpt lat="46.251068115234375" lon="8.020448684692383">
        <ele>2048.706787109375</ele>
        <time>2008-07-27T08:07:52Z</time>
      </trkpt>
      <trkpt lat="46.251089572906494" lon="8.020448684692383">
        <ele>2046.3037109375</ele>
        <time>2008-07-27T08:08:02Z</time>
      </trkpt>
      <trkpt lat="46.251175403594971" lon="8.020319938659668">
        <ele>2046.3037109375</ele>
        <time>2008-07-27T08:08:14Z</time>
      </trkpt>
      <trkpt lat="46.251304149627686" lon="8.020191192626953">
        <ele>2045.34228515625</ele>
        <time>2008-07-27T08:08:27Z</time>
      </trkpt>
      <trkpt lat="46.2514328956604" lon="8.020083904266357">
        <ele>2048.22607421875</ele>
        <time>2008-07-27T08:08:39Z</time>
      </trkpt>
      <trkpt lat="46.2514328956604" lon="8.019955158233643">
        <ele>2051.110107421875</ele>
        <time>2008-07-27T08:08:48Z</time>
      </trkpt>
      <trkpt lat="46.2514328956604" lon="8.019912242889404">
        <ele>2052.552001953125</ele>
        <time>2008-07-27T08:08:59Z</time>
      </trkpt>
      <trkpt lat="46.251411437988281" lon="8.019869327545166">
        <ele>2054.955322265625</ele>
        <time>2008-07-27T08:09:14Z</time>
      </trkpt>
      <trkpt lat="46.251389980316162" lon="8.019826412200928">
        <ele>2055.43603515625</ele>
        <time>2008-07-27T08:09:23Z</time>
      </trkpt>
      <trkpt lat="46.251368522644043" lon="8.01976203918457">
        <ele>2056.397216796875</ele>
        <time>2008-07-27T08:09:31Z</time>
      </trkpt>
      <trkpt lat="46.251368522644043" lon="8.019697666168213">
        <ele>2058.31982421875</ele>
        <time>2008-07-27T08:09:41Z</time>
      </trkpt>
      <trkpt lat="46.251368522644043" lon="8.019654750823975">
        <ele>2058.800537109375</ele>
        <time>2008-07-27T08:09:48Z</time>
      </trkpt>
      <trkpt lat="46.251368522644043" lon="8.019590377807617">
        <ele>2060.24267578125</ele>
        <time>2008-07-27T08:09:58Z</time>
      </trkpt>
      <trkpt lat="46.251368522644043" lon="8.01952600479126">
        <ele>2060.723388671875</ele>
        <time>2008-07-27T08:10:05Z</time>
      </trkpt>
      <trkpt lat="46.2514328956604" lon="8.01952600479126">
        <ele>2061.684814453125</ele>
        <time>2008-07-27T08:10:31Z</time>
      </trkpt>
      <trkpt lat="46.2514328956604" lon="8.019504547119141">
        <ele>2062.165283203125</ele>
        <time>2008-07-27T08:10:38Z</time>
      </trkpt>
      <trkpt lat="46.25145435333252" lon="8.019483089447022">
        <ele>2062.64599609375</ele>
        <time>2008-07-27T08:10:45Z</time>
      </trkpt>
      <trkpt lat="46.251475811004639" lon="8.019418716430664">
        <ele>2062.64599609375</ele>
        <time>2008-07-27T08:10:52Z</time>
      </trkpt>
      <trkpt lat="46.25145435333252" lon="8.019375801086426">
        <ele>2062.64599609375</ele>
        <time>2008-07-27T08:10:57Z</time>
      </trkpt>
      <trkpt lat="46.25145435333252" lon="8.019247055053711">
        <ele>2063.607177734375</ele>
        <time>2008-07-27T08:11:07Z</time>
      </trkpt>
      <trkpt lat="46.2514328956604" lon="8.019139766693115">
        <ele>2064.568603515625</ele>
        <time>2008-07-27T08:11:17Z</time>
      </trkpt>
      <trkpt lat="46.251368522644043" lon="8.0190110206604">
        <ele>2066.4912109375</ele>
        <time>2008-07-27T08:11:31Z</time>
      </trkpt>
      <trkpt lat="46.251347064971924" lon="8.018925189971924">
        <ele>2068.413818359375</ele>
        <time>2008-07-27T08:11:39Z</time>
      </trkpt>
      <trkpt lat="46.251304149627686" lon="8.018882274627686">
        <ele>2070.33642578125</ele>
        <time>2008-07-27T08:11:48Z</time>
      </trkpt>
      <trkpt lat="46.251282691955566" lon="8.018796443939209">
        <ele>2072.259033203125</ele>
        <time>2008-07-27T08:11:58Z</time>
      </trkpt>
      <trkpt lat="46.251261234283447" lon="8.018753528594971">
        <ele>2073.700927734375</ele>
        <time>2008-07-27T08:12:07Z</time>
      </trkpt>
      <trkpt lat="46.251282691955566" lon="8.018732070922852">
        <ele>2074.662353515625</ele>
        <time>2008-07-27T08:12:17Z</time>
      </trkpt>
      <trkpt lat="46.251304149627686" lon="8.018646240234375">
        <ele>2077.06591796875</ele>
        <time>2008-07-27T08:12:26Z</time>
      </trkpt>
      <trkpt lat="46.251304149627686" lon="8.018560409545898">
        <ele>2078.98828125</ele>
        <time>2008-07-27T08:12:35Z</time>
      </trkpt>
      <trkpt lat="46.251304149627686" lon="8.018496036529541">
        <ele>2080.430419921875</ele>
        <time>2008-07-27T08:12:44Z</time>
      </trkpt>
      <trkpt lat="46.251304149627686" lon="8.018431663513184">
        <ele>2081.3916015625</ele>
        <time>2008-07-27T08:12:53Z</time>
      </trkpt>
      <trkpt lat="46.251282691955566" lon="8.018367290496826">
        <ele>2082.35302734375</ele>
        <time>2008-07-27T08:13:01Z</time>
      </trkpt>
      <trkpt lat="46.251304149627686" lon="8.018302917480469">
        <ele>2083.794921875</ele>
        <time>2008-07-27T08:13:10Z</time>
      </trkpt>
      <trkpt lat="46.251304149627686" lon="8.018195629119873">
        <ele>2083.794921875</ele>
        <time>2008-07-27T08:13:19Z</time>
      </trkpt>
      <trkpt lat="46.251325607299805" lon="8.018152713775635">
        <ele>2084.275634765625</ele>
        <time>2008-07-27T08:13:24Z</time>
      </trkpt>
      <trkpt lat="46.251411437988281" lon="8.018045425415039">
        <ele>2085.717529296875</ele>
        <time>2008-07-27T08:13:35Z</time>
      </trkpt>
      <trkpt lat="46.25145435333252" lon="8.017959594726563">
        <ele>2086.6787109375</ele>
        <time>2008-07-27T08:13:44Z</time>
      </trkpt>
      <trkpt lat="46.251518726348877" lon="8.017873764038086">
        <ele>2086.6787109375</ele>
        <time>2008-07-27T08:13:54Z</time>
      </trkpt>
      <trkpt lat="46.251540184020996" lon="8.017873764038086">
        <ele>2086.6787109375</ele>
        <time>2008-07-27T08:13:55Z</time>
      </trkpt>
      <trkpt lat="46.251626014709473" lon="8.017830848693848">
        <ele>2084.75634765625</ele>
        <time>2008-07-27T08:14:06Z</time>
      </trkpt>
      <trkpt lat="46.251668930053711" lon="8.017745018005371">
        <ele>2086.1982421875</ele>
        <time>2008-07-27T08:14:15Z</time>
      </trkpt>
      <trkpt lat="46.251711845397949" lon="8.017637729644775">
        <ele>2087.64013671875</ele>
        <time>2008-07-27T08:14:27Z</time>
      </trkpt>
      <trkpt lat="46.251711845397949" lon="8.017551898956299">
        <ele>2089.08203125</ele>
        <time>2008-07-27T08:14:34Z</time>
      </trkpt>
      <trkpt lat="46.251733303070068" lon="8.017444610595703">
        <ele>2091.004638671875</ele>
        <time>2008-07-27T08:14:43Z</time>
      </trkpt>
      <trkpt lat="46.251733303070068" lon="8.017358779907227">
        <ele>2091.966064453125</ele>
        <time>2008-07-27T08:14:50Z</time>
      </trkpt>
      <trkpt lat="46.25169038772583" lon="8.017230033874512">
        <ele>2093.888916015625</ele>
        <time>2008-07-27T08:15:02Z</time>
      </trkpt>
      <trkpt lat="46.251668930053711" lon="8.017165660858154">
        <ele>2094.85009765625</ele>
        <time>2008-07-27T08:15:09Z</time>
      </trkpt>
      <trkpt lat="46.25169038772583" lon="8.01701545715332">
        <ele>2096.292236328125</ele>
        <time>2008-07-27T08:15:21Z</time>
      </trkpt>
      <trkpt lat="46.251711845397949" lon="8.016972541809082">
        <ele>2097.25341796875</ele>
        <time>2008-07-27T08:15:27Z</time>
      </trkpt>
      <trkpt lat="46.251711845397949" lon="8.016908168792725">
        <ele>2097.25341796875</ele>
        <time>2008-07-27T08:15:34Z</time>
      </trkpt>
      <trkpt lat="46.25169038772583" lon="8.016843795776367">
        <ele>2097.734130859375</ele>
        <time>2008-07-27T08:15:41Z</time>
      </trkpt>
      <trkpt lat="46.251668930053711" lon="8.016757965087891">
        <ele>2098.6953125</ele>
        <time>2008-07-27T08:15:50Z</time>
      </trkpt>
      <trkpt lat="46.251647472381592" lon="8.016693592071533">
        <ele>2099.65673828125</ele>
        <time>2008-07-27T08:15:59Z</time>
      </trkpt>
      <trkpt lat="46.251647472381592" lon="8.016629219055176">
        <ele>2101.0986328125</ele>
        <time>2008-07-27T08:16:06Z</time>
      </trkpt>
      <trkpt lat="46.251626014709473" lon="8.016543388366699">
        <ele>2103.021240234375</ele>
        <time>2008-07-27T08:16:16Z</time>
      </trkpt>
      <trkpt lat="46.251626014709473" lon="8.016436100006104">
        <ele>2104.463134765625</ele>
        <time>2008-07-27T08:16:25Z</time>
      </trkpt>
      <trkpt lat="46.251647472381592" lon="8.016328811645508">
        <ele>2105.424560546875</ele>
        <time>2008-07-27T08:16:35Z</time>
      </trkpt>
      <trkpt lat="46.251647472381592" lon="8.016200065612793">
        <ele>2106.3857421875</ele>
        <time>2008-07-27T08:16:47Z</time>
      </trkpt>
      <trkpt lat="46.251647472381592" lon="8.016157150268555">
        <ele>2107.827880859375</ele>
        <time>2008-07-27T08:16:56Z</time>
      </trkpt>
      <trkpt lat="46.251668930053711" lon="8.016049861907959">
        <ele>2108.789306640625</ele>
        <time>2008-07-27T08:17:05Z</time>
      </trkpt>
      <trkpt lat="46.251668930053711" lon="8.015964031219482">
        <ele>2110.231201171875</ele>
        <time>2008-07-27T08:17:13Z</time>
      </trkpt>
      <trkpt lat="46.251668930053711" lon="8.015878200531006">
        <ele>2110.231201171875</ele>
        <time>2008-07-27T08:17:23Z</time>
      </trkpt>
      <trkpt lat="46.251647472381592" lon="8.01577091217041">
        <ele>2111.192626953125</ele>
        <time>2008-07-27T08:17:33Z</time>
      </trkpt>
      <trkpt lat="46.251668930053711" lon="8.015642166137695">
        <ele>2112.634521484375</ele>
        <time>2008-07-27T08:17:45Z</time>
      </trkpt>
      <trkpt lat="46.251668930053711" lon="8.0155348777771">
        <ele>2114.076416015625</ele>
        <time>2008-07-27T08:17:55Z</time>
      </trkpt>
      <trkpt lat="46.25169038772583" lon="8.015427589416504">
        <ele>2115.5185546875</ele>
        <time>2008-07-27T08:18:05Z</time>
      </trkpt>
      <trkpt lat="46.25169038772583" lon="8.015320301055908">
        <ele>2116.96044921875</ele>
        <time>2008-07-27T08:18:15Z</time>
      </trkpt>
      <trkpt lat="46.251711845397949" lon="8.015170097351074">
        <ele>2118.40234375</ele>
        <time>2008-07-27T08:18:27Z</time>
      </trkpt>
      <trkpt lat="46.251711845397949" lon="8.015062808990479">
        <ele>2119.84423828125</ele>
        <time>2008-07-27T08:18:36Z</time>
      </trkpt>
      <trkpt lat="46.251711845397949" lon="8.014976978302002">
        <ele>2121.2861328125</ele>
        <time>2008-07-27T08:18:46Z</time>
      </trkpt>
      <trkpt lat="46.251711845397949" lon="8.014869689941406">
        <ele>2121.766845703125</ele>
        <time>2008-07-27T08:18:56Z</time>
      </trkpt>
      <trkpt lat="46.251711845397949" lon="8.014805316925049">
        <ele>2122.24755859375</ele>
        <time>2008-07-27T08:19:01Z</time>
      </trkpt>
      <trkpt lat="46.251733303070068" lon="8.014676570892334">
        <ele>2123.208984375</ele>
        <time>2008-07-27T08:19:12Z</time>
      </trkpt>
      <trkpt lat="46.251754760742188" lon="8.014547824859619">
        <ele>2123.689453125</ele>
        <time>2008-07-27T08:19:22Z</time>
      </trkpt>
      <trkpt lat="46.251776218414307" lon="8.014440536499023">
        <ele>2123.208984375</ele>
        <time>2008-07-27T08:19:30Z</time>
      </trkpt>
      <trkpt lat="46.251819133758545" lon="8.01429033279419">
        <ele>2124.17041015625</ele>
        <time>2008-07-27T08:19:41Z</time>
      </trkpt>
      <trkpt lat="46.251862049102783" lon="8.014140129089356">
        <ele>2124.651123046875</ele>
        <time>2008-07-27T08:19:53Z</time>
      </trkpt>
      <trkpt lat="46.251904964447021" lon="8.013989925384522">
        <ele>2126.57373046875</ele>
        <time>2008-07-27T08:20:05Z</time>
      </trkpt>
      <trkpt lat="46.251926422119141" lon="8.013882637023926">
        <ele>2127.054443359375</ele>
        <time>2008-07-27T08:20:15Z</time>
      </trkpt>
      <trkpt lat="46.251969337463379" lon="8.01377534866333">
        <ele>2128.976806640625</ele>
        <time>2008-07-27T08:20:25Z</time>
      </trkpt>
      <trkpt lat="46.252033710479736" lon="8.013646602630615">
        <ele>2129.938232421875</ele>
        <time>2008-07-27T08:20:37Z</time>
      </trkpt>
      <trkpt lat="46.252055168151855" lon="8.013625144958496">
        <ele>2130.4189453125</ele>
        <time>2008-07-27T08:20:41Z</time>
      </trkpt>
      <trkpt lat="46.252140998840332" lon="8.013474941253662">
        <ele>2131.380126953125</ele>
        <time>2008-07-27T08:20:54Z</time>
      </trkpt>
      <trkpt lat="46.252140998840332" lon="8.013389110565186">
        <ele>2132.341552734375</ele>
        <time>2008-07-27T08:21:03Z</time>
      </trkpt>
      <trkpt lat="46.252119541168213" lon="8.013260364532471">
        <ele>2133.302734375</ele>
        <time>2008-07-27T08:21:14Z</time>
      </trkpt>
      <trkpt lat="46.252055168151855" lon="8.013131618499756">
        <ele>2135.7060546875</ele>
        <time>2008-07-27T08:21:26Z</time>
      </trkpt>
      <trkpt lat="46.252033710479736" lon="8.013067245483398">
        <ele>2135.7060546875</ele>
        <time>2008-07-27T08:21:34Z</time>
      </trkpt>
      <trkpt lat="46.252012252807617" lon="8.012981414794922">
        <ele>2135.225341796875</ele>
        <time>2008-07-27T08:21:42Z</time>
      </trkpt>
      <trkpt lat="46.251969337463379" lon="8.012874126434326">
        <ele>2134.744873046875</ele>
        <time>2008-07-27T08:21:52Z</time>
      </trkpt>
      <trkpt lat="46.251926422119141" lon="8.012745380401611">
        <ele>2135.7060546875</ele>
        <time>2008-07-27T08:22:03Z</time>
      </trkpt>
      <trkpt lat="46.251904964447021" lon="8.012681007385254">
        <ele>2136.667236328125</ele>
        <time>2008-07-27T08:22:13Z</time>
      </trkpt>
      <trkpt lat="46.251904964447021" lon="8.012681007385254">
        <ele>2136.667236328125</ele>
        <time>2008-07-27T08:22:21Z</time>
      </trkpt>
      <trkpt lat="46.251904964447021" lon="8.012616634368897">
        <ele>2140.0322265625</ele>
        <time>2008-07-27T08:22:43Z</time>
      </trkpt>
      <trkpt lat="46.251862049102783" lon="8.01253080368042">
        <ele>2140.5126953125</ele>
        <time>2008-07-27T08:22:51Z</time>
      </trkpt>
      <trkpt lat="46.251840591430664" lon="8.012423515319824">
        <ele>2141.47412109375</ele>
        <time>2008-07-27T08:23:00Z</time>
      </trkpt>
      <trkpt lat="46.251819133758545" lon="8.012294769287109">
        <ele>2140.993408203125</ele>
        <time>2008-07-27T08:23:12Z</time>
      </trkpt>
      <trkpt lat="46.251776218414307" lon="8.012230396270752">
        <ele>2140.5126953125</ele>
        <time>2008-07-27T08:23:19Z</time>
      </trkpt>
      <trkpt lat="46.251711845397949" lon="8.012101650238037">
        <ele>2140.0322265625</ele>
        <time>2008-07-27T08:23:31Z</time>
      </trkpt>
      <trkpt lat="46.251668930053711" lon="8.011994361877441">
        <ele>2140.5126953125</ele>
        <time>2008-07-27T08:23:41Z</time>
      </trkpt>
      <trkpt lat="46.251626014709473" lon="8.011844158172607">
        <ele>2140.993408203125</ele>
        <time>2008-07-27T08:23:53Z</time>
      </trkpt>
      <trkpt lat="46.251583099365234" lon="8.011736869812012">
        <ele>2142.916015625</ele>
        <time>2008-07-27T08:24:03Z</time>
      </trkpt>
      <trkpt lat="46.251561641693115" lon="8.011651039123535">
        <ele>2144.838623046875</ele>
        <time>2008-07-27T08:24:12Z</time>
      </trkpt>
      <trkpt lat="46.251518726348877" lon="8.011629581451416">
        <ele>2145.3193359375</ele>
        <time>2008-07-27T08:24:19Z</time>
      </trkpt>
      <trkpt lat="46.25145435333252" lon="8.01152229309082">
        <ele>2147.241943359375</ele>
        <time>2008-07-27T08:24:31Z</time>
      </trkpt>
      <trkpt lat="46.251389980316162" lon="8.011436462402344">
        <ele>2148.203125</ele>
        <time>2008-07-27T08:24:43Z</time>
      </trkpt>
      <trkpt lat="46.251347064971924" lon="8.011372089385986">
        <ele>2149.645263671875</ele>
        <time>2008-07-27T08:24:52Z</time>
      </trkpt>
      <trkpt lat="46.251304149627686" lon="8.01128625869751">
        <ele>2150.1259765625</ele>
        <time>2008-07-27T08:25:01Z</time>
      </trkpt>
      <trkpt lat="46.251261234283447" lon="8.011200428009033">
        <ele>2151.087158203125</ele>
        <time>2008-07-27T08:25:11Z</time>
      </trkpt>
      <trkpt lat="46.251218318939209" lon="8.011136054992676">
        <ele>2151.087158203125</ele>
        <time>2008-07-27T08:25:19Z</time>
      </trkpt>
      <trkpt lat="46.251132488250732" lon="8.011071681976318">
        <ele>2151.56787109375</ele>
        <time>2008-07-27T08:25:29Z</time>
      </trkpt>
      <trkpt lat="46.251046657562256" lon="8.01102876663208">
        <ele>2152.04833984375</ele>
        <time>2008-07-27T08:25:41Z</time>
      </trkpt>
      <trkpt lat="46.251003742218018" lon="8.010985851287842">
        <ele>2152.04833984375</ele>
        <time>2008-07-27T08:26:04Z</time>
      </trkpt>
      <trkpt lat="46.25093936920166" lon="8.010900020599365">
        <ele>2153.490478515625</ele>
        <time>2008-07-27T08:26:14Z</time>
      </trkpt>
      <trkpt lat="46.250874996185303" lon="8.010814189910889">
        <ele>2155.4130859375</ele>
        <time>2008-07-27T08:26:27Z</time>
      </trkpt>
      <trkpt lat="46.250917911529541" lon="8.01079273223877">
        <ele>2157.816650390625</ele>
        <time>2008-07-27T08:26:37Z</time>
      </trkpt>
      <trkpt lat="46.251003742218018" lon="8.01077127456665">
        <ele>2160.2197265625</ele>
        <time>2008-07-27T08:26:46Z</time>
      </trkpt>
      <trkpt lat="46.251046657562256" lon="8.01077127456665">
        <ele>2160.2197265625</ele>
        <time>2008-07-27T08:26:54Z</time>
      </trkpt>
      <trkpt lat="46.251111030578613" lon="8.010728359222412">
        <ele>2161.18115234375</ele>
        <time>2008-07-27T08:27:04Z</time>
      </trkpt>
      <trkpt lat="46.251153945922852" lon="8.010663986206055">
        <ele>2163.584228515625</ele>
        <time>2008-07-27T08:27:12Z</time>
      </trkpt>
      <trkpt lat="46.251132488250732" lon="8.010556697845459">
        <ele>2165.0263671875</ele>
        <time>2008-07-27T08:27:21Z</time>
      </trkpt>
      <trkpt lat="46.251111030578613" lon="8.010513782501221">
        <ele>2165.987548828125</ele>
        <time>2008-07-27T08:27:28Z</time>
      </trkpt>
      <trkpt lat="46.251068115234375" lon="8.010406494140625">
        <ele>2166.948974609375</ele>
        <time>2008-07-27T08:27:40Z</time>
      </trkpt>
      <trkpt lat="46.251025199890137" lon="8.010299205780029">
        <ele>2168.390869140625</ele>
        <time>2008-07-27T08:27:50Z</time>
      </trkpt>
      <trkpt lat="46.251003742218018" lon="8.010256290435791">
        <ele>2169.832763671875</ele>
        <time>2008-07-27T08:28:00Z</time>
      </trkpt>
      <trkpt lat="46.250960826873779" lon="8.010191917419434">
        <ele>2172.717041015625</ele>
        <time>2008-07-27T08:28:53Z</time>
      </trkpt>
      <trkpt lat="46.25093936920166" lon="8.010084629058838">
        <ele>2174.6396484375</ele>
        <time>2008-07-27T08:29:02Z</time>
      </trkpt>
      <trkpt lat="46.25093936920166" lon="8.010084629058838">
        <ele>2174.158935546875</ele>
        <time>2008-07-27T08:29:12Z</time>
      </trkpt>
      <trkpt lat="46.250960826873779" lon="8.010084629058838">
        <ele>2174.158935546875</ele>
        <time>2008-07-27T08:29:43Z</time>
      </trkpt>
      <trkpt lat="46.250982284545898" lon="8.010084629058838">
        <ele>2175.1201171875</ele>
        <time>2008-07-27T08:30:13Z</time>
      </trkpt>
      <trkpt lat="46.251025199890137" lon="8.010084629058838">
        <ele>2176.08154296875</ele>
        <time>2008-07-27T08:30:21Z</time>
      </trkpt>
      <trkpt lat="46.251068115234375" lon="8.010084629058838">
        <ele>2178.004150390625</ele>
        <time>2008-07-27T08:30:29Z</time>
      </trkpt>
      <trkpt lat="46.251111030578613" lon="8.010063171386719">
        <ele>2178.96533203125</ele>
        <time>2008-07-27T08:30:38Z</time>
      </trkpt>
      <trkpt lat="46.251175403594971" lon="8.0100417137146">
        <ele>2180.407470703125</ele>
        <time>2008-07-27T08:30:47Z</time>
      </trkpt>
      <trkpt lat="46.251239776611328" lon="8.009998798370361">
        <ele>2181.36865234375</ele>
        <time>2008-07-27T08:30:57Z</time>
      </trkpt>
      <trkpt lat="46.251282691955566" lon="8.009955883026123">
        <ele>2182.810546875</ele>
        <time>2008-07-27T08:31:05Z</time>
      </trkpt>
      <trkpt lat="46.251304149627686" lon="8.009870052337647">
        <ele>2184.252685546875</ele>
        <time>2008-07-27T08:31:13Z</time>
      </trkpt>
      <trkpt lat="46.251325607299805" lon="8.009827136993408">
        <ele>2185.694580078125</ele>
        <time>2008-07-27T08:31:20Z</time>
      </trkpt>
      <trkpt lat="46.251389980316162" lon="8.009741306304932">
        <ele>2187.6171875</ele>
        <time>2008-07-27T08:31:31Z</time>
      </trkpt>
      <trkpt lat="46.251411437988281" lon="8.009719848632813">
        <ele>2188.09814453125</ele>
        <time>2008-07-27T08:31:33Z</time>
      </trkpt>
      <trkpt lat="46.251475811004639" lon="8.009655475616455">
        <ele>2188.578857421875</ele>
        <time>2008-07-27T08:31:43Z</time>
      </trkpt>
      <trkpt lat="46.251540184020996" lon="8.009569644927979">
        <ele>2190.020751953125</ele>
        <time>2008-07-27T08:31:52Z</time>
      </trkpt>
      <trkpt lat="46.251540184020996" lon="8.009505271911621">
        <ele>2190.501220703125</ele>
        <time>2008-07-27T08:32:00Z</time>
      </trkpt>
      <trkpt lat="46.251518726348877" lon="8.009376525878906">
        <ele>2190.501220703125</ele>
        <time>2008-07-27T08:32:12Z</time>
      </trkpt>
      <trkpt lat="46.251518726348877" lon="8.009355068206787">
        <ele>2190.501220703125</ele>
        <time>2008-07-27T08:32:13Z</time>
      </trkpt>
      <trkpt lat="46.251518726348877" lon="8.009204864501953">
        <ele>2190.501220703125</ele>
        <time>2008-07-27T08:32:25Z</time>
      </trkpt>
      <trkpt lat="46.251497268676758" lon="8.009054660797119">
        <ele>2190.501220703125</ele>
        <time>2008-07-27T08:32:37Z</time>
      </trkpt>
      <trkpt lat="46.25145435333252" lon="8.008861541748047">
        <ele>2190.501220703125</ele>
        <time>2008-07-27T08:32:50Z</time>
      </trkpt>
      <trkpt lat="46.2514328956604" lon="8.008711338043213">
        <ele>2190.501220703125</ele>
        <time>2008-07-27T08:33:02Z</time>
      </trkpt>
      <trkpt lat="46.2514328956604" lon="8.008646965026856">
        <ele>2190.020751953125</ele>
        <time>2008-07-27T08:33:12Z</time>
      </trkpt>
      <trkpt lat="46.251411437988281" lon="8.00853967666626">
        <ele>2190.98193359375</ele>
        <time>2008-07-27T08:35:38Z</time>
      </trkpt>
      <trkpt lat="46.251389980316162" lon="8.008496761322022">
        <ele>2191.943359375</ele>
        <time>2008-07-27T08:35:46Z</time>
      </trkpt>
      <trkpt lat="46.251368522644043" lon="8.008389472961426">
        <ele>2194.346435546875</ele>
        <time>2008-07-27T08:35:56Z</time>
      </trkpt>
      <trkpt lat="46.251347064971924" lon="8.008325099945068">
        <ele>2196.269287109375</ele>
        <time>2008-07-27T08:36:05Z</time>
      </trkpt>
      <trkpt lat="46.251325607299805" lon="8.008260726928711">
        <ele>2198.191650390625</ele>
        <time>2008-07-27T08:36:13Z</time>
      </trkpt>
      <trkpt lat="46.251282691955566" lon="8.008196353912354">
        <ele>2199.153076171875</ele>
        <time>2008-07-27T08:36:21Z</time>
      </trkpt>
      <trkpt lat="46.251282691955566" lon="8.008110523223877">
        <ele>2201.556396484375</ele>
        <time>2008-07-27T08:36:31Z</time>
      </trkpt>
      <trkpt lat="46.251261234283447" lon="8.0080246925354">
        <ele>2203.47900390625</ele>
        <time>2008-07-27T08:36:41Z</time>
      </trkpt>
      <trkpt lat="46.251218318939209" lon="8.007917404174805">
        <ele>2204.921142578125</ele>
        <time>2008-07-27T08:36:52Z</time>
      </trkpt>
      <trkpt lat="46.25119686126709" lon="8.007810115814209">
        <ele>2206.84375</ele>
        <time>2008-07-27T08:37:03Z</time>
      </trkpt>
      <trkpt lat="46.251153945922852" lon="8.007681369781494">
        <ele>2208.28564453125</ele>
        <time>2008-07-27T08:37:16Z</time>
      </trkpt>
      <trkpt lat="46.251132488250732" lon="8.007595539093018">
        <ele>2210.208251953125</ele>
        <time>2008-07-27T08:37:26Z</time>
      </trkpt>
      <trkpt lat="46.251111030578613" lon="8.007509708404541">
        <ele>2211.650390625</ele>
        <time>2008-07-27T08:37:37Z</time>
      </trkpt>
      <trkpt lat="46.251068115234375" lon="8.007402420043945">
        <ele>2212.611572265625</ele>
        <time>2008-07-27T08:37:48Z</time>
      </trkpt>
      <trkpt lat="46.251046657562256" lon="8.00729513168335">
        <ele>2215.014892578125</ele>
        <time>2008-07-27T08:37:59Z</time>
      </trkpt>
      <trkpt lat="46.251003742218018" lon="8.007187843322754">
        <ele>2216.456787109375</ele>
        <time>2008-07-27T08:38:11Z</time>
      </trkpt>
      <trkpt lat="46.25093936920166" lon="8.007080554962158">
        <ele>2217.898681640625</ele>
        <time>2008-07-27T08:38:22Z</time>
      </trkpt>
      <trkpt lat="46.250874996185303" lon="8.007016181945801">
        <ele>2218.860107421875</ele>
        <time>2008-07-27T08:38:32Z</time>
      </trkpt>
      <trkpt lat="46.250896453857422" lon="8.006908893585205">
        <ele>2219.8212890625</ele>
        <time>2008-07-27T08:38:42Z</time>
      </trkpt>
      <trkpt lat="46.25093936920166" lon="8.006823062896729">
        <ele>2220.30224609375</ele>
        <time>2008-07-27T08:38:51Z</time>
      </trkpt>
      <trkpt lat="46.25093936920166" lon="8.006801605224609">
        <ele>2220.30224609375</ele>
        <time>2008-07-27T08:38:53Z</time>
      </trkpt>
      <trkpt lat="46.250917911529541" lon="8.006651401519775">
        <ele>2220.30224609375</ele>
        <time>2008-07-27T08:39:04Z</time>
      </trkpt>
      <trkpt lat="46.250896453857422" lon="8.006501197814941">
        <ele>2220.782958984375</ele>
        <time>2008-07-27T08:39:15Z</time>
      </trkpt>
      <trkpt lat="46.250896453857422" lon="8.006372451782227">
        <ele>2221.744140625</ele>
        <time>2008-07-27T08:39:26Z</time>
      </trkpt>
      <trkpt lat="46.250874996185303" lon="8.006222248077393">
        <ele>2222.224853515625</ele>
        <time>2008-07-27T08:39:38Z</time>
      </trkpt>
      <trkpt lat="46.250853538513184" lon="8.006093502044678">
        <ele>2223.666748046875</ele>
        <time>2008-07-27T08:39:49Z</time>
      </trkpt>
      <trkpt lat="46.250789165496826" lon="8.005986213684082">
        <ele>2224.628173828125</ele>
        <time>2008-07-27T08:40:00Z</time>
      </trkpt>
      <trkpt lat="46.250789165496826" lon="8.005857467651367">
        <ele>2226.070068359375</ele>
        <time>2008-07-27T08:40:10Z</time>
      </trkpt>
      <trkpt lat="46.250767707824707" lon="8.005707263946533">
        <ele>2227.99267578125</ele>
        <time>2008-07-27T08:40:23Z</time>
      </trkpt>
      <trkpt lat="46.250767707824707" lon="8.005664348602295">
        <ele>2227.99267578125</ele>
        <time>2008-07-27T08:40:26Z</time>
      </trkpt>
      <trkpt lat="46.250767707824707" lon="8.005621433258057">
        <ele>2228.473388671875</ele>
        <time>2008-07-27T08:40:29Z</time>
      </trkpt>
      <trkpt lat="46.250767707824707" lon="8.005471229553223">
        <ele>2228.473388671875</ele>
        <time>2008-07-27T08:40:41Z</time>
      </trkpt>
      <trkpt lat="46.250746250152588" lon="8.005321025848389">
        <ele>2229.915283203125</ele>
        <time>2008-07-27T08:40:52Z</time>
      </trkpt>
      <trkpt lat="46.250767707824707" lon="8.005192279815674">
        <ele>2230.876708984375</ele>
        <time>2008-07-27T08:41:02Z</time>
      </trkpt>
      <trkpt lat="46.250767707824707" lon="8.005063533782959">
        <ele>2231.837890625</ele>
        <time>2008-07-27T08:41:13Z</time>
      </trkpt>
      <trkpt lat="46.250767707824707" lon="8.004934787750244">
        <ele>2233.27978515625</ele>
        <time>2008-07-27T08:41:24Z</time>
      </trkpt>
      <trkpt lat="46.250767707824707" lon="8.00478458404541">
        <ele>2234.2412109375</ele>
        <time>2008-07-27T08:41:35Z</time>
      </trkpt>
      <trkpt lat="46.250746250152588" lon="8.004655838012695">
        <ele>2235.68310546875</ele>
        <time>2008-07-27T08:41:47Z</time>
      </trkpt>
      <trkpt lat="46.250767707824707" lon="8.0045485496521">
        <ele>2236.64453125</ele>
        <time>2008-07-27T08:41:56Z</time>
      </trkpt>
      <trkpt lat="46.250767707824707" lon="8.004398345947266">
        <ele>2237.60595703125</ele>
        <time>2008-07-27T08:42:07Z</time>
      </trkpt>
      <trkpt lat="46.250746250152588" lon="8.004269599914551">
        <ele>2237.60595703125</ele>
        <time>2008-07-27T08:42:17Z</time>
      </trkpt>
      <trkpt lat="46.250767707824707" lon="8.004162311553955">
        <ele>2237.60595703125</ele>
        <time>2008-07-27T08:42:26Z</time>
      </trkpt>
      <trkpt lat="46.250789165496826" lon="8.004055023193359">
        <ele>2238.5673828125</ele>
        <time>2008-07-27T08:42:35Z</time>
      </trkpt>
      <trkpt lat="46.250789165496826" lon="8.003947734832764">
        <ele>2239.0478515625</ele>
        <time>2008-07-27T08:42:44Z</time>
      </trkpt>
      <trkpt lat="46.250789165496826" lon="8.003926277160645">
        <ele>2238.5673828125</ele>
        <time>2008-07-27T08:42:46Z</time>
      </trkpt>
      <trkpt lat="46.250746250152588" lon="8.003733158111572">
        <ele>2239.528564453125</ele>
        <time>2008-07-27T08:43:00Z</time>
      </trkpt>
      <trkpt lat="46.250767707824707" lon="8.003582954406738">
        <ele>2240.48974609375</ele>
        <time>2008-07-27T08:43:12Z</time>
      </trkpt>
      <trkpt lat="46.250767707824707" lon="8.003454208374023">
        <ele>2240.48974609375</ele>
        <time>2008-07-27T08:43:23Z</time>
      </trkpt>
      <trkpt lat="46.250767707824707" lon="8.00330400466919">
        <ele>2242.41259765625</ele>
        <time>2008-07-27T08:43:35Z</time>
      </trkpt>
      <trkpt lat="46.250767707824707" lon="8.003153800964356">
        <ele>2244.3349609375</ele>
        <time>2008-07-27T08:43:48Z</time>
      </trkpt>
      <trkpt lat="46.250767707824707" lon="8.003025054931641">
        <ele>2245.777099609375</ele>
        <time>2008-07-27T08:43:59Z</time>
      </trkpt>
      <trkpt lat="46.250767707824707" lon="8.002853393554688">
        <ele>2246.2578125</ele>
        <time>2008-07-27T08:44:12Z</time>
      </trkpt>
      <trkpt lat="46.250746250152588" lon="8.002724647521973">
        <ele>2246.73828125</ele>
        <time>2008-07-27T08:44:23Z</time>
      </trkpt>
      <trkpt lat="46.250767707824707" lon="8.002617359161377">
        <ele>2247.218994140625</ele>
        <time>2008-07-27T08:44:31Z</time>
      </trkpt>
      <trkpt lat="46.250767707824707" lon="8.002488613128662">
        <ele>2248.18017578125</ele>
        <time>2008-07-27T08:44:41Z</time>
      </trkpt>
      <trkpt lat="46.250810623168945" lon="8.002359867095947">
        <ele>2248.660888671875</ele>
        <time>2008-07-27T08:44:52Z</time>
      </trkpt>
      <trkpt lat="46.250810623168945" lon="8.002252578735352">
        <ele>2249.1416015625</ele>
        <time>2008-07-27T08:45:02Z</time>
      </trkpt>
      <trkpt lat="46.250789165496826" lon="8.002123832702637">
        <ele>2250.10302734375</ele>
        <time>2008-07-27T08:45:13Z</time>
      </trkpt>
      <trkpt lat="46.250724792480469" lon="8.001995086669922">
        <ele>2250.58349609375</ele>
        <time>2008-07-27T08:45:25Z</time>
      </trkpt>
      <trkpt lat="46.25068187713623" lon="8.001887798309326">
        <ele>2252.50634765625</ele>
        <time>2008-07-27T08:45:37Z</time>
      </trkpt>
      <trkpt lat="46.250638961791992" lon="8.00180196762085">
        <ele>2254.428955078125</ele>
        <time>2008-07-27T08:45:46Z</time>
      </trkpt>
      <trkpt lat="46.250617504119873" lon="8.001694679260254">
        <ele>2255.390380859375</ele>
        <time>2008-07-27T08:45:56Z</time>
      </trkpt>
      <trkpt lat="46.250596046447754" lon="8.001673221588135">
        <ele>2255.390380859375</ele>
        <time>2008-07-27T08:45:59Z</time>
      </trkpt>
      <trkpt lat="46.250553131103516" lon="8.001565933227539">
        <ele>2256.3515625</ele>
        <time>2008-07-27T08:46:09Z</time>
      </trkpt>
      <trkpt lat="46.250531673431396" lon="8.001523017883301">
        <ele>2256.832275390625</ele>
        <time>2008-07-27T08:46:14Z</time>
      </trkpt>
      <trkpt lat="46.250488758087158" lon="8.001415729522705">
        <ele>2257.793701171875</ele>
        <time>2008-07-27T08:46:25Z</time>
      </trkpt>
      <trkpt lat="46.250402927398682" lon="8.001308441162109">
        <ele>2258.7548828125</ele>
        <time>2008-07-27T08:46:37Z</time>
      </trkpt>
      <trkpt lat="46.250402927398682" lon="8.001308441162109">
        <ele>2259.235595703125</ele>
        <time>2008-07-27T08:46:45Z</time>
      </trkpt>
      <trkpt lat="46.250360012054443" lon="8.001244068145752">
        <ele>2262.60009765625</ele>
        <time>2008-07-27T08:47:04Z</time>
      </trkpt>
      <trkpt lat="46.250317096710205" lon="8.001136779785156">
        <ele>2263.561279296875</ele>
        <time>2008-07-27T08:47:17Z</time>
      </trkpt>
      <trkpt lat="46.250231266021729" lon="8.001008033752441">
        <ele>2265.00341796875</ele>
        <time>2008-07-27T08:47:31Z</time>
      </trkpt>
      <trkpt lat="46.25018835067749" lon="8.000879287719727">
        <ele>2267.406494140625</ele>
        <time>2008-07-27T08:47:44Z</time>
      </trkpt>
      <trkpt lat="46.250145435333252" lon="8.000750541687012">
        <ele>2269.32958984375</ele>
        <time>2008-07-27T08:47:56Z</time>
      </trkpt>
      <trkpt lat="46.250102519989014" lon="8.000621795654297">
        <ele>2269.81005859375</ele>
        <time>2008-07-27T08:48:08Z</time>
      </trkpt>
      <trkpt lat="46.250102519989014" lon="8.000493049621582">
        <ele>2271.732666015625</ele>
        <time>2008-07-27T08:48:20Z</time>
      </trkpt>
      <trkpt lat="46.250059604644775" lon="8.000342845916748">
        <ele>2272.694091796875</ele>
        <time>2008-07-27T08:48:35Z</time>
      </trkpt>
      <trkpt lat="46.250038146972656" lon="8.000235557556152">
        <ele>2274.61669921875</ele>
        <time>2008-07-27T08:48:46Z</time>
      </trkpt>
      <trkpt lat="46.249995231628418" lon="8.000128269195557">
        <ele>2276.539306640625</ele>
        <time>2008-07-27T08:48:57Z</time>
      </trkpt>
      <trkpt lat="46.249973773956299" lon="7.999999523162842">
        <ele>2277.50048828125</ele>
        <time>2008-07-27T08:49:08Z</time>
      </trkpt>
      <trkpt lat="46.24995231628418" lon="7.999978065490723">
        <ele>2277.981201171875</ele>
        <time>2008-07-27T08:49:12Z</time>
      </trkpt>
      <trkpt lat="46.249866485595703" lon="7.999956607818604">
        <ele>2279.90380859375</ele>
        <time>2008-07-27T08:49:22Z</time>
      </trkpt>
      <trkpt lat="46.249802112579346" lon="7.999913692474365">
        <ele>2281.826416015625</ele>
        <time>2008-07-27T08:49:34Z</time>
      </trkpt>
      <trkpt lat="46.249759197235107" lon="7.999827861785889">
        <ele>2283.268310546875</ele>
        <time>2008-07-27T08:49:45Z</time>
      </trkpt>
      <trkpt lat="46.249737739562988" lon="7.999720573425293">
        <ele>2285.191162109375</ele>
        <time>2008-07-27T08:49:56Z</time>
      </trkpt>
      <trkpt lat="46.24969482421875" lon="7.999591827392578">
        <ele>2288.0751953125</ele>
        <time>2008-07-27T08:50:08Z</time>
      </trkpt>
      <trkpt lat="46.249673366546631" lon="7.999463081359863">
        <ele>2290.958984375</ele>
        <time>2008-07-27T08:50:21Z</time>
      </trkpt>
      <trkpt lat="46.249630451202393" lon="7.999312877655029">
        <ele>2291.92041015625</ele>
        <time>2008-07-27T08:50:34Z</time>
      </trkpt>
      <trkpt lat="46.249630451202393" lon="7.999205589294434">
        <ele>2291.92041015625</ele>
        <time>2008-07-27T08:50:44Z</time>
      </trkpt>
      <trkpt lat="46.249608993530273" lon="7.999119758605957">
        <ele>2291.92041015625</ele>
        <time>2008-07-27T08:50:53Z</time>
      </trkpt>
      <trkpt lat="46.249523162841797" lon="7.999162673950195">
        <ele>2294.323486328125</ele>
        <time>2008-07-27T08:51:03Z</time>
      </trkpt>
      <trkpt lat="46.249480247497559" lon="7.999098300933838">
        <ele>2295.284912109375</ele>
        <time>2008-07-27T08:51:12Z</time>
      </trkpt>
      <trkpt lat="46.24943733215332" lon="7.998991012573242">
        <ele>2293.843017578125</ele>
        <time>2008-07-27T08:51:24Z</time>
      </trkpt>
      <trkpt lat="46.249458789825439" lon="7.998905181884766">
        <ele>2294.80419921875</ele>
        <time>2008-07-27T08:51:35Z</time>
      </trkpt>
      <trkpt lat="46.24943733215332" lon="7.99879789352417">
        <ele>2295.765625</ele>
        <time>2008-07-27T08:51:46Z</time>
      </trkpt>
      <trkpt lat="46.249480247497559" lon="7.998690605163574">
        <ele>2301.53369140625</ele>
        <time>2008-07-27T08:51:59Z</time>
      </trkpt>
      <trkpt lat="46.249458789825439" lon="7.998604774475098">
        <ele>2301.53369140625</ele>
        <time>2008-07-27T08:52:10Z</time>
      </trkpt>
      <trkpt lat="46.24943733215332" lon="7.998604774475098">
        <ele>2303.456298828125</ele>
        <time>2008-07-27T08:52:20Z</time>
      </trkpt>
      <trkpt lat="46.249394416809082" lon="7.998669147491455">
        <ele>2309.70458984375</ele>
        <time>2008-07-27T08:54:11Z</time>
      </trkpt>
      <trkpt lat="46.249330043792725" lon="7.998690605163574">
        <ele>2311.146728515625</ele>
        <time>2008-07-27T08:54:23Z</time>
      </trkpt>
      <trkpt lat="46.249372959136963" lon="7.998583316802979">
        <ele>2314.51123046875</ele>
        <time>2008-07-27T08:54:32Z</time>
      </trkpt>
      <trkpt lat="46.249394416809082" lon="7.998411655426025">
        <ele>2311.62744140625</ele>
        <time>2008-07-27T08:54:47Z</time>
      </trkpt>
      <trkpt lat="46.249458789825439" lon="7.998390197753906">
        <ele>2312.588623046875</ele>
        <time>2008-07-27T08:54:54Z</time>
      </trkpt>
      <trkpt lat="46.24943733215332" lon="7.998368740081787">
        <ele>2314.030517578125</ele>
        <time>2008-07-27T08:55:01Z</time>
      </trkpt>
      <trkpt lat="46.249372959136963" lon="7.998325824737549">
        <ele>2316.914794921875</ele>
        <time>2008-07-27T08:55:13Z</time>
      </trkpt>
      <trkpt lat="46.249287128448486" lon="7.998325824737549">
        <ele>2319.318115234375</ele>
        <time>2008-07-27T08:55:24Z</time>
      </trkpt>
      <trkpt lat="46.249222755432129" lon="7.998282909393311">
        <ele>2320.279296875</ele>
        <time>2008-07-27T08:55:35Z</time>
      </trkpt>
      <trkpt lat="46.249179840087891" lon="7.998197078704834">
        <ele>2320.279296875</ele>
        <time>2008-07-27T08:55:46Z</time>
      </trkpt>
      <trkpt lat="46.249158382415771" lon="7.998068332672119">
        <ele>2322.6826171875</ele>
        <time>2008-07-27T08:55:58Z</time>
      </trkpt>
      <trkpt lat="46.249094009399414" lon="7.998025417327881">
        <ele>2325.085693359375</ele>
        <time>2008-07-27T08:56:08Z</time>
      </trkpt>
      <trkpt lat="46.249029636383057" lon="7.997961044311523">
        <ele>2327.008544921875</ele>
        <time>2008-07-27T08:56:18Z</time>
      </trkpt>
      <trkpt lat="46.249029636383057" lon="7.997875213623047">
        <ele>2328.930908203125</ele>
        <time>2008-07-27T08:56:29Z</time>
      </trkpt>
      <trkpt lat="46.249029636383057" lon="7.997767925262451">
        <ele>2332.2958984375</ele>
        <time>2008-07-27T08:56:43Z</time>
      </trkpt>
      <trkpt lat="46.249051094055176" lon="7.997660636901856">
        <ele>2335.660400390625</ele>
        <time>2008-07-27T08:56:53Z</time>
      </trkpt>
      <trkpt lat="46.249029636383057" lon="7.997596263885498">
        <ele>2335.660400390625</ele>
        <time>2008-07-27T08:57:03Z</time>
      </trkpt>
      <trkpt lat="46.249115467071533" lon="7.997574806213379">
        <ele>2339.986328125</ele>
        <time>2008-07-27T08:57:14Z</time>
      </trkpt>
      <trkpt lat="46.249179840087891" lon="7.997531890869141">
        <ele>2341.908935546875</ele>
        <time>2008-07-27T08:57:24Z</time>
      </trkpt>
      <trkpt lat="46.249222755432129" lon="7.997488975524902">
        <ele>2344.31201171875</ele>
        <time>2008-07-27T08:57:34Z</time>
      </trkpt>
      <trkpt lat="46.24920129776001" lon="7.997467517852783">
        <ele>2342.8701171875</ele>
        <time>2008-07-27T08:57:41Z</time>
      </trkpt>
      <trkpt lat="46.249136924743652" lon="7.997403144836426">
        <ele>2341.908935546875</ele>
        <time>2008-07-27T08:58:19Z</time>
      </trkpt>
      <trkpt lat="46.249115467071533" lon="7.99729585647583">
        <ele>2343.350830078125</ele>
        <time>2008-07-27T08:58:31Z</time>
      </trkpt>
      <trkpt lat="46.249072551727295" lon="7.997188568115234">
        <ele>2342.8701171875</ele>
        <time>2008-07-27T08:58:43Z</time>
      </trkpt>
      <trkpt lat="46.249094009399414" lon="7.997102737426758">
        <ele>2345.2734375</ele>
        <time>2008-07-27T08:58:54Z</time>
      </trkpt>
      <trkpt lat="46.249158382415771" lon="7.996995449066162">
        <ele>2348.63818359375</ele>
        <time>2008-07-27T08:59:06Z</time>
      </trkpt>
      <trkpt lat="46.249222755432129" lon="7.996888160705566">
        <ele>2353.44482421875</ele>
        <time>2008-07-27T08:59:17Z</time>
      </trkpt>
      <trkpt lat="46.249244213104248" lon="7.996823787689209">
        <ele>2352.964111328125</ele>
        <time>2008-07-27T08:59:28Z</time>
      </trkpt>
      <trkpt lat="46.249308586120605" lon="7.996737957000732">
        <ele>2355.847900390625</ele>
        <time>2008-07-27T08:59:40Z</time>
      </trkpt>
      <trkpt lat="46.249351501464844" lon="7.996652126312256">
        <ele>2358.73193359375</ele>
        <time>2008-07-27T08:59:51Z</time>
      </trkpt>
      <trkpt lat="46.249372959136963" lon="7.99654483795166">
        <ele>2359.212646484375</ele>
        <time>2008-07-27T09:00:02Z</time>
      </trkpt>
      <trkpt lat="46.249372959136963" lon="7.99654483795166">
        <ele>2358.251220703125</ele>
        <time>2008-07-27T09:00:15Z</time>
      </trkpt>
      <trkpt lat="46.249415874481201" lon="7.996459007263184">
        <ele>2362.096435546875</ele>
        <time>2008-07-27T09:00:37Z</time>
      </trkpt>
      <trkpt lat="46.24943733215332" lon="7.996351718902588">
        <ele>2364.980712890625</ele>
        <time>2008-07-27T09:00:48Z</time>
      </trkpt>
      <trkpt lat="46.249458789825439" lon="7.996265888214111">
        <ele>2367.3837890625</ele>
        <time>2008-07-27T09:00:57Z</time>
      </trkpt>
      <trkpt lat="46.249480247497559" lon="7.996180057525635">
        <ele>2369.306640625</ele>
        <time>2008-07-27T09:01:08Z</time>
      </trkpt>
      <trkpt lat="46.249523162841797" lon="7.996094226837158">
        <ele>2371.22900390625</ele>
        <time>2008-07-27T09:01:19Z</time>
      </trkpt>
      <trkpt lat="46.249566078186035" lon="7.996029853820801">
        <ele>2372.1904296875</ele>
        <time>2008-07-27T09:01:31Z</time>
      </trkpt>
      <trkpt lat="46.249587535858154" lon="7.995965480804443">
        <ele>2370.74853515625</ele>
        <time>2008-07-27T09:01:42Z</time>
      </trkpt>
      <trkpt lat="46.249630451202393" lon="7.995879650115967">
        <ele>2391.416748046875</ele>
        <time>2008-07-27T09:02:25Z</time>
      </trkpt>
      <trkpt lat="46.24969482421875" lon="7.995815277099609">
        <ele>2389.013427734375</ele>
        <time>2008-07-27T09:02:36Z</time>
      </trkpt>
      <trkpt lat="46.249716281890869" lon="7.99579381942749">
        <ele>2387.0908203125</ele>
        <time>2008-07-27T09:02:47Z</time>
      </trkpt>
      <trkpt lat="46.249737739562988" lon="7.995729446411133">
        <ele>2379.400146484375</ele>
        <time>2008-07-27T09:05:49Z</time>
      </trkpt>
      <trkpt lat="46.249759197235107" lon="7.995643615722656">
        <ele>2379.400146484375</ele>
        <time>2008-07-27T09:05:58Z</time>
      </trkpt>
      <trkpt lat="46.249802112579346" lon="7.995514869689941">
        <ele>2383.726318359375</ele>
        <time>2008-07-27T09:06:08Z</time>
      </trkpt>
      <trkpt lat="46.249823570251465" lon="7.995407581329346">
        <ele>2386.610107421875</ele>
        <time>2008-07-27T09:06:18Z</time>
      </trkpt>
      <trkpt lat="46.249845027923584" lon="7.995278835296631">
        <ele>2388.532958984375</ele>
        <time>2008-07-27T09:06:29Z</time>
      </trkpt>
      <trkpt lat="46.249845027923584" lon="7.995214462280273">
        <ele>2387.571533203125</ele>
        <time>2008-07-27T09:06:38Z</time>
      </trkpt>
      <trkpt lat="46.249866485595703" lon="7.995128631591797">
        <ele>2388.05224609375</ele>
        <time>2008-07-27T09:06:49Z</time>
      </trkpt>
      <trkpt lat="46.249909400939941" lon="7.994999885559082">
        <ele>2389.974853515625</ele>
        <time>2008-07-27T09:07:02Z</time>
      </trkpt>
      <trkpt lat="46.24995231628418" lon="7.994935512542725">
        <ele>2391.416748046875</ele>
        <time>2008-07-27T09:07:12Z</time>
      </trkpt>
      <trkpt lat="46.249995231628418" lon="7.994849681854248">
        <ele>2393.33935546875</ele>
        <time>2008-07-27T09:07:24Z</time>
      </trkpt>
      <trkpt lat="46.250038146972656" lon="7.994742393493652">
        <ele>2393.33935546875</ele>
        <time>2008-07-27T09:07:37Z</time>
      </trkpt>
      <trkpt lat="46.250102519989014" lon="7.994635105133057">
        <ele>2399.107421875</ele>
        <time>2008-07-27T09:07:49Z</time>
      </trkpt>
      <trkpt lat="46.250123977661133" lon="7.994506359100342">
        <ele>2398.14599609375</ele>
        <time>2008-07-27T09:08:02Z</time>
      </trkpt>
      <trkpt lat="46.250123977661133" lon="7.994463443756104">
        <ele>2398.14599609375</ele>
        <time>2008-07-27T09:08:05Z</time>
      </trkpt>
      <trkpt lat="46.250166893005371" lon="7.994377613067627">
        <ele>2397.184814453125</ele>
        <time>2008-07-27T09:08:16Z</time>
      </trkpt>
      <trkpt lat="46.250209808349609" lon="7.994270324707031">
        <ele>2399.107421875</ele>
        <time>2008-07-27T09:08:27Z</time>
      </trkpt>
      <trkpt lat="46.250231266021729" lon="7.994141578674316">
        <ele>2401.5107421875</ele>
        <time>2008-07-27T09:08:39Z</time>
      </trkpt>
      <trkpt lat="46.250274181365967" lon="7.994012832641602">
        <ele>2406.7978515625</ele>
        <time>2008-07-27T09:08:51Z</time>
      </trkpt>
      <trkpt lat="46.250317096710205" lon="7.993905544281006">
        <ele>2406.7978515625</ele>
        <time>2008-07-27T09:09:03Z</time>
      </trkpt>
      <trkpt lat="46.250360012054443" lon="7.993819713592529">
        <ele>2409.201171875</ele>
        <time>2008-07-27T09:09:13Z</time>
      </trkpt>
      <trkpt lat="46.250381469726563" lon="7.993733882904053">
        <ele>2410.162353515625</ele>
        <time>2008-07-27T09:09:22Z</time>
      </trkpt>
      <trkpt lat="46.250402927398682" lon="7.993648052215576">
        <ele>2409.201171875</ele>
        <time>2008-07-27T09:09:34Z</time>
      </trkpt>
      <trkpt lat="46.250467300415039" lon="7.993540763854981">
        <ele>2413.046630859375</ele>
        <time>2008-07-27T09:09:47Z</time>
      </trkpt>
      <trkpt lat="46.250531673431396" lon="7.993454933166504">
        <ele>2415.449951171875</ele>
        <time>2008-07-27T09:10:00Z</time>
      </trkpt>
      <trkpt lat="46.250596046447754" lon="7.993347644805908">
        <ele>2417.85302734375</ele>
        <time>2008-07-27T09:10:11Z</time>
      </trkpt>
      <trkpt lat="46.250638961791992" lon="7.993261814117432">
        <ele>2417.85302734375</ele>
        <time>2008-07-27T09:10:22Z</time>
      </trkpt>
      <trkpt lat="46.250660419464111" lon="7.993175983428955">
        <ele>2417.372314453125</ele>
        <time>2008-07-27T09:10:33Z</time>
      </trkpt>
      <trkpt lat="46.25070333480835" lon="7.993133068084717">
        <ele>2419.295166015625</ele>
        <time>2008-07-27T09:10:41Z</time>
      </trkpt>
      <trkpt lat="46.250746250152588" lon="7.99304723739624">
        <ele>2420.25634765625</ele>
        <time>2008-07-27T09:10:51Z</time>
      </trkpt>
      <trkpt lat="46.250789165496826" lon="7.992918491363525">
        <ele>2420.25634765625</ele>
        <time>2008-07-27T09:11:03Z</time>
      </trkpt>
      <trkpt lat="46.250853538513184" lon="7.99281120300293">
        <ele>2418.814453125</ele>
        <time>2008-07-27T09:11:15Z</time>
      </trkpt>
      <trkpt lat="46.25093936920166" lon="7.992682456970215">
        <ele>2420.25634765625</ele>
        <time>2008-07-27T09:11:28Z</time>
      </trkpt>
      <trkpt lat="46.251025199890137" lon="7.992575168609619">
        <ele>2419.775634765625</ele>
        <time>2008-07-27T09:11:39Z</time>
      </trkpt>
      <trkpt lat="46.251111030578613" lon="7.992467880249023">
        <ele>2422.178955078125</ele>
        <time>2008-07-27T09:11:51Z</time>
      </trkpt>
      <trkpt lat="46.251175403594971" lon="7.992339134216309">
        <ele>2423.620849609375</ele>
        <time>2008-07-27T09:12:04Z</time>
      </trkpt>
      <trkpt lat="46.251261234283447" lon="7.992210388183594">
        <ele>2426.024169921875</ele>
        <time>2008-07-27T09:12:17Z</time>
      </trkpt>
      <trkpt lat="46.251304149627686" lon="7.992124557495117">
        <ele>2426.024169921875</ele>
        <time>2008-07-27T09:12:29Z</time>
      </trkpt>
      <trkpt lat="46.251368522644043" lon="7.99206018447876">
        <ele>2426.5048828125</ele>
        <time>2008-07-27T09:12:54Z</time>
      </trkpt>
      <trkpt lat="46.251411437988281" lon="7.991952896118164">
        <ele>2427.94677734375</ele>
        <time>2008-07-27T09:13:05Z</time>
      </trkpt>
      <trkpt lat="46.251475811004639" lon="7.991845607757568">
        <ele>2426.5048828125</ele>
        <time>2008-07-27T09:13:16Z</time>
      </trkpt>
      <trkpt lat="46.251540184020996" lon="7.991738319396973">
        <ele>2427.466064453125</ele>
        <time>2008-07-27T09:13:27Z</time>
      </trkpt>
      <trkpt lat="46.251604557037354" lon="7.991588115692139">
        <ele>2427.94677734375</ele>
        <time>2008-07-27T09:13:40Z</time>
      </trkpt>
      <trkpt lat="46.251647472381592" lon="7.991480827331543">
        <ele>2429.388916015625</ele>
        <time>2008-07-27T09:13:50Z</time>
      </trkpt>
      <trkpt lat="46.25169038772583" lon="7.991394996643066">
        <ele>2428.427734375</ele>
        <time>2008-07-27T09:14:01Z</time>
      </trkpt>
      <trkpt lat="46.251797676086426" lon="7.99130916595459">
        <ele>2431.3115234375</ele>
        <time>2008-07-27T09:14:12Z</time>
      </trkpt>
      <trkpt lat="46.251862049102783" lon="7.991180419921875">
        <ele>2433.71484375</ele>
        <time>2008-07-27T09:14:22Z</time>
      </trkpt>
      <trkpt lat="46.251904964447021" lon="7.99105167388916">
        <ele>2434.67626953125</ele>
        <time>2008-07-27T09:14:33Z</time>
      </trkpt>
      <trkpt lat="46.25194787979126" lon="7.990944385528565">
        <ele>2435.637451171875</ele>
        <time>2008-07-27T09:14:43Z</time>
      </trkpt>
      <trkpt lat="46.251969337463379" lon="7.990837097167969">
        <ele>2436.5986328125</ele>
        <time>2008-07-27T09:14:50Z</time>
      </trkpt>
      <trkpt lat="46.252033710479736" lon="7.990729808807373">
        <ele>2439.96337890625</ele>
        <time>2008-07-27T09:15:01Z</time>
      </trkpt>
      <trkpt lat="46.252055168151855" lon="7.990686893463135">
        <ele>2441.4052734375</ele>
        <time>2008-07-27T09:15:06Z</time>
      </trkpt>
      <trkpt lat="46.252140998840332" lon="7.990622520446777">
        <ele>2442.84716796875</ele>
        <time>2008-07-27T09:15:17Z</time>
      </trkpt>
      <trkpt lat="46.252162456512451" lon="7.990601062774658">
        <ele>2442.84716796875</ele>
        <time>2008-07-27T09:15:20Z</time>
      </trkpt>
      <trkpt lat="46.252226829528809" lon="7.990515232086182">
        <ele>2442.36669921875</ele>
        <time>2008-07-27T09:15:32Z</time>
      </trkpt>
      <trkpt lat="46.252291202545166" lon="7.990429401397705">
        <ele>2443.80859375</ele>
        <time>2008-07-27T09:15:42Z</time>
      </trkpt>
      <trkpt lat="46.252312660217285" lon="7.990365028381348">
        <ele>2444.289306640625</ele>
        <time>2008-07-27T09:15:46Z</time>
      </trkpt>
      <trkpt lat="46.252291202545166" lon="7.990214824676514">
        <ele>2445.250732421875</ele>
        <time>2008-07-27T09:15:57Z</time>
      </trkpt>
      <trkpt lat="46.252334117889404" lon="7.990128993988037">
        <ele>2446.212158203125</ele>
        <time>2008-07-27T09:16:07Z</time>
      </trkpt>
      <trkpt lat="46.252377033233643" lon="7.99006462097168">
        <ele>2447.17333984375</ele>
        <time>2008-07-27T09:16:15Z</time>
      </trkpt>
      <trkpt lat="46.25244140625" lon="7.990000247955322">
        <ele>2449.095947265625</ele>
        <time>2008-07-27T09:16:25Z</time>
      </trkpt>
      <trkpt lat="46.252505779266357" lon="7.989935874938965">
        <ele>2451.0185546875</ele>
        <time>2008-07-27T09:16:35Z</time>
      </trkpt>
      <trkpt lat="46.252548694610596" lon="7.989871501922607">
        <ele>2452.941162109375</ele>
        <time>2008-07-27T09:16:43Z</time>
      </trkpt>
      <trkpt lat="46.252613067626953" lon="7.989764213562012">
        <ele>2455.824951171875</ele>
        <time>2008-07-27T09:16:54Z</time>
      </trkpt>
      <trkpt lat="46.252655982971191" lon="7.989656925201416">
        <ele>2455.824951171875</ele>
        <time>2008-07-27T09:17:05Z</time>
      </trkpt>
      <trkpt lat="46.252720355987549" lon="7.98954963684082">
        <ele>2457.26708984375</ele>
        <time>2008-07-27T09:17:16Z</time>
      </trkpt>
      <trkpt lat="46.252763271331787" lon="7.989485263824463">
        <ele>2457.26708984375</ele>
        <time>2008-07-27T09:17:24Z</time>
      </trkpt>
      <trkpt lat="46.252784729003906" lon="7.989420890808106">
        <ele>2458.228271484375</ele>
        <time>2008-07-27T09:17:30Z</time>
      </trkpt>
      <trkpt lat="46.252849102020264" lon="7.989335060119629">
        <ele>2459.670166015625</ele>
        <time>2008-07-27T09:17:41Z</time>
      </trkpt>
      <trkpt lat="46.252892017364502" lon="7.989249229431152">
        <ele>2459.670166015625</ele>
        <time>2008-07-27T09:17:51Z</time>
      </trkpt>
      <trkpt lat="46.252956390380859" lon="7.989141941070557">
        <ele>2461.59326171875</ele>
        <time>2008-07-27T09:18:03Z</time>
      </trkpt>
      <trkpt lat="46.252999305725098" lon="7.98905611038208">
        <ele>2462.07373046875</ele>
        <time>2008-07-27T09:18:13Z</time>
      </trkpt>
      <trkpt lat="46.253042221069336" lon="7.988970279693604">
        <ele>2463.515625</ele>
        <time>2008-07-27T09:18:22Z</time>
      </trkpt>
      <trkpt lat="46.253085136413574" lon="7.988884449005127">
        <ele>2463.996337890625</ele>
        <time>2008-07-27T09:18:31Z</time>
      </trkpt>
      <trkpt lat="46.253149509429932" lon="7.988777160644531">
        <ele>2465.9189453125</ele>
        <time>2008-07-27T09:18:42Z</time>
      </trkpt>
      <trkpt lat="46.253170967102051" lon="7.988669872283936">
        <ele>2465.9189453125</ele>
        <time>2008-07-27T09:18:52Z</time>
      </trkpt>
      <trkpt lat="46.253235340118408" lon="7.988584041595459">
        <ele>2466.399658203125</ele>
        <time>2008-07-27T09:19:03Z</time>
      </trkpt>
      <trkpt lat="46.253321170806885" lon="7.988476753234863">
        <ele>2468.802978515625</ele>
        <time>2008-07-27T09:19:15Z</time>
      </trkpt>
      <trkpt lat="46.253385543823242" lon="7.988433837890625">
        <ele>2470.244873046875</ele>
        <time>2008-07-27T09:19:26Z</time>
      </trkpt>
      <trkpt lat="46.25342845916748" lon="7.988412380218506">
        <ele>2470.244873046875</ele>
        <time>2008-07-27T09:19:31Z</time>
      </trkpt>
      <trkpt lat="46.253514289855957" lon="7.988369464874268">
        <ele>2470.7255859375</ele>
        <time>2008-07-27T09:19:43Z</time>
      </trkpt>
      <trkpt lat="46.253600120544434" lon="7.988369464874268">
        <ele>2471.686767578125</ele>
        <time>2008-07-27T09:19:54Z</time>
      </trkpt>
      <trkpt lat="46.25368595123291" lon="7.988390922546387">
        <ele>2472.16748046875</ele>
        <time>2008-07-27T09:20:04Z</time>
      </trkpt>
      <trkpt lat="46.253793239593506" lon="7.988369464874268">
        <ele>2475.531982421875</ele>
        <time>2008-07-27T09:20:16Z</time>
      </trkpt>
      <trkpt lat="46.253857612609863" lon="7.988283634185791">
        <ele>2477.454833984375</ele>
        <time>2008-07-27T09:20:26Z</time>
      </trkpt>
      <trkpt lat="46.253900527954102" lon="7.988219261169434">
        <ele>2478.896728515625</ele>
        <time>2008-07-27T09:20:34Z</time>
      </trkpt>
      <trkpt lat="46.25394344329834" lon="7.988197803497315">
        <ele>2478.416259765625</ele>
        <time>2008-07-27T09:20:41Z</time>
      </trkpt>
      <trkpt lat="46.253986358642578" lon="7.988176345825195">
        <ele>2477.935546875</ele>
        <time>2008-07-27T09:20:52Z</time>
      </trkpt>
      <trkpt lat="46.254007816314697" lon="7.988154888153076">
        <ele>2479.37744140625</ele>
        <time>2008-07-27T09:21:01Z</time>
      </trkpt>
      <trkpt lat="46.254115104675293" lon="7.988133430480957">
        <ele>2480.3388671875</ele>
        <time>2008-07-27T09:21:49Z</time>
      </trkpt>
      <trkpt lat="46.254158020019531" lon="7.988090515136719">
        <ele>2480.819580078125</ele>
        <time>2008-07-27T09:21:59Z</time>
      </trkpt>
      <trkpt lat="46.254222393035889" lon="7.988047599792481">
        <ele>2481.300048828125</ele>
        <time>2008-07-27T09:22:10Z</time>
      </trkpt>
      <trkpt lat="46.254308223724365" lon="7.987983226776123">
        <ele>2484.18408203125</ele>
        <time>2008-07-27T09:22:22Z</time>
      </trkpt>
      <trkpt lat="46.254415512084961" lon="7.987961769104004">
        <ele>2487.06787109375</ele>
        <time>2008-07-27T09:22:33Z</time>
      </trkpt>
      <trkpt lat="46.254501342773437" lon="7.987875938415527">
        <ele>2488.990478515625</ele>
        <time>2008-07-27T09:22:47Z</time>
      </trkpt>
      <trkpt lat="46.254587173461914" lon="7.987854480743408">
        <ele>2489.951904296875</ele>
        <time>2008-07-27T09:22:58Z</time>
      </trkpt>
      <trkpt lat="46.254673004150391" lon="7.98781156539917">
        <ele>2491.87451171875</ele>
        <time>2008-07-27T09:23:08Z</time>
      </trkpt>
      <trkpt lat="46.254737377166748" lon="7.987768650054932">
        <ele>2492.35546875</ele>
        <time>2008-07-27T09:23:21Z</time>
      </trkpt>
      <trkpt lat="46.254780292510986" lon="7.987747192382813">
        <ele>2491.87451171875</ele>
        <time>2008-07-27T09:23:32Z</time>
      </trkpt>
      <trkpt lat="46.254801750183105" lon="7.987747192382813">
        <ele>2492.8359375</ele>
        <time>2008-07-27T09:23:42Z</time>
      </trkpt>
      <trkpt lat="46.254887580871582" lon="7.987747192382813">
        <ele>2495.719970703125</ele>
        <time>2008-07-27T09:23:59Z</time>
      </trkpt>
      <trkpt lat="46.254973411560059" lon="7.987704277038574">
        <ele>2499.08447265625</ele>
        <time>2008-07-27T09:24:12Z</time>
      </trkpt>
      <trkpt lat="46.255080699920654" lon="7.987682819366455">
        <ele>2500.5263671875</ele>
        <time>2008-07-27T09:24:24Z</time>
      </trkpt>
      <trkpt lat="46.255166530609131" lon="7.987639904022217">
        <ele>2503.410400390625</ele>
        <time>2008-07-27T09:24:35Z</time>
      </trkpt>
      <trkpt lat="46.255252361297607" lon="7.987618446350098">
        <ele>2505.3330078125</ele>
        <time>2008-07-27T09:24:44Z</time>
      </trkpt>
      <trkpt lat="46.255338191986084" lon="7.987575531005859">
        <ele>2507.255615234375</ele>
        <time>2008-07-27T09:24:56Z</time>
      </trkpt>
      <trkpt lat="46.25544548034668" lon="7.987532615661621">
        <ele>2509.178466796875</ele>
        <time>2008-07-27T09:25:08Z</time>
      </trkpt>
      <trkpt lat="46.255488395690918" lon="7.987489700317383">
        <ele>2511.10107421875</ele>
        <time>2008-07-27T09:25:17Z</time>
      </trkpt>
      <trkpt lat="46.255552768707275" lon="7.987425327301025">
        <ele>2512.062255859375</ele>
        <time>2008-07-27T09:25:26Z</time>
      </trkpt>
      <trkpt lat="46.255595684051514" lon="7.987360954284668">
        <ele>2512.54296875</ele>
        <time>2008-07-27T09:25:34Z</time>
      </trkpt>
      <trkpt lat="46.255638599395752" lon="7.987232208251953">
        <ele>2513.504150390625</ele>
        <time>2008-07-27T09:25:45Z</time>
      </trkpt>
      <trkpt lat="46.255660057067871" lon="7.987103462219238">
        <ele>2514.465576171875</ele>
        <time>2008-07-27T09:25:56Z</time>
      </trkpt>
      <trkpt lat="46.25568151473999" lon="7.986953258514404">
        <ele>2513.98486328125</ele>
        <time>2008-07-27T09:26:08Z</time>
      </trkpt>
      <trkpt lat="46.25568151473999" lon="7.98682451248169">
        <ele>2514.9462890625</ele>
        <time>2008-07-27T09:26:19Z</time>
      </trkpt>
      <trkpt lat="46.255702972412109" lon="7.986674308776856">
        <ele>2516.38818359375</ele>
        <time>2008-07-27T09:26:31Z</time>
      </trkpt>
      <trkpt lat="46.255724430084229" lon="7.986524105072022">
        <ele>2516.868896484375</ele>
        <time>2008-07-27T09:26:45Z</time>
      </trkpt>
      <trkpt lat="46.255745887756348" lon="7.986416816711426">
        <ele>2518.310791015625</ele>
        <time>2008-07-27T09:26:55Z</time>
      </trkpt>
      <trkpt lat="46.255788803100586" lon="7.986330986022949">
        <ele>2519.272216796875</ele>
        <time>2008-07-27T09:27:06Z</time>
      </trkpt>
      <trkpt lat="46.255853176116943" lon="7.986223697662354">
        <ele>2522.156005859375</ele>
        <time>2008-07-27T09:27:18Z</time>
      </trkpt>
      <trkpt lat="46.255917549133301" lon="7.986116409301758">
        <ele>2522.63671875</ele>
        <time>2008-07-27T09:27:29Z</time>
      </trkpt>
      <trkpt lat="46.255960464477539" lon="7.986009120941162">
        <ele>2523.117431640625</ele>
        <time>2008-07-27T09:27:39Z</time>
      </trkpt>
      <trkpt lat="46.256003379821777" lon="7.985923290252686">
        <ele>2526.482177734375</ele>
        <time>2008-07-27T09:27:49Z</time>
      </trkpt>
      <trkpt lat="46.256003379821777" lon="7.985794544219971">
        <ele>2528.88525390625</ele>
        <time>2008-07-27T09:27:59Z</time>
      </trkpt>
      <trkpt lat="46.256024837493896" lon="7.985687255859375">
        <ele>2530.80810546875</ele>
        <time>2008-07-27T09:28:10Z</time>
      </trkpt>
      <trkpt lat="46.256024837493896" lon="7.985579967498779">
        <ele>2533.69189453125</ele>
        <time>2008-07-27T09:28:20Z</time>
      </trkpt>
      <trkpt lat="46.256046295166016" lon="7.985451221466065">
        <ele>2536.57568359375</ele>
        <time>2008-07-27T09:28:31Z</time>
      </trkpt>
      <trkpt lat="46.256067752838135" lon="7.985343933105469">
        <ele>2537.537109375</ele>
        <time>2008-07-27T09:28:41Z</time>
      </trkpt>
      <trkpt lat="46.256067752838135" lon="7.985236644744873">
        <ele>2539.9404296875</ele>
        <time>2008-07-27T09:28:52Z</time>
      </trkpt>
      <trkpt lat="46.256024837493896" lon="7.985150814056397">
        <ele>2540.421142578125</ele>
        <time>2008-07-27T09:29:02Z</time>
      </trkpt>
      <trkpt lat="46.255960464477539" lon="7.98506498336792">
        <ele>2542.343994140625</ele>
        <time>2008-07-27T09:29:13Z</time>
      </trkpt>
      <trkpt lat="46.25593900680542" lon="7.985043525695801">
        <ele>2542.824462890625</ele>
        <time>2008-07-27T09:29:22Z</time>
      </trkpt>
      <trkpt lat="46.25593900680542" lon="7.984979152679443">
        <ele>2542.824462890625</ele>
        <time>2008-07-27T09:29:49Z</time>
      </trkpt>
      <trkpt lat="46.255981922149658" lon="7.984914779663086">
        <ele>2543.785888671875</ele>
        <time>2008-07-27T09:29:58Z</time>
      </trkpt>
      <trkpt lat="46.256024837493896" lon="7.984871864318848">
        <ele>2544.7470703125</ele>
        <time>2008-07-27T09:30:09Z</time>
      </trkpt>
      <trkpt lat="46.256046295166016" lon="7.98480749130249">
        <ele>2544.266357421875</ele>
        <time>2008-07-27T09:30:21Z</time>
      </trkpt>
      <trkpt lat="46.256132125854492" lon="7.984764575958252">
        <ele>2544.7470703125</ele>
        <time>2008-07-27T09:30:32Z</time>
      </trkpt>
      <trkpt lat="46.25619649887085" lon="7.984721660614014">
        <ele>2546.189208984375</ele>
        <time>2008-07-27T09:30:42Z</time>
      </trkpt>
      <trkpt lat="46.256282329559326" lon="7.984635829925537">
        <ele>2547.150390625</ele>
        <time>2008-07-27T09:30:54Z</time>
      </trkpt>
      <trkpt lat="46.256303787231445" lon="7.984549999237061">
        <ele>2549.5537109375</ele>
        <time>2008-07-27T09:31:02Z</time>
      </trkpt>
      <trkpt lat="46.256346702575684" lon="7.984485626220703">
        <ele>2551.956787109375</ele>
        <time>2008-07-27T09:31:12Z</time>
      </trkpt>
      <trkpt lat="46.256368160247803" lon="7.984421253204346">
        <ele>2550.99560546875</ele>
        <time>2008-07-27T09:31:23Z</time>
      </trkpt>
      <trkpt lat="46.25643253326416" lon="7.984356880187988">
        <ele>2551.476318359375</ele>
        <time>2008-07-27T09:31:34Z</time>
      </trkpt>
      <trkpt lat="46.256496906280518" lon="7.984292507171631">
        <ele>2554.360107421875</ele>
        <time>2008-07-27T09:31:45Z</time>
      </trkpt>
      <trkpt lat="46.256582736968994" lon="7.984185218811035">
        <ele>2556.282958984375</ele>
        <time>2008-07-27T09:31:59Z</time>
      </trkpt>
      <trkpt lat="46.256647109985352" lon="7.984099388122559">
        <ele>2558.20556640625</ele>
        <time>2008-07-27T09:32:11Z</time>
      </trkpt>
      <trkpt lat="46.256647109985352" lon="7.98405647277832">
        <ele>2557.72509765625</ele>
        <time>2008-07-27T09:32:16Z</time>
      </trkpt>
      <trkpt lat="46.25669002532959" lon="7.983992099761963">
        <ele>2559.6474609375</ele>
        <time>2008-07-27T09:32:24Z</time>
      </trkpt>
      <trkpt lat="46.256732940673828" lon="7.983949184417725">
        <ele>2560.128173828125</ele>
        <time>2008-07-27T09:32:31Z</time>
      </trkpt>
      <trkpt lat="46.256797313690186" lon="7.983884811401367">
        <ele>2562.05078125</ele>
        <time>2008-07-27T09:32:43Z</time>
      </trkpt>
      <trkpt lat="46.256861686706543" lon="7.983798980712891">
        <ele>2561.5703125</ele>
        <time>2008-07-27T09:32:59Z</time>
      </trkpt>
      <trkpt lat="46.256883144378662" lon="7.983756065368652">
        <ele>2562.531494140625</ele>
        <time>2008-07-27T09:33:09Z</time>
      </trkpt>
      <trkpt lat="46.2569260597229" lon="7.983691692352295">
        <ele>2565.89599609375</ele>
        <time>2008-07-27T09:33:37Z</time>
      </trkpt>
      <trkpt lat="46.256968975067139" lon="7.983648777008057">
        <ele>2566.857421875</ele>
        <time>2008-07-27T09:33:43Z</time>
      </trkpt>
      <trkpt lat="46.257011890411377" lon="7.983584403991699">
        <ele>2570.221923828125</ele>
        <time>2008-07-27T09:33:53Z</time>
      </trkpt>
      <trkpt lat="46.257054805755615" lon="7.983541488647461">
        <ele>2571.18310546875</ele>
        <time>2008-07-27T09:34:01Z</time>
      </trkpt>
      <trkpt lat="46.257076263427734" lon="7.983520030975342">
        <ele>2570.70263671875</ele>
        <time>2008-07-27T09:34:10Z</time>
      </trkpt>
      <trkpt lat="46.257119178771973" lon="7.983498573303223">
        <ele>2571.663818359375</ele>
        <time>2008-07-27T09:34:18Z</time>
      </trkpt>
      <trkpt lat="46.257162094116211" lon="7.983455657958984">
        <ele>2572.62548828125</ele>
        <time>2008-07-27T09:34:26Z</time>
      </trkpt>
      <trkpt lat="46.257247924804688" lon="7.983391284942627">
        <ele>2574.548095703125</ele>
        <time>2008-07-27T09:34:37Z</time>
      </trkpt>
      <trkpt lat="46.257290840148926" lon="7.98330545425415">
        <ele>2577.431884765625</ele>
        <time>2008-07-27T09:34:49Z</time>
      </trkpt>
      <trkpt lat="46.257333755493164" lon="7.983262538909912">
        <ele>2578.393310546875</ele>
        <time>2008-07-27T09:35:00Z</time>
      </trkpt>
      <trkpt lat="46.25744104385376" lon="7.983176708221436">
        <ele>2584.641845703125</ele>
        <time>2008-07-27T09:35:32Z</time>
      </trkpt>
      <trkpt lat="46.257462501525879" lon="7.983112335205078">
        <ele>2584.1611328125</ele>
        <time>2008-07-27T09:35:40Z</time>
      </trkpt>
      <trkpt lat="46.257483959197998" lon="7.983026504516602">
        <ele>2584.641845703125</ele>
        <time>2008-07-27T09:35:49Z</time>
      </trkpt>
      <trkpt lat="46.257505416870117" lon="7.982897758483887">
        <ele>2585.122314453125</ele>
        <time>2008-07-27T09:36:00Z</time>
      </trkpt>
      <trkpt lat="46.257526874542236" lon="7.982833385467529">
        <ele>2586.564208984375</ele>
        <time>2008-07-27T09:36:08Z</time>
      </trkpt>
      <trkpt lat="46.257548332214355" lon="7.982726097106934">
        <ele>2588.006591796875</ele>
        <time>2008-07-27T09:36:19Z</time>
      </trkpt>
      <trkpt lat="46.257569789886475" lon="7.982640266418457">
        <ele>2589.448486328125</ele>
        <time>2008-07-27T09:36:29Z</time>
      </trkpt>
      <trkpt lat="46.257591247558594" lon="7.982554435729981">
        <ele>2589.448486328125</ele>
        <time>2008-07-27T09:36:38Z</time>
      </trkpt>
      <trkpt lat="46.257612705230713" lon="7.982468605041504">
        <ele>2592.33251953125</ele>
        <time>2008-07-27T09:36:49Z</time>
      </trkpt>
      <trkpt lat="46.257634162902832" lon="7.982404232025147">
        <ele>2593.7744140625</ele>
        <time>2008-07-27T09:37:02Z</time>
      </trkpt>
      <trkpt lat="46.25767707824707" lon="7.982361316680908">
        <ele>2594.735595703125</ele>
        <time>2008-07-27T09:37:28Z</time>
      </trkpt>
      <trkpt lat="46.257741451263428" lon="7.982296943664551">
        <ele>2597.138671875</ele>
        <time>2008-07-27T09:37:38Z</time>
      </trkpt>
      <trkpt lat="46.257805824279785" lon="7.982254028320313">
        <ele>2600.50341796875</ele>
        <time>2008-07-27T09:37:50Z</time>
      </trkpt>
      <trkpt lat="46.257848739624023" lon="7.98231840133667">
        <ele>2602.42626953125</ele>
        <time>2008-07-27T09:38:00Z</time>
      </trkpt>
      <trkpt lat="46.257891654968262" lon="7.982361316680908">
        <ele>2604.8291015625</ele>
        <time>2008-07-27T09:38:10Z</time>
      </trkpt>
      <trkpt lat="46.257913112640381" lon="7.982211112976074">
        <ele>2604.3486328125</ele>
        <time>2008-07-27T09:38:23Z</time>
      </trkpt>
      <trkpt lat="46.2579345703125" lon="7.982103824615479">
        <ele>2605.31005859375</ele>
        <time>2008-07-27T09:38:33Z</time>
      </trkpt>
      <trkpt lat="46.257956027984619" lon="7.981996536254883">
        <ele>2606.751953125</ele>
        <time>2008-07-27T09:38:44Z</time>
      </trkpt>
      <trkpt lat="46.257956027984619" lon="7.981996536254883">
        <ele>2605.79052734375</ele>
        <time>2008-07-27T09:39:11Z</time>
      </trkpt>
      <trkpt lat="46.257998943328857" lon="7.981975078582764">
        <ele>2606.271484375</ele>
        <time>2008-07-27T09:39:30Z</time>
      </trkpt>
      <trkpt lat="46.257998943328857" lon="7.981932163238525">
        <ele>2607.232421875</ele>
        <time>2008-07-27T09:39:54Z</time>
      </trkpt>
      <trkpt lat="46.257998943328857" lon="7.981910705566406">
        <ele>2607.232421875</ele>
        <time>2008-07-27T09:40:00Z</time>
      </trkpt>
      <trkpt lat="46.257998943328857" lon="7.981910705566406">
        <ele>2607.71337890625</ele>
        <time>2008-07-27T09:40:18Z</time>
      </trkpt>
      <trkpt lat="46.258020401000977" lon="7.981846332550049">
        <ele>2607.232421875</ele>
        <time>2008-07-27T09:40:23Z</time>
      </trkpt>
      <trkpt lat="46.258041858673096" lon="7.981760501861572">
        <ele>2606.751953125</ele>
        <time>2008-07-27T09:40:34Z</time>
      </trkpt>
      <trkpt lat="46.258041858673096" lon="7.981760501861572">
        <ele>2607.232421875</ele>
        <time>2008-07-27T09:41:13Z</time>
      </trkpt>
      <trkpt lat="46.258041858673096" lon="7.981760501861572">
        <ele>2607.71337890625</ele>
        <time>2008-07-27T09:41:16Z</time>
      </trkpt>
      <trkpt lat="46.258063316345215" lon="7.981781959533691">
        <ele>2608.19384765625</ele>
        <time>2008-07-27T09:41:56Z</time>
      </trkpt>
      <trkpt lat="46.258063316345215" lon="7.981739044189453">
        <ele>2606.271484375</ele>
        <time>2008-07-27T09:50:48Z</time>
      </trkpt>
      <trkpt lat="46.258020401000977" lon="7.981588840484619">
        <ele>2605.31005859375</ele>
        <time>2008-07-27T09:50:55Z</time>
      </trkpt>
      <trkpt lat="46.257977485656738" lon="7.981503009796143">
        <ele>2604.8291015625</ele>
        <time>2008-07-27T09:50:58Z</time>
      </trkpt>
      <trkpt lat="46.257913112640381" lon="7.981374263763428">
        <ele>2604.3486328125</ele>
        <time>2008-07-27T09:51:02Z</time>
      </trkpt>
      <trkpt lat="46.257741451263428" lon="7.98133134841919">
        <ele>2602.90673828125</ele>
        <time>2008-07-27T09:51:07Z</time>
      </trkpt>
      <trkpt lat="46.257612705230713" lon="7.98130989074707">
        <ele>2601.9453125</ele>
        <time>2008-07-27T09:51:10Z</time>
      </trkpt>
      <trkpt lat="46.257419586181641" lon="7.981245517730713">
        <ele>2600.50341796875</ele>
        <time>2008-07-27T09:51:14Z</time>
      </trkpt>
      <trkpt lat="46.257247924804688" lon="7.981159687042236">
        <ele>2600.984375</ele>
        <time>2008-07-27T09:51:18Z</time>
      </trkpt>
      <trkpt lat="46.257054805755615" lon="7.981138229370117">
        <ele>2600.50341796875</ele>
        <time>2008-07-27T09:51:22Z</time>
      </trkpt>
      <trkpt lat="46.256968975067139" lon="7.981030941009522">
        <ele>2600.02294921875</ele>
        <time>2008-07-27T09:51:25Z</time>
      </trkpt>
      <trkpt lat="46.256818771362305" lon="7.980623245239258">
        <ele>2599.0615234375</ele>
        <time>2008-07-27T09:51:31Z</time>
      </trkpt>
      <trkpt lat="46.256518363952637" lon="7.980172634124756">
        <ele>2595.697021484375</ele>
        <time>2008-07-27T09:51:39Z</time>
      </trkpt>
      <trkpt lat="46.25643253326416" lon="7.980043888092041">
        <ele>2594.735595703125</ele>
        <time>2008-07-27T09:51:42Z</time>
      </trkpt>
      <trkpt lat="46.256346702575684" lon="7.979893684387207">
        <ele>2590.890380859375</ele>
        <time>2008-07-27T09:51:47Z</time>
      </trkpt>
      <trkpt lat="46.256239414215088" lon="7.979679107666016">
        <ele>2588.9677734375</ele>
        <time>2008-07-27T09:51:54Z</time>
      </trkpt>
      <trkpt lat="46.256153583526611" lon="7.97957181930542">
        <ele>2588.006591796875</ele>
        <time>2008-07-27T09:51:57Z</time>
      </trkpt>
      <trkpt lat="46.256003379821777" lon="7.979357242584229">
        <ele>2585.60302734375</ele>
        <time>2008-07-27T09:52:02Z</time>
      </trkpt>
      <trkpt lat="46.25593900680542" lon="7.979292869567871">
        <ele>2584.1611328125</ele>
        <time>2008-07-27T09:52:04Z</time>
      </trkpt>
      <trkpt lat="46.255874633789063" lon="7.979207038879395">
        <ele>2583.19970703125</ele>
        <time>2008-07-27T09:52:06Z</time>
      </trkpt>
      <trkpt lat="46.255595684051514" lon="7.979142665863037">
        <ele>2579.835205078125</ele>
        <time>2008-07-27T09:52:11Z</time>
      </trkpt>
      <trkpt lat="46.255359649658203" lon="7.979142665863037">
        <ele>2578.393310546875</ele>
        <time>2008-07-27T09:52:15Z</time>
      </trkpt>
      <trkpt lat="46.25518798828125" lon="7.97907829284668">
        <ele>2577.431884765625</ele>
        <time>2008-07-27T09:52:18Z</time>
      </trkpt>
      <trkpt lat="46.254866123199463" lon="7.979099750518799">
        <ele>2573.586669921875</ele>
        <time>2008-07-27T09:52:24Z</time>
      </trkpt>
      <trkpt lat="46.254673004150391" lon="7.979164123535156">
        <ele>2571.18310546875</ele>
        <time>2008-07-27T09:52:28Z</time>
      </trkpt>
      <trkpt lat="46.254479885101318" lon="7.979228496551514">
        <ele>2569.7412109375</ele>
        <time>2008-07-27T09:52:32Z</time>
      </trkpt>
      <trkpt lat="46.254372596740723" lon="7.979357242584229">
        <ele>2569.2607421875</ele>
        <time>2008-07-27T09:52:35Z</time>
      </trkpt>
      <trkpt lat="46.254265308380127" lon="7.979421615600586">
        <ele>2568.29931640625</ele>
        <time>2008-07-27T09:52:38Z</time>
      </trkpt>
      <trkpt lat="46.254007816314697" lon="7.979485988616943">
        <ele>2566.376708984375</ele>
        <time>2008-07-27T09:52:44Z</time>
      </trkpt>
      <trkpt lat="46.253771781921387" lon="7.979485988616943">
        <ele>2565.89599609375</ele>
        <time>2008-07-27T09:52:48Z</time>
      </trkpt>
      <trkpt lat="46.253471374511719" lon="7.979507446289063">
        <ele>2564.934814453125</ele>
        <time>2008-07-27T09:52:54Z</time>
      </trkpt>
      <trkpt lat="46.253364086151123" lon="7.979550361633301">
        <ele>2564.4541015625</ele>
        <time>2008-07-27T09:52:56Z</time>
      </trkpt>
      <trkpt lat="46.253213882446289" lon="7.979614734649658">
        <ele>2562.531494140625</ele>
        <time>2008-07-27T09:52:59Z</time>
      </trkpt>
      <trkpt lat="46.252849102020264" lon="7.979958057403565">
        <ele>2558.686279296875</ele>
        <time>2008-07-27T09:53:06Z</time>
      </trkpt>
      <trkpt lat="46.252677440643311" lon="7.980129718780518">
        <ele>2557.72509765625</ele>
        <time>2008-07-27T09:53:09Z</time>
      </trkpt>
      <trkpt lat="46.252570152282715" lon="7.98032283782959">
        <ele>2556.763671875</ele>
        <time>2008-07-27T09:53:13Z</time>
      </trkpt>
      <trkpt lat="46.252269744873047" lon="7.980773448944092">
        <ele>2553.879638671875</ele>
        <time>2008-07-27T09:53:21Z</time>
      </trkpt>
      <trkpt lat="46.252055168151855" lon="7.98107385635376">
        <ele>2552.4375</ele>
        <time>2008-07-27T09:53:25Z</time>
      </trkpt>
      <trkpt lat="46.251862049102783" lon="7.981266975402832">
        <ele>2550.99560546875</ele>
        <time>2008-07-27T09:53:30Z</time>
      </trkpt>
      <trkpt lat="46.251797676086426" lon="7.981438636779785">
        <ele>2550.034423828125</ele>
        <time>2008-07-27T09:53:33Z</time>
      </trkpt>
      <trkpt lat="46.251754760742188" lon="7.981545925140381">
        <ele>2550.034423828125</ele>
        <time>2008-07-27T09:53:35Z</time>
      </trkpt>
      <trkpt lat="46.251475811004639" lon="7.981803417205811">
        <ele>2548.59228515625</ele>
        <time>2008-07-27T09:53:42Z</time>
      </trkpt>
      <trkpt lat="46.251411437988281" lon="7.981846332550049">
        <ele>2548.111572265625</ele>
        <time>2008-07-27T09:53:44Z</time>
      </trkpt>
      <trkpt lat="46.251347064971924" lon="7.98182487487793">
        <ele>2547.631103515625</ele>
        <time>2008-07-27T09:53:46Z</time>
      </trkpt>
      <trkpt lat="46.251089572906494" lon="7.981524467468262">
        <ele>2546.189208984375</ele>
        <time>2008-07-27T09:53:53Z</time>
      </trkpt>
      <trkpt lat="46.251089572906494" lon="7.981503009796143">
        <ele>2546.189208984375</ele>
        <time>2008-07-27T09:53:57Z</time>
      </trkpt>
      <trkpt lat="46.251089572906494" lon="7.981503009796143">
        <ele>2541.382568359375</ele>
        <time>2008-07-27T09:54:23Z</time>
      </trkpt>
      <trkpt lat="46.25093936920166" lon="7.98130989074707">
        <ele>2541.86328125</ele>
        <time>2008-07-27T09:54:29Z</time>
      </trkpt>
      <trkpt lat="46.250853538513184" lon="7.981224060058594">
        <ele>2542.343994140625</ele>
        <time>2008-07-27T09:54:31Z</time>
      </trkpt>
      <trkpt lat="46.25070333480835" lon="7.981159687042236">
        <ele>2541.86328125</ele>
        <time>2008-07-27T09:54:35Z</time>
      </trkpt>
      <trkpt lat="46.250596046447754" lon="7.981009483337402">
        <ele>2540.90185546875</ele>
        <time>2008-07-27T09:54:39Z</time>
      </trkpt>
      <trkpt lat="46.25044584274292" lon="7.980880737304688">
        <ele>2540.421142578125</ele>
        <time>2008-07-27T09:54:43Z</time>
      </trkpt>
      <trkpt lat="46.250252723693848" lon="7.980837821960449">
        <ele>2541.382568359375</ele>
        <time>2008-07-27T09:54:48Z</time>
      </trkpt>
      <trkpt lat="46.250123977661133" lon="7.980859279632568">
        <ele>2541.86328125</ele>
        <time>2008-07-27T09:54:52Z</time>
      </trkpt>
      <trkpt lat="46.250016689300537" lon="7.980730533599854">
        <ele>2539.459716796875</ele>
        <time>2008-07-27T09:54:57Z</time>
      </trkpt>
      <trkpt lat="46.250016689300537" lon="7.980730533599854">
        <ele>2538.017822265625</ele>
        <time>2008-07-27T09:55:10Z</time>
      </trkpt>
      <trkpt lat="46.250038146972656" lon="7.980687618255615">
        <ele>2536.09521484375</ele>
        <time>2008-07-27T09:55:53Z</time>
      </trkpt>
      <trkpt lat="46.249909400939941" lon="7.980666160583496">
        <ele>2533.69189453125</ele>
        <time>2008-07-27T09:55:58Z</time>
      </trkpt>
      <trkpt lat="46.249866485595703" lon="7.980687618255615">
        <ele>2533.211181640625</ele>
        <time>2008-07-27T09:55:59Z</time>
      </trkpt>
      <trkpt lat="46.249737739562988" lon="7.98081636428833">
        <ele>2532.25</ele>
        <time>2008-07-27T09:56:02Z</time>
      </trkpt>
      <trkpt lat="46.249480247497559" lon="7.980794906616211">
        <ele>2530.80810546875</ele>
        <time>2008-07-27T09:56:07Z</time>
      </trkpt>
      <trkpt lat="46.249351501464844" lon="7.980773448944092">
        <ele>2527.443359375</ele>
        <time>2008-07-27T09:56:10Z</time>
      </trkpt>
      <trkpt lat="46.249222755432129" lon="7.980773448944092">
        <ele>2526.00146484375</ele>
        <time>2008-07-27T09:56:12Z</time>
      </trkpt>
      <trkpt lat="46.248793601989746" lon="7.980709075927734">
        <ele>2521.67529296875</ele>
        <time>2008-07-27T09:56:20Z</time>
      </trkpt>
      <trkpt lat="46.248600482940674" lon="7.980644702911377">
        <ele>2519.272216796875</ele>
        <time>2008-07-27T09:56:24Z</time>
      </trkpt>
      <trkpt lat="46.248471736907959" lon="7.980687618255615">
        <ele>2517.349365234375</ele>
        <time>2008-07-27T09:56:27Z</time>
      </trkpt>
      <trkpt lat="46.248342990875244" lon="7.980709075927734">
        <ele>2515.907470703125</ele>
        <time>2008-07-27T09:56:30Z</time>
      </trkpt>
      <trkpt lat="46.248106956481934" lon="7.980623245239258">
        <ele>2511.10107421875</ele>
        <time>2008-07-27T09:56:35Z</time>
      </trkpt>
      <trkpt lat="46.247870922088623" lon="7.980666160583496">
        <ele>2507.255615234375</ele>
        <time>2008-07-27T09:56:40Z</time>
      </trkpt>
      <trkpt lat="46.24769926071167" lon="7.980794906616211">
        <ele>2503.89111328125</ele>
        <time>2008-07-27T09:56:44Z</time>
      </trkpt>
      <trkpt lat="46.247591972351074" lon="7.980859279632568">
        <ele>2502.448974609375</ele>
        <time>2008-07-27T09:56:46Z</time>
      </trkpt>
      <trkpt lat="46.247463226318359" lon="7.980945110321045">
        <ele>2500.0458984375</ele>
        <time>2008-07-27T09:56:49Z</time>
      </trkpt>
      <trkpt lat="46.247334480285645" lon="7.980988025665283">
        <ele>2497.161865234375</ele>
        <time>2008-07-27T09:56:52Z</time>
      </trkpt>
      <trkpt lat="46.247162818908691" lon="7.981116771697998">
        <ele>2494.27783203125</ele>
        <time>2008-07-27T09:56:56Z</time>
      </trkpt>
      <trkpt lat="46.246883869171143" lon="7.981288433074951">
        <ele>2487.548583984375</ele>
        <time>2008-07-27T09:57:03Z</time>
      </trkpt>
      <trkpt lat="46.246583461761475" lon="7.981417179107666">
        <ele>2481.78076171875</ele>
        <time>2008-07-27T09:57:09Z</time>
      </trkpt>
      <trkpt lat="46.24619722366333" lon="7.981610298156738">
        <ele>2474.090087890625</ele>
        <time>2008-07-27T09:57:16Z</time>
      </trkpt>
      <trkpt lat="46.246004104614258" lon="7.981631755828857">
        <ele>2470.244873046875</ele>
        <time>2008-07-27T09:57:20Z</time>
      </trkpt>
      <trkpt lat="46.245832443237305" lon="7.981631755828857">
        <ele>2468.322265625</ele>
        <time>2008-07-27T09:57:24Z</time>
      </trkpt>
      <trkpt lat="46.245617866516113" lon="7.981674671173096">
        <ele>2463.996337890625</ele>
        <time>2008-07-27T09:57:30Z</time>
      </trkpt>
      <trkpt lat="46.245317459106445" lon="7.981610298156738">
        <ele>2459.189697265625</ele>
        <time>2008-07-27T09:57:37Z</time>
      </trkpt>
      <trkpt lat="46.245231628417969" lon="7.981395721435547">
        <ele>2456.786376953125</ele>
        <time>2008-07-27T09:57:41Z</time>
      </trkpt>
      <trkpt lat="46.245102882385254" lon="7.980988025665283">
        <ele>2452.941162109375</ele>
        <time>2008-07-27T09:57:48Z</time>
      </trkpt>
      <trkpt lat="46.244995594024658" lon="7.980837821960449">
        <ele>2451.0185546875</ele>
        <time>2008-07-27T09:57:51Z</time>
      </trkpt>
      <trkpt lat="46.244866847991943" lon="7.980644702911377">
        <ele>2449.095947265625</ele>
        <time>2008-07-27T09:57:55Z</time>
      </trkpt>
      <trkpt lat="46.244802474975586" lon="7.980537414550781">
        <ele>2447.654052734375</ele>
        <time>2008-07-27T09:57:57Z</time>
      </trkpt>
      <trkpt lat="46.244716644287109" lon="7.980365753173828">
        <ele>2446.212158203125</ele>
        <time>2008-07-27T09:58:00Z</time>
      </trkpt>
      <trkpt lat="46.244523525238037" lon="7.980194091796875">
        <ele>2443.327880859375</ele>
        <time>2008-07-27T09:58:05Z</time>
      </trkpt>
      <trkpt lat="46.244394779205322" lon="7.979807853698731">
        <ele>2439.96337890625</ele>
        <time>2008-07-27T09:58:10Z</time>
      </trkpt>
      <trkpt lat="46.244351863861084" lon="7.979464530944824">
        <ele>2438.521484375</ele>
        <time>2008-07-27T09:58:14Z</time>
      </trkpt>
      <trkpt lat="46.244330406188965" lon="7.979249954223633">
        <ele>2437.56005859375</ele>
        <time>2008-07-27T09:58:17Z</time>
      </trkpt>
      <trkpt lat="46.244266033172607" lon="7.978863716125488">
        <ele>2436.5986328125</ele>
        <time>2008-07-27T09:58:24Z</time>
      </trkpt>
      <trkpt lat="46.244158744812012" lon="7.978649139404297">
        <ele>2434.67626953125</ele>
        <time>2008-07-27T09:58:29Z</time>
      </trkpt>
      <trkpt lat="46.243858337402344" lon="7.978627681732178">
        <ele>2431.792236328125</ele>
        <time>2008-07-27T09:58:36Z</time>
      </trkpt>
      <trkpt lat="46.243815422058105" lon="7.978627681732178">
        <ele>2431.3115234375</ele>
        <time>2008-07-27T09:58:37Z</time>
      </trkpt>
      <trkpt lat="46.243643760681152" lon="7.978842258453369">
        <ele>2428.427734375</ele>
        <time>2008-07-27T09:58:43Z</time>
      </trkpt>
      <trkpt lat="46.243579387664795" lon="7.978799343109131">
        <ele>2427.94677734375</ele>
        <time>2008-07-27T09:58:45Z</time>
      </trkpt>
      <trkpt lat="46.24319314956665" lon="7.97856330871582">
        <ele>2425.062744140625</ele>
        <time>2008-07-27T09:58:53Z</time>
      </trkpt>
      <trkpt lat="46.243107318878174" lon="7.978477478027344">
        <ele>2424.1015625</ele>
        <time>2008-07-27T09:58:55Z</time>
      </trkpt>
      <trkpt lat="46.243042945861816" lon="7.978348731994629">
        <ele>2422.178955078125</ele>
        <time>2008-07-27T09:58:57Z</time>
      </trkpt>
      <trkpt lat="46.242914199829102" lon="7.977962493896484">
        <ele>2417.85302734375</ele>
        <time>2008-07-27T09:59:02Z</time>
      </trkpt>
      <trkpt lat="46.242806911468506" lon="7.977640628814697">
        <ele>2415.449951171875</ele>
        <time>2008-07-27T09:59:06Z</time>
      </trkpt>
      <trkpt lat="46.242678165435791" lon="7.977533340454102">
        <ele>2411.6044921875</ele>
        <time>2008-07-27T09:59:11Z</time>
      </trkpt>
      <trkpt lat="46.242613792419434" lon="7.977511882781982">
        <ele>2410.162353515625</ele>
        <time>2008-07-27T09:59:13Z</time>
      </trkpt>
      <trkpt lat="46.242334842681885" lon="7.977404594421387">
        <ele>2403.433349609375</ele>
        <time>2008-07-27T09:59:22Z</time>
      </trkpt>
      <trkpt lat="46.242077350616455" lon="7.977168560028076">
        <ele>2398.626708984375</ele>
        <time>2008-07-27T09:59:29Z</time>
      </trkpt>
      <trkpt lat="46.241991519927979" lon="7.977039813995361">
        <ele>2397.184814453125</ele>
        <time>2008-07-27T09:59:32Z</time>
      </trkpt>
      <trkpt lat="46.241905689239502" lon="7.976953983306885">
        <ele>2395.261962890625</ele>
        <time>2008-07-27T09:59:34Z</time>
      </trkpt>
      <trkpt lat="46.241734027862549" lon="7.976696491241455">
        <ele>2391.8974609375</ele>
        <time>2008-07-27T09:59:39Z</time>
      </trkpt>
      <trkpt lat="46.241605281829834" lon="7.976546287536621">
        <ele>2389.494140625</ele>
        <time>2008-07-27T09:59:42Z</time>
      </trkpt>
      <trkpt lat="46.241497993469238" lon="7.976438999176025">
        <ele>2388.05224609375</ele>
        <time>2008-07-27T09:59:44Z</time>
      </trkpt>
      <trkpt lat="46.241261959075928" lon="7.976288795471191">
        <ele>2386.129638671875</ele>
        <time>2008-07-27T09:59:47Z</time>
      </trkpt>
      <trkpt lat="46.240854263305664" lon="7.975795269012451">
        <ele>2379.880859375</ele>
        <time>2008-07-27T09:59:54Z</time>
      </trkpt>
      <trkpt lat="46.240661144256592" lon="7.975666522979736">
        <ele>2376.03564453125</ele>
        <time>2008-07-27T09:59:59Z</time>
      </trkpt>
      <trkpt lat="46.240639686584473" lon="7.975666522979736">
        <ele>2372.671142578125</ele>
        <time>2008-07-27T10:00:05Z</time>
      </trkpt>
      <trkpt lat="46.240725517272949" lon="7.975666522979736">
        <ele>2367.864501953125</ele>
        <time>2008-07-27T10:02:53Z</time>
      </trkpt>
      <trkpt lat="46.240897178649902" lon="7.975645065307617">
        <ele>2364.5</ele>
        <time>2008-07-27T10:02:58Z</time>
      </trkpt>
      <trkpt lat="46.241004467010498" lon="7.975666522979736">
        <ele>2363.538330078125</ele>
        <time>2008-07-27T10:03:00Z</time>
      </trkpt>
      <trkpt lat="46.241219043731689" lon="7.975730895996094">
        <ele>2361.13525390625</ele>
        <time>2008-07-27T10:03:04Z</time>
      </trkpt>
      <trkpt lat="46.241455078125" lon="7.975645065307617">
        <ele>2358.73193359375</ele>
        <time>2008-07-27T10:03:09Z</time>
      </trkpt>
      <trkpt lat="46.241626739501953" lon="7.975687980651856">
        <ele>2354.406005859375</ele>
        <time>2008-07-27T10:03:14Z</time>
      </trkpt>
      <trkpt lat="46.241734027862549" lon="7.975687980651856">
        <ele>2352.4833984375</ele>
        <time>2008-07-27T10:03:17Z</time>
      </trkpt>
      <trkpt lat="46.241991519927979" lon="7.975602149963379">
        <ele>2348.63818359375</ele>
        <time>2008-07-27T10:03:23Z</time>
      </trkpt>
      <trkpt lat="46.242184638977051" lon="7.975537776947022">
        <ele>2345.754150390625</ele>
        <time>2008-07-27T10:03:29Z</time>
      </trkpt>
      <trkpt lat="46.242249011993408" lon="7.975494861602783">
        <ele>2344.792724609375</ele>
        <time>2008-07-27T10:03:31Z</time>
      </trkpt>
      <trkpt lat="46.242420673370361" lon="7.97558069229126">
        <ele>2340.947509765625</ele>
        <time>2008-07-27T10:03:35Z</time>
      </trkpt>
      <trkpt lat="46.242570877075195" lon="7.975559234619141">
        <ele>2338.063720703125</ele>
        <time>2008-07-27T10:03:39Z</time>
      </trkpt>
      <trkpt lat="46.242742538452148" lon="7.975409030914307">
        <ele>2336.14111328125</ele>
        <time>2008-07-27T10:03:44Z</time>
      </trkpt>
      <trkpt lat="46.243000030517578" lon="7.975409030914307">
        <ele>2333.257080078125</ele>
        <time>2008-07-27T10:03:50Z</time>
      </trkpt>
      <trkpt lat="46.243236064910889" lon="7.975409030914307">
        <ele>2327.9697265625</ele>
        <time>2008-07-27T10:03:56Z</time>
      </trkpt>
      <trkpt lat="46.243300437927246" lon="7.97532320022583">
        <ele>2326.047119140625</ele>
        <time>2008-07-27T10:03:59Z</time>
      </trkpt>
      <trkpt lat="46.243536472320557" lon="7.975258827209473">
        <ele>2321.240478515625</ele>
        <time>2008-07-27T10:04:06Z</time>
      </trkpt>
      <trkpt lat="46.243579387664795" lon="7.975258827209473">
        <ele>2320.760009765625</ele>
        <time>2008-07-27T10:04:07Z</time>
      </trkpt>
      <trkpt lat="46.243965625762939" lon="7.975044250488281">
        <ele>2316.43408203125</ele>
        <time>2008-07-27T10:04:17Z</time>
      </trkpt>
      <trkpt lat="46.243987083435059" lon="7.975022792816162">
        <ele>2316.43408203125</ele>
        <time>2008-07-27T10:04:18Z</time>
      </trkpt>
      <trkpt lat="46.244180202484131" lon="7.97482967376709">
        <ele>2314.030517578125</ele>
        <time>2008-07-27T10:04:24Z</time>
      </trkpt>
      <trkpt lat="46.244287490844727" lon="7.974786758422852">
        <ele>2312.10791015625</ele>
        <time>2008-07-27T10:04:27Z</time>
      </trkpt>
      <trkpt lat="46.244223117828369" lon="7.974722385406494">
        <ele>2310.185302734375</ele>
        <time>2008-07-27T10:04:31Z</time>
      </trkpt>
      <trkpt lat="46.24420166015625" lon="7.974722385406494">
        <ele>2309.22412109375</ele>
        <time>2008-07-27T10:04:32Z</time>
      </trkpt>
      <trkpt lat="46.244115829467773" lon="7.974658012390137">
        <ele>2308.2626953125</ele>
        <time>2008-07-27T10:04:34Z</time>
      </trkpt>
      <trkpt lat="46.243879795074463" lon="7.974615097045898">
        <ele>2302.9755859375</ele>
        <time>2008-07-27T10:04:41Z</time>
      </trkpt>
      <trkpt lat="46.243686676025391" lon="7.974550724029541">
        <ele>2300.091796875</ele>
        <time>2008-07-27T10:04:48Z</time>
      </trkpt>
      <trkpt lat="46.243622303009033" lon="7.974507808685303">
        <ele>2299.130126953125</ele>
        <time>2008-07-27T10:04:50Z</time>
      </trkpt>
      <trkpt lat="46.243429183959961" lon="7.974443435668945">
        <ele>2295.284912109375</ele>
        <time>2008-07-27T10:04:55Z</time>
      </trkpt>
      <trkpt lat="46.243236064910889" lon="7.974271774291992">
        <ele>2292.401123046875</ele>
        <time>2008-07-27T10:05:01Z</time>
      </trkpt>
      <trkpt lat="46.24295711517334" lon="7.973992824554443">
        <ele>2285.671875</ele>
        <time>2008-07-27T10:05:09Z</time>
      </trkpt>
      <trkpt lat="46.242914199829102" lon="7.973928451538086">
        <ele>2284.22998046875</ele>
        <time>2008-07-27T10:05:11Z</time>
      </trkpt>
      <trkpt lat="46.242742538452148" lon="7.97382116317749">
        <ele>2281.345703125</ele>
        <time>2008-07-27T10:05:17Z</time>
      </trkpt>
      <trkpt lat="46.2424635887146" lon="7.973542213439941">
        <ele>2278.4619140625</ele>
        <time>2008-07-27T10:05:24Z</time>
      </trkpt>
      <trkpt lat="46.242184638977051" lon="7.973263263702393">
        <ele>2275.577880859375</ele>
        <time>2008-07-27T10:05:32Z</time>
      </trkpt>
      <trkpt lat="46.24194860458374" lon="7.973048686981201">
        <ele>2272.694091796875</ele>
        <time>2008-07-27T10:05:39Z</time>
      </trkpt>
      <trkpt lat="46.241862773895264" lon="7.972984313964844">
        <ele>2269.81005859375</ele>
        <time>2008-07-27T10:05:42Z</time>
      </trkpt>
      <trkpt lat="46.241798400878906" lon="7.972812652587891">
        <ele>2267.406494140625</ele>
        <time>2008-07-27T10:05:48Z</time>
      </trkpt>
      <trkpt lat="46.241776943206787" lon="7.972791194915772">
        <ele>2266.4453125</ele>
        <time>2008-07-27T10:05:53Z</time>
      </trkpt>
      <trkpt lat="46.241755485534668" lon="7.972791194915772">
        <ele>2258.7548828125</ele>
        <time>2008-07-27T10:06:35Z</time>
      </trkpt>
      <trkpt lat="46.241691112518311" lon="7.972726821899414">
        <ele>2259.716064453125</ele>
        <time>2008-07-27T10:06:59Z</time>
      </trkpt>
      <trkpt lat="46.241519451141357" lon="7.972598075866699">
        <ele>2256.832275390625</ele>
        <time>2008-07-27T10:07:04Z</time>
      </trkpt>
      <trkpt lat="46.241304874420166" lon="7.97234058380127">
        <ele>2252.50634765625</ele>
        <time>2008-07-27T10:07:09Z</time>
      </trkpt>
      <trkpt lat="46.241111755371094" lon="7.972126007080078">
        <ele>2250.10302734375</ele>
        <time>2008-07-27T10:07:14Z</time>
      </trkpt>
      <trkpt lat="46.240940093994141" lon="7.971868515014648">
        <ele>2247.69970703125</ele>
        <time>2008-07-27T10:07:19Z</time>
      </trkpt>
      <trkpt lat="46.240875720977783" lon="7.97182559967041">
        <ele>2246.73828125</ele>
        <time>2008-07-27T10:07:21Z</time>
      </trkpt>
      <trkpt lat="46.240768432617187" lon="7.971761226654053">
        <ele>2244.815673828125</ele>
        <time>2008-07-27T10:07:24Z</time>
      </trkpt>
      <trkpt lat="46.240360736846924" lon="7.971525192260742">
        <ele>2240.48974609375</ele>
        <time>2008-07-27T10:07:32Z</time>
      </trkpt>
      <trkpt lat="46.240317821502686" lon="7.971482276916504">
        <ele>2240.00927734375</ele>
        <time>2008-07-27T10:07:33Z</time>
      </trkpt>
      <trkpt lat="46.240081787109375" lon="7.971503734588623">
        <ele>2237.60595703125</ele>
        <time>2008-07-27T10:07:38Z</time>
      </trkpt>
      <trkpt lat="46.239845752716064" lon="7.971439361572266">
        <ele>2233.760498046875</ele>
        <time>2008-07-27T10:07:43Z</time>
      </trkpt>
      <trkpt lat="46.239438056945801" lon="7.97107458114624">
        <ele>2227.511962890625</ele>
        <time>2008-07-27T10:07:53Z</time>
      </trkpt>
      <trkpt lat="46.23920202255249" lon="7.971138954162598">
        <ele>2226.55078125</ele>
        <time>2008-07-27T10:07:59Z</time>
      </trkpt>
      <trkpt lat="46.239180564880371" lon="7.971138954162598">
        <ele>2224.628173828125</ele>
        <time>2008-07-27T10:08:04Z</time>
      </trkpt>
      <trkpt lat="46.239159107208252" lon="7.971138954162598">
        <ele>2220.30224609375</ele>
        <time>2008-07-27T10:08:12Z</time>
      </trkpt>
      <trkpt lat="46.239094734191895" lon="7.971138954162598">
        <ele>2216.456787109375</ele>
        <time>2008-07-27T10:08:22Z</time>
      </trkpt>
      <trkpt lat="46.239073276519775" lon="7.971053123474121">
        <ele>2213.09228515625</ele>
        <time>2008-07-27T10:08:30Z</time>
      </trkpt>
      <trkpt lat="46.239030361175537" lon="7.970988750457764">
        <ele>2210.208251953125</ele>
        <time>2008-07-27T10:08:39Z</time>
      </trkpt>
      <trkpt lat="46.239030361175537" lon="7.970945835113525">
        <ele>2206.84375</ele>
        <time>2008-07-27T10:08:51Z</time>
      </trkpt>
      <trkpt lat="46.239051818847656" lon="7.970902919769287">
        <ele>2205.40185546875</ele>
        <time>2008-07-27T10:09:08Z</time>
      </trkpt>
      <trkpt lat="46.239051818847656" lon="7.970902919769287">
        <ele>2205.40185546875</ele>
        <time>2008-07-27T10:09:09Z</time>
      </trkpt>
      <trkpt lat="46.239051818847656" lon="7.970860004425049">
        <ele>2204.4404296875</ele>
        <time>2008-07-27T10:09:17Z</time>
      </trkpt>
      <trkpt lat="46.239051818847656" lon="7.97083854675293">
        <ele>2199.6337890625</ele>
        <time>2008-07-27T10:12:35Z</time>
      </trkpt>
      <trkpt lat="46.239051818847656" lon="7.97083854675293">
        <ele>2199.6337890625</ele>
        <time>2008-07-27T10:12:38Z</time>
      </trkpt>
      <trkpt lat="46.239051818847656" lon="7.970817089080811">
        <ele>2199.6337890625</ele>
        <time>2008-07-27T10:12:45Z</time>
      </trkpt>
      <trkpt lat="46.239094734191895" lon="7.970709800720215">
        <ele>2200.594970703125</ele>
        <time>2008-07-27T10:12:49Z</time>
      </trkpt>
      <trkpt lat="46.239137649536133" lon="7.970473766326904">
        <ele>2198.67236328125</ele>
        <time>2008-07-27T10:12:56Z</time>
      </trkpt>
      <trkpt lat="46.239094734191895" lon="7.970194816589356">
        <ele>2196.269287109375</ele>
        <time>2008-07-27T10:13:03Z</time>
      </trkpt>
      <trkpt lat="46.238944530487061" lon="7.969980239868164">
        <ele>2194.346435546875</ele>
        <time>2008-07-27T10:13:09Z</time>
      </trkpt>
      <trkpt lat="46.238858699798584" lon="7.969701290130615">
        <ele>2191.943359375</ele>
        <time>2008-07-27T10:13:14Z</time>
      </trkpt>
      <trkpt lat="46.238880157470703" lon="7.9695725440979">
        <ele>2190.501220703125</ele>
        <time>2008-07-27T10:13:16Z</time>
      </trkpt>
      <trkpt lat="46.238858699798584" lon="7.969443798065186">
        <ele>2190.020751953125</ele>
        <time>2008-07-27T10:13:18Z</time>
      </trkpt>
      <trkpt lat="46.238772869110107" lon="7.969207763671875">
        <ele>2186.65576171875</ele>
        <time>2008-07-27T10:13:24Z</time>
      </trkpt>
      <trkpt lat="46.23870849609375" lon="7.968993186950684">
        <ele>2184.252685546875</ele>
        <time>2008-07-27T10:13:29Z</time>
      </trkpt>
      <trkpt lat="46.238687038421631" lon="7.968950271606445">
        <ele>2183.77197265625</ele>
        <time>2008-07-27T10:13:30Z</time>
      </trkpt>
      <trkpt lat="46.238558292388916" lon="7.968885898590088">
        <ele>2183.291259765625</ele>
        <time>2008-07-27T10:13:34Z</time>
      </trkpt>
      <trkpt lat="46.238365173339844" lon="7.968778610229492">
        <ele>2180.88818359375</ele>
        <time>2008-07-27T10:13:40Z</time>
      </trkpt>
      <trkpt lat="46.238322257995605" lon="7.968671321868897">
        <ele>2179.9267578125</ele>
        <time>2008-07-27T10:13:42Z</time>
      </trkpt>
      <trkpt lat="46.238150596618652" lon="7.96832799911499">
        <ele>2176.562255859375</ele>
        <time>2008-07-27T10:13:48Z</time>
      </trkpt>
      <trkpt lat="46.23795747756958" lon="7.968027591705322">
        <ele>2171.75537109375</ele>
        <time>2008-07-27T10:13:56Z</time>
      </trkpt>
      <trkpt lat="46.237936019897461" lon="7.968006134033203">
        <ele>2171.75537109375</ele>
        <time>2008-07-27T10:13:57Z</time>
      </trkpt>
      <trkpt lat="46.237742900848389" lon="7.967941761016846">
        <ele>2168.390869140625</ele>
        <time>2008-07-27T10:14:03Z</time>
      </trkpt>
      <trkpt lat="46.237635612487793" lon="7.96783447265625">
        <ele>2165.507080078125</ele>
        <time>2008-07-27T10:14:08Z</time>
      </trkpt>
      <trkpt lat="46.237635612487793" lon="7.96783447265625">
        <ele>2160.2197265625</ele>
        <time>2008-07-27T10:14:19Z</time>
      </trkpt>
      <trkpt lat="46.237571239471436" lon="7.967770099639893">
        <ele>2159.258544921875</ele>
        <time>2008-07-27T10:14:28Z</time>
      </trkpt>
      <trkpt lat="46.23746395111084" lon="7.967684268951416">
        <ele>2158.297119140625</ele>
        <time>2008-07-27T10:14:33Z</time>
      </trkpt>
      <trkpt lat="46.237249374389648" lon="7.967555522918701">
        <ele>2156.37451171875</ele>
        <time>2008-07-27T10:14:38Z</time>
      </trkpt>
      <trkpt lat="46.237034797668457" lon="7.967190742492676">
        <ele>2153.490478515625</ele>
        <time>2008-07-27T10:14:45Z</time>
      </trkpt>
      <trkpt lat="46.236884593963623" lon="7.966911792755127">
        <ele>2150.1259765625</ele>
        <time>2008-07-27T10:14:51Z</time>
      </trkpt>
      <trkpt lat="46.236734390258789" lon="7.966761589050293">
        <ele>2147.241943359375</ele>
        <time>2008-07-27T10:14:59Z</time>
      </trkpt>
      <trkpt lat="46.236777305603027" lon="7.966740131378174">
        <ele>2142.435546875</ele>
        <time>2008-07-27T10:18:43Z</time>
      </trkpt>
      <trkpt lat="46.236691474914551" lon="7.966611385345459">
        <ele>2140.0322265625</ele>
        <time>2008-07-27T10:18:48Z</time>
      </trkpt>
      <trkpt lat="46.236605644226074" lon="7.966310977935791">
        <ele>2139.070556640625</ele>
        <time>2008-07-27T10:18:52Z</time>
      </trkpt>
      <trkpt lat="46.236562728881836" lon="7.96583890914917">
        <ele>2136.667236328125</ele>
        <time>2008-07-27T10:18:58Z</time>
      </trkpt>
      <trkpt lat="46.23645544052124" lon="7.965645790100098">
        <ele>2134.26416015625</ele>
        <time>2008-07-27T10:19:02Z</time>
      </trkpt>
      <trkpt lat="46.236305236816406" lon="7.965559959411621">
        <ele>2132.822021484375</ele>
        <time>2008-07-27T10:19:05Z</time>
      </trkpt>
      <trkpt lat="46.236133575439453" lon="7.965302467346191">
        <ele>2128.496337890625</ele>
        <time>2008-07-27T10:19:09Z</time>
      </trkpt>
      <trkpt lat="46.2359619140625" lon="7.964787483215332">
        <ele>2123.689453125</ele>
        <time>2008-07-27T10:19:15Z</time>
      </trkpt>
      <trkpt lat="46.235940456390381" lon="7.96459436416626">
        <ele>2122.728271484375</ele>
        <time>2008-07-27T10:19:17Z</time>
      </trkpt>
      <trkpt lat="46.235725879669189" lon="7.964165210723877">
        <ele>2115.5185546875</ele>
        <time>2008-07-27T10:19:23Z</time>
      </trkpt>
      <trkpt lat="46.235618591308594" lon="7.96410083770752">
        <ele>2113.595703125</ele>
        <time>2008-07-27T10:19:25Z</time>
      </trkpt>
      <trkpt lat="46.235575675964355" lon="7.963864803314209">
        <ele>2109.27001953125</ele>
        <time>2008-07-27T10:19:30Z</time>
      </trkpt>
      <trkpt lat="46.235682964324951" lon="7.963778972625732">
        <ele>2107.34716796875</ele>
        <time>2008-07-27T10:19:32Z</time>
      </trkpt>
      <trkpt lat="46.235811710357666" lon="7.963521480560303">
        <ele>2103.982666015625</ele>
        <time>2008-07-27T10:19:36Z</time>
      </trkpt>
      <trkpt lat="46.235940456390381" lon="7.963328361511231">
        <ele>2102.059814453125</ele>
        <time>2008-07-27T10:19:40Z</time>
      </trkpt>
      <trkpt lat="46.236305236816406" lon="7.96309232711792">
        <ele>2100.137451171875</ele>
        <time>2008-07-27T10:19:46Z</time>
      </trkpt>
      <trkpt lat="46.236541271209717" lon="7.963156700134277">
        <ele>2097.734130859375</ele>
        <time>2008-07-27T10:19:50Z</time>
      </trkpt>
      <trkpt lat="46.236863136291504" lon="7.96309232711792">
        <ele>2092.927490234375</ele>
        <time>2008-07-27T10:19:55Z</time>
      </trkpt>
      <trkpt lat="46.237378120422363" lon="7.963070869445801">
        <ele>2086.1982421875</ele>
        <time>2008-07-27T10:20:08Z</time>
      </trkpt>
      <trkpt lat="46.23720645904541" lon="7.962512969970703">
        <ele>2078.98828125</ele>
        <time>2008-07-27T10:20:16Z</time>
      </trkpt>
      <trkpt lat="46.237163543701172" lon="7.96234130859375">
        <ele>2076.1044921875</ele>
        <time>2008-07-27T10:20:18Z</time>
      </trkpt>
      <trkpt lat="46.237120628356934" lon="7.961783409118652">
        <ele>2072.73974609375</ele>
        <time>2008-07-27T10:20:22Z</time>
      </trkpt>
      <trkpt lat="46.237227916717529" lon="7.961246967315674">
        <ele>2064.568603515625</ele>
        <time>2008-07-27T10:20:28Z</time>
      </trkpt>
      <trkpt lat="46.237249374389648" lon="7.961161136627197">
        <ele>2064.568603515625</ele>
        <time>2008-07-27T10:20:29Z</time>
      </trkpt>
      <trkpt lat="46.23720645904541" lon="7.961118221282959">
        <ele>2064.087890625</ele>
        <time>2008-07-27T10:20:31Z</time>
      </trkpt>
      <trkpt lat="46.237013339996338" lon="7.961225509643555">
        <ele>2056.8779296875</ele>
        <time>2008-07-27T10:20:37Z</time>
      </trkpt>
      <trkpt lat="46.236884593963623" lon="7.961204051971436">
        <ele>2052.0712890625</ele>
        <time>2008-07-27T10:20:43Z</time>
      </trkpt>
      <trkpt lat="46.236798763275146" lon="7.961161136627197">
        <ele>2015.060791015625</ele>
        <time>2008-07-27T10:21:58Z</time>
      </trkpt>
      <trkpt lat="46.236798763275146" lon="7.961118221282959">
        <ele>2013.61865234375</ele>
        <time>2008-07-27T10:22:02Z</time>
      </trkpt>
      <trkpt lat="46.236884593963623" lon="7.960968017578125">
        <ele>2009.773193359375</ele>
        <time>2008-07-27T10:22:08Z</time>
      </trkpt>
      <trkpt lat="46.237185001373291" lon="7.960817813873291">
        <ele>2006.40869140625</ele>
        <time>2008-07-27T10:22:15Z</time>
      </trkpt>
      <trkpt lat="46.237978935241699" lon="7.960646152496338">
        <ele>2003.044189453125</ele>
        <time>2008-07-27T10:22:30Z</time>
      </trkpt>
      <trkpt lat="46.238429546356201" lon="7.960624694824219">
        <ele>2003.044189453125</ele>
        <time>2008-07-27T10:22:38Z</time>
      </trkpt>
      <trkpt lat="46.238923072814941" lon="7.960731983184815">
        <ele>1996.795654296875</ele>
        <time>2008-07-27T10:22:48Z</time>
      </trkpt>
      <trkpt lat="46.239438056945801" lon="7.960731983184815">
        <ele>1993.91162109375</ele>
        <time>2008-07-27T10:22:57Z</time>
      </trkpt>
      <trkpt lat="46.239781379699707" lon="7.960817813873291">
        <ele>1941.0390625</ele>
        <time>2008-07-27T10:23:10Z</time>
      </trkpt>
      <trkpt lat="46.240081787109375" lon="7.960667610168457">
        <ele>1930.9453125</ele>
        <time>2008-07-27T10:23:15Z</time>
      </trkpt>
      <trkpt lat="46.240296363830566" lon="7.960538864135742">
        <ele>1924.216064453125</ele>
        <time>2008-07-27T10:23:19Z</time>
      </trkpt>
      <trkpt lat="46.240274906158447" lon="7.960367202758789">
        <ele>1920.370849609375</ele>
        <time>2008-07-27T10:23:21Z</time>
      </trkpt>
      <trkpt lat="46.240274906158447" lon="7.960238456726074">
        <ele>1916.525634765625</ele>
        <time>2008-07-27T10:23:23Z</time>
      </trkpt>
      <trkpt lat="46.240274906158447" lon="7.960109710693359">
        <ele>1911.23828125</ele>
        <time>2008-07-27T10:23:28Z</time>
      </trkpt>
      <trkpt lat="46.240274906158447" lon="7.960066795349121">
        <ele>1911.718994140625</ele>
        <time>2008-07-27T10:23:35Z</time>
      </trkpt>
      <trkpt lat="46.240296363830566" lon="7.960045337677002">
        <ele>1907.873779296875</ele>
        <time>2008-07-27T10:23:44Z</time>
      </trkpt>
      <trkpt lat="46.240274906158447" lon="7.960002422332764">
        <ele>1963.1494140625</ele>
        <time>2008-07-27T10:26:03Z</time>
      </trkpt>
      <trkpt lat="46.240296363830566" lon="7.960002422332764">
        <ele>1918.928955078125</ele>
        <time>2008-07-27T10:26:35Z</time>
      </trkpt>
      <trkpt lat="46.24021053314209" lon="7.960002422332764">
        <ele>1917.00634765625</ele>
        <time>2008-07-27T10:26:39Z</time>
      </trkpt>
      <trkpt lat="46.240081787109375" lon="7.960002422332764">
        <ele>1914.1220703125</ele>
        <time>2008-07-27T10:26:43Z</time>
      </trkpt>
      <trkpt lat="46.240017414093018" lon="7.959873676300049">
        <ele>1914.602783203125</ele>
        <time>2008-07-27T10:26:48Z</time>
      </trkpt>
      <trkpt lat="46.239995956420898" lon="7.959873676300049">
        <ele>1904.509033203125</ele>
        <time>2008-07-27T10:27:01Z</time>
      </trkpt>
      <trkpt lat="46.239974498748779" lon="7.959809303283691">
        <ele>1907.873779296875</ele>
        <time>2008-07-27T10:27:12Z</time>
      </trkpt>
      <trkpt lat="46.239845752716064" lon="7.959680557250977">
        <ele>1908.8349609375</ele>
        <time>2008-07-27T10:27:21Z</time>
      </trkpt>
      <trkpt lat="46.239588260650635" lon="7.959680557250977">
        <ele>1909.315673828125</ele>
        <time>2008-07-27T10:27:27Z</time>
      </trkpt>
      <trkpt lat="46.239545345306396" lon="7.959659099578857">
        <ele>1908.8349609375</ele>
        <time>2008-07-27T10:27:29Z</time>
      </trkpt>
      <trkpt lat="46.239395141601563" lon="7.959380149841309">
        <ele>1906.912353515625</ele>
        <time>2008-07-27T10:27:33Z</time>
      </trkpt>
      <trkpt lat="46.239373683929443" lon="7.959272861480713">
        <ele>1906.431640625</ele>
        <time>2008-07-27T10:27:34Z</time>
      </trkpt>
      <trkpt lat="46.239287853240967" lon="7.958950996398926">
        <ele>1905.950927734375</ele>
        <time>2008-07-27T10:27:39Z</time>
      </trkpt>
      <trkpt lat="46.238644123077393" lon="7.958543300628662">
        <ele>1905.470458984375</ele>
        <time>2008-07-27T10:27:48Z</time>
      </trkpt>
      <trkpt lat="46.237978935241699" lon="7.958285808563232">
        <ele>1905.950927734375</ele>
        <time>2008-07-27T10:28:02Z</time>
      </trkpt>
      <trkpt lat="46.23746395111084" lon="7.958006858825684">
        <ele>1901.14453125</ele>
        <time>2008-07-27T10:28:14Z</time>
      </trkpt>
      <trkpt lat="46.236734390258789" lon="7.957835197448731">
        <ele>1899.2216796875</ele>
        <time>2008-07-27T10:28:26Z</time>
      </trkpt>
      <trkpt lat="46.236584186553955" lon="7.957813739776611">
        <ele>1900.183349609375</ele>
        <time>2008-07-27T10:28:28Z</time>
      </trkpt>
      <trkpt lat="46.236391067504883" lon="7.957835197448731">
        <ele>1899.2216796875</ele>
        <time>2008-07-27T10:28:31Z</time>
      </trkpt>
      <trkpt lat="46.236412525177002" lon="7.957770824432373">
        <ele>1890.08935546875</ele>
        <time>2008-07-27T10:28:35Z</time>
      </trkpt>
      <trkpt lat="46.236433982849121" lon="7.957727909088135">
        <ele>1888.166748046875</ele>
        <time>2008-07-27T10:28:36Z</time>
      </trkpt>
      <trkpt lat="46.236670017242432" lon="7.95759916305542">
        <ele>1885.763427734375</ele>
        <time>2008-07-27T10:28:40Z</time>
      </trkpt>
      <trkpt lat="46.237056255340576" lon="7.95734167098999">
        <ele>1883.840576171875</ele>
        <time>2008-07-27T10:28:46Z</time>
      </trkpt>
      <trkpt lat="46.237120628356934" lon="7.957255840301514">
        <ele>1840.100830078125</ele>
        <time>2008-07-27T10:31:26Z</time>
      </trkpt>
      <trkpt lat="46.237313747406006" lon="7.957255840301514">
        <ele>1839.139404296875</ele>
        <time>2008-07-27T10:31:31Z</time>
      </trkpt>
      <trkpt lat="46.237764358520508" lon="7.957084178924561">
        <ele>1835.2939453125</ele>
        <time>2008-07-27T10:31:40Z</time>
      </trkpt>
      <trkpt lat="46.237893104553223" lon="7.957041263580322">
        <ele>1833.85205078125</ele>
        <time>2008-07-27T10:31:43Z</time>
      </trkpt>
      <trkpt lat="46.238236427307129" lon="7.957191467285156">
        <ele>1830.487548828125</ele>
        <time>2008-07-27T10:31:51Z</time>
      </trkpt>
      <trkpt lat="46.238579750061035" lon="7.957298755645752">
        <ele>1830.0068359375</ele>
        <time>2008-07-27T10:31:59Z</time>
      </trkpt>
      <trkpt lat="46.238622665405273" lon="7.957320213317871">
        <ele>1830.0068359375</ele>
        <time>2008-07-27T10:32:00Z</time>
      </trkpt>
      <trkpt lat="46.239609718322754" lon="7.956740856170654">
        <ele>1826.16162109375</ele>
        <time>2008-07-27T10:32:19Z</time>
      </trkpt>
      <trkpt lat="46.240124702453613" lon="7.956461906433106">
        <ele>1825.2001953125</ele>
        <time>2008-07-27T10:32:29Z</time>
      </trkpt>
      <trkpt lat="46.240146160125732" lon="7.956225872039795">
        <ele>1825.2001953125</ele>
        <time>2008-07-27T10:32:31Z</time>
      </trkpt>
      <trkpt lat="46.240789890289307" lon="7.955560684204102">
        <ele>1822.31640625</ele>
        <time>2008-07-27T10:32:45Z</time>
      </trkpt>
      <trkpt lat="46.241004467010498" lon="7.955582141876221">
        <ele>1818.95166015625</ele>
        <time>2008-07-27T10:32:49Z</time>
      </trkpt>
      <trkpt lat="46.241133213043213" lon="7.955710887908936">
        <ele>1816.54833984375</ele>
        <time>2008-07-27T10:32:51Z</time>
      </trkpt>
      <trkpt lat="46.241497993469238" lon="7.955946922302246">
        <ele>1810.780517578125</ele>
        <time>2008-07-27T10:32:56Z</time>
      </trkpt>
      <trkpt lat="46.241691112518311" lon="7.956182956695557">
        <ele>1806.45458984375</ele>
        <time>2008-07-27T10:33:00Z</time>
      </trkpt>
      <trkpt lat="46.24194860458374" lon="7.956483364105225">
        <ele>1799.725341796875</ele>
        <time>2008-07-27T10:33:05Z</time>
      </trkpt>
      <trkpt lat="46.242120265960693" lon="7.956526279449463">
        <ele>1798.283203125</ele>
        <time>2008-07-27T10:33:07Z</time>
      </trkpt>
      <trkpt lat="46.242806911468506" lon="7.956376075744629">
        <ele>1793.476806640625</ele>
        <time>2008-07-27T10:33:14Z</time>
      </trkpt>
      <trkpt lat="46.243236064910889" lon="7.956311702728272">
        <ele>1792.515625</ele>
        <time>2008-07-27T10:33:18Z</time>
      </trkpt>
      <trkpt lat="46.243472099304199" lon="7.956268787384033">
        <ele>1791.073486328125</ele>
        <time>2008-07-27T10:33:21Z</time>
      </trkpt>
      <trkpt lat="46.243579387664795" lon="7.956268787384033">
        <ele>1787.22802734375</ele>
        <time>2008-07-27T10:33:25Z</time>
      </trkpt>
      <trkpt lat="46.244008541107178" lon="7.95635461807251">
        <ele>1782.902099609375</ele>
        <time>2008-07-27T10:33:34Z</time>
      </trkpt>
      <trkpt lat="46.244266033172607" lon="7.956397533416748">
        <ele>1783.3828125</ele>
        <time>2008-07-27T10:33:39Z</time>
      </trkpt>
      <trkpt lat="46.244888305664063" lon="7.956333160400391">
        <ele>1781.460205078125</ele>
        <time>2008-07-27T10:33:50Z</time>
      </trkpt>
      <trkpt lat="46.245553493499756" lon="7.956376075744629">
        <ele>1779.056884765625</ele>
        <time>2008-07-27T10:34:02Z</time>
      </trkpt>
      <trkpt lat="46.245617866516113" lon="7.956376075744629">
        <ele>1779.056884765625</ele>
        <time>2008-07-27T10:34:03Z</time>
      </trkpt>
      <trkpt lat="46.246004104614258" lon="7.956204414367676">
        <ele>1774.25048828125</ele>
        <time>2008-07-27T10:34:10Z</time>
      </trkpt>
      <trkpt lat="46.246283054351807" lon="7.955968379974365">
        <ele>1771.846923828125</ele>
        <time>2008-07-27T10:34:14Z</time>
      </trkpt>
      <trkpt lat="46.246347427368164" lon="7.955968379974365">
        <ele>1770.8857421875</ele>
        <time>2008-07-27T10:34:15Z</time>
      </trkpt>
      <trkpt lat="46.246755123138428" lon="7.955989837646484">
        <ele>1769.92431640625</ele>
        <time>2008-07-27T10:34:20Z</time>
      </trkpt>
      <trkpt lat="46.246905326843262" lon="7.955946922302246">
        <ele>1768.482421875</ele>
        <time>2008-07-27T10:34:22Z</time>
      </trkpt>
      <trkpt lat="46.247527599334717" lon="7.955646514892578">
        <ele>1768.482421875</ele>
        <time>2008-07-27T10:34:30Z</time>
      </trkpt>
      <trkpt lat="46.247613430023193" lon="7.955625057220459">
        <ele>1768.482421875</ele>
        <time>2008-07-27T10:34:31Z</time>
      </trkpt>
      <trkpt lat="46.247978210449219" lon="7.955710887908936">
        <ele>1765.5986328125</ele>
        <time>2008-07-27T10:34:35Z</time>
      </trkpt>
      <trkpt lat="46.248128414154053" lon="7.95583963394165">
        <ele>1764.63720703125</ele>
        <time>2008-07-27T10:34:37Z</time>
      </trkpt>
      <trkpt lat="46.248493194580078" lon="7.955968379974365">
        <ele>1762.23388671875</ele>
        <time>2008-07-27T10:34:41Z</time>
      </trkpt>
      <trkpt lat="46.249394416809082" lon="7.955925464630127">
        <ele>1755.504638671875</ele>
        <time>2008-07-27T10:34:50Z</time>
      </trkpt>
      <trkpt lat="46.249973773956299" lon="7.955882549285889">
        <ele>1752.139892578125</ele>
        <time>2008-07-27T10:34:56Z</time>
      </trkpt>
      <trkpt lat="46.250209808349609" lon="7.955968379974365">
        <ele>1751.659423828125</ele>
        <time>2008-07-27T10:34:59Z</time>
      </trkpt>
      <trkpt lat="46.250596046447754" lon="7.956032752990723">
        <ele>1748.775390625</ele>
        <time>2008-07-27T10:35:04Z</time>
      </trkpt>
      <trkpt lat="46.251497268676758" lon="7.955925464630127">
        <ele>1738.681640625</ele>
        <time>2008-07-27T10:35:16Z</time>
      </trkpt>
      <trkpt lat="46.251647472381592" lon="7.955882549285889">
        <ele>1738.681640625</ele>
        <time>2008-07-27T10:35:18Z</time>
      </trkpt>
      <trkpt lat="46.251711845397949" lon="7.955796718597412">
        <ele>1715.12939453125</ele>
        <time>2008-07-27T10:36:20Z</time>
      </trkpt>
      <trkpt lat="46.251711845397949" lon="7.955689430236816">
        <ele>1711.764892578125</ele>
        <time>2008-07-27T10:43:31Z</time>
      </trkpt>
      <trkpt lat="46.251797676086426" lon="7.955560684204102">
        <ele>1711.764892578125</ele>
        <time>2008-07-27T10:43:35Z</time>
      </trkpt>
      <trkpt lat="46.251990795135498" lon="7.955088615417481">
        <ele>1711.764892578125</ele>
        <time>2008-07-27T10:43:44Z</time>
      </trkpt>
      <trkpt lat="46.252291202545166" lon="7.954788208007813">
        <ele>1712.245361328125</ele>
        <time>2008-07-27T10:43:53Z</time>
      </trkpt>
      <trkpt lat="46.252377033233643" lon="7.954766750335693">
        <ele>1712.245361328125</ele>
        <time>2008-07-27T10:43:55Z</time>
      </trkpt>
      <trkpt lat="46.252655982971191" lon="7.954809665679932">
        <ele>1714.16796875</ele>
        <time>2008-07-27T10:44:03Z</time>
      </trkpt>
      <trkpt lat="46.252956390380859" lon="7.954831123352051">
        <ele>1715.12939453125</ele>
        <time>2008-07-27T10:44:14Z</time>
      </trkpt>
      <trkpt lat="46.253106594085693" lon="7.954809665679932">
        <ele>1716.090576171875</ele>
        <time>2008-07-27T10:44:23Z</time>
      </trkpt>
      <trkpt lat="46.253235340118408" lon="7.954916954040527">
        <ele>1719.455322265625</ele>
        <time>2008-07-27T10:44:35Z</time>
      </trkpt>
      <trkpt lat="46.2534499168396" lon="7.954788208007813">
        <ele>1735.31689453125</ele>
        <time>2008-07-27T10:54:21Z</time>
      </trkpt>
      <trkpt lat="46.253557205200195" lon="7.954809665679932">
        <ele>1735.31689453125</ele>
        <time>2008-07-27T10:54:24Z</time>
      </trkpt>
      <trkpt lat="46.253900527954102" lon="7.954938411712647">
        <ele>1732.91357421875</ele>
        <time>2008-07-27T10:54:31Z</time>
      </trkpt>
      <trkpt lat="46.254029273986816" lon="7.954938411712647">
        <ele>1732.91357421875</ele>
        <time>2008-07-27T10:54:34Z</time>
      </trkpt>
      <trkpt lat="46.254265308380127" lon="7.954788208007813">
        <ele>1730.510498046875</ele>
        <time>2008-07-27T10:54:40Z</time>
      </trkpt>
      <trkpt lat="46.254737377166748" lon="7.954530715942383">
        <ele>1729.549072265625</ele>
        <time>2008-07-27T10:54:50Z</time>
      </trkpt>
      <trkpt lat="46.255338191986084" lon="7.954230308532715">
        <ele>1728.587890625</ele>
        <time>2008-07-27T10:54:57Z</time>
      </trkpt>
      <trkpt lat="46.255574226379395" lon="7.954058647155762">
        <ele>1728.587890625</ele>
        <time>2008-07-27T10:55:00Z</time>
      </trkpt>
      <trkpt lat="46.256518363952637" lon="7.9541015625">
        <ele>1728.587890625</ele>
        <time>2008-07-27T10:55:09Z</time>
      </trkpt>
      <trkpt lat="46.25694751739502" lon="7.954165935516357">
        <ele>1728.587890625</ele>
        <time>2008-07-27T10:55:13Z</time>
      </trkpt>
      <trkpt lat="46.257119178771973" lon="7.9541015625">
        <ele>1728.587890625</ele>
        <time>2008-07-27T10:55:15Z</time>
      </trkpt>
      <trkpt lat="46.25744104385376" lon="7.953951358795166">
        <ele>1728.587890625</ele>
        <time>2008-07-27T10:55:19Z</time>
      </trkpt>
      <trkpt lat="46.257870197296143" lon="7.954080104827881">
        <ele>1726.665283203125</ele>
        <time>2008-07-27T10:55:25Z</time>
      </trkpt>
      <trkpt lat="46.258127689361572" lon="7.954208850860596">
        <ele>1726.665283203125</ele>
        <time>2008-07-27T10:55:29Z</time>
      </trkpt>
      <trkpt lat="46.258256435394287" lon="7.954251766204834">
        <ele>1726.665283203125</ele>
        <time>2008-07-27T10:55:31Z</time>
      </trkpt>
      <trkpt lat="46.258728504180908" lon="7.954273223876953">
        <ele>1724.261962890625</ele>
        <time>2008-07-27T10:55:38Z</time>
      </trkpt>
      <trkpt lat="46.258878707885742" lon="7.954337596893311">
        <ele>1722.339111328125</ele>
        <time>2008-07-27T10:55:41Z</time>
      </trkpt>
      <trkpt lat="46.259028911590576" lon="7.954401969909668">
        <ele>1722.339111328125</ele>
        <time>2008-07-27T10:55:44Z</time>
      </trkpt>
      <trkpt lat="46.259565353393555" lon="7.954401969909668">
        <ele>1719.935791015625</ele>
        <time>2008-07-27T10:55:54Z</time>
      </trkpt>
      <trkpt lat="46.259629726409912" lon="7.954401969909668">
        <ele>1719.935791015625</ele>
        <time>2008-07-27T10:55:55Z</time>
      </trkpt>
      <trkpt lat="46.261239051818848" lon="7.954123020172119">
        <ele>1719.455322265625</ele>
        <time>2008-07-27T10:56:18Z</time>
      </trkpt>
      <trkpt lat="46.261990070343018" lon="7.954123020172119">
        <ele>1716.5712890625</ele>
        <time>2008-07-27T10:56:22Z</time>
      </trkpt>
      <trkpt lat="46.262054443359375" lon="7.953951358795166">
        <ele>1713.206787109375</ele>
        <time>2008-07-27T10:56:25Z</time>
      </trkpt>
      <trkpt lat="46.262483596801758" lon="7.954015731811523">
        <ele>1712.245361328125</ele>
        <time>2008-07-27T10:56:28Z</time>
      </trkpt>
      <trkpt lat="46.262633800506592" lon="7.953994274139404">
        <ele>1712.245361328125</ele>
        <time>2008-07-27T10:56:30Z</time>
      </trkpt>
      <trkpt lat="46.262826919555664" lon="7.953908443450928">
        <ele>1705.99658203125</ele>
        <time>2008-07-27T10:56:34Z</time>
      </trkpt>
      <trkpt lat="46.263084411621094" lon="7.954037189483643">
        <ele>1619.958740234375</ele>
        <time>2008-07-27T10:56:39Z</time>
      </trkpt>
      <trkpt lat="46.263148784637451" lon="7.954058647155762">
        <ele>1619.958740234375</ele>
        <time>2008-07-27T10:56:40Z</time>
      </trkpt>
      <trkpt lat="46.263406276702881" lon="7.9541015625">
        <ele>1619.478271484375</ele>
        <time>2008-07-27T10:56:44Z</time>
      </trkpt>
      <trkpt lat="46.263620853424072" lon="7.954015731811523">
        <ele>1619.478271484375</ele>
        <time>2008-07-27T10:56:49Z</time>
      </trkpt>
      <trkpt lat="46.263899803161621" lon="7.954187393188477">
        <ele>1619.958740234375</ele>
        <time>2008-07-27T10:56:54Z</time>
      </trkpt>
      <trkpt lat="46.264007091522217" lon="7.954423427581787">
        <ele>1615.15234375</ele>
        <time>2008-07-27T10:56:58Z</time>
      </trkpt>
      <trkpt lat="46.26392126083374" lon="7.954766750335693">
        <ele>1615.633056640625</ele>
        <time>2008-07-27T10:57:03Z</time>
      </trkpt>
      <trkpt lat="46.263813972473145" lon="7.955560684204102">
        <ele>1616.113525390625</ele>
        <time>2008-07-27T10:57:15Z</time>
      </trkpt>
      <trkpt lat="46.264028549194336" lon="7.955667972564697">
        <ele>1616.113525390625</ele>
        <time>2008-07-27T10:57:20Z</time>
      </trkpt>
      <trkpt lat="46.264393329620361" lon="7.955625057220459">
        <ele>1616.113525390625</ele>
        <time>2008-07-27T10:57:26Z</time>
      </trkpt>
      <trkpt lat="46.265122890472412" lon="7.954745292663574">
        <ele>1616.113525390625</ele>
        <time>2008-07-27T10:57:33Z</time>
      </trkpt>
      <trkpt lat="46.265873908996582" lon="7.954165935516357">
        <ele>1616.113525390625</ele>
        <time>2008-07-27T10:57:49Z</time>
      </trkpt>
      <trkpt lat="46.265616416931152" lon="7.953822612762451">
        <ele>1616.113525390625</ele>
        <time>2008-07-27T10:57:56Z</time>
      </trkpt>
      <trkpt lat="46.265616416931152" lon="7.953779697418213">
        <ele>1616.113525390625</ele>
        <time>2008-07-27T10:57:57Z</time>
      </trkpt>
      <trkpt lat="46.265830993652344" lon="7.953286170959473">
        <ele>1616.113525390625</ele>
        <time>2008-07-27T10:58:11Z</time>
      </trkpt>
      <trkpt lat="46.266324520111084" lon="7.952663898468018">
        <ele>1616.113525390625</ele>
        <time>2008-07-27T10:58:36Z</time>
      </trkpt>
      <trkpt lat="46.267118453979492" lon="7.951569557189941">
        <ele>1616.113525390625</ele>
        <time>2008-07-27T10:59:22Z</time>
      </trkpt>
      <trkpt lat="46.268191337585449" lon="7.952814102172852">
        <ele>1617.074951171875</ele>
        <time>2008-07-27T11:00:31Z</time>
      </trkpt>
      <trkpt lat="46.269392967224121" lon="7.95311450958252">
        <ele>1594.003173828125</ele>
        <time>2008-07-27T11:06:34Z</time>
      </trkpt>
      <trkpt lat="46.272697448730469" lon="7.953650951385498">
        <ele>1571.412109375</ele>
        <time>2008-07-27T11:08:13Z</time>
      </trkpt>
      <trkpt lat="46.272997856140137" lon="7.9541015625">
        <ele>1560.837646484375</ele>
        <time>2008-07-27T11:08:28Z</time>
      </trkpt>
      <trkpt lat="46.273083686828613" lon="7.95435905456543">
        <ele>1558.9150390625</ele>
        <time>2008-07-27T11:08:41Z</time>
      </trkpt>
      <trkpt lat="46.273212432861328" lon="7.95435905456543">
        <ele>1556.51171875</ele>
        <time>2008-07-27T11:08:54Z</time>
      </trkpt>
      <trkpt lat="46.27467155456543" lon="7.955195903778076">
        <ele>1556.51171875</ele>
        <time>2008-07-27T11:11:51Z</time>
      </trkpt>
      <trkpt lat="46.274971961975098" lon="7.95534610748291">
        <ele>1556.51171875</ele>
        <time>2008-07-27T11:11:52Z</time>
      </trkpt>
      <trkpt lat="46.274950504302979" lon="7.954702377319336">
        <ele>1551.224609375</ele>
        <time>2008-07-27T11:11:58Z</time>
      </trkpt>
      <trkpt lat="46.275036334991455" lon="7.954745292663574">
        <ele>1551.224609375</ele>
        <time>2008-07-27T11:12:39Z</time>
      </trkpt>
      <trkpt lat="46.275186538696289" lon="7.954530715942383">
        <ele>1551.224609375</ele>
        <time>2008-07-27T11:13:19Z</time>
      </trkpt>
      <trkpt lat="46.275207996368408" lon="7.953801155090332">
        <ele>1548.340576171875</ele>
        <time>2008-07-27T11:13:28Z</time>
      </trkpt>
      <trkpt lat="46.275207996368408" lon="7.953758239746094">
        <ele>1548.340576171875</ele>
        <time>2008-07-27T11:13:30Z</time>
      </trkpt>
      <trkpt lat="46.275486946105957" lon="7.953264713287354">
        <ele>1548.340576171875</ele>
        <time>2008-07-27T11:14:06Z</time>
      </trkpt>
      <trkpt lat="46.277310848236084" lon="7.953500747680664">
        <ele>1548.340576171875</ele>
        <time>2008-07-27T11:14:24Z</time>
      </trkpt>
      <trkpt lat="46.278104782104492" lon="7.953393459320068">
        <ele>1548.340576171875</ele>
        <time>2008-07-27T11:14:39Z</time>
      </trkpt>
      <trkpt lat="46.281602382659912" lon="7.950625419616699">
        <ele>1545.937255859375</ele>
        <time>2008-07-27T11:16:09Z</time>
      </trkpt>
      <trkpt lat="46.28415584564209" lon="7.95710563659668">
        <ele>1541.611328125</ele>
        <time>2008-07-27T11:16:16Z</time>
      </trkpt>
      <trkpt lat="46.284177303314209" lon="7.957277297973633">
        <ele>1339.734375</ele>
        <time>2008-07-27T11:17:36Z</time>
      </trkpt>
      <trkpt lat="46.284627914428711" lon="7.957298755645752">
        <ele>1339.734375</ele>
        <time>2008-07-27T11:17:45Z</time>
      </trkpt>
      <trkpt lat="46.285336017608643" lon="7.957448959350586">
        <ele>1339.734375</ele>
        <time>2008-07-27T11:18:00Z</time>
      </trkpt>
      <trkpt lat="46.285679340362549" lon="7.957706451416016">
        <ele>1339.734375</ele>
        <time>2008-07-27T11:18:09Z</time>
      </trkpt>
      <trkpt lat="46.285851001739502" lon="7.957813739776611">
        <ele>1339.734375</ele>
        <time>2008-07-27T11:18:13Z</time>
      </trkpt>
      <trkpt lat="46.28615140914917" lon="7.957792282104492">
        <ele>1339.253662109375</ele>
        <time>2008-07-27T11:18:17Z</time>
      </trkpt>
      <trkpt lat="46.286923885345459" lon="7.958006858825684">
        <ele>1338.29248046875</ele>
        <time>2008-07-27T11:18:26Z</time>
      </trkpt>
      <trkpt lat="46.287696361541748" lon="7.958285808563232">
        <ele>1338.29248046875</ele>
        <time>2008-07-27T11:18:33Z</time>
      </trkpt>
      <trkpt lat="46.288340091705322" lon="7.958436012268066">
        <ele>1334.447265625</ele>
        <time>2008-07-27T11:18:39Z</time>
      </trkpt>
      <trkpt lat="46.288962364196777" lon="7.958457469940186">
        <ele>1331.563232421875</ele>
        <time>2008-07-27T11:18:45Z</time>
      </trkpt>
      <trkpt lat="46.28964900970459" lon="7.959187030792236">
        <ele>1331.082763671875</ele>
        <time>2008-07-27T11:18:52Z</time>
      </trkpt>
      <trkpt lat="46.290593147277832" lon="7.959895133972168">
        <ele>1331.082763671875</ele>
        <time>2008-07-27T11:19:01Z</time>
      </trkpt>
      <trkpt lat="46.290807723999023" lon="7.960066795349121">
        <ele>1329.159912109375</ele>
        <time>2008-07-27T11:19:06Z</time>
      </trkpt>
      <trkpt lat="46.290807723999023" lon="7.960495948791504">
        <ele>1329.159912109375</ele>
        <time>2008-07-27T11:19:10Z</time>
      </trkpt>
      <trkpt lat="46.290957927703857" lon="7.960817813873291">
        <ele>1329.159912109375</ele>
        <time>2008-07-27T11:19:14Z</time>
      </trkpt>
      <trkpt lat="46.291065216064453" lon="7.960731983184815">
        <ele>1329.159912109375</ele>
        <time>2008-07-27T11:19:16Z</time>
      </trkpt>
      <trkpt lat="46.291129589080811" lon="7.9606032371521">
        <ele>1329.159912109375</ele>
        <time>2008-07-27T11:19:18Z</time>
      </trkpt>
      <trkpt lat="46.291494369506836" lon="7.960324287414551">
        <ele>1329.159912109375</ele>
        <time>2008-07-27T11:19:24Z</time>
      </trkpt>
      <trkpt lat="46.291429996490479" lon="7.958650588989258">
        <ele>1320.98876953125</ele>
        <time>2008-07-27T11:19:47Z</time>
      </trkpt>
      <trkpt lat="46.291472911834717" lon="7.958242893218994">
        <ele>1320.98876953125</ele>
        <time>2008-07-27T11:19:50Z</time>
      </trkpt>
      <trkpt lat="46.291687488555908" lon="7.957921028137207">
        <ele>1316.662841796875</ele>
        <time>2008-07-27T11:19:54Z</time>
      </trkpt>
      <trkpt lat="46.292202472686768" lon="7.957491874694824">
        <ele>1310.414306640625</ele>
        <time>2008-07-27T11:20:01Z</time>
      </trkpt>
      <trkpt lat="46.292846202850342" lon="7.957019805908203">
        <ele>1310.414306640625</ele>
        <time>2008-07-27T11:20:10Z</time>
      </trkpt>
      <trkpt lat="46.292996406555176" lon="7.956955432891846">
        <ele>1310.414306640625</ele>
        <time>2008-07-27T11:20:12Z</time>
      </trkpt>
      <trkpt lat="46.293318271636963" lon="7.956933975219727">
        <ele>1308.49169921875</ele>
        <time>2008-07-27T11:20:16Z</time>
      </trkpt>
      <trkpt lat="46.293683052062988" lon="7.956740856170654">
        <ele>1308.49169921875</ele>
        <time>2008-07-27T11:20:21Z</time>
      </trkpt>
      <trkpt lat="46.294198036193848" lon="7.95661211013794">
        <ele>1306.56884765625</ele>
        <time>2008-07-27T11:20:27Z</time>
      </trkpt>
      <trkpt lat="46.294455528259277" lon="7.956805229187012">
        <ele>1304.165771484375</ele>
        <time>2008-07-27T11:20:31Z</time>
      </trkpt>
      <trkpt lat="46.294670104980469" lon="7.957320213317871">
        <ele>1304.165771484375</ele>
        <time>2008-07-27T11:20:37Z</time>
      </trkpt>
      <trkpt lat="46.294734477996826" lon="7.957384586334229">
        <ele>1304.165771484375</ele>
        <time>2008-07-27T11:20:44Z</time>
      </trkpt>
      <trkpt lat="46.295163631439209" lon="7.957684993743897">
        <ele>1302.7236328125</ele>
        <time>2008-07-27T11:22:16Z</time>
      </trkpt>
      <trkpt lat="46.295313835144043" lon="7.957792282104492">
        <ele>1302.7236328125</ele>
        <time>2008-07-27T11:22:26Z</time>
      </trkpt>
      <trkpt lat="46.295571327209473" lon="7.957942485809326">
        <ele>1302.7236328125</ele>
        <time>2008-07-27T11:22:30Z</time>
      </trkpt>
      <trkpt lat="46.296257972717285" lon="7.958521842956543">
        <ele>1302.7236328125</ele>
        <time>2008-07-27T11:22:38Z</time>
      </trkpt>
      <trkpt lat="46.296923160552979" lon="7.959208488464356">
        <ele>1302.7236328125</ele>
        <time>2008-07-27T11:22:45Z</time>
      </trkpt>
      <trkpt lat="46.297738552093506" lon="7.960367202758789">
        <ele>1302.7236328125</ele>
        <time>2008-07-27T11:22:54Z</time>
      </trkpt>
      <trkpt lat="46.298403739929199" lon="7.961461544036865">
        <ele>1302.7236328125</ele>
        <time>2008-07-27T11:23:02Z</time>
      </trkpt>
      <trkpt lat="46.298403739929199" lon="7.961547374725342">
        <ele>1302.7236328125</ele>
        <time>2008-07-27T11:23:06Z</time>
      </trkpt>
      <trkpt lat="46.298360824584961" lon="7.96159029006958">
        <ele>1302.7236328125</ele>
        <time>2008-07-27T11:23:16Z</time>
      </trkpt>
      <trkpt lat="46.296751499176025" lon="7.961289882659912">
        <ele>1178.713623046875</ele>
        <time>2008-07-27T11:31:29Z</time>
      </trkpt>
      <trkpt lat="46.296751499176025" lon="7.961311340332031">
        <ele>1178.713623046875</ele>
        <time>2008-07-27T11:31:30Z</time>
      </trkpt>
      <trkpt lat="46.296815872192383" lon="7.961525917053223">
        <ele>1178.23291015625</ele>
        <time>2008-07-27T11:31:39Z</time>
      </trkpt>
      <trkpt lat="46.296944618225098" lon="7.961997985839844">
        <ele>1178.23291015625</ele>
        <time>2008-07-27T11:31:51Z</time>
      </trkpt>
      <trkpt lat="46.297051906585693" lon="7.96234130859375">
        <ele>1177.752197265625</ele>
        <time>2008-07-27T11:31:57Z</time>
      </trkpt>
      <trkpt lat="46.297094821929932" lon="7.962577342987061">
        <ele>1177.752197265625</ele>
        <time>2008-07-27T11:32:00Z</time>
      </trkpt>
      <trkpt lat="46.297330856323242" lon="7.96309232711792">
        <ele>1177.752197265625</ele>
        <time>2008-07-27T11:32:05Z</time>
      </trkpt>
      <trkpt lat="46.29763126373291" lon="7.963950634002686">
        <ele>1177.752197265625</ele>
        <time>2008-07-27T11:32:12Z</time>
      </trkpt>
      <trkpt lat="46.297674179077148" lon="7.964057922363281">
        <ele>1177.752197265625</ele>
        <time>2008-07-27T11:32:13Z</time>
      </trkpt>
      <trkpt lat="46.297416687011719" lon="7.96459436416626">
        <ele>1177.271728515625</ele>
        <time>2008-07-27T11:32:19Z</time>
      </trkpt>
      <trkpt lat="46.297202110290527" lon="7.965002059936523">
        <ele>1177.271728515625</ele>
        <time>2008-07-27T11:32:23Z</time>
      </trkpt>
      <trkpt lat="46.29713773727417" lon="7.965559959411621">
        <ele>1177.271728515625</ele>
        <time>2008-07-27T11:32:27Z</time>
      </trkpt>
      <trkpt lat="46.297159194946289" lon="7.966182231903076">
        <ele>1176.791015625</ele>
        <time>2008-07-27T11:32:31Z</time>
      </trkpt>
      <trkpt lat="46.297481060028076" lon="7.967040538787842">
        <ele>1176.791015625</ele>
        <time>2008-07-27T11:32:37Z</time>
      </trkpt>
      <trkpt lat="46.297781467437744" lon="7.967984676361084">
        <ele>1176.310302734375</ele>
        <time>2008-07-27T11:32:44Z</time>
      </trkpt>
      <trkpt lat="46.298103332519531" lon="7.968971729278565">
        <ele>1176.310302734375</ele>
        <time>2008-07-27T11:32:51Z</time>
      </trkpt>
      <trkpt lat="46.298446655273438" lon="7.969357967376709">
        <ele>1176.310302734375</ele>
        <time>2008-07-27T11:33:01Z</time>
      </trkpt>
      <trkpt lat="46.298575401306152" lon="7.969508171081543">
        <ele>1176.310302734375</ele>
        <time>2008-07-27T11:33:03Z</time>
      </trkpt>
      <trkpt lat="46.299240589141846" lon="7.969872951507568">
        <ele>1171.984375</ele>
        <time>2008-07-27T11:33:09Z</time>
      </trkpt>
      <trkpt lat="46.299841403961182" lon="7.97008752822876">
        <ele>1168.619873046875</ele>
        <time>2008-07-27T11:33:14Z</time>
      </trkpt>
      <trkpt lat="46.300334930419922" lon="7.970302104949951">
        <ele>1165.736083984375</ele>
        <time>2008-07-27T11:33:18Z</time>
      </trkpt>
      <trkpt lat="46.300699710845947" lon="7.970752716064453">
        <ele>1162.37109375</ele>
        <time>2008-07-27T11:33:22Z</time>
      </trkpt>
      <trkpt lat="46.300742626190186" lon="7.970902919769287">
        <ele>1162.37109375</ele>
        <time>2008-07-27T11:33:23Z</time>
      </trkpt>
      <trkpt lat="46.300978660583496" lon="7.972061634063721">
        <ele>1161.409912109375</ele>
        <time>2008-07-27T11:33:30Z</time>
      </trkpt>
      <trkpt lat="46.301236152648926" lon="7.973628044128418">
        <ele>1158.04541015625</ele>
        <time>2008-07-27T11:33:39Z</time>
      </trkpt>
      <trkpt lat="46.301343441009521" lon="7.973971366882324">
        <ele>1157.564697265625</ele>
        <time>2008-07-27T11:33:41Z</time>
      </trkpt>
      <trkpt lat="46.301364898681641" lon="7.974314689636231">
        <ele>1154.6806640625</ele>
        <time>2008-07-27T11:33:45Z</time>
      </trkpt>
      <trkpt lat="46.30138635635376" lon="7.974357604980469">
        <ele>1147.470703125</ele>
        <time>2008-07-27T11:33:49Z</time>
      </trkpt>
      <trkpt lat="46.301236152648926" lon="7.974293231964111">
        <ele>1072.00732421875</ele>
        <time>2008-07-27T11:34:14Z</time>
      </trkpt>
      <trkpt lat="46.301064491271973" lon="7.974035739898682">
        <ele>1071.526611328125</ele>
        <time>2008-07-27T11:34:18Z</time>
      </trkpt>
      <trkpt lat="46.301043033599854" lon="7.973992824554443">
        <ele>1071.526611328125</ele>
        <time>2008-07-27T11:34:19Z</time>
      </trkpt>
      <trkpt lat="46.300978660583496" lon="7.973692417144775">
        <ele>1070.5654296875</ele>
        <time>2008-07-27T11:34:23Z</time>
      </trkpt>
      <trkpt lat="46.300721168518066" lon="7.972683906555176">
        <ele>1070.084716796875</ele>
        <time>2008-07-27T11:34:34Z</time>
      </trkpt>
      <trkpt lat="46.300699710845947" lon="7.97257661819458">
        <ele>1070.084716796875</ele>
        <time>2008-07-27T11:34:35Z</time>
      </trkpt>
      <trkpt lat="46.300721168518066" lon="7.97234058380127">
        <ele>1070.084716796875</ele>
        <time>2008-07-27T11:34:37Z</time>
      </trkpt>
      <trkpt lat="46.301021575927734" lon="7.970967292785645">
        <ele>1069.12353515625</ele>
        <time>2008-07-27T11:34:46Z</time>
      </trkpt>
      <trkpt lat="46.301064491271973" lon="7.970280647277832">
        <ele>1064.79736328125</ele>
        <time>2008-07-27T11:34:51Z</time>
      </trkpt>
      <trkpt lat="46.300806999206543" lon="7.969207763671875">
        <ele>1061.91357421875</ele>
        <time>2008-07-27T11:34:59Z</time>
      </trkpt>
      <trkpt lat="46.300249099731445" lon="7.967619895935059">
        <ele>1057.587646484375</ele>
        <time>2008-07-27T11:35:11Z</time>
      </trkpt>
      <trkpt lat="46.299755573272705" lon="7.966482639312744">
        <ele>1054.22314453125</ele>
        <time>2008-07-27T11:35:20Z</time>
      </trkpt>
      <trkpt lat="46.299455165863037" lon="7.965817451477051">
        <ele>1052.30029296875</ele>
        <time>2008-07-27T11:35:26Z</time>
      </trkpt>
      <trkpt lat="46.299498081207275" lon="7.965967655181885">
        <ele>1051.3388671875</ele>
        <time>2008-07-27T11:35:30Z</time>
      </trkpt>
      <trkpt lat="46.299862861633301" lon="7.966268062591553">
        <ele>1048.454833984375</ele>
        <time>2008-07-27T11:35:36Z</time>
      </trkpt>
      <trkpt lat="46.300163269042969" lon="7.966418266296387">
        <ele>1047.974365234375</ele>
        <time>2008-07-27T11:35:40Z</time>
      </trkpt>
      <trkpt lat="46.300528049468994" lon="7.966740131378174">
        <ele>1047.974365234375</ele>
        <time>2008-07-27T11:35:44Z</time>
      </trkpt>
      <trkpt lat="46.300656795501709" lon="7.966954708099365">
        <ele>1047.974365234375</ele>
        <time>2008-07-27T11:35:46Z</time>
      </trkpt>
      <trkpt lat="46.301214694976807" lon="7.967619895935059">
        <ele>968.184814453125</ele>
        <time>2008-07-27T11:35:53Z</time>
      </trkpt>
      <trkpt lat="46.301772594451904" lon="7.968456745147705">
        <ele>957.610595703125</ele>
        <time>2008-07-27T11:36:00Z</time>
      </trkpt>
      <trkpt lat="46.302030086517334" lon="7.968864440917969">
        <ele>956.16845703125</ele>
        <time>2008-07-27T11:36:03Z</time>
      </trkpt>
      <trkpt lat="46.302223205566406" lon="7.969551086425781">
        <ele>954.245849609375</ele>
        <time>2008-07-27T11:36:07Z</time>
      </trkpt>
      <trkpt lat="46.302523612976074" lon="7.970387935638428">
        <ele>953.284423828125</ele>
        <time>2008-07-27T11:36:12Z</time>
      </trkpt>
      <trkpt lat="46.302781105041504" lon="7.971096038818359">
        <ele>953.284423828125</ele>
        <time>2008-07-27T11:36:16Z</time>
      </trkpt>
      <trkpt lat="46.302952766418457" lon="7.971632480621338">
        <ele>952.8037109375</ele>
        <time>2008-07-27T11:36:19Z</time>
      </trkpt>
      <trkpt lat="46.303038597106934" lon="7.972791194915772">
        <ele>952.8037109375</ele>
        <time>2008-07-27T11:36:25Z</time>
      </trkpt>
      <trkpt lat="46.303231716156006" lon="7.974421977996826">
        <ele>952.322998046875</ele>
        <time>2008-07-27T11:36:34Z</time>
      </trkpt>
      <trkpt lat="46.303360462188721" lon="7.97508716583252">
        <ele>951.842529296875</ele>
        <time>2008-07-27T11:36:38Z</time>
      </trkpt>
      <trkpt lat="46.303532123565674" lon="7.975687980651856">
        <ele>947.5166015625</ele>
        <time>2008-07-27T11:36:42Z</time>
      </trkpt>
      <trkpt lat="46.304068565368652" lon="7.976953983306885">
        <ele>940.787353515625</ele>
        <time>2008-07-27T11:36:50Z</time>
      </trkpt>
      <trkpt lat="46.304175853729248" lon="7.977426052093506">
        <ele>933.0966796875</ele>
        <time>2008-07-27T11:36:53Z</time>
      </trkpt>
      <trkpt lat="46.304240226745605" lon="7.978262901306152">
        <ele>925.40625</ele>
        <time>2008-07-27T11:36:58Z</time>
      </trkpt>
      <trkpt lat="46.304283142089844" lon="7.979378700256348">
        <ele>915.793212890625</ele>
        <time>2008-07-27T11:37:05Z</time>
      </trkpt>
      <trkpt lat="46.304326057434082" lon="7.979850769042969">
        <ele>913.870361328125</ele>
        <time>2008-07-27T11:37:08Z</time>
      </trkpt>
      <trkpt lat="46.304218769073486" lon="7.981009483337402">
        <ele>908.583251953125</ele>
        <time>2008-07-27T11:37:15Z</time>
      </trkpt>
      <trkpt lat="46.303982734680176" lon="7.98130989074707">
        <ele>901.373291015625</ele>
        <time>2008-07-27T11:37:19Z</time>
      </trkpt>
      <trkpt lat="46.303832530975342" lon="7.981503009796143">
        <ele>896.086181640625</ele>
        <time>2008-07-27T11:37:22Z</time>
      </trkpt>
      <trkpt lat="46.303811073303223" lon="7.981631755828857">
        <ele>890.798583984375</ele>
        <time>2008-07-27T11:37:25Z</time>
      </trkpt>
      <trkpt lat="46.303811073303223" lon="7.981631755828857">
        <ele>889.356689453125</ele>
        <time>2008-07-27T11:37:26Z</time>
      </trkpt>
      <trkpt lat="46.303789615631104" lon="7.981674671173096">
        <ele>877.821044921875</ele>
        <time>2008-07-27T11:37:34Z</time>
      </trkpt>
      <trkpt lat="46.30363941192627" lon="7.981610298156738">
        <ele>846.578369140625</ele>
        <time>2008-07-27T11:38:38Z</time>
      </trkpt>
      <trkpt lat="46.303596496582031" lon="7.981867790222168">
        <ele>844.655517578125</ele>
        <time>2008-07-27T11:38:43Z</time>
      </trkpt>
      <trkpt lat="46.303596496582031" lon="7.982554435729981">
        <ele>843.694091796875</ele>
        <time>2008-07-27T11:38:50Z</time>
      </trkpt>
      <trkpt lat="46.303553581237793" lon="7.98332691192627">
        <ele>843.694091796875</ele>
        <time>2008-07-27T11:38:57Z</time>
      </trkpt>
      <trkpt lat="46.303746700286865" lon="7.983798980712891">
        <ele>842.73291015625</ele>
        <time>2008-07-27T11:39:01Z</time>
      </trkpt>
      <trkpt lat="46.304025650024414" lon="7.983906269073486">
        <ele>839.3681640625</ele>
        <time>2008-07-27T11:39:04Z</time>
      </trkpt>
      <trkpt lat="46.30413293838501" lon="7.983884811401367">
        <ele>837.92626953125</ele>
        <time>2008-07-27T11:39:05Z</time>
      </trkpt>
      <trkpt lat="46.30436897277832" lon="7.983798980712891">
        <ele>833.11962890625</ele>
        <time>2008-07-27T11:39:08Z</time>
      </trkpt>
      <trkpt lat="46.304519176483154" lon="7.983627319335938">
        <ele>829.755126953125</ele>
        <time>2008-07-27T11:39:11Z</time>
      </trkpt>
      <trkpt lat="46.304540634155273" lon="7.983455657958984">
        <ele>827.832275390625</ele>
        <time>2008-07-27T11:39:13Z</time>
      </trkpt>
      <trkpt lat="46.304497718811035" lon="7.983262538909912">
        <ele>825.90966796875</ele>
        <time>2008-07-27T11:39:15Z</time>
      </trkpt>
      <trkpt lat="46.304583549499512" lon="7.982532978057861">
        <ele>822.064453125</ele>
        <time>2008-07-27T11:39:22Z</time>
      </trkpt>
      <trkpt lat="46.30462646484375" lon="7.98231840133667">
        <ele>821.103271484375</ele>
        <time>2008-07-27T11:39:24Z</time>
      </trkpt>
      <trkpt lat="46.304948329925537" lon="7.982039451599121">
        <ele>820.141845703125</ele>
        <time>2008-07-27T11:39:28Z</time>
      </trkpt>
      <trkpt lat="46.30511999130249" lon="7.982039451599121">
        <ele>819.661376953125</ele>
        <time>2008-07-27T11:39:30Z</time>
      </trkpt>
      <trkpt lat="46.305313110351563" lon="7.982361316680908">
        <ele>815.816162109375</ele>
        <time>2008-07-27T11:39:35Z</time>
      </trkpt>
      <trkpt lat="46.305313110351563" lon="7.982468605041504">
        <ele>814.854736328125</ele>
        <time>2008-07-27T11:39:36Z</time>
      </trkpt>
      <trkpt lat="46.305398941040039" lon="7.982919216156006">
        <ele>810.0478515625</ele>
        <time>2008-07-27T11:39:40Z</time>
      </trkpt>
      <trkpt lat="46.305806636810303" lon="7.983927726745606">
        <ele>799.954345703125</ele>
        <time>2008-07-27T11:39:48Z</time>
      </trkpt>
      <trkpt lat="46.306407451629639" lon="7.985301017761231">
        <ele>788.41845703125</ele>
        <time>2008-07-27T11:39:58Z</time>
      </trkpt>
      <trkpt lat="46.307029724121094" lon="7.986738681793213">
        <ele>779.28564453125</ele>
        <time>2008-07-27T11:40:08Z</time>
      </trkpt>
      <trkpt lat="46.307523250579834" lon="7.987961769104004">
        <ele>770.1533203125</ele>
        <time>2008-07-27T11:40:16Z</time>
      </trkpt>
      <trkpt lat="46.307952404022217" lon="7.989163398742676">
        <ele>758.617431640625</ele>
        <time>2008-07-27T11:40:23Z</time>
      </trkpt>
      <trkpt lat="46.30861759185791" lon="7.990837097167969">
        <ele>748.523681640625</ele>
        <time>2008-07-27T11:40:33Z</time>
      </trkpt>
      <trkpt lat="46.308681964874268" lon="7.99105167388916">
        <ele>747.08154296875</ele>
        <time>2008-07-27T11:40:35Z</time>
      </trkpt>
      <trkpt lat="46.308789253234863" lon="7.991180419921875">
        <ele>745.6396484375</ele>
        <time>2008-07-27T11:40:39Z</time>
      </trkpt>
      <trkpt lat="46.308832168579102" lon="7.991116046905518">
        <ele>744.67822265625</ele>
        <time>2008-07-27T11:40:41Z</time>
      </trkpt>
      <trkpt lat="46.308939456939697" lon="7.990901470184326">
        <ele>743.717041015625</ele>
        <time>2008-07-27T11:40:46Z</time>
      </trkpt>
      <trkpt lat="46.30911111831665" lon="7.990322113037109">
        <ele>741.313720703125</ele>
        <time>2008-07-27T11:40:54Z</time>
      </trkpt>
      <trkpt lat="46.309239864349365" lon="7.989742755889893">
        <ele>737.94921875</ele>
        <time>2008-07-27T11:41:00Z</time>
      </trkpt>
      <trkpt lat="46.30936861038208" lon="7.988712787628174">
        <ele>734.584716796875</ele>
        <time>2008-07-27T11:41:08Z</time>
      </trkpt>
      <trkpt lat="46.309497356414795" lon="7.987682819366455">
        <ele>729.297119140625</ele>
        <time>2008-07-27T11:41:15Z</time>
      </trkpt>
      <trkpt lat="46.309647560119629" lon="7.986373901367188">
        <ele>725.451904296875</ele>
        <time>2008-07-27T11:41:23Z</time>
      </trkpt>
      <trkpt lat="46.309905052185059" lon="7.984678745269775">
        <ele>715.358154296875</ele>
        <time>2008-07-27T11:41:33Z</time>
      </trkpt>
      <trkpt lat="46.310055255889893" lon="7.98332691192627">
        <ele>711.512939453125</ele>
        <time>2008-07-27T11:41:41Z</time>
      </trkpt>
      <trkpt lat="46.310291290283203" lon="7.981867790222168">
        <ele>705.264404296875</ele>
        <time>2008-07-27T11:41:50Z</time>
      </trkpt>
      <trkpt lat="46.310484409332275" lon="7.98058032989502">
        <ele>699.015625</ele>
        <time>2008-07-27T11:41:58Z</time>
      </trkpt>
      <trkpt lat="46.310698986053467" lon="7.979164123535156">
        <ele>692.767333984375</ele>
        <time>2008-07-27T11:42:07Z</time>
      </trkpt>
      <trkpt lat="46.310827732086182" lon="7.978391647338867">
        <ele>687.47998046875</ele>
        <time>2008-07-27T11:42:13Z</time>
      </trkpt>
      <trkpt lat="46.310892105102539" lon="7.978198528289795">
        <ele>686.0380859375</ele>
        <time>2008-07-27T11:42:15Z</time>
      </trkpt>
      <trkpt lat="46.31087064743042" lon="7.977876663208008">
        <ele>684.59619140625</ele>
        <time>2008-07-27T11:42:19Z</time>
      </trkpt>
      <trkpt lat="46.310741901397705" lon="7.977447509765625">
        <ele>684.115478515625</ele>
        <time>2008-07-27T11:42:26Z</time>
      </trkpt>
      <trkpt lat="46.310505867004395" lon="7.977018356323242">
        <ele>684.59619140625</ele>
        <time>2008-07-27T11:42:36Z</time>
      </trkpt>
      <trkpt lat="46.310334205627441" lon="7.976546287536621">
        <ele>683.15380859375</ele>
        <time>2008-07-27T11:42:46Z</time>
      </trkpt>
      <trkpt lat="46.310248374938965" lon="7.976052761077881">
        <ele>682.192626953125</ele>
        <time>2008-07-27T11:42:57Z</time>
      </trkpt>
      <trkpt lat="46.310162544250488" lon="7.975559234619141">
        <ele>682.192626953125</ele>
        <time>2008-07-27T11:43:08Z</time>
      </trkpt>
      <trkpt lat="46.310055255889893" lon="7.975001335144043">
        <ele>682.67333984375</ele>
        <time>2008-07-27T11:43:20Z</time>
      </trkpt>
      <trkpt lat="46.309905052185059" lon="7.974593639373779">
        <ele>682.67333984375</ele>
        <time>2008-07-27T11:43:28Z</time>
      </trkpt>
      <trkpt lat="46.30962610244751" lon="7.973971366882324">
        <ele>682.67333984375</ele>
        <time>2008-07-27T11:43:40Z</time>
      </trkpt>
      <trkpt lat="46.309518814086914" lon="7.973563671112061">
        <ele>682.192626953125</ele>
        <time>2008-07-27T11:43:46Z</time>
      </trkpt>
      <trkpt lat="46.309411525726318" lon="7.973113059997559">
        <ele>681.2314453125</ele>
        <time>2008-07-27T11:43:52Z</time>
      </trkpt>
      <trkpt lat="46.30911111831665" lon="7.972168922424316">
        <ele>676.905517578125</ele>
        <time>2008-07-27T11:44:02Z</time>
      </trkpt>
      <trkpt lat="46.308746337890625" lon="7.971010208129883">
        <ele>671.6181640625</ele>
        <time>2008-07-27T11:44:13Z</time>
      </trkpt>
      <trkpt lat="46.308467388153076" lon="7.97008752822876">
        <ele>668.253662109375</ele>
        <time>2008-07-27T11:44:21Z</time>
      </trkpt>
      <trkpt lat="46.308295726776123" lon="7.969529628753662">
        <ele>666.330810546875</ele>
        <time>2008-07-27T11:44:26Z</time>
      </trkpt>
      <trkpt lat="46.308188438415527" lon="7.969207763671875">
        <ele>665.36962890625</ele>
        <time>2008-07-27T11:44:29Z</time>
      </trkpt>
      <trkpt lat="46.307780742645264" lon="7.967963218688965">
        <ele>663.447021484375</ele>
        <time>2008-07-27T11:44:41Z</time>
      </trkpt>
      <trkpt lat="46.307523250579834" lon="7.967061996459961">
        <ele>664.888916015625</ele>
        <time>2008-07-27T11:44:51Z</time>
      </trkpt>
      <trkpt lat="46.307265758514404" lon="7.966182231903076">
        <ele>664.888916015625</ele>
        <time>2008-07-27T11:45:02Z</time>
      </trkpt>
      <trkpt lat="46.307072639465332" lon="7.96558141708374">
        <ele>664.888916015625</ele>
        <time>2008-07-27T11:45:10Z</time>
      </trkpt>
      <trkpt lat="46.307137012481689" lon="7.965302467346191">
        <ele>664.408203125</ele>
        <time>2008-07-27T11:45:14Z</time>
      </trkpt>
      <trkpt lat="46.307222843170166" lon="7.964916229248047">
        <ele>664.408203125</ele>
        <time>2008-07-27T11:45:19Z</time>
      </trkpt>
      <trkpt lat="46.307094097137451" lon="7.964572906494141">
        <ele>663.927490234375</ele>
        <time>2008-07-27T11:45:24Z</time>
      </trkpt>
      <trkpt lat="46.307051181793213" lon="7.964529991149902">
        <ele>663.927490234375</ele>
        <time>2008-07-27T11:45:25Z</time>
      </trkpt>
      <trkpt lat="46.306772232055664" lon="7.964122295379639">
        <ele>665.36962890625</ele>
        <time>2008-07-27T11:45:33Z</time>
      </trkpt>
      <trkpt lat="46.306664943695068" lon="7.963907718658447">
        <ele>663.927490234375</ele>
        <time>2008-07-27T11:45:39Z</time>
      </trkpt>
      <trkpt lat="46.306707859039307" lon="7.963907718658447">
        <ele>668.253662109375</ele>
        <time>2008-07-27T11:47:16Z</time>
      </trkpt>
      <trkpt lat="46.306686401367188" lon="7.963864803314209">
        <ele>669.69580078125</ele>
        <time>2008-07-27T11:47:40Z</time>
      </trkpt>
      <trkpt lat="46.306579113006592" lon="7.964015007019043">
        <ele>669.215087890625</ele>
        <time>2008-07-27T11:47:44Z</time>
      </trkpt>
      <trkpt lat="46.306600570678711" lon="7.964272499084473">
        <ele>669.215087890625</ele>
        <time>2008-07-27T11:47:48Z</time>
      </trkpt>
      <trkpt lat="46.30662202835083" lon="7.964422702789307">
        <ele>669.215087890625</ele>
        <time>2008-07-27T11:47:50Z</time>
      </trkpt>
      <trkpt lat="46.306536197662354" lon="7.964658737182617">
        <ele>669.215087890625</ele>
        <time>2008-07-27T11:47:54Z</time>
      </trkpt>
      <trkpt lat="46.30638599395752" lon="7.96485185623169">
        <ele>668.734375</ele>
        <time>2008-07-27T11:47:59Z</time>
      </trkpt>
      <trkpt lat="46.30638599395752" lon="7.964894771575928">
        <ele>668.734375</ele>
        <time>2008-07-27T11:48:01Z</time>
      </trkpt>
      <trkpt lat="46.306407451629639" lon="7.964980602264404">
        <ele>668.734375</ele>
        <time>2008-07-27T11:48:03Z</time>
      </trkpt>
      <trkpt lat="46.306493282318115" lon="7.965323925018311">
        <ele>668.253662109375</ele>
        <time>2008-07-27T11:48:09Z</time>
      </trkpt>
      <trkpt lat="46.30638599395752" lon="7.965538501739502">
        <ele>668.253662109375</ele>
        <time>2008-07-27T11:48:13Z</time>
      </trkpt>
      <trkpt lat="46.306021213531494" lon="7.965989112854004">
        <ele>669.215087890625</ele>
        <time>2008-07-27T11:48:23Z</time>
      </trkpt>
      <trkpt lat="46.305956840515137" lon="7.966074943542481">
        <ele>669.215087890625</ele>
        <time>2008-07-27T11:48:25Z</time>
      </trkpt>
      <trkpt lat="46.305828094482422" lon="7.966525554656982">
        <ele>671.1376953125</ele>
        <time>2008-07-27T11:48:34Z</time>
      </trkpt>
      <trkpt lat="46.305828094482422" lon="7.967019081115723">
        <ele>673.541015625</ele>
        <time>2008-07-27T11:48:44Z</time>
      </trkpt>
      <trkpt lat="46.305828094482422" lon="7.967534065246582">
        <ele>676.4248046875</ele>
        <time>2008-07-27T11:48:55Z</time>
      </trkpt>
      <trkpt lat="46.305828094482422" lon="7.96809196472168">
        <ele>679.789306640625</ele>
        <time>2008-07-27T11:49:07Z</time>
      </trkpt>
      <trkpt lat="46.305806636810303" lon="7.968714237213135">
        <ele>681.7119140625</ele>
        <time>2008-07-27T11:49:20Z</time>
      </trkpt>
      <trkpt lat="46.305785179138184" lon="7.969207763671875">
        <ele>684.59619140625</ele>
        <time>2008-07-27T11:49:31Z</time>
      </trkpt>
      <trkpt lat="46.305763721466064" lon="7.969701290130615">
        <ele>687.47998046875</ele>
        <time>2008-07-27T11:49:43Z</time>
      </trkpt>
      <trkpt lat="46.305742263793945" lon="7.970151901245117">
        <ele>687.960693359375</ele>
        <time>2008-07-27T11:49:54Z</time>
      </trkpt>
      <trkpt lat="46.305570602416992" lon="7.972855567932129">
        <ele>687.960693359375</ele>
        <time>2008-07-27T11:51:06Z</time>
      </trkpt>
      <trkpt lat="46.306085586547852" lon="7.973306179046631">
        <ele>701.89990234375</ele>
        <time>2008-07-27T11:51:11Z</time>
      </trkpt>
      <trkpt lat="46.306235790252686" lon="7.97382116317749">
        <ele>707.667724609375</ele>
        <time>2008-07-27T11:51:25Z</time>
      </trkpt>
      <trkpt lat="46.306407451629639" lon="7.974293231964111">
        <ele>709.59033203125</ele>
        <time>2008-07-27T11:51:38Z</time>
      </trkpt>
      <trkpt lat="46.306536197662354" lon="7.974658012390137">
        <ele>711.512939453125</ele>
        <time>2008-07-27T11:51:48Z</time>
      </trkpt>
      <trkpt lat="46.306729316711426" lon="7.975108623504639">
        <ele>714.87744140625</ele>
        <time>2008-07-27T11:52:00Z</time>
      </trkpt>
      <trkpt lat="46.306965351104736" lon="7.975666522979736">
        <ele>716.319580078125</ele>
        <time>2008-07-27T11:52:13Z</time>
      </trkpt>
      <trkpt lat="46.307222843170166" lon="7.976245880126953">
        <ele>717.761474609375</ele>
        <time>2008-07-27T11:52:27Z</time>
      </trkpt>
      <trkpt lat="46.307480335235596" lon="7.976846694946289">
        <ele>718.2421875</ele>
        <time>2008-07-27T11:52:40Z</time>
      </trkpt>
      <trkpt lat="46.307759284973145" lon="7.977511882781982">
        <ele>719.20361328125</ele>
        <time>2008-07-27T11:52:53Z</time>
      </trkpt>
      <trkpt lat="46.308016777038574" lon="7.978134155273438">
        <ele>719.20361328125</ele>
        <time>2008-07-27T11:53:03Z</time>
      </trkpt>
      <trkpt lat="46.308274269104004" lon="7.978863716125488">
        <ele>720.164794921875</ele>
        <time>2008-07-27T11:53:14Z</time>
      </trkpt>
      <trkpt lat="46.308531761169434" lon="7.979807853698731">
        <ele>723.529541015625</ele>
        <time>2008-07-27T11:53:27Z</time>
      </trkpt>
      <trkpt lat="46.308681964874268" lon="7.980773448944092">
        <ele>725.9326171875</ele>
        <time>2008-07-27T11:53:39Z</time>
      </trkpt>
      <trkpt lat="46.308767795562744" lon="7.98182487487793">
        <ele>726.413330078125</ele>
        <time>2008-07-27T11:53:52Z</time>
      </trkpt>
      <trkpt lat="46.308746337890625" lon="7.982704639434815">
        <ele>728.816650390625</ele>
        <time>2008-07-27T11:54:04Z</time>
      </trkpt>
      <trkpt lat="46.308703422546387" lon="7.98332691192627">
        <ele>731.700439453125</ele>
        <time>2008-07-27T11:54:14Z</time>
      </trkpt>
      <trkpt lat="46.30861759185791" lon="7.983906269073486">
        <ele>734.10400390625</ele>
        <time>2008-07-27T11:54:25Z</time>
      </trkpt>
      <trkpt lat="46.308510303497314" lon="7.984442710876465">
        <ele>736.98779296875</ele>
        <time>2008-07-27T11:54:37Z</time>
      </trkpt>
      <trkpt lat="46.308424472808838" lon="7.984828948974609">
        <ele>737.94921875</ele>
        <time>2008-07-27T11:54:47Z</time>
      </trkpt>
      <trkpt lat="46.308338642120361" lon="7.985236644744873">
        <ele>739.871826171875</ele>
        <time>2008-07-27T11:54:57Z</time>
      </trkpt>
      <trkpt lat="46.308252811431885" lon="7.985708713531494">
        <ele>740.8330078125</ele>
        <time>2008-07-27T11:55:09Z</time>
      </trkpt>
      <trkpt lat="46.308188438415527" lon="7.986094951629639">
        <ele>741.79443359375</ele>
        <time>2008-07-27T11:55:19Z</time>
      </trkpt>
      <trkpt lat="46.30812406539917" lon="7.986502647399902">
        <ele>743.717041015625</ele>
        <time>2008-07-27T11:55:29Z</time>
      </trkpt>
      <trkpt lat="46.308102607727051" lon="7.986974716186523">
        <ele>749.00439453125</ele>
        <time>2008-07-27T11:55:40Z</time>
      </trkpt>
      <trkpt lat="46.308081150054932" lon="7.987532615661621">
        <ele>751.888427734375</ele>
        <time>2008-07-27T11:55:53Z</time>
      </trkpt>
      <trkpt lat="46.308081150054932" lon="7.988154888153076">
        <ele>753.81103515625</ele>
        <time>2008-07-27T11:56:07Z</time>
      </trkpt>
      <trkpt lat="46.308102607727051" lon="7.988734245300293">
        <ele>754.772216796875</ele>
        <time>2008-07-27T11:56:19Z</time>
      </trkpt>
      <trkpt lat="46.30812406539917" lon="7.989485263824463">
        <ele>758.136962890625</ele>
        <time>2008-07-27T11:56:33Z</time>
      </trkpt>
      <trkpt lat="46.308145523071289" lon="7.990150451660156">
        <ele>759.578857421875</ele>
        <time>2008-07-27T11:56:45Z</time>
      </trkpt>
      <trkpt lat="46.308102607727051" lon="7.99081563949585">
        <ele>760.5400390625</ele>
        <time>2008-07-27T11:56:57Z</time>
      </trkpt>
      <trkpt lat="46.307995319366455" lon="7.991480827331543">
        <ele>761.982177734375</ele>
        <time>2008-07-27T11:57:09Z</time>
      </trkpt>
      <trkpt lat="46.30786657333374" lon="7.99206018447876">
        <ele>763.424072265625</ele>
        <time>2008-07-27T11:57:20Z</time>
      </trkpt>
      <trkpt lat="46.307780742645264" lon="7.992446422576904">
        <ele>764.8662109375</ele>
        <time>2008-07-27T11:57:28Z</time>
      </trkpt>
      <trkpt lat="46.307651996612549" lon="7.992982864379883">
        <ele>766.30810546875</ele>
        <time>2008-07-27T11:57:39Z</time>
      </trkpt>
      <trkpt lat="46.307523250579834" lon="7.993583679199219">
        <ele>767.75</ele>
        <time>2008-07-27T11:57:51Z</time>
      </trkpt>
      <trkpt lat="46.307458877563477" lon="7.994163036346436">
        <ele>770.1533203125</ele>
        <time>2008-07-27T11:58:02Z</time>
      </trkpt>
      <trkpt lat="46.307437419891357" lon="7.994720935821533">
        <ele>772.075927734375</ele>
        <time>2008-07-27T11:58:13Z</time>
      </trkpt>
      <trkpt lat="46.307480335235596" lon="7.995536327362061">
        <ele>776.40185546875</ele>
        <time>2008-07-27T11:58:29Z</time>
      </trkpt>
      <trkpt lat="46.307544708251953" lon="7.996029853820801">
        <ele>778.80517578125</ele>
        <time>2008-07-27T11:58:39Z</time>
      </trkpt>
      <trkpt lat="46.307651996612549" lon="7.996609210968018">
        <ele>780.72802734375</ele>
        <time>2008-07-27T11:58:51Z</time>
      </trkpt>
      <trkpt lat="46.307823657989502" lon="7.997188568115234">
        <ele>782.169921875</ele>
        <time>2008-07-27T11:59:04Z</time>
      </trkpt>
      <trkpt lat="46.307995319366455" lon="7.997660636901856">
        <ele>785.053955078125</ele>
        <time>2008-07-27T11:59:15Z</time>
      </trkpt>
      <trkpt lat="46.308231353759766" lon="7.998111248016357">
        <ele>788.41845703125</ele>
        <time>2008-07-27T11:59:27Z</time>
      </trkpt>
      <trkpt lat="46.308510303497314" lon="7.99854040145874">
        <ele>791.30224609375</ele>
        <time>2008-07-27T11:59:39Z</time>
      </trkpt>
      <trkpt lat="46.308853626251221" lon="7.998948097229004">
        <ele>794.666748046875</ele>
        <time>2008-07-27T11:59:52Z</time>
      </trkpt>
      <trkpt lat="46.309175491333008" lon="7.99929141998291">
        <ele>797.551025390625</ele>
        <time>2008-07-27T12:00:03Z</time>
      </trkpt>
      <trkpt lat="46.309561729431152" lon="7.999613285064697">
        <ele>798.992919921875</ele>
        <time>2008-07-27T12:00:14Z</time>
      </trkpt>
      <trkpt lat="46.310033798217773" lon="7.999913692474365">
        <ele>800.43505859375</ele>
        <time>2008-07-27T12:00:25Z</time>
      </trkpt>
      <trkpt lat="46.310677528381348" lon="8.000342845916748">
        <ele>802.357421875</ele>
        <time>2008-07-27T12:00:39Z</time>
      </trkpt>
      <trkpt lat="46.311278343200684" lon="8.000750541687012">
        <ele>804.7607421875</ele>
        <time>2008-07-27T12:00:52Z</time>
      </trkpt>
      <trkpt lat="46.311385631561279" lon="8.000836372375488">
        <ele>806.20263671875</ele>
        <time>2008-07-27T12:00:58Z</time>
      </trkpt>
      <trkpt lat="46.311385631561279" lon="8.000836372375488">
        <ele>808.60595703125</ele>
        <time>2008-07-27T12:01:08Z</time>
      </trkpt>
      <trkpt lat="46.311385631561279" lon="8.000879287719727">
        <ele>803.31884765625</ele>
        <time>2008-07-27T12:01:47Z</time>
      </trkpt>
      <trkpt lat="46.311450004577637" lon="8.000879287719727">
        <ele>807.1640625</ele>
        <time>2008-07-27T12:02:24Z</time>
      </trkpt>
      <trkpt lat="46.311578750610352" lon="8.000922203063965">
        <ele>806.683349609375</ele>
        <time>2008-07-27T12:02:29Z</time>
      </trkpt>
      <trkpt lat="46.311922073364258" lon="8.001136779785156">
        <ele>808.12548828125</ele>
        <time>2008-07-27T12:02:40Z</time>
      </trkpt>
      <trkpt lat="46.312179565429688" lon="8.001329898834229">
        <ele>809.086669921875</ele>
        <time>2008-07-27T12:02:48Z</time>
      </trkpt>
      <trkpt lat="46.312437057495117" lon="8.001565933227539">
        <ele>811.00927734375</ele>
        <time>2008-07-27T12:02:57Z</time>
      </trkpt>
      <trkpt lat="46.312716007232666" lon="8.001780509948731">
        <ele>813.412841796875</ele>
        <time>2008-07-27T12:03:07Z</time>
      </trkpt>
      <trkpt lat="46.312930583953857" lon="8.001973628997803">
        <ele>814.854736328125</ele>
        <time>2008-07-27T12:03:15Z</time>
      </trkpt>
      <trkpt lat="46.313166618347168" lon="8.002231121063232">
        <ele>817.258056640625</ele>
        <time>2008-07-27T12:03:26Z</time>
      </trkpt>
      <trkpt lat="46.313381195068359" lon="8.002467155456543">
        <ele>819.661376953125</ele>
        <time>2008-07-27T12:03:36Z</time>
      </trkpt>
      <trkpt lat="46.313681602478027" lon="8.00278902053833">
        <ele>822.064453125</ele>
        <time>2008-07-27T12:03:50Z</time>
      </trkpt>
      <trkpt lat="46.313896179199219" lon="8.003089427947998">
        <ele>823.506591796875</ele>
        <time>2008-07-27T12:04:02Z</time>
      </trkpt>
      <trkpt lat="46.314089298248291" lon="8.003411293029785">
        <ele>823.506591796875</ele>
        <time>2008-07-27T12:04:14Z</time>
      </trkpt>
      <trkpt lat="46.314218044281006" lon="8.003668785095215">
        <ele>824.948486328125</ele>
        <time>2008-07-27T12:04:23Z</time>
      </trkpt>
      <trkpt lat="46.314432621002197" lon="8.004076480865479">
        <ele>827.351806640625</ele>
        <time>2008-07-27T12:04:37Z</time>
      </trkpt>
      <trkpt lat="46.314582824707031" lon="8.004419803619385">
        <ele>830.716552734375</ele>
        <time>2008-07-27T12:04:48Z</time>
      </trkpt>
      <trkpt lat="46.314690113067627" lon="8.004741668701172">
        <ele>832.63916015625</ele>
        <time>2008-07-27T12:04:58Z</time>
      </trkpt>
      <trkpt lat="46.314818859100342" lon="8.005149364471436">
        <ele>837.445556640625</ele>
        <time>2008-07-27T12:05:10Z</time>
      </trkpt>
      <trkpt lat="46.314947605133057" lon="8.005621433258057">
        <ele>841.290771484375</ele>
        <time>2008-07-27T12:05:24Z</time>
      </trkpt>
      <trkpt lat="46.315054893493652" lon="8.006114959716797">
        <ele>844.175048828125</ele>
        <time>2008-07-27T12:05:38Z</time>
      </trkpt>
      <trkpt lat="46.31511926651001" lon="8.006501197814941">
        <ele>846.09765625</ele>
        <time>2008-07-27T12:05:49Z</time>
      </trkpt>
      <trkpt lat="46.315205097198486" lon="8.006865978240967">
        <ele>847.53955078125</ele>
        <time>2008-07-27T12:06:00Z</time>
      </trkpt>
      <trkpt lat="46.315290927886963" lon="8.007273674011231">
        <ele>849.94287109375</ele>
        <time>2008-07-27T12:06:12Z</time>
      </trkpt>
      <trkpt lat="46.31535530090332" lon="8.007702827453613">
        <ele>850.423583984375</ele>
        <time>2008-07-27T12:06:24Z</time>
      </trkpt>
      <trkpt lat="46.315441131591797" lon="8.008089065551758">
        <ele>853.7880859375</ele>
        <time>2008-07-27T12:06:35Z</time>
      </trkpt>
      <trkpt lat="46.315526962280273" lon="8.008475303649902">
        <ele>857.152587890625</ele>
        <time>2008-07-27T12:06:46Z</time>
      </trkpt>
      <trkpt lat="46.315591335296631" lon="8.008840084075928">
        <ele>859.0751953125</ele>
        <time>2008-07-27T12:06:57Z</time>
      </trkpt>
      <trkpt lat="46.315698623657227" lon="8.009333610534668">
        <ele>863.8818359375</ele>
        <time>2008-07-27T12:07:11Z</time>
      </trkpt>
      <trkpt lat="46.315784454345703" lon="8.009719848632813">
        <ele>866.28515625</ele>
        <time>2008-07-27T12:07:22Z</time>
      </trkpt>
      <trkpt lat="46.315913200378418" lon="8.010320663452148">
        <ele>870.611083984375</ele>
        <time>2008-07-27T12:07:39Z</time>
      </trkpt>
      <trkpt lat="46.315999031066895" lon="8.010749816894531">
        <ele>873.014404296875</ele>
        <time>2008-07-27T12:07:51Z</time>
      </trkpt>
      <trkpt lat="46.31610631942749" lon="8.01128625869751">
        <ele>875.41748046875</ele>
        <time>2008-07-27T12:08:05Z</time>
      </trkpt>
      <trkpt lat="46.316213607788086" lon="8.011758327484131">
        <ele>877.340576171875</ele>
        <time>2008-07-27T12:08:16Z</time>
      </trkpt>
      <trkpt lat="46.316320896148682" lon="8.012316226959229">
        <ele>879.74365234375</ele>
        <time>2008-07-27T12:08:29Z</time>
      </trkpt>
      <trkpt lat="46.316428184509277" lon="8.01278829574585">
        <ele>881.666259765625</ele>
        <time>2008-07-27T12:08:40Z</time>
      </trkpt>
      <trkpt lat="46.316578388214111" lon="8.01328182220459">
        <ele>883.5888671875</ele>
        <time>2008-07-27T12:08:52Z</time>
      </trkpt>
      <trkpt lat="46.316728591918945" lon="8.013796806335449">
        <ele>886.472900390625</ele>
        <time>2008-07-27T12:09:05Z</time>
      </trkpt>
      <trkpt lat="46.316878795623779" lon="8.014183044433594">
        <ele>889.356689453125</ele>
        <time>2008-07-27T12:09:16Z</time>
      </trkpt>
      <trkpt lat="46.317050457000732" lon="8.014569282531738">
        <ele>892.7216796875</ele>
        <time>2008-07-27T12:09:28Z</time>
      </trkpt>
      <trkpt lat="46.317200660705566" lon="8.014891147613525">
        <ele>895.124755859375</ele>
        <time>2008-07-27T12:09:39Z</time>
      </trkpt>
      <trkpt lat="46.31737232208252" lon="8.015255928039551">
        <ele>897.528076171875</ele>
        <time>2008-07-27T12:09:52Z</time>
      </trkpt>
      <trkpt lat="46.31760835647583" lon="8.015663623809815">
        <ele>900.412109375</ele>
        <time>2008-07-27T12:10:07Z</time>
      </trkpt>
      <trkpt lat="46.317737102508545" lon="8.015964031219482">
        <ele>901.85400390625</ele>
        <time>2008-07-27T12:10:17Z</time>
      </trkpt>
      <trkpt lat="46.317951679229736" lon="8.016328811645508">
        <ele>904.73779296875</ele>
        <time>2008-07-27T12:10:31Z</time>
      </trkpt>
      <trkpt lat="46.318144798278809" lon="8.016715049743652">
        <ele>908.102783203125</ele>
        <time>2008-07-27T12:10:45Z</time>
      </trkpt>
      <trkpt lat="46.318295001983643" lon="8.016972541809082">
        <ele>910.505859375</ele>
        <time>2008-07-27T12:10:55Z</time>
      </trkpt>
      <trkpt lat="46.318466663360596" lon="8.017294406890869">
        <ele>913.389892578125</ele>
        <time>2008-07-27T12:11:06Z</time>
      </trkpt>
      <trkpt lat="46.318638324737549" lon="8.017616271972656">
        <ele>915.3125</ele>
        <time>2008-07-27T12:11:18Z</time>
      </trkpt>
      <trkpt lat="46.318809986114502" lon="8.017959594726563">
        <ele>917.715576171875</ele>
        <time>2008-07-27T12:11:31Z</time>
      </trkpt>
      <trkpt lat="46.319024562835693" lon="8.018345832824707">
        <ele>919.638427734375</ele>
        <time>2008-07-27T12:11:45Z</time>
      </trkpt>
      <trkpt lat="46.319196224212646" lon="8.018732070922852">
        <ele>923.0029296875</ele>
        <time>2008-07-27T12:11:58Z</time>
      </trkpt>
      <trkpt lat="46.3193678855896" lon="8.019118309020996">
        <ele>926.848388671875</ele>
        <time>2008-07-27T12:12:11Z</time>
      </trkpt>
      <trkpt lat="46.319539546966553" lon="8.019590377807617">
        <ele>930.693603515625</ele>
        <time>2008-07-27T12:12:26Z</time>
      </trkpt>
      <trkpt lat="46.319646835327148" lon="8.019976615905762">
        <ele>933.0966796875</ele>
        <time>2008-07-27T12:12:38Z</time>
      </trkpt>
      <trkpt lat="46.319754123687744" lon="8.020384311676025">
        <ele>935.980712890625</ele>
        <time>2008-07-27T12:12:51Z</time>
      </trkpt>
      <trkpt lat="46.319797039031982" lon="8.020727634429932">
        <ele>937.9033203125</ele>
        <time>2008-07-27T12:13:01Z</time>
      </trkpt>
      <trkpt lat="46.319839954376221" lon="8.020963668823242">
        <ele>937.422607421875</ele>
        <time>2008-07-27T12:13:08Z</time>
      </trkpt>
      <trkpt lat="46.319904327392578" lon="8.021242618560791">
        <ele>940.306884765625</ele>
        <time>2008-07-27T12:13:17Z</time>
      </trkpt>
      <trkpt lat="46.319990158081055" lon="8.021585941314697">
        <ele>941.748779296875</ele>
        <time>2008-07-27T12:13:28Z</time>
      </trkpt>
      <trkpt lat="46.320075988769531" lon="8.021907806396484">
        <ele>943.67138671875</ele>
        <time>2008-07-27T12:13:39Z</time>
      </trkpt>
      <trkpt lat="46.320161819458008" lon="8.022186756134033">
        <ele>945.593994140625</ele>
        <time>2008-07-27T12:13:48Z</time>
      </trkpt>
      <trkpt lat="46.320312023162842" lon="8.022572994232178">
        <ele>948.477783203125</ele>
        <time>2008-07-27T12:14:00Z</time>
      </trkpt>
      <trkpt lat="46.320483684539795" lon="8.022937774658203">
        <ele>951.842529296875</ele>
        <time>2008-07-27T12:14:13Z</time>
      </trkpt>
      <trkpt lat="46.320698261260986" lon="8.023324012756348">
        <ele>954.726318359375</ele>
        <time>2008-07-27T12:14:27Z</time>
      </trkpt>
      <trkpt lat="46.320912837982178" lon="8.023645877838135">
        <ele>957.1298828125</ele>
        <time>2008-07-27T12:14:40Z</time>
      </trkpt>
      <trkpt lat="46.321084499359131" lon="8.023903369903565">
        <ele>959.533203125</ele>
        <time>2008-07-27T12:14:51Z</time>
      </trkpt>
      <trkpt lat="46.321299076080322" lon="8.024139404296875">
        <ele>962.4169921875</ele>
        <time>2008-07-27T12:15:03Z</time>
      </trkpt>
      <trkpt lat="46.321578025817871" lon="8.024396896362305">
        <ele>965.78173828125</ele>
        <time>2008-07-27T12:15:17Z</time>
      </trkpt>
      <trkpt lat="46.321814060211182" lon="8.024590015411377">
        <ele>968.184814453125</ele>
        <time>2008-07-27T12:15:29Z</time>
      </trkpt>
      <trkpt lat="46.322071552276611" lon="8.024783134460449">
        <ele>970.588134765625</ele>
        <time>2008-07-27T12:15:41Z</time>
      </trkpt>
      <trkpt lat="46.32235050201416" lon="8.024954795837402">
        <ele>973.952880859375</ele>
        <time>2008-07-27T12:15:54Z</time>
      </trkpt>
      <trkpt lat="46.322500705718994" lon="8.025083541870117">
        <ele>975.87548828125</ele>
        <time>2008-07-27T12:16:02Z</time>
      </trkpt>
      <trkpt lat="46.322736740112305" lon="8.02525520324707">
        <ele>978.759521484375</ele>
        <time>2008-07-27T12:16:13Z</time>
      </trkpt>
      <trkpt lat="46.322972774505615" lon="8.025469779968262">
        <ele>980.201416015625</ele>
        <time>2008-07-27T12:16:25Z</time>
      </trkpt>
      <trkpt lat="46.323187351226807" lon="8.025662899017334">
        <ele>983.085205078125</ele>
        <time>2008-07-27T12:16:37Z</time>
      </trkpt>
      <trkpt lat="46.323380470275879" lon="8.025834560394287">
        <ele>985.488525390625</ele>
        <time>2008-07-27T12:16:48Z</time>
      </trkpt>
      <trkpt lat="46.323509216308594" lon="8.025963306427002">
        <ele>988.372802734375</ele>
        <time>2008-07-27T12:16:56Z</time>
      </trkpt>
      <trkpt lat="46.323702335357666" lon="8.026134967803955">
        <ele>990.29541015625</ele>
        <time>2008-07-27T12:17:07Z</time>
      </trkpt>
      <trkpt lat="46.3238525390625" lon="8.02626371383667">
        <ele>992.218017578125</ele>
        <time>2008-07-27T12:17:16Z</time>
      </trkpt>
      <trkpt lat="46.324045658111572" lon="8.026456832885742">
        <ele>994.140625</ele>
        <time>2008-07-27T12:17:28Z</time>
      </trkpt>
      <trkpt lat="46.324217319488525" lon="8.026607036590576">
        <ele>994.62109375</ele>
        <time>2008-07-27T12:17:38Z</time>
      </trkpt>
      <trkpt lat="46.324388980865479" lon="8.026778697967529">
        <ele>996.063232421875</ele>
        <time>2008-07-27T12:17:48Z</time>
      </trkpt>
      <trkpt lat="46.324582099914551" lon="8.026928901672363">
        <ele>997.98583984375</ele>
        <time>2008-07-27T12:17:58Z</time>
      </trkpt>
      <trkpt lat="46.324796676635742" lon="8.027079105377197">
        <ele>1000.86962890625</ele>
        <time>2008-07-27T12:18:08Z</time>
      </trkpt>
      <trkpt lat="46.325011253356934" lon="8.027207851409912">
        <ele>1001.8310546875</ele>
        <time>2008-07-27T12:18:19Z</time>
      </trkpt>
      <trkpt lat="46.325268745422363" lon="8.027336597442627">
        <ele>1004.234619140625</ele>
        <time>2008-07-27T12:18:31Z</time>
      </trkpt>
      <trkpt lat="46.325526237487793" lon="8.027443885803223">
        <ele>1007.59912109375</ele>
        <time>2008-07-27T12:18:43Z</time>
      </trkpt>
      <trkpt lat="46.325783729553223" lon="8.027529716491699">
        <ele>1010.002197265625</ele>
        <time>2008-07-27T12:18:55Z</time>
      </trkpt>
      <trkpt lat="46.326041221618652" lon="8.027594089508057">
        <ele>1013.847412109375</ele>
        <time>2008-07-27T12:19:07Z</time>
      </trkpt>
      <trkpt lat="46.326255798339844" lon="8.027637004852295">
        <ele>1015.28955078125</ele>
        <time>2008-07-27T12:19:17Z</time>
      </trkpt>
      <trkpt lat="46.326448917388916" lon="8.027679920196533">
        <ele>1016.7314453125</ele>
        <time>2008-07-27T12:19:26Z</time>
      </trkpt>
      <trkpt lat="46.326706409454346" lon="8.027722835540772">
        <ele>1019.134765625</ele>
        <time>2008-07-27T12:19:37Z</time>
      </trkpt>
      <trkpt lat="46.326942443847656" lon="8.027787208557129">
        <ele>1022.018798828125</ele>
        <time>2008-07-27T12:19:48Z</time>
      </trkpt>
      <trkpt lat="46.327178478240967" lon="8.027851581573486">
        <ele>1023.94140625</ele>
        <time>2008-07-27T12:19:59Z</time>
      </trkpt>
      <trkpt lat="46.327414512634277" lon="8.027894496917725">
        <ele>1026.825439453125</ele>
        <time>2008-07-27T12:20:09Z</time>
      </trkpt>
      <trkpt lat="46.32760763168335" lon="8.027958869934082">
        <ele>1027.78662109375</ele>
        <time>2008-07-27T12:20:18Z</time>
      </trkpt>
      <trkpt lat="46.327865123748779" lon="8.028044700622559">
        <ele>1030.18994140625</ele>
        <time>2008-07-27T12:20:30Z</time>
      </trkpt>
      <trkpt lat="46.32810115814209" lon="8.028173446655273">
        <ele>1032.112548828125</ele>
        <time>2008-07-27T12:20:42Z</time>
      </trkpt>
      <trkpt lat="46.328251361846924" lon="8.02825927734375">
        <ele>1032.112548828125</ele>
        <time>2008-07-27T12:20:50Z</time>
      </trkpt>
      <trkpt lat="46.328487396240234" lon="8.028366565704346">
        <ele>1033.554443359375</ele>
        <time>2008-07-27T12:21:02Z</time>
      </trkpt>
      <trkpt lat="46.328680515289307" lon="8.028473854064941">
        <ele>1035.957763671875</ele>
        <time>2008-07-27T12:21:12Z</time>
      </trkpt>
      <trkpt lat="46.328895092010498" lon="8.028559684753418">
        <ele>1037.880615234375</ele>
        <time>2008-07-27T12:21:22Z</time>
      </trkpt>
      <trkpt lat="46.329152584075928" lon="8.028645515441895">
        <ele>1040.764404296875</ele>
        <time>2008-07-27T12:21:35Z</time>
      </trkpt>
      <trkpt lat="46.329345703125" lon="8.028709888458252">
        <ele>1042.20654296875</ele>
        <time>2008-07-27T12:21:44Z</time>
      </trkpt>
      <trkpt lat="46.329646110534668" lon="8.02875280380249">
        <ele>1044.609619140625</ele>
        <time>2008-07-27T12:21:56Z</time>
      </trkpt>
      <trkpt lat="46.329882144927979" lon="8.028924465179443">
        <ele>1047.012939453125</ele>
        <time>2008-07-27T12:22:06Z</time>
      </trkpt>
      <trkpt lat="46.329925060272217" lon="8.029181957244873">
        <ele>1047.49365234375</ele>
        <time>2008-07-27T12:22:13Z</time>
      </trkpt>
      <trkpt lat="46.329817771911621" lon="8.029375076293945">
        <ele>1047.974365234375</ele>
        <time>2008-07-27T12:22:20Z</time>
      </trkpt>
      <trkpt lat="46.329624652862549" lon="8.029439449310303">
        <ele>1050.377685546875</ele>
        <time>2008-07-27T12:22:28Z</time>
      </trkpt>
      <trkpt lat="46.329452991485596" lon="8.029396533966065">
        <ele>1052.30029296875</ele>
        <time>2008-07-27T12:22:36Z</time>
      </trkpt>
      <trkpt lat="46.329216957092285" lon="8.029396533966065">
        <ele>1053.26171875</ele>
        <time>2008-07-27T12:22:46Z</time>
      </trkpt>
      <trkpt lat="46.328959465026855" lon="8.029375076293945">
        <ele>1054.70361328125</ele>
        <time>2008-07-27T12:22:58Z</time>
      </trkpt>
      <trkpt lat="46.328680515289307" lon="8.029417991638184">
        <ele>1055.6650390625</ele>
        <time>2008-07-27T12:23:11Z</time>
      </trkpt>
      <trkpt lat="46.328401565551758" lon="8.02950382232666">
        <ele>1057.10693359375</ele>
        <time>2008-07-27T12:23:24Z</time>
      </trkpt>
      <trkpt lat="46.328229904174805" lon="8.029611110687256">
        <ele>1059.029541015625</ele>
        <time>2008-07-27T12:23:32Z</time>
      </trkpt>
      <trkpt lat="46.328036785125732" lon="8.029739856719971">
        <ele>1060.9521484375</ele>
        <time>2008-07-27T12:23:41Z</time>
      </trkpt>
      <trkpt lat="46.327822208404541" lon="8.029932975769043">
        <ele>1062.874755859375</ele>
        <time>2008-07-27T12:23:52Z</time>
      </trkpt>
      <trkpt lat="46.32760763168335" lon="8.030169010162354">
        <ele>1065.278076171875</ele>
        <time>2008-07-27T12:24:04Z</time>
      </trkpt>
      <trkpt lat="46.327393054962158" lon="8.030490875244141">
        <ele>1067.20068359375</ele>
        <time>2008-07-27T12:24:18Z</time>
      </trkpt>
      <trkpt lat="46.327178478240967" lon="8.030812740325928">
        <ele>1068.642822265625</ele>
        <time>2008-07-27T12:24:32Z</time>
      </trkpt>
      <trkpt lat="46.327049732208252" lon="8.031048774719238">
        <ele>1071.046142578125</ele>
        <time>2008-07-27T12:24:42Z</time>
      </trkpt>
      <trkpt lat="46.326899528503418" lon="8.031306266784668">
        <ele>1072.96875</ele>
        <time>2008-07-27T12:24:53Z</time>
      </trkpt>
      <trkpt lat="46.326749324798584" lon="8.031563758850098">
        <ele>1074.891357421875</ele>
        <time>2008-07-27T12:25:05Z</time>
      </trkpt>
      <trkpt lat="46.326642036437988" lon="8.031735420227051">
        <ele>1076.81396484375</ele>
        <time>2008-07-27T12:25:14Z</time>
      </trkpt>
      <trkpt lat="46.326448917388916" lon="8.031992912292481">
        <ele>1078.736572265625</ele>
        <time>2008-07-27T12:25:27Z</time>
      </trkpt>
      <trkpt lat="46.326255798339844" lon="8.032207489013672">
        <ele>1080.178466796875</ele>
        <time>2008-07-27T12:25:39Z</time>
      </trkpt>
      <trkpt lat="46.326127052307129" lon="8.032336235046387">
        <ele>1081.620361328125</ele>
        <time>2008-07-27T12:25:48Z</time>
      </trkpt>
      <trkpt lat="46.325955390930176" lon="8.032486438751221">
        <ele>1084.02392578125</ele>
        <time>2008-07-27T12:25:58Z</time>
      </trkpt>
      <trkpt lat="46.325805187225342" lon="8.032636642456055">
        <ele>1085.4658203125</ele>
        <time>2008-07-27T12:26:07Z</time>
      </trkpt>
      <trkpt lat="46.325633525848389" lon="8.032786846160889">
        <ele>1089.791748046875</ele>
        <time>2008-07-27T12:26:18Z</time>
      </trkpt>
      <trkpt lat="46.325483322143555" lon="8.032894134521484">
        <ele>1090.7529296875</ele>
        <time>2008-07-27T12:26:27Z</time>
      </trkpt>
      <trkpt lat="46.325311660766602" lon="8.03300142288208">
        <ele>1093.15625</ele>
        <time>2008-07-27T12:26:37Z</time>
      </trkpt>
      <trkpt lat="46.325054168701172" lon="8.033108711242676">
        <ele>1093.636962890625</ele>
        <time>2008-07-27T12:26:48Z</time>
      </trkpt>
      <trkpt lat="46.324753761291504" lon="8.033237457275391">
        <ele>1097.482177734375</ele>
        <time>2008-07-27T12:27:01Z</time>
      </trkpt>
      <trkpt lat="46.32434606552124" lon="8.033344745635986">
        <ele>1098.443359375</ele>
        <time>2008-07-27T12:27:17Z</time>
      </trkpt>
      <trkpt lat="46.323981285095215" lon="8.033366203308106">
        <ele>1099.40478515625</ele>
        <time>2008-07-27T12:27:30Z</time>
      </trkpt>
      <trkpt lat="46.323702335357666" lon="8.033366203308106">
        <ele>1101.32763671875</ele>
        <time>2008-07-27T12:27:41Z</time>
      </trkpt>
      <trkpt lat="46.323380470275879" lon="8.033344745635986">
        <ele>1104.692138671875</ele>
        <time>2008-07-27T12:27:53Z</time>
      </trkpt>
      <trkpt lat="46.323037147521973" lon="8.033301830291748">
        <ele>1108.537353515625</ele>
        <time>2008-07-27T12:28:06Z</time>
      </trkpt>
      <trkpt lat="46.322758197784424" lon="8.03325891494751">
        <ele>1111.902099609375</ele>
        <time>2008-07-27T12:28:17Z</time>
      </trkpt>
      <trkpt lat="46.322457790374756" lon="8.033237457275391">
        <ele>1114.30517578125</ele>
        <time>2008-07-27T12:28:28Z</time>
      </trkpt>
      <trkpt lat="46.322135925292969" lon="8.033215999603272">
        <ele>1114.785888671875</ele>
        <time>2008-07-27T12:28:40Z</time>
      </trkpt>
      <trkpt lat="46.321921348571777" lon="8.033215999603272">
        <ele>1116.22802734375</ele>
        <time>2008-07-27T12:28:48Z</time>
      </trkpt>
      <trkpt lat="46.321578025817871" lon="8.033237457275391">
        <ele>1117.669921875</ele>
        <time>2008-07-27T12:29:01Z</time>
      </trkpt>
      <trkpt lat="46.321320533752441" lon="8.03325891494751">
        <ele>1119.5927734375</ele>
        <time>2008-07-27T12:29:11Z</time>
      </trkpt>
      <trkpt lat="46.321063041687012" lon="8.033323287963867">
        <ele>1121.995849609375</ele>
        <time>2008-07-27T12:29:21Z</time>
      </trkpt>
      <trkpt lat="46.320762634277344" lon="8.033387660980225">
        <ele>1122.957275390625</ele>
        <time>2008-07-27T12:29:32Z</time>
      </trkpt>
      <trkpt lat="46.320462226867676" lon="8.03351640701294">
        <ele>1124.8798828125</ele>
        <time>2008-07-27T12:29:44Z</time>
      </trkpt>
      <trkpt lat="46.320161819458008" lon="8.033645153045654">
        <ele>1126.802490234375</ele>
        <time>2008-07-27T12:29:56Z</time>
      </trkpt>
      <trkpt lat="46.319839954376221" lon="8.033838272094727">
        <ele>1127.763671875</ele>
        <time>2008-07-27T12:30:09Z</time>
      </trkpt>
      <trkpt lat="46.319561004638672" lon="8.033988475799561">
        <ele>1130.1669921875</ele>
        <time>2008-07-27T12:30:21Z</time>
      </trkpt>
      <trkpt lat="46.319239139556885" lon="8.034181594848633">
        <ele>1132.570556640625</ele>
        <time>2008-07-27T12:30:34Z</time>
      </trkpt>
      <trkpt lat="46.319046020507813" lon="8.03424596786499">
        <ele>1133.051025390625</ele>
        <time>2008-07-27T12:30:41Z</time>
      </trkpt>
      <trkpt lat="46.318724155426025" lon="8.034374713897705">
        <ele>1135.454345703125</ele>
        <time>2008-07-27T12:30:54Z</time>
      </trkpt>
      <trkpt lat="46.318423748016357" lon="8.034460544586182">
        <ele>1136.896240234375</ele>
        <time>2008-07-27T12:31:05Z</time>
      </trkpt>
      <trkpt lat="46.318144798278809" lon="8.034460544586182">
        <ele>1137.376953125</ele>
        <time>2008-07-27T12:31:16Z</time>
      </trkpt>
      <trkpt lat="46.317822933197021" lon="8.034460544586182">
        <ele>1140.741455078125</ele>
        <time>2008-07-27T12:31:28Z</time>
      </trkpt>
      <trkpt lat="46.31760835647583" lon="8.034439086914063">
        <ele>1142.18359375</ele>
        <time>2008-07-27T12:31:36Z</time>
      </trkpt>
      <trkpt lat="46.31737232208252" lon="8.034374713897705">
        <ele>1144.106201171875</ele>
        <time>2008-07-27T12:31:45Z</time>
      </trkpt>
      <trkpt lat="46.31711483001709" lon="8.034288883209229">
        <ele>1146.02880859375</ele>
        <time>2008-07-27T12:31:55Z</time>
      </trkpt>
      <trkpt lat="46.316814422607422" lon="8.034160137176514">
        <ele>1147.951416015625</ele>
        <time>2008-07-27T12:32:07Z</time>
      </trkpt>
      <trkpt lat="46.316514015197754" lon="8.03400993347168">
        <ele>1148.43212890625</ele>
        <time>2008-07-27T12:32:22Z</time>
      </trkpt>
      <trkpt lat="46.315741539001465" lon="8.033623695373535">
        <ele>1149.3935546875</ele>
        <time>2008-07-27T12:33:13Z</time>
      </trkpt>
      <trkpt lat="46.315290927886963" lon="8.032636642456055">
        <ele>1169.1005859375</ele>
        <time>2008-07-27T12:33:18Z</time>
      </trkpt>
      <trkpt lat="46.315183639526367" lon="8.032572269439697">
        <ele>1156.603271484375</ele>
        <time>2008-07-27T12:33:26Z</time>
      </trkpt>
      <trkpt lat="46.314947605133057" lon="8.032314777374268">
        <ele>1161.409912109375</ele>
        <time>2008-07-27T12:33:36Z</time>
      </trkpt>
      <trkpt lat="46.314754486083984" lon="8.032100200653076">
        <ele>1163.81298828125</ele>
        <time>2008-07-27T12:33:45Z</time>
      </trkpt>
      <trkpt lat="46.314496994018555" lon="8.031864166259766">
        <ele>1164.774658203125</ele>
        <time>2008-07-27T12:33:56Z</time>
      </trkpt>
      <trkpt lat="46.314260959625244" lon="8.031692504882813">
        <ele>1163.33251953125</ele>
        <time>2008-07-27T12:34:07Z</time>
      </trkpt>
      <trkpt lat="46.313960552215576" lon="8.031456470489502">
        <ele>1165.736083984375</ele>
        <time>2008-07-27T12:34:20Z</time>
      </trkpt>
      <trkpt lat="46.31361722946167" lon="8.031220436096191">
        <ele>1168.619873046875</ele>
        <time>2008-07-27T12:34:34Z</time>
      </trkpt>
      <trkpt lat="46.313316822052002" lon="8.031048774719238">
        <ele>1174.3876953125</ele>
        <time>2008-07-27T12:34:45Z</time>
      </trkpt>
      <trkpt lat="46.313080787658691" lon="8.030941486358643">
        <ele>1178.23291015625</ele>
        <time>2008-07-27T12:34:54Z</time>
      </trkpt>
      <trkpt lat="46.312844753265381" lon="8.030855655670166">
        <ele>1181.1171875</ele>
        <time>2008-07-27T12:35:03Z</time>
      </trkpt>
      <trkpt lat="46.311771869659424" lon="8.030490875244141">
        <ele>1182.078369140625</ele>
        <time>2008-07-27T12:35:55Z</time>
      </trkpt>
      <trkpt lat="46.311407089233398" lon="8.030641078948975">
        <ele>1174.868408203125</ele>
        <time>2008-07-27T12:35:59Z</time>
      </trkpt>
      <trkpt lat="46.311085224151611" lon="8.03051233291626">
        <ele>1185.44287109375</ele>
        <time>2008-07-27T12:36:10Z</time>
      </trkpt>
      <trkpt lat="46.310677528381348" lon="8.030383586883545">
        <ele>1191.210693359375</ele>
        <time>2008-07-27T12:36:25Z</time>
      </trkpt>
      <trkpt lat="46.310334205627441" lon="8.030233383178711">
        <ele>1194.0947265625</ele>
        <time>2008-07-27T12:36:38Z</time>
      </trkpt>
      <trkpt lat="46.310033798217773" lon="8.03001880645752">
        <ele>1197.940185546875</ele>
        <time>2008-07-27T12:36:50Z</time>
      </trkpt>
      <trkpt lat="46.309797763824463" lon="8.029825687408447">
        <ele>1200.343505859375</ele>
        <time>2008-07-27T12:37:00Z</time>
      </trkpt>
      <trkpt lat="46.309561729431152" lon="8.029611110687256">
        <ele>1202.74658203125</ele>
        <time>2008-07-27T12:37:10Z</time>
      </trkpt>
      <trkpt lat="46.309304237365723" lon="8.029310703277588">
        <ele>1207.072509765625</ele>
        <time>2008-07-27T12:37:22Z</time>
      </trkpt>
      <trkpt lat="46.309154033660889" lon="8.029139041900635">
        <ele>1209.475830078125</ele>
        <time>2008-07-27T12:37:30Z</time>
      </trkpt>
      <trkpt lat="46.308917999267578" lon="8.028817176818848">
        <ele>1211.879150390625</ele>
        <time>2008-07-27T12:37:42Z</time>
      </trkpt>
      <trkpt lat="46.308746337890625" lon="8.028495311737061">
        <ele>1214.76318359375</ele>
        <time>2008-07-27T12:37:53Z</time>
      </trkpt>
      <trkpt lat="46.308531761169434" lon="8.028130531311035">
        <ele>1217.64697265625</ele>
        <time>2008-07-27T12:38:05Z</time>
      </trkpt>
      <trkpt lat="46.308338642120361" lon="8.027787208557129">
        <ele>1221.01171875</ele>
        <time>2008-07-27T12:38:17Z</time>
      </trkpt>
      <trkpt lat="46.308166980743408" lon="8.027465343475342">
        <ele>1222.934326171875</ele>
        <time>2008-07-27T12:38:28Z</time>
      </trkpt>
      <trkpt lat="46.308016777038574" lon="8.027186393737793">
        <ele>1224.85693359375</ele>
        <time>2008-07-27T12:38:37Z</time>
      </trkpt>
      <trkpt lat="46.307780742645264" lon="8.026821613311768">
        <ele>1227.26025390625</ele>
        <time>2008-07-27T12:38:49Z</time>
      </trkpt>
      <trkpt lat="46.307523250579834" lon="8.026499748229981">
        <ele>1229.66357421875</ele>
        <time>2008-07-27T12:39:01Z</time>
      </trkpt>
      <trkpt lat="46.307244300842285" lon="8.026177883148193">
        <ele>1231.586181640625</ele>
        <time>2008-07-27T12:39:14Z</time>
      </trkpt>
      <trkpt lat="46.307008266448975" lon="8.025984764099121">
        <ele>1233.028076171875</ele>
        <time>2008-07-27T12:39:24Z</time>
      </trkpt>
      <trkpt lat="46.306729316711426" lon="8.025748729705811">
        <ele>1234.950927734375</ele>
        <time>2008-07-27T12:39:37Z</time>
      </trkpt>
      <trkpt lat="46.306514739990234" lon="8.025555610656738">
        <ele>1235.912109375</ele>
        <time>2008-07-27T12:39:47Z</time>
      </trkpt>
      <trkpt lat="46.306321620941162" lon="8.025405406951904">
        <ele>1237.834716796875</ele>
        <time>2008-07-27T12:39:55Z</time>
      </trkpt>
      <trkpt lat="46.306021213531494" lon="8.025169372558594">
        <ele>1239.276611328125</ele>
        <time>2008-07-27T12:40:07Z</time>
      </trkpt>
      <trkpt lat="46.305763721466064" lon="8.024933338165283">
        <ele>1241.679931640625</ele>
        <time>2008-07-27T12:40:18Z</time>
      </trkpt>
      <trkpt lat="46.305506229400635" lon="8.024675846099854">
        <ele>1246.48681640625</ele>
        <time>2008-07-27T12:40:29Z</time>
      </trkpt>
      <trkpt lat="46.305334568023682" lon="8.024439811706543">
        <ele>1246.96728515625</ele>
        <time>2008-07-27T12:40:39Z</time>
      </trkpt>
      <trkpt lat="46.305162906646729" lon="8.024203777313232">
        <ele>1248.4091796875</ele>
        <time>2008-07-27T12:40:48Z</time>
      </trkpt>
      <trkpt lat="46.304926872253418" lon="8.023860454559326">
        <ele>1251.293212890625</ele>
        <time>2008-07-27T12:41:01Z</time>
      </trkpt>
      <trkpt lat="46.304712295532227" lon="8.02351713180542">
        <ele>1254.65771484375</ele>
        <time>2008-07-27T12:41:13Z</time>
      </trkpt>
      <trkpt lat="46.304476261138916" lon="8.023152351379395">
        <ele>1256.580322265625</ele>
        <time>2008-07-27T12:41:26Z</time>
      </trkpt>
      <trkpt lat="46.304261684417725" lon="8.022873401641846">
        <ele>1258.5029296875</ele>
        <time>2008-07-27T12:41:37Z</time>
      </trkpt>
      <trkpt lat="46.304025650024414" lon="8.022594451904297">
        <ele>1259.46435546875</ele>
        <time>2008-07-27T12:41:48Z</time>
      </trkpt>
      <trkpt lat="46.303768157958984" lon="8.022294044494629">
        <ele>1260.906494140625</ele>
        <time>2008-07-27T12:42:00Z</time>
      </trkpt>
      <trkpt lat="46.303489208221436" lon="8.021993637084961">
        <ele>1262.8291015625</ele>
        <time>2008-07-27T12:42:11Z</time>
      </trkpt>
      <trkpt lat="46.303274631500244" lon="8.021736145019531">
        <ele>1264.27099609375</ele>
        <time>2008-07-27T12:42:21Z</time>
      </trkpt>
      <trkpt lat="46.303081512451172" lon="8.021457195281982">
        <ele>1265.713134765625</ele>
        <time>2008-07-27T12:42:32Z</time>
      </trkpt>
      <trkpt lat="46.3028883934021" lon="8.021221160888672">
        <ele>1266.67431640625</ele>
        <time>2008-07-27T12:42:42Z</time>
      </trkpt>
      <trkpt lat="46.302609443664551" lon="8.020834922790527">
        <ele>1269.07763671875</ele>
        <time>2008-07-27T12:42:56Z</time>
      </trkpt>
      <trkpt lat="46.302437782287598" lon="8.020620346069336">
        <ele>1271.480712890625</ele>
        <time>2008-07-27T12:43:04Z</time>
      </trkpt>
      <trkpt lat="46.302266120910645" lon="8.020384311676025">
        <ele>1272.9228515625</ele>
        <time>2008-07-27T12:43:13Z</time>
      </trkpt>
      <trkpt lat="46.301965713500977" lon="8.020040988922119">
        <ele>1273.403564453125</ele>
        <time>2008-07-27T12:43:27Z</time>
      </trkpt>
      <trkpt lat="46.298704147338867" lon="8.016479015350342">
        <ele>1273.403564453125</ele>
        <time>2008-07-27T12:45:52Z</time>
      </trkpt>
      <trkpt lat="46.296730041503906" lon="8.020083904266357">
        <ele>1292.1494140625</ele>
        <time>2008-07-27T12:46:06Z</time>
      </trkpt>
      <trkpt lat="46.296751499176025" lon="8.020126819610596">
        <ele>1295.99462890625</ele>
        <time>2008-07-27T12:47:47Z</time>
      </trkpt>
      <trkpt lat="46.296751499176025" lon="8.020169734954834">
        <ele>1294.552490234375</ele>
        <time>2008-07-27T12:47:56Z</time>
      </trkpt>
      <trkpt lat="46.29664421081543" lon="8.020234107971191">
        <ele>1295.033203125</ele>
        <time>2008-07-27T12:48:01Z</time>
      </trkpt>
      <trkpt lat="46.29638671875" lon="8.02027702331543">
        <ele>1295.99462890625</ele>
        <time>2008-07-27T12:48:07Z</time>
      </trkpt>
      <trkpt lat="46.296257972717285" lon="8.020470142364502">
        <ele>1297.4365234375</ele>
        <time>2008-07-27T12:48:12Z</time>
      </trkpt>
      <trkpt lat="46.296257972717285" lon="8.020598888397217">
        <ele>1298.397705078125</ele>
        <time>2008-07-27T12:48:15Z</time>
      </trkpt>
      <trkpt lat="46.296107769012451" lon="8.020684719085693">
        <ele>1301.28173828125</ele>
        <time>2008-07-27T12:48:22Z</time>
      </trkpt>
      <trkpt lat="46.295850276947021" lon="8.020877838134766">
        <ele>1300.801025390625</ele>
        <time>2008-07-27T12:48:28Z</time>
      </trkpt>
      <trkpt lat="46.2953782081604" lon="8.021178245544434">
        <ele>1300.801025390625</ele>
        <time>2008-07-27T12:48:36Z</time>
      </trkpt>
      <trkpt lat="46.294691562652588" lon="8.021585941314697">
        <ele>1304.165771484375</ele>
        <time>2008-07-27T12:48:45Z</time>
      </trkpt>
      <trkpt lat="46.294434070587158" lon="8.021714687347412">
        <ele>1305.126953125</ele>
        <time>2008-07-27T12:48:48Z</time>
      </trkpt>
      <trkpt lat="46.294262409210205" lon="8.021864891052246">
        <ele>1306.56884765625</ele>
        <time>2008-07-27T12:48:50Z</time>
      </trkpt>
      <trkpt lat="46.293962001800537" lon="8.022444248199463">
        <ele>1311.8564453125</ele>
        <time>2008-07-27T12:48:55Z</time>
      </trkpt>
      <trkpt lat="46.29389762878418" lon="8.023045063018799">
        <ele>1315.70166015625</ele>
        <time>2008-07-27T12:48:59Z</time>
      </trkpt>
      <trkpt lat="46.294026374816895" lon="8.023624420166016">
        <ele>1319.066162109375</ele>
        <time>2008-07-27T12:49:03Z</time>
      </trkpt>
      <trkpt lat="46.294155120849609" lon="8.023881912231445">
        <ele>1320.02734375</ele>
        <time>2008-07-27T12:49:05Z</time>
      </trkpt>
      <trkpt lat="46.294777393341064" lon="8.024868965148926">
        <ele>1326.276123046875</ele>
        <time>2008-07-27T12:49:13Z</time>
      </trkpt>
      <trkpt lat="46.295270919799805" lon="8.025341033935547">
        <ele>1326.7568359375</ele>
        <time>2008-07-27T12:49:18Z</time>
      </trkpt>
      <trkpt lat="46.295807361602783" lon="8.025920391082764">
        <ele>1330.121337890625</ele>
        <time>2008-07-27T12:49:23Z</time>
      </trkpt>
      <trkpt lat="46.296107769012451" lon="8.026585578918457">
        <ele>1331.563232421875</ele>
        <time>2008-07-27T12:49:27Z</time>
      </trkpt>
      <trkpt lat="46.296536922454834" lon="8.027873039245606">
        <ele>1332.524658203125</ele>
        <time>2008-07-27T12:49:34Z</time>
      </trkpt>
      <trkpt lat="46.296901702880859" lon="8.029203414916992">
        <ele>1333.48583984375</ele>
        <time>2008-07-27T12:49:41Z</time>
      </trkpt>
      <trkpt lat="46.297094821929932" lon="8.030169010162354">
        <ele>1333.005126953125</ele>
        <time>2008-07-27T12:49:46Z</time>
      </trkpt>
      <trkpt lat="46.297202110290527" lon="8.032164573669434">
        <ele>1333.966552734375</ele>
        <time>2008-07-27T12:49:56Z</time>
      </trkpt>
      <trkpt lat="46.297352313995361" lon="8.033602237701416">
        <ele>1342.137939453125</ele>
        <time>2008-07-27T12:50:03Z</time>
      </trkpt>
      <trkpt lat="46.29737377166748" lon="8.034675121307373">
        <ele>1346.4638671875</ele>
        <time>2008-07-27T12:50:08Z</time>
      </trkpt>
      <trkpt lat="46.297481060028076" lon="8.035984039306641">
        <ele>1354.634765625</ele>
        <time>2008-07-27T12:50:14Z</time>
      </trkpt>
      <trkpt lat="46.297695636749268" lon="8.037722110748291">
        <ele>1360.883544921875</ele>
        <time>2008-07-27T12:50:22Z</time>
      </trkpt>
      <trkpt lat="46.297781467437744" lon="8.039052486419678">
        <ele>1365.690185546875</ele>
        <time>2008-07-27T12:50:28Z</time>
      </trkpt>
      <trkpt lat="46.297867298126221" lon="8.040103912353516">
        <ele>1375.30322265625</ele>
        <time>2008-07-27T12:50:33Z</time>
      </trkpt>
      <trkpt lat="46.297802925109863" lon="8.040833473205566">
        <ele>1379.1484375</ele>
        <time>2008-07-27T12:50:37Z</time>
      </trkpt>
      <trkpt lat="46.297760009765625" lon="8.0409836769104">
        <ele>1380.10986328125</ele>
        <time>2008-07-27T12:50:38Z</time>
      </trkpt>
      <trkpt lat="46.29763126373291" lon="8.041348457336426">
        <ele>1382.99365234375</ele>
        <time>2008-07-27T12:50:41Z</time>
      </trkpt>
      <trkpt lat="46.297566890716553" lon="8.04173469543457">
        <ele>1382.032470703125</ele>
        <time>2008-07-27T12:50:44Z</time>
      </trkpt>
      <trkpt lat="46.297502517700195" lon="8.043107986450195">
        <ele>1384.435791015625</ele>
        <time>2008-07-27T12:50:52Z</time>
      </trkpt>
      <trkpt lat="46.2973952293396" lon="8.043923377990723">
        <ele>1385.39697265625</ele>
        <time>2008-07-27T12:50:57Z</time>
      </trkpt>
      <trkpt lat="46.297459602355957" lon="8.044438362121582">
        <ele>1385.877685546875</ele>
        <time>2008-07-27T12:51:01Z</time>
      </trkpt>
      <trkpt lat="46.297502517700195" lon="8.044545650482178">
        <ele>1385.877685546875</ele>
        <time>2008-07-27T12:51:02Z</time>
      </trkpt>
      <trkpt lat="46.297609806060791" lon="8.045296669006348">
        <ele>1389.72314453125</ele>
        <time>2008-07-27T12:51:08Z</time>
      </trkpt>
      <trkpt lat="46.297609806060791" lon="8.045425415039063">
        <ele>1390.684326171875</ele>
        <time>2008-07-27T12:51:09Z</time>
      </trkpt>
      <trkpt lat="46.297566890716553" lon="8.045639991760254">
        <ele>1391.645751953125</ele>
        <time>2008-07-27T12:51:11Z</time>
      </trkpt>
      <trkpt lat="46.297523975372314" lon="8.045854568481445">
        <ele>1393.087646484375</ele>
        <time>2008-07-27T12:51:13Z</time>
      </trkpt>
      <trkpt lat="46.297566890716553" lon="8.04673433303833">
        <ele>1393.568359375</ele>
        <time>2008-07-27T12:51:20Z</time>
      </trkpt>
      <trkpt lat="46.297652721405029" lon="8.048300743103027">
        <ele>1394.529541015625</ele>
        <time>2008-07-27T12:51:30Z</time>
      </trkpt>
      <trkpt lat="46.297717094421387" lon="8.049437999725342">
        <ele>1395.9716796875</ele>
        <time>2008-07-27T12:51:37Z</time>
      </trkpt>
      <trkpt lat="46.298060417175293" lon="8.051111698150635">
        <ele>1397.41357421875</ele>
        <time>2008-07-27T12:51:46Z</time>
      </trkpt>
      <trkpt lat="46.298253536224365" lon="8.051927089691162">
        <ele>1397.41357421875</ele>
        <time>2008-07-27T12:51:51Z</time>
      </trkpt>
      <trkpt lat="46.298360824584961" lon="8.052206039428711">
        <ele>1398.85546875</ele>
        <time>2008-07-27T12:51:53Z</time>
      </trkpt>
      <trkpt lat="46.298468112945557" lon="8.05248498916626">
        <ele>1399.336181640625</ele>
        <time>2008-07-27T12:51:55Z</time>
      </trkpt>
      <trkpt lat="46.298532485961914" lon="8.053429126739502">
        <ele>1400.297607421875</ele>
        <time>2008-07-27T12:52:01Z</time>
      </trkpt>
      <trkpt lat="46.298682689666748" lon="8.05448055267334">
        <ele>1400.297607421875</ele>
        <time>2008-07-27T12:52:07Z</time>
      </trkpt>
      <trkpt lat="46.299026012420654" lon="8.056819438934326">
        <ele>1400.297607421875</ele>
        <time>2008-07-27T12:52:20Z</time>
      </trkpt>
      <trkpt lat="46.299068927764893" lon="8.057184219360352">
        <ele>1400.297607421875</ele>
        <time>2008-07-27T12:52:22Z</time>
      </trkpt>
      <trkpt lat="46.298983097076416" lon="8.058879375457764">
        <ele>1403.662109375</ele>
        <time>2008-07-27T12:52:31Z</time>
      </trkpt>
      <trkpt lat="46.298961639404297" lon="8.059051036834717">
        <ele>1404.14306640625</ele>
        <time>2008-07-27T12:52:32Z</time>
      </trkpt>
      <trkpt lat="46.298704147338867" lon="8.060081005096436">
        <ele>1405.5849609375</ele>
        <time>2008-07-27T12:52:38Z</time>
      </trkpt>
      <trkpt lat="46.298532485961914" lon="8.060574531555176">
        <ele>1405.5849609375</ele>
        <time>2008-07-27T12:52:41Z</time>
      </trkpt>
      <trkpt lat="46.29788875579834" lon="8.061776161193848">
        <ele>1407.02685546875</ele>
        <time>2008-07-27T12:52:49Z</time>
      </trkpt>
      <trkpt lat="46.297760009765625" lon="8.062205314636231">
        <ele>1407.98828125</ele>
        <time>2008-07-27T12:52:52Z</time>
      </trkpt>
      <trkpt lat="46.297545433044434" lon="8.062505722045898">
        <ele>1406.546142578125</ele>
        <time>2008-07-27T12:52:56Z</time>
      </trkpt>
      <trkpt lat="46.297180652618408" lon="8.062505722045898">
        <ele>1405.5849609375</ele>
        <time>2008-07-27T12:53:00Z</time>
      </trkpt>
      <trkpt lat="46.297008991241455" lon="8.062441349029541">
        <ele>1405.104248046875</ele>
        <time>2008-07-27T12:53:02Z</time>
      </trkpt>
      <trkpt lat="46.296815872192383" lon="8.062248229980469">
        <ele>1405.104248046875</ele>
        <time>2008-07-27T12:53:05Z</time>
      </trkpt>
      <trkpt lat="46.296601295471191" lon="8.06147575378418">
        <ele>1405.104248046875</ele>
        <time>2008-07-27T12:53:12Z</time>
      </trkpt>
      <trkpt lat="46.296451091766357" lon="8.060660362243652">
        <ele>1405.5849609375</ele>
        <time>2008-07-27T12:53:18Z</time>
      </trkpt>
      <trkpt lat="46.29638671875" lon="8.060359954833984">
        <ele>1406.0654296875</ele>
        <time>2008-07-27T12:53:20Z</time>
      </trkpt>
      <trkpt lat="46.296236515045166" lon="8.058922290802002">
        <ele>1410.391357421875</ele>
        <time>2008-07-27T12:53:28Z</time>
      </trkpt>
      <trkpt lat="46.295957565307617" lon="8.056883811950684">
        <ele>1417.12060546875</ele>
        <time>2008-07-27T12:53:39Z</time>
      </trkpt>
      <trkpt lat="46.295850276947021" lon="8.056154251098633">
        <ele>1418.081787109375</ele>
        <time>2008-07-27T12:53:43Z</time>
      </trkpt>
      <trkpt lat="46.295785903930664" lon="8.055810928344727">
        <ele>1418.081787109375</ele>
        <time>2008-07-27T12:53:45Z</time>
      </trkpt>
      <trkpt lat="46.295313835144043" lon="8.054995536804199">
        <ele>1419.043212890625</ele>
        <time>2008-07-27T12:53:51Z</time>
      </trkpt>
      <trkpt lat="46.294841766357422" lon="8.054416179656982">
        <ele>1419.52392578125</ele>
        <time>2008-07-27T12:53:56Z</time>
      </trkpt>
      <trkpt lat="46.294562816619873" lon="8.053772449493408">
        <ele>1422.407958984375</ele>
        <time>2008-07-27T12:54:01Z</time>
      </trkpt>
      <trkpt lat="46.294283866882324" lon="8.053557872772217">
        <ele>1422.407958984375</ele>
        <time>2008-07-27T12:54:05Z</time>
      </trkpt>
      <trkpt lat="46.294198036193848" lon="8.053686618804932">
        <ele>1422.407958984375</ele>
        <time>2008-07-27T12:54:07Z</time>
      </trkpt>
      <trkpt lat="46.294219493865967" lon="8.05422306060791">
        <ele>1422.888671875</ele>
        <time>2008-07-27T12:54:12Z</time>
      </trkpt>
      <trkpt lat="46.294991970062256" lon="8.055317401885986">
        <ele>1430.098388671875</ele>
        <time>2008-07-27T12:54:21Z</time>
      </trkpt>
      <trkpt lat="46.295292377471924" lon="8.055918216705322">
        <ele>1431.059814453125</ele>
        <time>2008-07-27T12:54:25Z</time>
      </trkpt>
      <trkpt lat="46.295464038848877" lon="8.056755065917969">
        <ele>1433.462890625</ele>
        <time>2008-07-27T12:54:34Z</time>
      </trkpt>
      <trkpt lat="46.295313835144043" lon="8.057398796081543">
        <ele>1433.462890625</ele>
        <time>2008-07-27T12:54:38Z</time>
      </trkpt>
      <trkpt lat="46.294991970062256" lon="8.058428764343262">
        <ele>1435.8662109375</ele>
        <time>2008-07-27T12:54:44Z</time>
      </trkpt>
      <trkpt lat="46.294949054718018" lon="8.059630393981934">
        <ele>1436.34716796875</ele>
        <time>2008-07-27T12:54:51Z</time>
      </trkpt>
      <trkpt lat="46.294949054718018" lon="8.059802055358887">
        <ele>1436.34716796875</ele>
        <time>2008-07-27T12:54:52Z</time>
      </trkpt>
      <trkpt lat="46.294562816619873" lon="8.060531616210938">
        <ele>1436.82763671875</ele>
        <time>2008-07-27T12:54:58Z</time>
      </trkpt>
      <trkpt lat="46.294369697570801" lon="8.060767650604248">
        <ele>1436.82763671875</ele>
        <time>2008-07-27T12:55:00Z</time>
      </trkpt>
      <trkpt lat="46.294198036193848" lon="8.061368465423584">
        <ele>1437.7890625</ele>
        <time>2008-07-27T12:55:04Z</time>
      </trkpt>
      <trkpt lat="46.294283866882324" lon="8.061840534210205">
        <ele>1446.44091796875</ele>
        <time>2008-07-27T12:55:07Z</time>
      </trkpt>
      <trkpt lat="46.294434070587158" lon="8.062098026275635">
        <ele>1523.346435546875</ele>
        <time>2008-07-27T12:55:09Z</time>
      </trkpt>
      <trkpt lat="46.294584274291992" lon="8.062376976013184">
        <ele>1525.268798828125</ele>
        <time>2008-07-27T12:55:11Z</time>
      </trkpt>
      <trkpt lat="46.294713020324707" lon="8.06297779083252">
        <ele>1531.517333984375</ele>
        <time>2008-07-27T12:55:15Z</time>
      </trkpt>
      <trkpt lat="46.29464864730835" lon="8.063364028930664">
        <ele>1532.95947265625</ele>
        <time>2008-07-27T12:55:18Z</time>
      </trkpt>
      <trkpt lat="46.29439115524292" lon="8.06347131729126">
        <ele>1530.55615234375</ele>
        <time>2008-07-27T12:55:21Z</time>
      </trkpt>
      <trkpt lat="46.29413366317749" lon="8.063342571258545">
        <ele>1531.998046875</ele>
        <time>2008-07-27T12:55:24Z</time>
      </trkpt>
      <trkpt lat="46.294004917144775" lon="8.063149452209473">
        <ele>1532.47900390625</ele>
        <time>2008-07-27T12:55:26Z</time>
      </trkpt>
      <trkpt lat="46.293704509735107" lon="8.062183856964111">
        <ele>1535.36279296875</ele>
        <time>2008-07-27T12:55:33Z</time>
      </trkpt>
      <trkpt lat="46.293683052062988" lon="8.062012195587158">
        <ele>1535.843505859375</ele>
        <time>2008-07-27T12:55:34Z</time>
      </trkpt>
      <trkpt lat="46.293704509735107" lon="8.061282634735107">
        <ele>1538.246826171875</ele>
        <time>2008-07-27T12:55:38Z</time>
      </trkpt>
      <trkpt lat="46.293876171112061" lon="8.060789108276367">
        <ele>1539.688720703125</ele>
        <time>2008-07-27T12:55:41Z</time>
      </trkpt>
      <trkpt lat="46.294047832489014" lon="8.060488700866699">
        <ele>1540.64990234375</ele>
        <time>2008-07-27T12:55:43Z</time>
      </trkpt>
      <trkpt lat="46.294198036193848" lon="8.060188293457031">
        <ele>1541.611328125</ele>
        <time>2008-07-27T12:55:45Z</time>
      </trkpt>
      <trkpt lat="46.294326782226563" lon="8.059458732604981">
        <ele>1544.975830078125</ele>
        <time>2008-07-27T12:55:49Z</time>
      </trkpt>
      <trkpt lat="46.294305324554443" lon="8.059287071228027">
        <ele>1545.45654296875</ele>
        <time>2008-07-27T12:55:50Z</time>
      </trkpt>
      <trkpt lat="46.294155120849609" lon="8.057956695556641">
        <ele>1550.743896484375</ele>
        <time>2008-07-27T12:55:57Z</time>
      </trkpt>
      <trkpt lat="46.294112205505371" lon="8.057763576507568">
        <ele>1551.705322265625</ele>
        <time>2008-07-27T12:55:58Z</time>
      </trkpt>
      <trkpt lat="46.293661594390869" lon="8.057076930999756">
        <ele>1555.550537109375</ele>
        <time>2008-07-27T12:56:03Z</time>
      </trkpt>
      <trkpt lat="46.292803287506104" lon="8.056046962738037">
        <ele>1563.721435546875</ele>
        <time>2008-07-27T12:56:11Z</time>
      </trkpt>
      <trkpt lat="46.292116641998291" lon="8.055081367492676">
        <ele>1566.605712890625</ele>
        <time>2008-07-27T12:56:18Z</time>
      </trkpt>
      <trkpt lat="46.291837692260742" lon="8.054180145263672">
        <ele>1567.08642578125</ele>
        <time>2008-07-27T12:56:23Z</time>
      </trkpt>
      <trkpt lat="46.291687488555908" lon="8.053386211395264">
        <ele>1568.5283203125</ele>
        <time>2008-07-27T12:56:27Z</time>
      </trkpt>
      <trkpt lat="46.291451454162598" lon="8.052892684936523">
        <ele>1573.3349609375</ele>
        <time>2008-07-27T12:56:30Z</time>
      </trkpt>
      <trkpt lat="46.291000843048096" lon="8.052527904510498">
        <ele>1575.738037109375</ele>
        <time>2008-07-27T12:56:34Z</time>
      </trkpt>
      <trkpt lat="46.290357112884521" lon="8.052313327789307">
        <ele>1578.141357421875</ele>
        <time>2008-07-27T12:56:39Z</time>
      </trkpt>
      <trkpt lat="46.289949417114258" lon="8.051905632019043">
        <ele>1584.870849609375</ele>
        <time>2008-07-27T12:56:43Z</time>
      </trkpt>
      <trkpt lat="46.289842128753662" lon="8.051433563232422">
        <ele>1589.196533203125</ele>
        <time>2008-07-27T12:56:46Z</time>
      </trkpt>
      <trkpt lat="46.2898850440979" lon="8.050961494445801">
        <ele>1593.5224609375</ele>
        <time>2008-07-27T12:56:49Z</time>
      </trkpt>
      <trkpt lat="46.289992332458496" lon="8.050317764282227">
        <ele>1600.251953125</ele>
        <time>2008-07-27T12:56:53Z</time>
      </trkpt>
      <trkpt lat="46.289949417114258" lon="8.049652576446533">
        <ele>1605.058349609375</ele>
        <time>2008-07-27T12:56:57Z</time>
      </trkpt>
      <trkpt lat="46.289670467376709" lon="8.049137592315674">
        <ele>1607.461669921875</ele>
        <time>2008-07-27T12:57:01Z</time>
      </trkpt>
      <trkpt lat="46.289563179016113" lon="8.049030303955078">
        <ele>1608.4228515625</ele>
        <time>2008-07-27T12:57:02Z</time>
      </trkpt>
      <trkpt lat="46.289370059967041" lon="8.048815727233887">
        <ele>1608.903564453125</ele>
        <time>2008-07-27T12:57:04Z</time>
      </trkpt>
      <trkpt lat="46.289091110229492" lon="8.048279285430908">
        <ele>1611.78759765625</ele>
        <time>2008-07-27T12:57:08Z</time>
      </trkpt>
      <trkpt lat="46.289048194885254" lon="8.047935962677002">
        <ele>1613.229736328125</ele>
        <time>2008-07-27T12:57:10Z</time>
      </trkpt>
      <trkpt lat="46.289005279541016" lon="8.04722785949707">
        <ele>1616.113525390625</ele>
        <time>2008-07-27T12:57:14Z</time>
      </trkpt>
      <trkpt lat="46.288940906524658" lon="8.046112060546875">
        <ele>1622.8427734375</ele>
        <time>2008-07-27T12:57:20Z</time>
      </trkpt>
      <trkpt lat="46.288919448852539" lon="8.045940399169922">
        <ele>1623.803955078125</ele>
        <time>2008-07-27T12:57:21Z</time>
      </trkpt>
      <trkpt lat="46.288790702819824" lon="8.045382499694824">
        <ele>1625.7265625</ele>
        <time>2008-07-27T12:57:24Z</time>
      </trkpt>
      <trkpt lat="46.28840446472168" lon="8.044567108154297">
        <ele>1628.61083984375</ele>
        <time>2008-07-27T12:57:29Z</time>
      </trkpt>
      <trkpt lat="46.288211345672607" lon="8.044288158416748">
        <ele>1629.572021484375</ele>
        <time>2008-07-27T12:57:31Z</time>
      </trkpt>
      <trkpt lat="46.287953853607178" lon="8.044052124023438">
        <ele>1630.533447265625</ele>
        <time>2008-07-27T12:57:33Z</time>
      </trkpt>
      <trkpt lat="46.287546157836914" lon="8.043923377990723">
        <ele>1631.49462890625</ele>
        <time>2008-07-27T12:57:36Z</time>
      </trkpt>
      <trkpt lat="46.287267208099365" lon="8.043966293334961">
        <ele>1632.4560546875</ele>
        <time>2008-07-27T12:57:38Z</time>
      </trkpt>
      <trkpt lat="46.287009716033936" lon="8.044095039367676">
        <ele>1633.417236328125</ele>
        <time>2008-07-27T12:57:40Z</time>
      </trkpt>
      <trkpt lat="46.286258697509766" lon="8.044846057891846">
        <ele>1635.820556640625</ele>
        <time>2008-07-27T12:57:46Z</time>
      </trkpt>
      <trkpt lat="46.285293102264404" lon="8.045382499694824">
        <ele>1642.5498046875</ele>
        <time>2008-07-27T12:57:53Z</time>
      </trkpt>
      <trkpt lat="46.284778118133545" lon="8.045468330383301">
        <ele>1648.317626953125</ele>
        <time>2008-07-27T12:57:57Z</time>
      </trkpt>
      <trkpt lat="46.284456253051758" lon="8.04523229598999">
        <ele>1652.162841796875</ele>
        <time>2008-07-27T12:58:00Z</time>
      </trkpt>
      <trkpt lat="46.284327507019043" lon="8.044803142547607">
        <ele>1655.527587890625</ele>
        <time>2008-07-27T12:58:03Z</time>
      </trkpt>
      <trkpt lat="46.284284591674805" lon="8.044331073760986">
        <ele>1659.853271484375</ele>
        <time>2008-07-27T12:58:06Z</time>
      </trkpt>
      <trkpt lat="46.284370422363281" lon="8.044030666351318">
        <ele>1662.737548828125</ele>
        <time>2008-07-27T12:58:08Z</time>
      </trkpt>
      <trkpt lat="46.284627914428711" lon="8.043322563171387">
        <ele>1667.5439453125</ele>
        <time>2008-07-27T12:58:13Z</time>
      </trkpt>
      <trkpt lat="46.284928321838379" lon="8.042035102844238">
        <ele>1673.31201171875</ele>
        <time>2008-07-27T12:58:21Z</time>
      </trkpt>
      <trkpt lat="46.284992694854736" lon="8.04100513458252">
        <ele>1679.079833984375</ele>
        <time>2008-07-27T12:58:27Z</time>
      </trkpt>
      <trkpt lat="46.284928321838379" lon="8.039546012878418">
        <ele>1687.731689453125</ele>
        <time>2008-07-27T12:58:35Z</time>
      </trkpt>
      <trkpt lat="46.284863948822021" lon="8.03898811340332">
        <ele>1692.53857421875</ele>
        <time>2008-07-27T12:58:38Z</time>
      </trkpt>
      <trkpt lat="46.284799575805664" lon="8.038623332977295">
        <ele>1694.4609375</ele>
        <time>2008-07-27T12:58:40Z</time>
      </trkpt>
      <trkpt lat="46.284263134002686" lon="8.037679195404053">
        <ele>1701.6708984375</ele>
        <time>2008-07-27T12:58:46Z</time>
      </trkpt>
      <trkpt lat="46.283748149871826" lon="8.037357330322266">
        <ele>1705.035400390625</ele>
        <time>2008-07-27T12:58:50Z</time>
      </trkpt>
      <trkpt lat="46.283018589019775" lon="8.037207126617432">
        <ele>1712.245361328125</ele>
        <time>2008-07-27T12:58:55Z</time>
      </trkpt>
      <trkpt lat="46.282117366790771" lon="8.036649227142334">
        <ele>1717.052001953125</ele>
        <time>2008-07-27T12:59:02Z</time>
      </trkpt>
      <trkpt lat="46.28115177154541" lon="8.036155700683594">
        <ele>1718.493896484375</ele>
        <time>2008-07-27T12:59:09Z</time>
      </trkpt>
      <trkpt lat="46.281023025512695" lon="8.036091327667236">
        <ele>1718.493896484375</ele>
        <time>2008-07-27T12:59:10Z</time>
      </trkpt>
      <trkpt lat="46.280443668365479" lon="8.036155700683594">
        <ele>1722.339111328125</ele>
        <time>2008-07-27T12:59:14Z</time>
      </trkpt>
      <trkpt lat="46.280078887939453" lon="8.036563396453857">
        <ele>1727.14599609375</ele>
        <time>2008-07-27T12:59:17Z</time>
      </trkpt>
      <trkpt lat="46.279971599578857" lon="8.036713600158691">
        <ele>1728.587890625</ele>
        <time>2008-07-27T12:59:18Z</time>
      </trkpt>
      <trkpt lat="46.279284954071045" lon="8.037614822387695">
        <ele>1733.875</ele>
        <time>2008-07-27T12:59:24Z</time>
      </trkpt>
      <trkpt lat="46.277868747711182" lon="8.038623332977295">
        <ele>1741.565673828125</ele>
        <time>2008-07-27T12:59:35Z</time>
      </trkpt>
      <trkpt lat="46.269757747650146" lon="8.039910793304443">
        <ele>1820.87451171875</ele>
        <time>2008-07-27T13:00:32Z</time>
      </trkpt>
      <trkpt lat="46.268749237060547" lon="8.040275573730469">
        <ele>1837.216796875</ele>
        <time>2008-07-27T13:00:39Z</time>
      </trkpt>
      <trkpt lat="46.266796588897705" lon="8.040533065795898">
        <ele>1845.387939453125</ele>
        <time>2008-07-27T13:00:53Z</time>
      </trkpt>
      <trkpt lat="46.257891654968262" lon="8.041584491729736">
        <ele>1845.86865234375</ele>
        <time>2008-07-27T13:02:01Z</time>
      </trkpt>
      <trkpt lat="46.25694751739502" lon="8.046519756317139">
        <ele>1933.829345703125</ele>
        <time>2008-07-27T13:02:05Z</time>
      </trkpt>
      <trkpt lat="46.256861686706543" lon="8.046691417694092">
        <ele>1934.790771484375</ele>
        <time>2008-07-27T13:02:06Z</time>
      </trkpt>
      <trkpt lat="46.248536109924316" lon="8.062891960144043">
        <ele>2004.005615234375</ele>
        <time>2008-07-27T13:03:41Z</time>
      </trkpt>
      <trkpt lat="46.251068115234375" lon="8.037679195404053">
        <ele>2006.889404296875</ele>
        <time>2008-07-27T13:03:45Z</time>
      </trkpt>
      <trkpt lat="46.251003742218018" lon="8.036692142486572">
        <ele>2008.331298828125</ele>
        <time>2008-07-27T13:03:50Z</time>
      </trkpt>
      <trkpt lat="46.251068115234375" lon="8.035683631896973">
        <ele>2008.331298828125</ele>
        <time>2008-07-27T13:03:55Z</time>
      </trkpt>
      <trkpt lat="46.251153945922852" lon="8.034310340881348">
        <ele>2008.81201171875</ele>
        <time>2008-07-27T13:04:01Z</time>
      </trkpt>
      <trkpt lat="46.251068115234375" lon="8.033387660980225">
        <ele>2010.25390625</ele>
        <time>2008-07-27T13:04:05Z</time>
      </trkpt>
      <trkpt lat="46.250810623168945" lon="8.032550811767578">
        <ele>2011.21533203125</ele>
        <time>2008-07-27T13:04:09Z</time>
      </trkpt>
      <trkpt lat="46.250638961791992" lon="8.032186031341553">
        <ele>2011.21533203125</ele>
        <time>2008-07-27T13:04:11Z</time>
      </trkpt>
      <trkpt lat="46.250059604644775" lon="8.031477928161621">
        <ele>2011.696044921875</ele>
        <time>2008-07-27T13:04:16Z</time>
      </trkpt>
      <trkpt lat="46.249308586120605" lon="8.03076982498169">
        <ele>2010.734619140625</ele>
        <time>2008-07-27T13:04:22Z</time>
      </trkpt>
      <trkpt lat="46.248750686645508" lon="8.0299973487854">
        <ele>2009.292724609375</ele>
        <time>2008-07-27T13:04:27Z</time>
      </trkpt>
      <trkpt lat="46.248278617858887" lon="8.029031753540039">
        <ele>2006.40869140625</ele>
        <time>2008-07-27T13:04:32Z</time>
      </trkpt>
      <trkpt lat="46.24769926071167" lon="8.027915954589844">
        <ele>2003.044189453125</ele>
        <time>2008-07-27T13:04:38Z</time>
      </trkpt>
      <trkpt lat="46.247076988220215" lon="8.027164936065674">
        <ele>1999.6796875</ele>
        <time>2008-07-27T13:04:43Z</time>
      </trkpt>
      <trkpt lat="46.246562004089355" lon="8.026349544525147">
        <ele>1998.237548828125</ele>
        <time>2008-07-27T13:04:48Z</time>
      </trkpt>
      <trkpt lat="46.246218681335449" lon="8.025555610656738">
        <ele>1997.757080078125</ele>
        <time>2008-07-27T13:04:53Z</time>
      </trkpt>
      <trkpt lat="46.246089935302734" lon="8.025083541870117">
        <ele>1998.237548828125</ele>
        <time>2008-07-27T13:04:57Z</time>
      </trkpt>
      <trkpt lat="46.246047019958496" lon="8.024890422821045">
        <ele>1998.237548828125</ele>
        <time>2008-07-27T13:04:59Z</time>
      </trkpt>
      <trkpt lat="46.246068477630615" lon="8.024697303771973">
        <ele>1998.237548828125</ele>
        <time>2008-07-27T13:05:04Z</time>
      </trkpt>
      <trkpt lat="46.246068477630615" lon="8.024697303771973">
        <ele>1999.198974609375</ele>
        <time>2008-07-27T13:05:15Z</time>
      </trkpt>
      <trkpt lat="46.246068477630615" lon="8.024697303771973">
        <ele>1998.71826171875</ele>
        <time>2008-07-27T13:05:20Z</time>
      </trkpt>
      <trkpt lat="46.245768070220947" lon="8.023989200592041">
        <ele>1991.50830078125</ele>
        <time>2008-07-27T13:30:25Z</time>
      </trkpt>
      <trkpt lat="46.245768070220947" lon="8.023989200592041">
        <ele>1992.9501953125</ele>
        <time>2008-07-27T13:31:00Z</time>
      </trkpt>
      <trkpt lat="46.245746612548828" lon="8.023967742919922">
        <ele>1992.4697265625</ele>
        <time>2008-07-27T13:31:12Z</time>
      </trkpt>
      <trkpt lat="46.245682239532471" lon="8.023860454559326">
        <ele>1992.4697265625</ele>
        <time>2008-07-27T13:31:17Z</time>
      </trkpt>
      <trkpt lat="46.245639324188232" lon="8.023710250854492">
        <ele>1990.546875</ele>
        <time>2008-07-27T13:31:20Z</time>
      </trkpt>
      <trkpt lat="46.245424747467041" lon="8.023495674133301">
        <ele>1987.182373046875</ele>
        <time>2008-07-27T13:31:26Z</time>
      </trkpt>
      <trkpt lat="46.245317459106445" lon="8.023281097412109">
        <ele>1985.259765625</ele>
        <time>2008-07-27T13:31:29Z</time>
      </trkpt>
      <trkpt lat="46.245274543762207" lon="8.023066520690918">
        <ele>1984.779296875</ele>
        <time>2008-07-27T13:31:31Z</time>
      </trkpt>
      <trkpt lat="46.245167255401611" lon="8.022680282592773">
        <ele>1983.337158203125</ele>
        <time>2008-07-27T13:31:35Z</time>
      </trkpt>
      <trkpt lat="46.244931221008301" lon="8.022294044494629">
        <ele>1981.41455078125</ele>
        <time>2008-07-27T13:31:40Z</time>
      </trkpt>
      <trkpt lat="46.244673728942871" lon="8.021950721740723">
        <ele>1981.41455078125</ele>
        <time>2008-07-27T13:31:45Z</time>
      </trkpt>
      <trkpt lat="46.244502067565918" lon="8.021500110626221">
        <ele>1981.895263671875</ele>
        <time>2008-07-27T13:31:52Z</time>
      </trkpt>
      <trkpt lat="46.244480609893799" lon="8.021457195281982">
        <ele>1981.895263671875</ele>
        <time>2008-07-27T13:31:53Z</time>
      </trkpt>
      <trkpt lat="46.244373321533203" lon="8.020834922790527">
        <ele>1979.972412109375</ele>
        <time>2008-07-27T13:32:03Z</time>
      </trkpt>
      <trkpt lat="46.244330406188965" lon="8.020706176757813">
        <ele>1979.010986328125</ele>
        <time>2008-07-27T13:32:05Z</time>
      </trkpt>
      <trkpt lat="46.244051456451416" lon="8.02027702331543">
        <ele>1974.685302734375</ele>
        <time>2008-07-27T13:32:11Z</time>
      </trkpt>
      <trkpt lat="46.243836879730225" lon="8.019933700561523">
        <ele>1972.7626953125</ele>
        <time>2008-07-27T13:32:15Z</time>
      </trkpt>
      <trkpt lat="46.243665218353271" lon="8.019804954528809">
        <ele>1972.281982421875</ele>
        <time>2008-07-27T13:32:19Z</time>
      </trkpt>
      <trkpt lat="46.243557929992676" lon="8.01976203918457">
        <ele>1971.320556640625</ele>
        <time>2008-07-27T13:32:22Z</time>
      </trkpt>
      <trkpt lat="46.243407726287842" lon="8.019676208496094">
        <ele>1969.398193359375</ele>
        <time>2008-07-27T13:32:25Z</time>
      </trkpt>
      <trkpt lat="46.243257522583008" lon="8.019375801086426">
        <ele>1966.994873046875</ele>
        <time>2008-07-27T13:32:29Z</time>
      </trkpt>
      <trkpt lat="46.243000030517578" lon="8.019096851348877">
        <ele>1962.668701171875</ele>
        <time>2008-07-27T13:32:33Z</time>
      </trkpt>
      <trkpt lat="46.242549419403076" lon="8.01877498626709">
        <ele>1957.381591796875</ele>
        <time>2008-07-27T13:32:38Z</time>
      </trkpt>
      <trkpt lat="46.24194860458374" lon="8.018581867218018">
        <ele>1955.458984375</ele>
        <time>2008-07-27T13:32:44Z</time>
      </trkpt>
      <trkpt lat="46.241476535797119" lon="8.018453121185303">
        <ele>1952.09423828125</ele>
        <time>2008-07-27T13:32:49Z</time>
      </trkpt>
      <trkpt lat="46.24119758605957" lon="8.018217086791992">
        <ele>1949.21044921875</ele>
        <time>2008-07-27T13:32:53Z</time>
      </trkpt>
      <trkpt lat="46.24119758605957" lon="8.017981052398682">
        <ele>1948.2490234375</ele>
        <time>2008-07-27T13:32:55Z</time>
      </trkpt>
      <trkpt lat="46.24119758605957" lon="8.017659187316895">
        <ele>1946.806884765625</ele>
        <time>2008-07-27T13:32:58Z</time>
      </trkpt>
      <trkpt lat="46.241090297698975" lon="8.017208576202393">
        <ele>1945.364990234375</ele>
        <time>2008-07-27T13:33:02Z</time>
      </trkpt>
      <trkpt lat="46.240682601928711" lon="8.016178607940674">
        <ele>1943.923095703125</ele>
        <time>2008-07-27T13:33:13Z</time>
      </trkpt>
      <trkpt lat="46.240489482879639" lon="8.015663623809815">
        <ele>1943.4423828125</ele>
        <time>2008-07-27T13:33:20Z</time>
      </trkpt>
      <trkpt lat="46.2404465675354" lon="8.015620708465576">
        <ele>1943.4423828125</ele>
        <time>2008-07-27T13:33:21Z</time>
      </trkpt>
      <trkpt lat="46.240231990814209" lon="8.015556335449219">
        <ele>1940.558349609375</ele>
        <time>2008-07-27T13:33:25Z</time>
      </trkpt>
      <trkpt lat="46.239931583404541" lon="8.015663623809815">
        <ele>1938.635986328125</ele>
        <time>2008-07-27T13:33:29Z</time>
      </trkpt>
      <trkpt lat="46.239759922027588" lon="8.015899658203125">
        <ele>1937.674560546875</ele>
        <time>2008-07-27T13:33:33Z</time>
      </trkpt>
      <trkpt lat="46.239781379699707" lon="8.016006946563721">
        <ele>1936.713134765625</ele>
        <time>2008-07-27T13:33:34Z</time>
      </trkpt>
      <trkpt lat="46.23971700668335" lon="8.01652193069458">
        <ele>1930.464599609375</ele>
        <time>2008-07-27T13:33:39Z</time>
      </trkpt>
      <trkpt lat="46.239373683929443" lon="8.017573356628418">
        <ele>1929.0224609375</ele>
        <time>2008-07-27T13:33:47Z</time>
      </trkpt>
      <trkpt lat="46.239266395568848" lon="8.018345832824707">
        <ele>1927.58056640625</ele>
        <time>2008-07-27T13:33:54Z</time>
      </trkpt>
      <trkpt lat="46.239116191864014" lon="8.018732070922852">
        <ele>1926.138671875</ele>
        <time>2008-07-27T13:33:58Z</time>
      </trkpt>
      <trkpt lat="46.239051818847656" lon="8.019075393676758">
        <ele>1926.138671875</ele>
        <time>2008-07-27T13:34:02Z</time>
      </trkpt>
      <trkpt lat="46.238923072814941" lon="8.019332885742188">
        <ele>1927.10009765625</ele>
        <time>2008-07-27T13:34:07Z</time>
      </trkpt>
      <trkpt lat="46.238772869110107" lon="8.019418716430664">
        <ele>1926.619384765625</ele>
        <time>2008-07-27T13:34:12Z</time>
      </trkpt>
      <trkpt lat="46.238751411437988" lon="8.019418716430664">
        <ele>1926.619384765625</ele>
        <time>2008-07-27T13:34:16Z</time>
      </trkpt>
      <trkpt lat="46.238601207733154" lon="8.019332885742188">
        <ele>1925.17724609375</ele>
        <time>2008-07-27T13:34:22Z</time>
      </trkpt>
      <trkpt lat="46.238429546356201" lon="8.019332885742188">
        <ele>1923.2548828125</ele>
        <time>2008-07-27T13:34:27Z</time>
      </trkpt>
      <trkpt lat="46.238193511962891" lon="8.019504547119141">
        <ele>1923.2548828125</ele>
        <time>2008-07-27T13:34:34Z</time>
      </trkpt>
      <trkpt lat="46.238172054290771" lon="8.01952600479126">
        <ele>1923.2548828125</ele>
        <time>2008-07-27T13:34:35Z</time>
      </trkpt>
      <trkpt lat="46.238000392913818" lon="8.019633293151856">
        <ele>1921.33203125</ele>
        <time>2008-07-27T13:34:40Z</time>
      </trkpt>
      <trkpt lat="46.237807273864746" lon="8.019826412200928">
        <ele>1917.00634765625</ele>
        <time>2008-07-27T13:34:48Z</time>
      </trkpt>
      <trkpt lat="46.237764358520508" lon="8.019847869873047">
        <ele>1915.564208984375</ele>
        <time>2008-07-27T13:35:12Z</time>
      </trkpt>
      <trkpt lat="46.237657070159912" lon="8.019719123840332">
        <ele>1914.1220703125</ele>
        <time>2008-07-27T13:35:18Z</time>
      </trkpt>
      <trkpt lat="46.237506866455078" lon="8.019568920135498">
        <ele>1912.199462890625</ele>
        <time>2008-07-27T13:35:23Z</time>
      </trkpt>
      <trkpt lat="46.237292289733887" lon="8.019440174102783">
        <ele>1911.23828125</ele>
        <time>2008-07-27T13:35:28Z</time>
      </trkpt>
      <trkpt lat="46.237249374389648" lon="8.019418716430664">
        <ele>1910.757568359375</ele>
        <time>2008-07-27T13:35:29Z</time>
      </trkpt>
      <trkpt lat="46.237099170684814" lon="8.019247055053711">
        <ele>1909.315673828125</ele>
        <time>2008-07-27T13:35:35Z</time>
      </trkpt>
      <trkpt lat="46.237077713012695" lon="8.019182682037354">
        <ele>1905.470458984375</ele>
        <time>2008-07-27T13:36:13Z</time>
      </trkpt>
      <trkpt lat="46.237056255340576" lon="8.019182682037354">
        <ele>1907.39306640625</ele>
        <time>2008-07-27T13:36:42Z</time>
      </trkpt>
      <trkpt lat="46.237034797668457" lon="8.019161224365234">
        <ele>1907.39306640625</ele>
        <time>2008-07-27T13:36:52Z</time>
      </trkpt>
      <trkpt lat="46.2369704246521" lon="8.019139766693115">
        <ele>1907.39306640625</ele>
        <time>2008-07-27T13:37:01Z</time>
      </trkpt>
      <trkpt lat="46.2369704246521" lon="8.019118309020996">
        <ele>1906.912353515625</ele>
        <time>2008-07-27T13:37:03Z</time>
      </trkpt>
      <trkpt lat="46.236906051635742" lon="8.0190110206604">
        <ele>1904.98974609375</ele>
        <time>2008-07-27T13:37:11Z</time>
      </trkpt>
      <trkpt lat="46.236820220947266" lon="8.018925189971924">
        <ele>1902.105712890625</ele>
        <time>2008-07-27T13:37:18Z</time>
      </trkpt>
      <trkpt lat="46.236670017242432" lon="8.018732070922852">
        <ele>1901.14453125</ele>
        <time>2008-07-27T13:37:25Z</time>
      </trkpt>
      <trkpt lat="46.236648559570313" lon="8.018710613250732">
        <ele>1901.625244140625</ele>
        <time>2008-07-27T13:37:30Z</time>
      </trkpt>
      <trkpt lat="46.236627101898193" lon="8.018646240234375">
        <ele>1902.105712890625</ele>
        <time>2008-07-27T13:37:40Z</time>
      </trkpt>
      <trkpt lat="46.236498355865479" lon="8.018538951873779">
        <ele>1902.105712890625</ele>
        <time>2008-07-27T13:37:46Z</time>
      </trkpt>
      <trkpt lat="46.236433982849121" lon="8.018388748168945">
        <ele>1901.625244140625</ele>
        <time>2008-07-27T13:37:50Z</time>
      </trkpt>
      <trkpt lat="46.236348152160645" lon="8.018088340759277">
        <ele>1899.2216796875</ele>
        <time>2008-07-27T13:37:57Z</time>
      </trkpt>
      <trkpt lat="46.236197948455811" lon="8.01776647567749">
        <ele>1897.299072265625</ele>
        <time>2008-07-27T13:38:06Z</time>
      </trkpt>
      <trkpt lat="46.236090660095215" lon="8.017702102661133">
        <ele>1897.77978515625</ele>
        <time>2008-07-27T13:38:11Z</time>
      </trkpt>
      <trkpt lat="46.235897541046143" lon="8.017637729644775">
        <ele>1897.77978515625</ele>
        <time>2008-07-27T13:38:18Z</time>
      </trkpt>
      <trkpt lat="46.23570442199707" lon="8.017637729644775">
        <ele>1897.299072265625</ele>
        <time>2008-07-27T13:38:23Z</time>
      </trkpt>
      <trkpt lat="46.235661506652832" lon="8.017637729644775">
        <ele>1896.818359375</ele>
        <time>2008-07-27T13:38:24Z</time>
      </trkpt>
      <trkpt lat="46.235618591308594" lon="8.017551898956299">
        <ele>1894.4150390625</ele>
        <time>2008-07-27T13:38:28Z</time>
      </trkpt>
      <trkpt lat="46.235618591308594" lon="8.017466068267822">
        <ele>1893.9345703125</ele>
        <time>2008-07-27T13:38:30Z</time>
      </trkpt>
      <trkpt lat="46.235575675964355" lon="8.017230033874512">
        <ele>1891.53125</ele>
        <time>2008-07-27T13:38:36Z</time>
      </trkpt>
      <trkpt lat="46.235554218292236" lon="8.016993999481201">
        <ele>1890.08935546875</ele>
        <time>2008-07-27T13:38:40Z</time>
      </trkpt>
      <trkpt lat="46.235489845275879" lon="8.016543388366699">
        <ele>1888.166748046875</ele>
        <time>2008-07-27T13:38:47Z</time>
      </trkpt>
      <trkpt lat="46.235318183898926" lon="8.016114234924316">
        <ele>1881.91796875</ele>
        <time>2008-07-27T13:38:56Z</time>
      </trkpt>
      <trkpt lat="46.23521089553833" lon="8.015813827514648">
        <ele>1878.07275390625</ele>
        <time>2008-07-27T13:39:02Z</time>
      </trkpt>
      <trkpt lat="46.235060691833496" lon="8.015620708465576">
        <ele>1877.111572265625</ele>
        <time>2008-07-27T13:39:07Z</time>
      </trkpt>
      <trkpt lat="46.234996318817139" lon="8.015577793121338">
        <ele>1876.630859375</ele>
        <time>2008-07-27T13:39:12Z</time>
      </trkpt>
      <trkpt lat="46.2349534034729" lon="8.015620708465576">
        <ele>1875.66943359375</ele>
        <time>2008-07-27T13:41:48Z</time>
      </trkpt>
      <trkpt lat="46.234803199768066" lon="8.015577793121338">
        <ele>1873.746826171875</ele>
        <time>2008-07-27T13:41:54Z</time>
      </trkpt>
      <trkpt lat="46.234652996063232" lon="8.015556335449219">
        <ele>1872.78564453125</ele>
        <time>2008-07-27T13:42:00Z</time>
      </trkpt>
      <trkpt lat="46.234352588653564" lon="8.015513420104981">
        <ele>1874.2275390625</ele>
        <time>2008-07-27T13:42:10Z</time>
      </trkpt>
      <trkpt lat="46.234331130981445" lon="8.015513420104981">
        <ele>1874.708251953125</ele>
        <time>2008-07-27T13:42:14Z</time>
      </trkpt>
      <trkpt lat="46.234331130981445" lon="8.015513420104981">
        <ele>1874.708251953125</ele>
        <time>2008-07-27T13:42:16Z</time>
      </trkpt>
      <trkpt lat="46.23420238494873" lon="8.015406131744385">
        <ele>1877.111572265625</ele>
        <time>2008-07-27T13:42:29Z</time>
      </trkpt>
      <trkpt lat="46.234095096588135" lon="8.015298843383789">
        <ele>1878.553466796875</ele>
        <time>2008-07-27T13:42:39Z</time>
      </trkpt>
      <trkpt lat="46.234052181243896" lon="8.015255928039551">
        <ele>1878.07275390625</ele>
        <time>2008-07-27T13:42:47Z</time>
      </trkpt>
      <trkpt lat="46.233944892883301" lon="8.015084266662598">
        <ele>1876.630859375</ele>
        <time>2008-07-27T13:42:52Z</time>
      </trkpt>
      <trkpt lat="46.233923435211182" lon="8.015041351318359">
        <ele>1876.630859375</ele>
        <time>2008-07-27T13:42:54Z</time>
      </trkpt>
      <trkpt lat="46.233901977539062" lon="8.01501989364624">
        <ele>1876.630859375</ele>
        <time>2008-07-27T13:42:57Z</time>
      </trkpt>
      <trkpt lat="46.233859062194824" lon="8.014912605285645">
        <ele>1876.150146484375</ele>
        <time>2008-07-27T13:43:06Z</time>
      </trkpt>
      <trkpt lat="46.233859062194824" lon="8.014891147613525">
        <ele>1875.66943359375</ele>
        <time>2008-07-27T13:43:09Z</time>
      </trkpt>
      <trkpt lat="46.233816146850586" lon="8.014826774597168">
        <ele>1874.2275390625</ele>
        <time>2008-07-27T13:43:14Z</time>
      </trkpt>
      <trkpt lat="46.233665943145752" lon="8.014719486236572">
        <ele>1874.2275390625</ele>
        <time>2008-07-27T13:43:21Z</time>
      </trkpt>
      <trkpt lat="46.233494281768799" lon="8.0145263671875">
        <ele>1875.188720703125</ele>
        <time>2008-07-27T13:43:28Z</time>
      </trkpt>
      <trkpt lat="46.233344078063965" lon="8.014354705810547">
        <ele>1875.66943359375</ele>
        <time>2008-07-27T13:43:35Z</time>
      </trkpt>
      <trkpt lat="46.233258247375488" lon="8.014247417449951">
        <ele>1876.630859375</ele>
        <time>2008-07-27T13:43:41Z</time>
      </trkpt>
      <trkpt lat="46.233193874359131" lon="8.014204502105713">
        <ele>1878.07275390625</ele>
        <time>2008-07-27T13:43:48Z</time>
      </trkpt>
      <trkpt lat="46.233129501342773" lon="8.014097213745117">
        <ele>1879.033935546875</ele>
        <time>2008-07-27T13:43:58Z</time>
      </trkpt>
      <trkpt lat="46.233065128326416" lon="8.014075756072998">
        <ele>1879.5146484375</ele>
        <time>2008-07-27T13:44:07Z</time>
      </trkpt>
      <trkpt lat="46.232979297637939" lon="8.014011383056641">
        <ele>1878.553466796875</ele>
        <time>2008-07-27T13:44:11Z</time>
      </trkpt>
      <trkpt lat="46.232872009277344" lon="8.013925552368164">
        <ele>1878.553466796875</ele>
        <time>2008-07-27T13:44:15Z</time>
      </trkpt>
      <trkpt lat="46.232743263244629" lon="8.013796806335449">
        <ele>1877.592041015625</ele>
        <time>2008-07-27T13:44:20Z</time>
      </trkpt>
      <trkpt lat="46.232678890228271" lon="8.013689517974854">
        <ele>1878.07275390625</ele>
        <time>2008-07-27T13:44:24Z</time>
      </trkpt>
      <trkpt lat="46.232635974884033" lon="8.013625144958496">
        <ele>1877.111572265625</ele>
        <time>2008-07-27T13:44:27Z</time>
      </trkpt>
      <trkpt lat="46.232614517211914" lon="8.013582229614258">
        <ele>1876.630859375</ele>
        <time>2008-07-27T13:44:30Z</time>
      </trkpt>
      <trkpt lat="46.232507228851318" lon="8.013389110565186">
        <ele>1876.150146484375</ele>
        <time>2008-07-27T13:44:37Z</time>
      </trkpt>
      <trkpt lat="46.232357025146484" lon="8.013324737548828">
        <ele>1876.150146484375</ele>
        <time>2008-07-27T13:44:45Z</time>
      </trkpt>
      <trkpt lat="46.23220682144165" lon="8.013260364532471">
        <ele>1875.188720703125</ele>
        <time>2008-07-27T13:44:51Z</time>
      </trkpt>
      <trkpt lat="46.232099533081055" lon="8.013217449188232">
        <ele>1874.708251953125</ele>
        <time>2008-07-27T13:44:56Z</time>
      </trkpt>
      <trkpt lat="46.232078075408936" lon="8.013217449188232">
        <ele>1876.150146484375</ele>
        <time>2008-07-27T13:45:06Z</time>
      </trkpt>
      <trkpt lat="46.232056617736816" lon="8.013217449188232">
        <ele>1871.82421875</ele>
        <time>2008-07-27T13:45:22Z</time>
      </trkpt>
      <trkpt lat="46.232099533081055" lon="8.013195991516113">
        <ele>1867.498046875</ele>
        <time>2008-07-27T13:46:10Z</time>
      </trkpt>
      <trkpt lat="46.232185363769531" lon="8.013131618499756">
        <ele>1867.498046875</ele>
        <time>2008-07-27T13:46:20Z</time>
      </trkpt>
      <trkpt lat="46.232163906097412" lon="8.013088703155518">
        <ele>1867.498046875</ele>
        <time>2008-07-27T13:46:24Z</time>
      </trkpt>
      <trkpt lat="46.232099533081055" lon="8.013110160827637">
        <ele>1865.094970703125</ele>
        <time>2008-07-27T13:46:31Z</time>
      </trkpt>
      <trkpt lat="46.232078075408936" lon="8.013088703155518">
        <ele>1864.6142578125</ele>
        <time>2008-07-27T13:46:33Z</time>
      </trkpt>
      <trkpt lat="46.231927871704102" lon="8.01302433013916">
        <ele>1864.6142578125</ele>
        <time>2008-07-27T13:46:39Z</time>
      </trkpt>
      <trkpt lat="46.231842041015625" lon="8.012959957122803">
        <ele>1863.65283203125</ele>
        <time>2008-07-27T13:46:44Z</time>
      </trkpt>
      <trkpt lat="46.231734752655029" lon="8.012874126434326">
        <ele>1863.65283203125</ele>
        <time>2008-07-27T13:46:48Z</time>
      </trkpt>
      <trkpt lat="46.231648921966553" lon="8.012745380401611">
        <ele>1862.2109375</ele>
        <time>2008-07-27T13:46:53Z</time>
      </trkpt>
      <trkpt lat="46.231627464294434" lon="8.012745380401611">
        <ele>1861.73046875</ele>
        <time>2008-07-27T13:46:55Z</time>
      </trkpt>
      <trkpt lat="46.23145580291748" lon="8.012745380401611">
        <ele>1859.8076171875</ele>
        <time>2008-07-27T13:47:00Z</time>
      </trkpt>
      <trkpt lat="46.231369972229004" lon="8.012659549713135">
        <ele>1860.288330078125</ele>
        <time>2008-07-27T13:47:06Z</time>
      </trkpt>
      <trkpt lat="46.231091022491455" lon="8.012702465057373">
        <ele>1861.73046875</ele>
        <time>2008-07-27T13:47:18Z</time>
      </trkpt>
      <trkpt lat="46.231069564819336" lon="8.012702465057373">
        <ele>1862.2109375</ele>
        <time>2008-07-27T13:47:22Z</time>
      </trkpt>
      <trkpt lat="46.231069564819336" lon="8.012681007385254">
        <ele>1862.2109375</ele>
        <time>2008-07-27T13:47:24Z</time>
      </trkpt>
      <trkpt lat="46.230983734130859" lon="8.012681007385254">
        <ele>1862.691650390625</ele>
        <time>2008-07-27T13:47:31Z</time>
      </trkpt>
      <trkpt lat="46.23096227645874" lon="8.012681007385254">
        <ele>1863.17236328125</ele>
        <time>2008-07-27T13:47:32Z</time>
      </trkpt>
      <trkpt lat="46.230747699737549" lon="8.012723922729492">
        <ele>1864.133544921875</ele>
        <time>2008-07-27T13:47:40Z</time>
      </trkpt>
      <trkpt lat="46.230554580688477" lon="8.012766838073731">
        <ele>1864.6142578125</ele>
        <time>2008-07-27T13:47:47Z</time>
      </trkpt>
      <trkpt lat="46.230425834655762" lon="8.012766838073731">
        <ele>1864.6142578125</ele>
        <time>2008-07-27T13:47:52Z</time>
      </trkpt>
      <trkpt lat="46.23021125793457" lon="8.012659549713135">
        <ele>1863.65283203125</ele>
        <time>2008-07-27T13:48:00Z</time>
      </trkpt>
      <trkpt lat="46.230146884918213" lon="8.012638092041016">
        <ele>1861.73046875</ele>
        <time>2008-07-27T13:48:05Z</time>
      </trkpt>
      <trkpt lat="46.230103969573975" lon="8.012616634368897">
        <ele>1861.249755859375</ele>
        <time>2008-07-27T13:48:12Z</time>
      </trkpt>
      <trkpt lat="46.230082511901855" lon="8.012616634368897">
        <ele>1860.76904296875</ele>
        <time>2008-07-27T13:48:18Z</time>
      </trkpt>
      <trkpt lat="46.22997522354126" lon="8.012573719024658">
        <ele>1861.73046875</ele>
        <time>2008-07-27T13:48:27Z</time>
      </trkpt>
      <trkpt lat="46.229910850524902" lon="8.012552261352539">
        <ele>1858.846435546875</ele>
        <time>2008-07-27T13:48:36Z</time>
      </trkpt>
      <trkpt lat="46.229889392852783" lon="8.012552261352539">
        <ele>1858.36572265625</ele>
        <time>2008-07-27T13:48:45Z</time>
      </trkpt>
      <trkpt lat="46.229889392852783" lon="8.01253080368042">
        <ele>1860.288330078125</ele>
        <time>2008-07-27T13:48:57Z</time>
      </trkpt>
      <trkpt lat="46.229889392852783" lon="8.012509346008301">
        <ele>1850.675048828125</ele>
        <time>2008-07-27T13:49:41Z</time>
      </trkpt>
      <trkpt lat="46.229825019836426" lon="8.012487888336182">
        <ele>1851.15576171875</ele>
        <time>2008-07-27T13:49:44Z</time>
      </trkpt>
      <trkpt lat="46.229696273803711" lon="8.012316226959229">
        <ele>1848.271728515625</ele>
        <time>2008-07-27T13:49:48Z</time>
      </trkpt>
      <trkpt lat="46.229524612426758" lon="8.012080192565918">
        <ele>1845.387939453125</ele>
        <time>2008-07-27T13:49:53Z</time>
      </trkpt>
      <trkpt lat="46.2294602394104" lon="8.011929988861084">
        <ele>1843.946044921875</ele>
        <time>2008-07-27T13:49:57Z</time>
      </trkpt>
      <trkpt lat="46.229417324066162" lon="8.011951446533203">
        <ele>1842.504150390625</ele>
        <time>2008-07-27T13:50:03Z</time>
      </trkpt>
      <trkpt lat="46.229395866394043" lon="8.011972904205322">
        <ele>1842.984619140625</ele>
        <time>2008-07-27T13:50:10Z</time>
      </trkpt>
      <trkpt lat="46.229352951049805" lon="8.012058734893799">
        <ele>1844.426513671875</ele>
        <time>2008-07-27T13:50:14Z</time>
      </trkpt>
      <trkpt lat="46.22922420501709" lon="8.01203727722168">
        <ele>1842.0234375</ele>
        <time>2008-07-27T13:50:24Z</time>
      </trkpt>
      <trkpt lat="46.229116916656494" lon="8.012080192565918">
        <ele>1838.17822265625</ele>
        <time>2008-07-27T13:50:32Z</time>
      </trkpt>
      <trkpt lat="46.228923797607422" lon="8.012294769287109">
        <ele>1835.774658203125</ele>
        <time>2008-07-27T13:50:41Z</time>
      </trkpt>
      <trkpt lat="46.228644847869873" lon="8.012251853942871">
        <ele>1835.774658203125</ele>
        <time>2008-07-27T13:50:50Z</time>
      </trkpt>
      <trkpt lat="46.22821569442749" lon="8.012015819549561">
        <ele>1833.85205078125</ele>
        <time>2008-07-27T13:51:03Z</time>
      </trkpt>
      <trkpt lat="46.228151321411133" lon="8.011972904205322">
        <ele>1833.371337890625</ele>
        <time>2008-07-27T13:51:05Z</time>
      </trkpt>
      <trkpt lat="46.227893829345703" lon="8.012101650238037">
        <ele>1834.8134765625</ele>
        <time>2008-07-27T13:51:12Z</time>
      </trkpt>
      <trkpt lat="46.227571964263916" lon="8.012359142303467">
        <ele>1834.8134765625</ele>
        <time>2008-07-27T13:51:21Z</time>
      </trkpt>
      <trkpt lat="46.227486133575439" lon="8.012444972991943">
        <ele>1835.774658203125</ele>
        <time>2008-07-27T13:51:28Z</time>
      </trkpt>
      <trkpt lat="46.227378845214844" lon="8.01253080368042">
        <ele>1838.17822265625</ele>
        <time>2008-07-27T13:51:42Z</time>
      </trkpt>
      <trkpt lat="46.227164268493652" lon="8.012702465057373">
        <ele>1838.17822265625</ele>
        <time>2008-07-27T13:51:51Z</time>
      </trkpt>
      <trkpt lat="46.227014064788818" lon="8.012745380401611">
        <ele>1837.216796875</ele>
        <time>2008-07-27T13:51:55Z</time>
      </trkpt>
      <trkpt lat="46.226885318756104" lon="8.012745380401611">
        <ele>1836.736083984375</ele>
        <time>2008-07-27T13:51:58Z</time>
      </trkpt>
      <trkpt lat="46.226692199707031" lon="8.012938499450684">
        <ele>1833.371337890625</ele>
        <time>2008-07-27T13:52:03Z</time>
      </trkpt>
      <trkpt lat="46.226606369018555" lon="8.013067245483398">
        <ele>1832.890625</ele>
        <time>2008-07-27T13:52:05Z</time>
      </trkpt>
      <trkpt lat="46.226456165313721" lon="8.013153076171875">
        <ele>1830.487548828125</ele>
        <time>2008-07-27T13:52:09Z</time>
      </trkpt>
      <trkpt lat="46.226241588592529" lon="8.013217449188232">
        <ele>1829.04541015625</ele>
        <time>2008-07-27T13:52:14Z</time>
      </trkpt>
      <trkpt lat="46.225769519805908" lon="8.013324737548828">
        <ele>1828.56494140625</ele>
        <time>2008-07-27T13:52:26Z</time>
      </trkpt>
      <trkpt lat="46.225640773773193" lon="8.013324737548828">
        <ele>1827.603515625</ele>
        <time>2008-07-27T13:52:29Z</time>
      </trkpt>
      <trkpt lat="46.225426197052002" lon="8.013432025909424">
        <ele>1826.16162109375</ele>
        <time>2008-07-27T13:52:35Z</time>
      </trkpt>
      <trkpt lat="46.22523307800293" lon="8.013668060302734">
        <ele>1827.123046875</ele>
        <time>2008-07-27T13:52:41Z</time>
      </trkpt>
      <trkpt lat="46.225168704986572" lon="8.013968467712402">
        <ele>1826.16162109375</ele>
        <time>2008-07-27T13:52:45Z</time>
      </trkpt>
      <trkpt lat="46.225168704986572" lon="8.014247417449951">
        <ele>1825.680908203125</ele>
        <time>2008-07-27T13:52:51Z</time>
      </trkpt>
      <trkpt lat="46.225168704986572" lon="8.0145263671875">
        <ele>1821.835693359375</ele>
        <time>2008-07-27T13:52:57Z</time>
      </trkpt>
      <trkpt lat="46.225125789642334" lon="8.014397621154785">
        <ele>1818.95166015625</ele>
        <time>2008-07-27T13:53:02Z</time>
      </trkpt>
      <trkpt lat="46.225018501281738" lon="8.014161586761475">
        <ele>1816.067626953125</ele>
        <time>2008-07-27T13:53:07Z</time>
      </trkpt>
      <trkpt lat="46.224889755249023" lon="8.01429033279419">
        <ele>1815.1064453125</ele>
        <time>2008-07-27T13:53:12Z</time>
      </trkpt>
      <trkpt lat="46.224803924560547" lon="8.014311790466309">
        <ele>1814.625732421875</ele>
        <time>2008-07-27T13:53:14Z</time>
      </trkpt>
      <trkpt lat="46.22471809387207" lon="8.014440536499023">
        <ele>1813.664306640625</ele>
        <time>2008-07-27T13:53:19Z</time>
      </trkpt>
      <trkpt lat="46.224846839904785" lon="8.014569282531738">
        <ele>1811.26123046875</ele>
        <time>2008-07-27T13:53:23Z</time>
      </trkpt>
      <trkpt lat="46.225018501281738" lon="8.014912605285645">
        <ele>1809.338623046875</ele>
        <time>2008-07-27T13:53:31Z</time>
      </trkpt>
      <trkpt lat="46.225104331970215" lon="8.015148639678955">
        <ele>1810.2998046875</ele>
        <time>2008-07-27T13:53:38Z</time>
      </trkpt>
      <trkpt lat="46.225125789642334" lon="8.015213012695313">
        <ele>1813.183837890625</ele>
        <time>2008-07-27T13:53:46Z</time>
      </trkpt>
      <trkpt lat="46.225104331970215" lon="8.015234470367432">
        <ele>1812.703125</ele>
        <time>2008-07-27T13:53:47Z</time>
      </trkpt>
      <trkpt lat="46.225061416625977" lon="8.015341758728027">
        <ele>1812.222412109375</ele>
        <time>2008-07-27T13:53:56Z</time>
      </trkpt>
      <trkpt lat="46.224932670593262" lon="8.015491962432861">
        <ele>1808.85791015625</ele>
        <time>2008-07-27T13:54:04Z</time>
      </trkpt>
      <trkpt lat="46.224739551544189" lon="8.015727996826172">
        <ele>1809.819091796875</ele>
        <time>2008-07-27T13:54:14Z</time>
      </trkpt>
      <trkpt lat="46.224374771118164" lon="8.016071319580078">
        <ele>1811.26123046875</ele>
        <time>2008-07-27T13:54:26Z</time>
      </trkpt>
      <trkpt lat="46.224181652069092" lon="8.016371726989746">
        <ele>1814.14501953125</ele>
        <time>2008-07-27T13:54:35Z</time>
      </trkpt>
      <trkpt lat="46.224052906036377" lon="8.016736507415772">
        <ele>1811.741943359375</ele>
        <time>2008-07-27T13:54:47Z</time>
      </trkpt>
      <trkpt lat="46.2239670753479" lon="8.017122745513916">
        <ele>1807.896728515625</ele>
        <time>2008-07-27T13:54:55Z</time>
      </trkpt>
      <trkpt lat="46.2239670753479" lon="8.017230033874512">
        <ele>1807.416015625</ele>
        <time>2008-07-27T13:54:58Z</time>
      </trkpt>
      <trkpt lat="46.2239670753479" lon="8.01727294921875">
        <ele>1806.935302734375</ele>
        <time>2008-07-27T13:55:01Z</time>
      </trkpt>
      <trkpt lat="46.22398853302002" lon="8.017315864562988">
        <ele>1806.935302734375</ele>
        <time>2008-07-27T13:55:03Z</time>
      </trkpt>
      <trkpt lat="46.223945617675781" lon="8.017551898956299">
        <ele>1805.973876953125</ele>
        <time>2008-07-27T13:55:15Z</time>
      </trkpt>
      <trkpt lat="46.2239670753479" lon="8.017573356628418">
        <ele>1805.973876953125</ele>
        <time>2008-07-27T13:55:17Z</time>
      </trkpt>
      <trkpt lat="46.224052906036377" lon="8.017659187316895">
        <ele>1805.973876953125</ele>
        <time>2008-07-27T13:55:24Z</time>
      </trkpt>
      <trkpt lat="46.224074363708496" lon="8.017852306365967">
        <ele>1806.45458984375</ele>
        <time>2008-07-27T13:55:36Z</time>
      </trkpt>
      <trkpt lat="46.224095821380615" lon="8.018002510070801">
        <ele>1807.416015625</ele>
        <time>2008-07-27T13:55:46Z</time>
      </trkpt>
      <trkpt lat="46.224095821380615" lon="8.018131256103516">
        <ele>1808.377197265625</ele>
        <time>2008-07-27T13:55:57Z</time>
      </trkpt>
      <trkpt lat="46.224117279052734" lon="8.018195629119873">
        <ele>1807.416015625</ele>
        <time>2008-07-27T13:56:03Z</time>
      </trkpt>
      <trkpt lat="46.224117279052734" lon="8.018324375152588">
        <ele>1807.416015625</ele>
        <time>2008-07-27T13:56:10Z</time>
      </trkpt>
      <trkpt lat="46.224117279052734" lon="8.018410205841065">
        <ele>1806.45458984375</ele>
        <time>2008-07-27T13:56:18Z</time>
      </trkpt>
      <trkpt lat="46.224117279052734" lon="8.018474578857422">
        <ele>1805.493408203125</ele>
        <time>2008-07-27T13:56:26Z</time>
      </trkpt>
      <trkpt lat="46.224095821380615" lon="8.018496036529541">
        <ele>1806.45458984375</ele>
        <time>2008-07-27T13:56:32Z</time>
      </trkpt>
      <trkpt lat="46.224095821380615" lon="8.018603324890137">
        <ele>1807.896728515625</ele>
        <time>2008-07-27T13:56:39Z</time>
      </trkpt>
      <trkpt lat="46.224117279052734" lon="8.018817901611328">
        <ele>1809.338623046875</ele>
        <time>2008-07-27T13:56:50Z</time>
      </trkpt>
      <trkpt lat="46.224138736724854" lon="8.019204139709473">
        <ele>1808.377197265625</ele>
        <time>2008-07-27T13:56:59Z</time>
      </trkpt>
      <trkpt lat="46.224074363708496" lon="8.019483089447022">
        <ele>1809.338623046875</ele>
        <time>2008-07-27T13:57:06Z</time>
      </trkpt>
      <trkpt lat="46.224052906036377" lon="8.019504547119141">
        <ele>1809.338623046875</ele>
        <time>2008-07-27T13:57:15Z</time>
      </trkpt>
      <trkpt lat="46.224074363708496" lon="8.01952600479126">
        <ele>1808.85791015625</ele>
        <time>2008-07-27T13:57:21Z</time>
      </trkpt>
      <trkpt lat="46.224052906036377" lon="8.019740581512451">
        <ele>1808.85791015625</ele>
        <time>2008-07-27T13:57:42Z</time>
      </trkpt>
      <trkpt lat="46.224009990692139" lon="8.019804954528809">
        <ele>1807.896728515625</ele>
        <time>2008-07-27T13:57:51Z</time>
      </trkpt>
      <trkpt lat="46.22398853302002" lon="8.019847869873047">
        <ele>1807.896728515625</ele>
        <time>2008-07-27T13:57:58Z</time>
      </trkpt>
      <trkpt lat="46.223881244659424" lon="8.02001953125">
        <ele>1808.85791015625</ele>
        <time>2008-07-27T13:58:14Z</time>
      </trkpt>
      <trkpt lat="46.223902702331543" lon="8.020062446594238">
        <ele>1809.338623046875</ele>
        <time>2008-07-27T13:58:29Z</time>
      </trkpt>
      <trkpt lat="46.224138736724854" lon="8.020126819610596">
        <ele>1808.85791015625</ele>
        <time>2008-07-27T14:00:06Z</time>
      </trkpt>
      <trkpt lat="46.224203109741211" lon="8.020040988922119">
        <ele>1808.377197265625</ele>
        <time>2008-07-27T14:00:19Z</time>
      </trkpt>
      <trkpt lat="46.224203109741211" lon="8.020083904266357">
        <ele>1807.896728515625</ele>
        <time>2008-07-27T14:00:27Z</time>
      </trkpt>
      <trkpt lat="46.224181652069092" lon="8.020126819610596">
        <ele>1806.935302734375</ele>
        <time>2008-07-27T14:00:35Z</time>
      </trkpt>
      <trkpt lat="46.224117279052734" lon="8.020298480987549">
        <ele>1806.45458984375</ele>
        <time>2008-07-27T14:00:45Z</time>
      </trkpt>
      <trkpt lat="46.224095821380615" lon="8.020384311676025">
        <ele>1806.45458984375</ele>
        <time>2008-07-27T14:00:50Z</time>
      </trkpt>
      <trkpt lat="46.224031448364258" lon="8.021070957183838">
        <ele>1798.283203125</ele>
        <time>2008-07-27T14:01:00Z</time>
      </trkpt>
      <trkpt lat="46.223924160003662" lon="8.021628856658936">
        <ele>1792.99609375</ele>
        <time>2008-07-27T14:01:09Z</time>
      </trkpt>
      <trkpt lat="46.223902702331543" lon="8.02177906036377">
        <ele>1790.5927734375</ele>
        <time>2008-07-27T14:01:20Z</time>
      </trkpt>
      <trkpt lat="46.223816871643066" lon="8.022165298461914">
        <ele>1787.22802734375</ele>
        <time>2008-07-27T14:01:30Z</time>
      </trkpt>
      <trkpt lat="46.223773956298828" lon="8.022465705871582">
        <ele>1779.056884765625</ele>
        <time>2008-07-27T14:01:41Z</time>
      </trkpt>
      <trkpt lat="46.223795413970947" lon="8.022594451904297">
        <ele>1775.6923828125</ele>
        <time>2008-07-27T14:01:49Z</time>
      </trkpt>
      <trkpt lat="46.22373104095459" lon="8.022916316986084">
        <ele>1773.289306640625</ele>
        <time>2008-07-27T14:01:57Z</time>
      </trkpt>
      <trkpt lat="46.223688125610352" lon="8.023195266723633">
        <ele>1771.846923828125</ele>
        <time>2008-07-27T14:02:03Z</time>
      </trkpt>
      <trkpt lat="46.223495006561279" lon="8.023495674133301">
        <ele>1772.327880859375</ele>
        <time>2008-07-27T14:02:09Z</time>
      </trkpt>
      <trkpt lat="46.223258972167969" lon="8.02401065826416">
        <ele>1769.44384765625</ele>
        <time>2008-07-27T14:02:18Z</time>
      </trkpt>
      <trkpt lat="46.223065853118896" lon="8.024311065673828">
        <ele>1766.559814453125</ele>
        <time>2008-07-27T14:02:25Z</time>
      </trkpt>
      <trkpt lat="46.222872734069824" lon="8.024675846099854">
        <ele>1763.1953125</ele>
        <time>2008-07-27T14:02:33Z</time>
      </trkpt>
      <trkpt lat="46.222636699676514" lon="8.025469779968262">
        <ele>1762.714599609375</ele>
        <time>2008-07-27T14:02:46Z</time>
      </trkpt>
      <trkpt lat="46.222615242004395" lon="8.025813102722168">
        <ele>1760.7919921875</ele>
        <time>2008-07-27T14:02:50Z</time>
      </trkpt>
      <trkpt lat="46.222593784332275" lon="8.026564121246338">
        <ele>1758.869384765625</ele>
        <time>2008-07-27T14:02:59Z</time>
      </trkpt>
      <trkpt lat="46.22248649597168" lon="8.027057647705078">
        <ele>1753.58203125</ele>
        <time>2008-07-27T14:03:07Z</time>
      </trkpt>
      <trkpt lat="46.222465038299561" lon="8.027336597442627">
        <ele>1752.62060546875</ele>
        <time>2008-07-27T14:03:11Z</time>
      </trkpt>
      <trkpt lat="46.222507953643799" lon="8.027722835540772">
        <ele>1750.217529296875</ele>
        <time>2008-07-27T14:03:18Z</time>
      </trkpt>
      <trkpt lat="46.222465038299561" lon="8.028237819671631">
        <ele>1743.48828125</ele>
        <time>2008-07-27T14:03:31Z</time>
      </trkpt>
      <trkpt lat="46.222271919250488" lon="8.028645515441895">
        <ele>1737.72021484375</ele>
        <time>2008-07-27T14:03:41Z</time>
      </trkpt>
      <trkpt lat="46.222078800201416" lon="8.029053211212158">
        <ele>1733.875</ele>
        <time>2008-07-27T14:03:51Z</time>
      </trkpt>
      <trkpt lat="46.222035884857178" lon="8.029117584228516">
        <ele>1731.4716796875</ele>
        <time>2008-07-27T14:03:55Z</time>
      </trkpt>
      <trkpt lat="46.22197151184082" lon="8.029246330261231">
        <ele>1731.952392578125</ele>
        <time>2008-07-27T14:04:26Z</time>
      </trkpt>
      <trkpt lat="46.221821308135986" lon="8.02950382232666">
        <ele>1729.068359375</ele>
        <time>2008-07-27T14:04:34Z</time>
      </trkpt>
      <trkpt lat="46.221649646759033" lon="8.030061721801758">
        <ele>1726.665283203125</ele>
        <time>2008-07-27T14:04:45Z</time>
      </trkpt>
      <trkpt lat="46.221542358398438" lon="8.030490875244141">
        <ele>1719.935791015625</ele>
        <time>2008-07-27T14:04:55Z</time>
      </trkpt>
      <trkpt lat="46.221349239349365" lon="8.030834197998047">
        <ele>1717.532470703125</ele>
        <time>2008-07-27T14:05:03Z</time>
      </trkpt>
      <trkpt lat="46.22124195098877" lon="8.030984401702881">
        <ele>1716.5712890625</ele>
        <time>2008-07-27T14:05:06Z</time>
      </trkpt>
      <trkpt lat="46.221134662628174" lon="8.031284809112549">
        <ele>1714.648681640625</ele>
        <time>2008-07-27T14:05:13Z</time>
      </trkpt>
      <trkpt lat="46.221027374267578" lon="8.031542301177979">
        <ele>1713.206787109375</ele>
        <time>2008-07-27T14:05:20Z</time>
      </trkpt>
      <trkpt lat="46.220963001251221" lon="8.031778335571289">
        <ele>1711.764892578125</ele>
        <time>2008-07-27T14:05:26Z</time>
      </trkpt>
      <trkpt lat="46.220898628234863" lon="8.032057285308838">
        <ele>1708.880859375</ele>
        <time>2008-07-27T14:05:34Z</time>
      </trkpt>
      <trkpt lat="46.220769882202148" lon="8.032400608062744">
        <ele>1705.51611328125</ele>
        <time>2008-07-27T14:05:41Z</time>
      </trkpt>
      <trkpt lat="46.220641136169434" lon="8.032701015472412">
        <ele>1704.5546875</ele>
        <time>2008-07-27T14:05:48Z</time>
      </trkpt>
      <trkpt lat="46.2204909324646" lon="8.032872676849365">
        <ele>1703.593505859375</ele>
        <time>2008-07-27T14:05:52Z</time>
      </trkpt>
      <trkpt lat="46.220083236694336" lon="8.033151626586914">
        <ele>1702.1513671875</ele>
        <time>2008-07-27T14:06:01Z</time>
      </trkpt>
      <trkpt lat="46.219890117645264" lon="8.033366203308106">
        <ele>1697.344970703125</ele>
        <time>2008-07-27T14:06:08Z</time>
      </trkpt>
      <trkpt lat="46.219804286956787" lon="8.033430576324463">
        <ele>1695.42236328125</ele>
        <time>2008-07-27T14:06:11Z</time>
      </trkpt>
      <trkpt lat="46.219418048858643" lon="8.033666610717773">
        <ele>1693.499755859375</ele>
        <time>2008-07-27T14:06:20Z</time>
      </trkpt>
      <trkpt lat="46.21922492980957" lon="8.033795356750488">
        <ele>1690.135009765625</ele>
        <time>2008-07-27T14:06:27Z</time>
      </trkpt>
      <trkpt lat="46.219053268432617" lon="8.034031391143799">
        <ele>1690.135009765625</ele>
        <time>2008-07-27T14:06:33Z</time>
      </trkpt>
      <trkpt lat="46.218924522399902" lon="8.034181594848633">
        <ele>1688.693115234375</ele>
        <time>2008-07-27T14:06:39Z</time>
      </trkpt>
      <trkpt lat="46.218645572662354" lon="8.034439086914063">
        <ele>1687.731689453125</ele>
        <time>2008-07-27T14:06:46Z</time>
      </trkpt>
      <trkpt lat="46.218581199645996" lon="8.034524917602539">
        <ele>1686.289794921875</ele>
        <time>2008-07-27T14:06:48Z</time>
      </trkpt>
      <trkpt lat="46.2184739112854" lon="8.034632205963135">
        <ele>1682.925048828125</ele>
        <time>2008-07-27T14:06:51Z</time>
      </trkpt>
      <trkpt lat="46.218087673187256" lon="8.035125732421875">
        <ele>1682.925048828125</ele>
        <time>2008-07-27T14:07:01Z</time>
      </trkpt>
      <trkpt lat="46.217830181121826" lon="8.035383224487305">
        <ele>1678.11865234375</ele>
        <time>2008-07-27T14:07:08Z</time>
      </trkpt>
      <trkpt lat="46.217465400695801" lon="8.035876750946045">
        <ele>1673.79248046875</ele>
        <time>2008-07-27T14:07:19Z</time>
      </trkpt>
      <trkpt lat="46.217443943023682" lon="8.035919666290283">
        <ele>1673.79248046875</ele>
        <time>2008-07-27T14:07:20Z</time>
      </trkpt>
      <trkpt lat="46.217358112335205" lon="8.03600549697876">
        <ele>1671.869873046875</ele>
        <time>2008-07-27T14:07:25Z</time>
      </trkpt>
      <trkpt lat="46.217336654663086" lon="8.036048412322998">
        <ele>1669.947265625</ele>
        <time>2008-07-27T14:07:32Z</time>
      </trkpt>
      <trkpt lat="46.217293739318848" lon="8.036091327667236">
        <ele>1667.5439453125</ele>
        <time>2008-07-27T14:07:39Z</time>
      </trkpt>
      <trkpt lat="46.217293739318848" lon="8.036220073699951">
        <ele>1657.930908203125</ele>
        <time>2008-07-27T14:09:00Z</time>
      </trkpt>
      <trkpt lat="46.217250823974609" lon="8.03624153137207">
        <ele>1657.930908203125</ele>
        <time>2008-07-27T14:09:04Z</time>
      </trkpt>
      <trkpt lat="46.217164993286133" lon="8.036327362060547">
        <ele>1656.969482421875</ele>
        <time>2008-07-27T14:09:10Z</time>
      </trkpt>
      <trkpt lat="46.216971874237061" lon="8.036456108093262">
        <ele>1656.008056640625</ele>
        <time>2008-07-27T14:09:18Z</time>
      </trkpt>
      <trkpt lat="46.216800212860107" lon="8.036584854125977">
        <ele>1654.566162109375</ele>
        <time>2008-07-27T14:09:24Z</time>
      </trkpt>
      <trkpt lat="46.216628551483154" lon="8.036777973175049">
        <ele>1653.60498046875</ele>
        <time>2008-07-27T14:09:32Z</time>
      </trkpt>
      <trkpt lat="46.216456890106201" lon="8.036949634552002">
        <ele>1654.085693359375</ele>
        <time>2008-07-27T14:09:39Z</time>
      </trkpt>
      <trkpt lat="46.216220855712891" lon="8.037099838256836">
        <ele>1652.162841796875</ele>
        <time>2008-07-27T14:09:47Z</time>
      </trkpt>
      <trkpt lat="46.216113567352295" lon="8.037185668945313">
        <ele>1649.759765625</ele>
        <time>2008-07-27T14:09:52Z</time>
      </trkpt>
      <trkpt lat="46.215963363647461" lon="8.037378787994385">
        <ele>1647.3564453125</ele>
        <time>2008-07-27T14:09:58Z</time>
      </trkpt>
      <trkpt lat="46.215834617614746" lon="8.037528991699219">
        <ele>1644.953125</ele>
        <time>2008-07-27T14:10:03Z</time>
      </trkpt>
      <trkpt lat="46.215813159942627" lon="8.037614822387695">
        <ele>1643.99169921875</ele>
        <time>2008-07-27T14:10:06Z</time>
      </trkpt>
      <trkpt lat="46.215641498565674" lon="8.037850856781006">
        <ele>1639.665771484375</ele>
        <time>2008-07-27T14:10:12Z</time>
      </trkpt>
      <trkpt lat="46.215469837188721" lon="8.037829399108887">
        <ele>1637.7431640625</ele>
        <time>2008-07-27T14:10:16Z</time>
      </trkpt>
      <trkpt lat="46.215362548828125" lon="8.037915229797363">
        <ele>1636.78173828125</ele>
        <time>2008-07-27T14:10:19Z</time>
      </trkpt>
      <trkpt lat="46.215319633483887" lon="8.037936687469482">
        <ele>1636.78173828125</ele>
        <time>2008-07-27T14:10:20Z</time>
      </trkpt>
      <trkpt lat="46.215083599090576" lon="8.03823709487915">
        <ele>1634.859375</ele>
        <time>2008-07-27T14:10:28Z</time>
      </trkpt>
      <trkpt lat="46.214911937713623" lon="8.038344383239746">
        <ele>1633.417236328125</ele>
        <time>2008-07-27T14:10:33Z</time>
      </trkpt>
      <trkpt lat="46.214568614959717" lon="8.038601875305176">
        <ele>1631.975341796875</ele>
        <time>2008-07-27T14:10:41Z</time>
      </trkpt>
      <trkpt lat="46.214332580566406" lon="8.038730621337891">
        <ele>1631.01416015625</ele>
        <time>2008-07-27T14:10:46Z</time>
      </trkpt>
      <trkpt lat="46.214075088500977" lon="8.038923740386963">
        <ele>1629.09130859375</ele>
        <time>2008-07-27T14:10:52Z</time>
      </trkpt>
      <trkpt lat="46.213946342468262" lon="8.039031028747559">
        <ele>1628.61083984375</ele>
        <time>2008-07-27T14:10:55Z</time>
      </trkpt>
      <trkpt lat="46.213667392730713" lon="8.039116859436035">
        <ele>1626.68798828125</ele>
        <time>2008-07-27T14:11:03Z</time>
      </trkpt>
      <trkpt lat="46.213388442993164" lon="8.039267063140869">
        <ele>1624.765380859375</ele>
        <time>2008-07-27T14:11:11Z</time>
      </trkpt>
      <trkpt lat="46.213281154632568" lon="8.039288520812988">
        <ele>1623.803955078125</ele>
        <time>2008-07-27T14:11:14Z</time>
      </trkpt>
      <trkpt lat="46.213023662567139" lon="8.039417266845703">
        <ele>1622.8427734375</ele>
        <time>2008-07-27T14:11:21Z</time>
      </trkpt>
      <trkpt lat="46.21274471282959" lon="8.039674758911133">
        <ele>1619.958740234375</ele>
        <time>2008-07-27T14:11:29Z</time>
      </trkpt>
      <trkpt lat="46.212637424468994" lon="8.039803504943848">
        <ele>1620.920166015625</ele>
        <time>2008-07-27T14:11:33Z</time>
      </trkpt>
      <trkpt lat="46.212551593780518" lon="8.039760589599609">
        <ele>1620.920166015625</ele>
        <time>2008-07-27T14:11:38Z</time>
      </trkpt>
      <trkpt lat="46.212401390075684" lon="8.039588928222656">
        <ele>1621.400634765625</ele>
        <time>2008-07-27T14:11:48Z</time>
      </trkpt>
      <trkpt lat="46.212401390075684" lon="8.039567470550537">
        <ele>1622.362060546875</ele>
        <time>2008-07-27T14:11:58Z</time>
      </trkpt>
      <trkpt lat="46.212379932403564" lon="8.039546012878418">
        <ele>1624.28466796875</ele>
        <time>2008-07-27T14:18:47Z</time>
      </trkpt>
      <trkpt lat="46.212337017059326" lon="8.039567470550537">
        <ele>1624.765380859375</ele>
        <time>2008-07-27T14:19:01Z</time>
      </trkpt>
      <trkpt lat="46.212208271026611" lon="8.039546012878418">
        <ele>1623.323486328125</ele>
        <time>2008-07-27T14:19:08Z</time>
      </trkpt>
      <trkpt lat="46.211907863616943" lon="8.039674758911133">
        <ele>1621.400634765625</ele>
        <time>2008-07-27T14:19:17Z</time>
      </trkpt>
      <trkpt lat="46.211392879486084" lon="8.039953708648682">
        <ele>1618.0361328125</ele>
        <time>2008-07-27T14:19:30Z</time>
      </trkpt>
      <trkpt lat="46.211135387420654" lon="8.040146827697754">
        <ele>1617.074951171875</ele>
        <time>2008-07-27T14:19:36Z</time>
      </trkpt>
      <trkpt lat="46.210684776306152" lon="8.040232658386231">
        <ele>1614.671630859375</ele>
        <time>2008-07-27T14:19:44Z</time>
      </trkpt>
      <trkpt lat="46.209976673126221" lon="8.040361404418945">
        <ele>1610.826171875</ele>
        <time>2008-07-27T14:19:56Z</time>
      </trkpt>
      <trkpt lat="46.209139823913574" lon="8.040511608123779">
        <ele>1606.98095703125</ele>
        <time>2008-07-27T14:20:10Z</time>
      </trkpt>
      <trkpt lat="46.20823860168457" lon="8.040661811828613">
        <ele>1603.1357421875</ele>
        <time>2008-07-27T14:20:25Z</time>
      </trkpt>
      <trkpt lat="46.207530498504639" lon="8.040854930877686">
        <ele>1600.732421875</ele>
        <time>2008-07-27T14:20:36Z</time>
      </trkpt>
      <trkpt lat="46.20725154876709" lon="8.041026592254639">
        <ele>1600.251953125</ele>
        <time>2008-07-27T14:20:41Z</time>
      </trkpt>
      <trkpt lat="46.206843852996826" lon="8.041369915008545">
        <ele>1599.29052734375</ele>
        <time>2008-07-27T14:20:49Z</time>
      </trkpt>
      <trkpt lat="46.206221580505371" lon="8.042120933532715">
        <ele>1596.88720703125</ele>
        <time>2008-07-27T14:21:03Z</time>
      </trkpt>
      <trkpt lat="46.205685138702393" lon="8.042593002319336">
        <ele>1596.40673828125</ele>
        <time>2008-07-27T14:21:14Z</time>
      </trkpt>
      <trkpt lat="46.205277442932129" lon="8.042936325073242">
        <ele>1595.445068359375</ele>
        <time>2008-07-27T14:21:24Z</time>
      </trkpt>
      <trkpt lat="46.204934120178223" lon="8.043150901794434">
        <ele>1593.041748046875</ele>
        <time>2008-07-27T14:21:31Z</time>
      </trkpt>
      <trkpt lat="46.204590797424316" lon="8.043258190155029">
        <ele>1594.483642578125</ele>
        <time>2008-07-27T14:21:38Z</time>
      </trkpt>
      <trkpt lat="46.204547882080078" lon="8.043258190155029">
        <ele>1595.445068359375</ele>
        <time>2008-07-27T14:21:42Z</time>
      </trkpt>
      <trkpt lat="46.204462051391602" lon="8.04323673248291">
        <ele>1596.88720703125</ele>
        <time>2008-07-27T14:21:52Z</time>
      </trkpt>
      <trkpt lat="46.204376220703125" lon="8.043086528778076">
        <ele>1597.367919921875</ele>
        <time>2008-07-27T14:21:59Z</time>
      </trkpt>
      <trkpt lat="46.204183101654053" lon="8.042850494384766">
        <ele>1597.367919921875</ele>
        <time>2008-07-27T14:22:07Z</time>
      </trkpt>
      <trkpt lat="46.204075813293457" lon="8.042850494384766">
        <ele>1595.92578125</ele>
        <time>2008-07-27T14:22:13Z</time>
      </trkpt>
      <trkpt lat="46.204075813293457" lon="8.042871952056885">
        <ele>1597.367919921875</ele>
        <time>2008-07-27T14:22:26Z</time>
      </trkpt>
      <trkpt lat="46.2040114402771" lon="8.042936325073242">
        <ele>1596.40673828125</ele>
        <time>2008-07-27T14:22:29Z</time>
      </trkpt>
      <trkpt lat="46.203689575195313" lon="8.0430006980896">
        <ele>1595.445068359375</ele>
        <time>2008-07-27T14:22:35Z</time>
      </trkpt>
      <trkpt lat="46.203217506408691" lon="8.043129444122315">
        <ele>1592.561279296875</ele>
        <time>2008-07-27T14:22:43Z</time>
      </trkpt>
      <trkpt lat="46.202445030212402" lon="8.043515682220459">
        <ele>1592.08056640625</ele>
        <time>2008-07-27T14:22:57Z</time>
      </trkpt>
      <trkpt lat="46.203024387359619" lon="8.045017719268799">
        <ele>1591.599853515625</ele>
        <time>2008-07-27T14:23:05Z</time>
      </trkpt>
      <trkpt lat="46.202659606933594" lon="8.045876026153565">
        <ele>1591.599853515625</ele>
        <time>2008-07-27T14:23:14Z</time>
      </trkpt>
      <trkpt lat="46.20201587677002" lon="8.046669960021973">
        <ele>1590.638427734375</ele>
        <time>2008-07-27T14:23:16Z</time>
      </trkpt>
      <trkpt lat="46.2019944190979" lon="8.047077655792236">
        <ele>1587.754638671875</ele>
        <time>2008-07-27T14:23:21Z</time>
      </trkpt>
      <trkpt lat="46.201951503753662" lon="8.047764301300049">
        <ele>1587.754638671875</ele>
        <time>2008-07-27T14:23:30Z</time>
      </trkpt>
      <trkpt lat="46.201586723327637" lon="8.048558235168457">
        <ele>1584.39013671875</ele>
        <time>2008-07-27T14:23:37Z</time>
      </trkpt>
      <trkpt lat="46.201393604278564" lon="8.048965930938721">
        <ele>1584.39013671875</ele>
        <time>2008-07-27T14:23:41Z</time>
      </trkpt>
      <trkpt lat="46.200771331787109" lon="8.050103187561035">
        <ele>1583.909423828125</ele>
        <time>2008-07-27T14:23:51Z</time>
      </trkpt>
      <trkpt lat="46.200599670410156" lon="8.050467967987061">
        <ele>1583.909423828125</ele>
        <time>2008-07-27T14:23:54Z</time>
      </trkpt>
      <trkpt lat="46.199612617492676" lon="8.05173397064209">
        <ele>1527.672119140625</ele>
        <time>2008-07-27T14:23:58Z</time>
      </trkpt>
      <trkpt lat="46.199483871459961" lon="8.052012920379639">
        <ele>1524.788330078125</ele>
        <time>2008-07-27T14:24:00Z</time>
      </trkpt>
      <trkpt lat="46.199398040771484" lon="8.052613735198975">
        <ele>1522.86572265625</ele>
        <time>2008-07-27T14:24:04Z</time>
      </trkpt>
      <trkpt lat="46.199419498443604" lon="8.053128719329834">
        <ele>1521.423583984375</ele>
        <time>2008-07-27T14:24:07Z</time>
      </trkpt>
      <trkpt lat="46.199076175689697" lon="8.054137229919434">
        <ele>1517.097900390625</ele>
        <time>2008-07-27T14:24:13Z</time>
      </trkpt>
      <trkpt lat="46.198968887329102" lon="8.054416179656982">
        <ele>1516.136474609375</ele>
        <time>2008-07-27T14:24:15Z</time>
      </trkpt>
      <trkpt lat="46.198647022247314" lon="8.054630756378174">
        <ele>1511.329833984375</ele>
        <time>2008-07-27T14:24:19Z</time>
      </trkpt>
      <trkpt lat="46.198368072509766" lon="8.054437637329102">
        <ele>1508.44580078125</ele>
        <time>2008-07-27T14:24:22Z</time>
      </trkpt>
      <trkpt lat="46.198239326477051" lon="8.05422306060791">
        <ele>1507.484619140625</ele>
        <time>2008-07-27T14:24:24Z</time>
      </trkpt>
      <trkpt lat="46.198110580444336" lon="8.054008483886719">
        <ele>1507.00390625</ele>
        <time>2008-07-27T14:24:26Z</time>
      </trkpt>
      <trkpt lat="46.197745800018311" lon="8.053793907165527">
        <ele>1505.081298828125</ele>
        <time>2008-07-27T14:24:30Z</time>
      </trkpt>
      <trkpt lat="46.197466850280762" lon="8.053836822509766">
        <ele>1502.197265625</ele>
        <time>2008-07-27T14:24:34Z</time>
      </trkpt>
      <trkpt lat="46.197381019592285" lon="8.053901195526123">
        <ele>1501.236083984375</ele>
        <time>2008-07-27T14:24:36Z</time>
      </trkpt>
      <trkpt lat="46.197059154510498" lon="8.054158687591553">
        <ele>1496.909912109375</ele>
        <time>2008-07-27T14:24:43Z</time>
      </trkpt>
      <trkpt lat="46.196737289428711" lon="8.054416179656982">
        <ele>1494.506591796875</ele>
        <time>2008-07-27T14:24:51Z</time>
      </trkpt>
      <trkpt lat="46.196694374084473" lon="8.054459095001221">
        <ele>1493.064697265625</ele>
        <time>2008-07-27T14:24:56Z</time>
      </trkpt>
      <trkpt lat="46.196672916412354" lon="8.05448055267334">
        <ele>1491.622802734375</ele>
        <time>2008-07-27T14:25:06Z</time>
      </trkpt>
      <trkpt lat="46.196630001068115" lon="8.054544925689697">
        <ele>1490.180908203125</ele>
        <time>2008-07-27T14:25:13Z</time>
      </trkpt>
      <trkpt lat="46.196587085723877" lon="8.054630756378174">
        <ele>1489.219482421875</ele>
        <time>2008-07-27T14:25:22Z</time>
      </trkpt>
      <trkpt lat="46.196587085723877" lon="8.054630756378174">
        <ele>1489.219482421875</ele>
        <time>2008-07-27T14:25:36Z</time>
      </trkpt>
      <trkpt lat="46.196608543395996" lon="8.054630756378174">
        <ele>1488.739013671875</ele>
        <time>2008-07-27T14:26:25Z</time>
      </trkpt>
      <trkpt lat="46.196544170379639" lon="8.054566383361816">
        <ele>1483.451416015625</ele>
        <time>2008-07-27T14:28:36Z</time>
      </trkpt>
      <trkpt lat="46.196479797363281" lon="8.054587841033936">
        <ele>1483.451416015625</ele>
        <time>2008-07-27T14:28:40Z</time>
      </trkpt>
      <trkpt lat="46.196243762969971" lon="8.05473804473877">
        <ele>1483.451416015625</ele>
        <time>2008-07-27T14:28:48Z</time>
      </trkpt>
      <trkpt lat="46.195836067199707" lon="8.055016994476318">
        <ele>1483.451416015625</ele>
        <time>2008-07-27T14:28:57Z</time>
      </trkpt>
      <trkpt lat="46.195385456085205" lon="8.055617809295654">
        <ele>1483.451416015625</ele>
        <time>2008-07-27T14:29:07Z</time>
      </trkpt>
      <trkpt lat="46.195278167724609" lon="8.055789470672607">
        <ele>1483.451416015625</ele>
        <time>2008-07-27T14:29:10Z</time>
      </trkpt>
      <trkpt lat="46.194956302642822" lon="8.056347370147705">
        <ele>1482.970703125</ele>
        <time>2008-07-27T14:29:19Z</time>
      </trkpt>
      <trkpt lat="46.194591522216797" lon="8.057162761688232">
        <ele>1482.970703125</ele>
        <time>2008-07-27T14:29:31Z</time>
      </trkpt>
      <trkpt lat="46.19450569152832" lon="8.058063983917236">
        <ele>1482.009521484375</ele>
        <time>2008-07-27T14:29:40Z</time>
      </trkpt>
      <trkpt lat="46.194462776184082" lon="8.058321475982666">
        <ele>1482.009521484375</ele>
        <time>2008-07-27T14:29:43Z</time>
      </trkpt>
      <trkpt lat="46.194355487823486" lon="8.058600425720215">
        <ele>1482.009521484375</ele>
        <time>2008-07-27T14:29:47Z</time>
      </trkpt>
      <trkpt lat="46.19426965713501" lon="8.058664798736572">
        <ele>1482.009521484375</ele>
        <time>2008-07-27T14:29:49Z</time>
      </trkpt>
      <trkpt lat="46.194162368774414" lon="8.0584716796875">
        <ele>1482.009521484375</ele>
        <time>2008-07-27T14:29:52Z</time>
      </trkpt>
      <trkpt lat="46.193861961364746" lon="8.058106899261475">
        <ele>1482.009521484375</ele>
        <time>2008-07-27T14:29:57Z</time>
      </trkpt>
      <trkpt lat="46.193711757659912" lon="8.058192729949951">
        <ele>1482.009521484375</ele>
        <time>2008-07-27T14:29:59Z</time>
      </trkpt>
      <trkpt lat="46.193583011627197" lon="8.058278560638428">
        <ele>1482.009521484375</ele>
        <time>2008-07-27T14:30:01Z</time>
      </trkpt>
      <trkpt lat="46.193389892578125" lon="8.058664798736572">
        <ele>1481.52880859375</ele>
        <time>2008-07-27T14:30:05Z</time>
      </trkpt>
      <trkpt lat="46.19326114654541" lon="8.059308528900147">
        <ele>1481.52880859375</ele>
        <time>2008-07-27T14:30:10Z</time>
      </trkpt>
      <trkpt lat="46.193110942840576" lon="8.059866428375244">
        <ele>1481.52880859375</ele>
        <time>2008-07-27T14:30:14Z</time>
      </trkpt>
      <trkpt lat="46.193089485168457" lon="8.059995174407959">
        <ele>1481.52880859375</ele>
        <time>2008-07-27T14:30:15Z</time>
      </trkpt>
      <trkpt lat="46.192488670349121" lon="8.060638904571533">
        <ele>1481.52880859375</ele>
        <time>2008-07-27T14:30:20Z</time>
      </trkpt>
      <trkpt lat="46.191694736480713" lon="8.061304092407227">
        <ele>1481.52880859375</ele>
        <time>2008-07-27T14:30:26Z</time>
      </trkpt>
      <trkpt lat="46.191201210021973" lon="8.062033653259277">
        <ele>1481.52880859375</ele>
        <time>2008-07-27T14:30:31Z</time>
      </trkpt>
      <trkpt lat="46.191222667694092" lon="8.063449859619141">
        <ele>1429.136962890625</ele>
        <time>2008-07-27T14:30:40Z</time>
      </trkpt>
      <trkpt lat="46.190814971923828" lon="8.064200878143311">
        <ele>1420.004638671875</ele>
        <time>2008-07-27T14:30:46Z</time>
      </trkpt>
      <trkpt lat="46.190664768218994" lon="8.064393997192383">
        <ele>1418.081787109375</ele>
        <time>2008-07-27T14:30:48Z</time>
      </trkpt>
      <trkpt lat="46.19025707244873" lon="8.064737319946289">
        <ele>1413.275390625</ele>
        <time>2008-07-27T14:30:54Z</time>
      </trkpt>
      <trkpt lat="46.190171241760254" lon="8.064801692962647">
        <ele>1412.794677734375</ele>
        <time>2008-07-27T14:30:58Z</time>
      </trkpt>
      <trkpt lat="46.190171241760254" lon="8.064823150634766">
        <ele>1412.31396484375</ele>
        <time>2008-07-27T14:31:05Z</time>
      </trkpt>
      <trkpt lat="46.190128326416016" lon="8.064823150634766">
        <ele>1415.6787109375</ele>
        <time>2008-07-27T14:31:39Z</time>
      </trkpt>
      <trkpt lat="46.190063953399658" lon="8.064887523651123">
        <ele>1412.31396484375</ele>
        <time>2008-07-27T14:31:50Z</time>
      </trkpt>
      <trkpt lat="46.19002103805542" lon="8.0649733543396">
        <ele>1409.43017578125</ele>
        <time>2008-07-27T14:32:00Z</time>
      </trkpt>
      <trkpt lat="46.189956665039063" lon="8.065123558044434">
        <ele>1406.0654296875</ele>
        <time>2008-07-27T14:32:12Z</time>
      </trkpt>
      <trkpt lat="46.189892292022705" lon="8.065316677093506">
        <ele>1405.104248046875</ele>
        <time>2008-07-27T14:32:29Z</time>
      </trkpt>
      <trkpt lat="46.189806461334229" lon="8.065359592437744">
        <ele>1405.104248046875</ele>
        <time>2008-07-27T14:32:37Z</time>
      </trkpt>
      <trkpt lat="46.189613342285156" lon="8.065402507781982">
        <ele>1405.104248046875</ele>
        <time>2008-07-27T14:32:54Z</time>
      </trkpt>
      <trkpt lat="46.189398765563965" lon="8.065488338470459">
        <ele>1405.104248046875</ele>
        <time>2008-07-27T14:33:11Z</time>
      </trkpt>
      <trkpt lat="46.188991069793701" lon="8.065681457519531">
        <ele>1405.104248046875</ele>
        <time>2008-07-27T14:33:29Z</time>
      </trkpt>
      <trkpt lat="46.18851900100708" lon="8.065917491912842">
        <ele>1403.181396484375</ele>
        <time>2008-07-27T14:33:34Z</time>
      </trkpt>
      <trkpt lat="46.188476085662842" lon="8.065896034240723">
        <ele>1402.70068359375</ele>
        <time>2008-07-27T14:33:39Z</time>
      </trkpt>
      <trkpt lat="46.188368797302246" lon="8.065917491912842">
        <ele>1401.739501953125</ele>
        <time>2008-07-27T14:33:51Z</time>
      </trkpt>
      <trkpt lat="46.188218593597412" lon="8.065981864929199">
        <ele>1401.2587890625</ele>
        <time>2008-07-27T14:34:04Z</time>
      </trkpt>
      <trkpt lat="46.188089847564697" lon="8.066046237945557">
        <ele>1400.297607421875</ele>
        <time>2008-07-27T14:34:15Z</time>
      </trkpt>
      <trkpt lat="46.187896728515625" lon="8.066196441650391">
        <ele>1398.85546875</ele>
        <time>2008-07-27T14:34:23Z</time>
      </trkpt>
      <trkpt lat="46.187789440155029" lon="8.066303730010986">
        <ele>1397.41357421875</ele>
        <time>2008-07-27T14:34:26Z</time>
      </trkpt>
      <trkpt lat="46.187424659729004" lon="8.066561222076416">
        <ele>1394.049072265625</ele>
        <time>2008-07-27T14:34:34Z</time>
      </trkpt>
      <trkpt lat="46.187188625335693" lon="8.066754341125488">
        <ele>1393.087646484375</ele>
        <time>2008-07-27T14:34:42Z</time>
      </trkpt>
      <trkpt lat="46.187081336975098" lon="8.066883087158203">
        <ele>1393.087646484375</ele>
        <time>2008-07-27T14:34:48Z</time>
      </trkpt>
      <trkpt lat="46.186909675598145" lon="8.067054748535156">
        <ele>1392.607177734375</ele>
        <time>2008-07-27T14:34:56Z</time>
      </trkpt>
      <trkpt lat="46.186716556549072" lon="8.06720495223999">
        <ele>1391.645751953125</ele>
        <time>2008-07-27T14:35:04Z</time>
      </trkpt>
      <trkpt lat="46.186373233795166" lon="8.06746244430542">
        <ele>1391.645751953125</ele>
        <time>2008-07-27T14:35:16Z</time>
      </trkpt>
      <trkpt lat="46.186287403106689" lon="8.067526817321777">
        <ele>1363.286865234375</ele>
        <time>2008-07-27T14:36:18Z</time>
      </trkpt>
      <trkpt lat="46.186330318450928" lon="8.067569732666016">
        <ele>1367.132080078125</ele>
        <time>2008-07-27T14:36:27Z</time>
      </trkpt>
      <trkpt lat="46.186330318450928" lon="8.067612648010254">
        <ele>1364.728759765625</ele>
        <time>2008-07-27T14:36:33Z</time>
      </trkpt>
      <trkpt lat="46.186351776123047" lon="8.067634105682373">
        <ele>1364.728759765625</ele>
        <time>2008-07-27T14:36:42Z</time>
      </trkpt>
      <trkpt lat="46.186351776123047" lon="8.067634105682373">
        <ele>1363.767333984375</ele>
        <time>2008-07-27T14:36:44Z</time>
      </trkpt>
      <trkpt lat="46.186351776123047" lon="8.067741394042969">
        <ele>1361.844970703125</ele>
        <time>2008-07-27T14:36:48Z</time>
      </trkpt>
      <trkpt lat="46.186394691467285" lon="8.06795597076416">
        <ele>1356.5576171875</ele>
        <time>2008-07-27T14:36:57Z</time>
      </trkpt>
      <trkpt lat="46.186459064483643" lon="8.06821346282959">
        <ele>1356.5576171875</ele>
        <time>2008-07-27T14:37:04Z</time>
      </trkpt>
      <trkpt lat="46.186480522155762" lon="8.068234920501709">
        <ele>1356.5576171875</ele>
        <time>2008-07-27T14:37:09Z</time>
      </trkpt>
      <trkpt lat="46.186459064483643" lon="8.068277835845947">
        <ele>1355.59619140625</ele>
        <time>2008-07-27T14:37:19Z</time>
      </trkpt>
      <trkpt lat="46.186437606811523" lon="8.068320751190186">
        <ele>1355.59619140625</ele>
        <time>2008-07-27T14:37:47Z</time>
      </trkpt>
      <trkpt lat="46.186437606811523" lon="8.068385124206543">
        <ele>1355.59619140625</ele>
        <time>2008-07-27T14:37:59Z</time>
      </trkpt>
      <trkpt lat="46.186459064483643" lon="8.068406581878662">
        <ele>1356.5576171875</ele>
        <time>2008-07-27T14:38:10Z</time>
      </trkpt>
      <trkpt lat="46.186459064483643" lon="8.068428039550781">
        <ele>1356.5576171875</ele>
        <time>2008-07-27T14:38:20Z</time>
      </trkpt>
      <trkpt lat="46.186480522155762" lon="8.068428039550781">
        <ele>1356.5576171875</ele>
        <time>2008-07-27T14:38:32Z</time>
      </trkpt>
      <trkpt lat="46.186480522155762" lon="8.06847095489502">
        <ele>1356.5576171875</ele>
        <time>2008-07-27T14:38:48Z</time>
      </trkpt>
      <trkpt lat="46.186201572418213" lon="8.068664073944092">
        <ele>1356.076904296875</ele>
        <time>2008-07-27T14:38:55Z</time>
      </trkpt>
      <trkpt lat="46.186072826385498" lon="8.068771362304688">
        <ele>1356.076904296875</ele>
        <time>2008-07-27T14:38:57Z</time>
      </trkpt>
      <trkpt lat="46.185300350189209" lon="8.069736957550049">
        <ele>1355.59619140625</ele>
        <time>2008-07-27T14:39:11Z</time>
      </trkpt>
      <trkpt lat="46.185235977172852" lon="8.069822788238525">
        <ele>1355.59619140625</ele>
        <time>2008-07-27T14:39:12Z</time>
      </trkpt>
      <trkpt lat="46.184914112091064" lon="8.070101737976074">
        <ele>1354.634765625</ele>
        <time>2008-07-27T14:39:16Z</time>
      </trkpt>
      <trkpt lat="46.184678077697754" lon="8.070251941680908">
        <ele>1354.154296875</ele>
        <time>2008-07-27T14:39:19Z</time>
      </trkpt>
      <trkpt lat="46.184420585632324" lon="8.070423603057861">
        <ele>1353.673583984375</ele>
        <time>2008-07-27T14:39:22Z</time>
      </trkpt>
      <trkpt lat="46.184141635894775" lon="8.070509433746338">
        <ele>1352.2314453125</ele>
        <time>2008-07-27T14:39:25Z</time>
      </trkpt>
      <trkpt lat="46.183712482452393" lon="8.070380687713623">
        <ele>1351.270263671875</ele>
        <time>2008-07-27T14:39:32Z</time>
      </trkpt>
      <trkpt lat="46.183540821075439" lon="8.070359230041504">
        <ele>1349.828369140625</ele>
        <time>2008-07-27T14:39:41Z</time>
      </trkpt>
      <trkpt lat="46.183197498321533" lon="8.070359230041504">
        <ele>1348.38623046875</ele>
        <time>2008-07-27T14:40:06Z</time>
      </trkpt>
      <trkpt lat="46.182918548583984" lon="8.070273399353027">
        <ele>1348.38623046875</ele>
        <time>2008-07-27T14:40:31Z</time>
      </trkpt>
      <trkpt lat="46.182725429534912" lon="8.070337772369385">
        <ele>1347.90576171875</ele>
        <time>2008-07-27T14:40:47Z</time>
      </trkpt>
      <trkpt lat="46.182510852813721" lon="8.070402145385742">
        <ele>1346.4638671875</ele>
        <time>2008-07-27T14:41:04Z</time>
      </trkpt>
      <trkpt lat="46.182360649108887" lon="8.070423603057861">
        <ele>1326.7568359375</ele>
        <time>2008-07-27T14:45:05Z</time>
      </trkpt>
      <trkpt lat="46.182339191436768" lon="8.070402145385742">
        <ele>1327.237548828125</ele>
        <time>2008-07-27T14:45:09Z</time>
      </trkpt>
      <trkpt lat="46.182231903076172" lon="8.070402145385742">
        <ele>1326.7568359375</ele>
        <time>2008-07-27T14:45:13Z</time>
      </trkpt>
      <trkpt lat="46.181094646453857" lon="8.070337772369385">
        <ele>1326.7568359375</ele>
        <time>2008-07-27T14:45:37Z</time>
      </trkpt>
      <trkpt lat="46.179571151733398" lon="8.071646690368652">
        <ele>1326.276123046875</ele>
        <time>2008-07-27T14:45:44Z</time>
      </trkpt>
      <trkpt lat="46.178905963897705" lon="8.071818351745606">
        <ele>1325.79541015625</ele>
        <time>2008-07-27T14:45:49Z</time>
      </trkpt>
      <trkpt lat="46.178369522094727" lon="8.071796894073486">
        <ele>1325.79541015625</ele>
        <time>2008-07-27T14:45:54Z</time>
      </trkpt>
      <trkpt lat="46.176609992980957" lon="8.071260452270508">
        <ele>1325.79541015625</ele>
        <time>2008-07-27T14:46:11Z</time>
      </trkpt>
      <trkpt lat="46.177189350128174" lon="8.072547912597656">
        <ele>1325.79541015625</ele>
        <time>2008-07-27T14:46:26Z</time>
      </trkpt>
      <trkpt lat="46.177575588226318" lon="8.072526454925537">
        <ele>1279.652099609375</ele>
        <time>2008-07-27T14:46:35Z</time>
      </trkpt>
      <trkpt lat="46.178412437438965" lon="8.072612285614014">
        <ele>1278.210205078125</ele>
        <time>2008-07-27T14:46:44Z</time>
      </trkpt>
      <trkpt lat="46.178691387176514" lon="8.072612285614014">
        <ele>1277.2490234375</ele>
        <time>2008-07-27T14:46:49Z</time>
      </trkpt>
      <trkpt lat="46.178691387176514" lon="8.072612285614014">
        <ele>1279.17138671875</ele>
        <time>2008-07-27T14:46:55Z</time>
      </trkpt>
      <trkpt lat="46.178669929504395" lon="8.072590827941895">
        <ele>1280.1328125</ele>
        <time>2008-07-27T14:47:44Z</time>
      </trkpt>
      <trkpt lat="46.179056167602539" lon="8.072504997253418">
        <ele>1280.1328125</ele>
        <time>2008-07-27T14:47:54Z</time>
      </trkpt>
      <trkpt lat="46.179313659667969" lon="8.07246208190918">
        <ele>1280.1328125</ele>
        <time>2008-07-27T14:48:01Z</time>
      </trkpt>
      <trkpt lat="46.180386543273926" lon="8.072676658630371">
        <ele>1275.806640625</ele>
        <time>2008-07-27T14:48:11Z</time>
      </trkpt>
      <trkpt lat="46.1810302734375" lon="8.072762489318848">
        <ele>1275.806640625</ele>
        <time>2008-07-27T14:48:13Z</time>
      </trkpt>
      <trkpt lat="46.181652545928955" lon="8.072569370269775">
        <ele>1275.325927734375</ele>
        <time>2008-07-27T14:48:19Z</time>
      </trkpt>
      <trkpt lat="46.182188987731934" lon="8.072440624237061">
        <ele>1274.845458984375</ele>
        <time>2008-07-27T14:48:24Z</time>
      </trkpt>
      <trkpt lat="46.182510852813721" lon="8.072547912597656">
        <ele>1274.36474609375</ele>
        <time>2008-07-27T14:48:28Z</time>
      </trkpt>
      <trkpt lat="46.182639598846436" lon="8.072655200958252">
        <ele>1274.36474609375</ele>
        <time>2008-07-27T14:48:32Z</time>
      </trkpt>
      <trkpt lat="46.182575225830078" lon="8.072633743286133">
        <ele>1273.884033203125</ele>
        <time>2008-07-27T14:48:52Z</time>
      </trkpt>
      <trkpt lat="46.182489395141602" lon="8.072655200958252">
        <ele>1273.403564453125</ele>
        <time>2008-07-27T14:49:02Z</time>
      </trkpt>
      <trkpt lat="46.182639598846436" lon="8.072869777679443">
        <ele>1272.442138671875</ele>
        <time>2008-07-27T14:49:09Z</time>
      </trkpt>
      <trkpt lat="46.18276834487915" lon="8.072998523712158">
        <ele>1270.51953125</ele>
        <time>2008-07-27T14:49:13Z</time>
      </trkpt>
      <trkpt lat="46.182811260223389" lon="8.073041439056397">
        <ele>1269.07763671875</ele>
        <time>2008-07-27T14:49:20Z</time>
      </trkpt>
      <trkpt lat="46.18278980255127" lon="8.073084354400635">
        <ele>1269.07763671875</ele>
        <time>2008-07-27T14:49:27Z</time>
      </trkpt>
      <trkpt lat="46.18276834487915" lon="8.073148727416992">
        <ele>1268.596923828125</ele>
        <time>2008-07-27T14:49:39Z</time>
      </trkpt>
      <trkpt lat="46.182725429534912" lon="8.073191642761231">
        <ele>1268.596923828125</ele>
        <time>2008-07-27T14:49:44Z</time>
      </trkpt>
      <trkpt lat="46.18278980255127" lon="8.073277473449707">
        <ele>1267.635498046875</ele>
        <time>2008-07-27T14:49:48Z</time>
      </trkpt>
      <trkpt lat="46.182918548583984" lon="8.073320388793945">
        <ele>1267.635498046875</ele>
        <time>2008-07-27T14:49:51Z</time>
      </trkpt>
      <trkpt lat="46.183197498321533" lon="8.07344913482666">
        <ele>1266.67431640625</ele>
        <time>2008-07-27T14:49:57Z</time>
      </trkpt>
      <trkpt lat="46.183304786682129" lon="8.073492050170898">
        <ele>1266.67431640625</ele>
        <time>2008-07-27T14:49:59Z</time>
      </trkpt>
      <trkpt lat="46.183369159698486" lon="8.073620796203613">
        <ele>1266.193603515625</ele>
        <time>2008-07-27T14:50:02Z</time>
      </trkpt>
      <trkpt lat="46.183347702026367" lon="8.073663711547852">
        <ele>1266.193603515625</ele>
        <time>2008-07-27T14:50:03Z</time>
      </trkpt>
      <trkpt lat="46.18328332901001" lon="8.0739426612854">
        <ele>1265.713134765625</ele>
        <time>2008-07-27T14:50:10Z</time>
      </trkpt>
      <trkpt lat="46.183304786682129" lon="8.074264526367188">
        <ele>1265.232421875</ele>
        <time>2008-07-27T14:50:15Z</time>
      </trkpt>
      <trkpt lat="46.183497905731201" lon="8.075230121612549">
        <ele>1265.232421875</ele>
        <time>2008-07-27T14:50:29Z</time>
      </trkpt>
      <trkpt lat="46.183691024780273" lon="8.076303005218506">
        <ele>1264.27099609375</ele>
        <time>2008-07-27T14:50:49Z</time>
      </trkpt>
      <trkpt lat="46.183798313140869" lon="8.076560497283936">
        <ele>1264.27099609375</ele>
        <time>2008-07-27T14:50:54Z</time>
      </trkpt>
      <trkpt lat="46.183948516845703" lon="8.076839447021484">
        <ele>1263.790283203125</ele>
        <time>2008-07-27T14:51:01Z</time>
      </trkpt>
      <trkpt lat="46.184206008911133" lon="8.077247142791748">
        <ele>1263.309814453125</ele>
        <time>2008-07-27T14:51:11Z</time>
      </trkpt>
      <trkpt lat="46.184463500976562" lon="8.077719211578369">
        <ele>1262.348388671875</ele>
        <time>2008-07-27T14:51:25Z</time>
      </trkpt>
      <trkpt lat="46.184678077697754" lon="8.078212738037109">
        <ele>1261.38720703125</ele>
        <time>2008-07-27T14:51:36Z</time>
      </trkpt>
      <trkpt lat="46.18502140045166" lon="8.079414367675781">
        <ele>1260.42578125</ele>
        <time>2008-07-27T14:51:58Z</time>
      </trkpt>
      <trkpt lat="46.185214519500732" lon="8.080143928527832">
        <ele>1259.46435546875</ele>
        <time>2008-07-27T14:52:11Z</time>
      </trkpt>
      <trkpt lat="46.185429096221924" lon="8.080637454986572">
        <ele>1258.5029296875</ele>
        <time>2008-07-27T14:52:21Z</time>
      </trkpt>
      <trkpt lat="46.185622215270996" lon="8.081281185150147">
        <ele>1257.541748046875</ele>
        <time>2008-07-27T14:52:33Z</time>
      </trkpt>
      <trkpt lat="46.185600757598877" lon="8.081281185150147">
        <ele>1257.541748046875</ele>
        <time>2008-07-27T14:52:34Z</time>
      </trkpt>
      <trkpt lat="46.18553638458252" lon="8.081431388854981">
        <ele>1256.099609375</ele>
        <time>2008-07-27T14:52:46Z</time>
      </trkpt>
      <trkpt lat="46.185429096221924" lon="8.081581592559815">
        <ele>1240.238037109375</ele>
        <time>2008-07-27T14:52:59Z</time>
      </trkpt>
      <trkpt lat="46.185407638549805" lon="8.08168888092041">
        <ele>1237.834716796875</ele>
        <time>2008-07-27T14:53:13Z</time>
      </trkpt>
      <trkpt lat="46.185364723205566" lon="8.081839084625244">
        <ele>1229.66357421875</ele>
        <time>2008-07-27T14:53:21Z</time>
      </trkpt>
      <trkpt lat="46.185386180877686" lon="8.08194637298584">
        <ele>1229.182861328125</ele>
        <time>2008-07-27T14:53:31Z</time>
      </trkpt>
      <trkpt lat="46.185407638549805" lon="8.082053661346436">
        <ele>1226.779541015625</ele>
        <time>2008-07-27T14:53:40Z</time>
      </trkpt>
      <trkpt lat="46.185429096221924" lon="8.082075119018555">
        <ele>1226.298828125</ele>
        <time>2008-07-27T14:53:43Z</time>
      </trkpt>
      <trkpt lat="46.185472011566162" lon="8.082354068756104">
        <ele>1224.85693359375</ele>
        <time>2008-07-27T14:54:05Z</time>
      </trkpt>
      <trkpt lat="46.185557842254639" lon="8.082611560821533">
        <ele>1224.85693359375</ele>
        <time>2008-07-27T14:54:27Z</time>
      </trkpt>
      <trkpt lat="46.185600757598877" lon="8.082740306854248">
        <ele>1223.4150390625</ele>
        <time>2008-07-27T14:54:38Z</time>
      </trkpt>
      <trkpt lat="46.185600757598877" lon="8.082847595214844">
        <ele>1221.01171875</ele>
        <time>2008-07-27T14:54:47Z</time>
      </trkpt>
      <trkpt lat="46.185600757598877" lon="8.082976341247559">
        <ele>1218.6083984375</ele>
        <time>2008-07-27T14:54:55Z</time>
      </trkpt>
      <trkpt lat="46.185579299926758" lon="8.083148002624512">
        <ele>1214.76318359375</ele>
        <time>2008-07-27T14:55:06Z</time>
      </trkpt>
      <trkpt lat="46.18553638458252" lon="8.083319664001465">
        <ele>1212.35986328125</ele>
        <time>2008-07-27T14:55:16Z</time>
      </trkpt>
      <trkpt lat="46.185493469238281" lon="8.083491325378418">
        <ele>1211.3984375</ele>
        <time>2008-07-27T14:55:28Z</time>
      </trkpt>
      <trkpt lat="46.185472011566162" lon="8.083662986755371">
        <ele>1210.917724609375</ele>
        <time>2008-07-27T14:55:42Z</time>
      </trkpt>
      <trkpt lat="46.185472011566162" lon="8.08368444442749">
        <ele>1210.43701171875</ele>
        <time>2008-07-27T14:55:44Z</time>
      </trkpt>
      <trkpt lat="46.1855149269104" lon="8.083963394165039">
        <ele>1208.9951171875</ele>
        <time>2008-07-27T14:55:53Z</time>
      </trkpt>
      <trkpt lat="46.18553638458252" lon="8.08469295501709">
        <ele>1208.9951171875</ele>
        <time>2008-07-27T14:56:14Z</time>
      </trkpt>
      <trkpt lat="46.185472011566162" lon="8.085422515869141">
        <ele>1204.188720703125</ele>
        <time>2008-07-27T14:56:29Z</time>
      </trkpt>
      <trkpt lat="46.185386180877686" lon="8.085916042327881">
        <ele>1200.823974609375</ele>
        <time>2008-07-27T14:56:36Z</time>
      </trkpt>
      <trkpt lat="46.185343265533447" lon="8.086109161376953">
        <ele>1200.343505859375</ele>
        <time>2008-07-27T14:56:48Z</time>
      </trkpt>
      <trkpt lat="46.185321807861328" lon="8.086323738098145">
        <ele>1199.382080078125</ele>
        <time>2008-07-27T14:56:52Z</time>
      </trkpt>
      <trkpt lat="46.185300350189209" lon="8.087074756622315">
        <ele>1199.86279296875</ele>
        <time>2008-07-27T14:57:03Z</time>
      </trkpt>
      <trkpt lat="46.18527889251709" lon="8.08769702911377">
        <ele>1195.53662109375</ele>
        <time>2008-07-27T14:57:15Z</time>
      </trkpt>
      <trkpt lat="46.185257434844971" lon="8.087804317474365">
        <ele>1196.017578125</ele>
        <time>2008-07-27T14:57:21Z</time>
      </trkpt>
      <trkpt lat="46.185214519500732" lon="8.088018894195557">
        <ele>1195.055908203125</ele>
        <time>2008-07-27T14:57:33Z</time>
      </trkpt>
      <trkpt lat="46.185214519500732" lon="8.088147640228272">
        <ele>1195.53662109375</ele>
        <time>2008-07-27T14:57:44Z</time>
      </trkpt>
      <trkpt lat="46.185407638549805" lon="8.088319301605225">
        <ele>1193.614013671875</ele>
        <time>2008-07-27T14:57:53Z</time>
      </trkpt>
      <trkpt lat="46.185407638549805" lon="8.088362216949463">
        <ele>1192.65283203125</ele>
        <time>2008-07-27T14:57:55Z</time>
      </trkpt>
      <trkpt lat="46.185407638549805" lon="8.08844804763794">
        <ele>1192.172119140625</ele>
        <time>2008-07-27T14:57:59Z</time>
      </trkpt>
      <trkpt lat="46.185407638549805" lon="8.088641166687012">
        <ele>1192.172119140625</ele>
        <time>2008-07-27T14:58:10Z</time>
      </trkpt>
      <trkpt lat="46.185407638549805" lon="8.088641166687012">
        <ele>1192.172119140625</ele>
        <time>2008-07-27T14:58:11Z</time>
      </trkpt>
      <trkpt lat="46.185429096221924" lon="8.088834285736084">
        <ele>1191.210693359375</ele>
        <time>2008-07-27T14:58:21Z</time>
      </trkpt>
      <trkpt lat="46.185429096221924" lon="8.089005947113037">
        <ele>1189.768798828125</ele>
        <time>2008-07-27T14:58:33Z</time>
      </trkpt>
      <trkpt lat="46.185386180877686" lon="8.089113235473633">
        <ele>1187.84619140625</ele>
        <time>2008-07-27T14:58:39Z</time>
      </trkpt>
      <trkpt lat="46.185386180877686" lon="8.089220523834229">
        <ele>1184.481689453125</ele>
        <time>2008-07-27T14:58:45Z</time>
      </trkpt>
      <trkpt lat="46.185407638549805" lon="8.089327812194824">
        <ele>1184.0009765625</ele>
        <time>2008-07-27T14:58:52Z</time>
      </trkpt>
      <trkpt lat="46.185407638549805" lon="8.089606761932373">
        <ele>1182.078369140625</ele>
        <time>2008-07-27T14:59:02Z</time>
      </trkpt>
      <trkpt lat="46.185493469238281" lon="8.09018611907959">
        <ele>1181.1171875</ele>
        <time>2008-07-27T14:59:15Z</time>
      </trkpt>
      <trkpt lat="46.1855149269104" lon="8.09067964553833">
        <ele>1178.713623046875</ele>
        <time>2008-07-27T14:59:26Z</time>
      </trkpt>
      <trkpt lat="46.18553638458252" lon="8.091301918029785">
        <ele>1180.636474609375</ele>
        <time>2008-07-27T14:59:38Z</time>
      </trkpt>
      <trkpt lat="46.18553638458252" lon="8.091301918029785">
        <ele>1180.636474609375</ele>
        <time>2008-07-27T14:59:39Z</time>
      </trkpt>
      <trkpt lat="46.1855149269104" lon="8.091344833374023">
        <ele>1179.194091796875</ele>
        <time>2008-07-27T14:59:46Z</time>
      </trkpt>
      <trkpt lat="46.185557842254639" lon="8.091452121734619">
        <ele>1179.6748046875</ele>
        <time>2008-07-27T14:59:55Z</time>
      </trkpt>
      <trkpt lat="46.18553638458252" lon="8.091559410095215">
        <ele>1176.791015625</ele>
        <time>2008-07-27T15:00:03Z</time>
      </trkpt>
      <trkpt lat="46.185622215270996" lon="8.091666698455811">
        <ele>1181.59765625</ele>
        <time>2008-07-27T15:00:12Z</time>
      </trkpt>
      <trkpt lat="46.18577241897583" lon="8.091902732849121">
        <ele>1179.194091796875</ele>
        <time>2008-07-27T15:00:24Z</time>
      </trkpt>
      <trkpt lat="46.185922622680664" lon="8.092288970947266">
        <ele>1176.791015625</ele>
        <time>2008-07-27T15:00:35Z</time>
      </trkpt>
      <trkpt lat="46.185922622680664" lon="8.092632293701172">
        <ele>1176.791015625</ele>
        <time>2008-07-27T15:00:45Z</time>
      </trkpt>
      <trkpt lat="46.185922622680664" lon="8.092653751373291">
        <ele>1176.791015625</ele>
        <time>2008-07-27T15:00:50Z</time>
      </trkpt>
      <trkpt lat="46.185986995697021" lon="8.092889785766602">
        <ele>1177.271728515625</ele>
        <time>2008-07-27T15:00:59Z</time>
      </trkpt>
      <trkpt lat="46.186008453369141" lon="8.092911243438721">
        <ele>1176.791015625</ele>
        <time>2008-07-27T15:01:00Z</time>
      </trkpt>
      <trkpt lat="46.186008453369141" lon="8.093125820159912">
        <ele>1177.271728515625</ele>
        <time>2008-07-27T15:01:06Z</time>
      </trkpt>
      <trkpt lat="46.186180114746094" lon="8.093490600585938">
        <ele>1177.271728515625</ele>
        <time>2008-07-27T15:01:19Z</time>
      </trkpt>
      <trkpt lat="46.186437606811523" lon="8.093984127044678">
        <ele>1177.271728515625</ele>
        <time>2008-07-27T15:01:35Z</time>
      </trkpt>
      <trkpt lat="46.186609268188477" lon="8.094413280487061">
        <ele>1177.271728515625</ele>
        <time>2008-07-27T15:01:45Z</time>
      </trkpt>
      <trkpt lat="46.1865234375" lon="8.094477653503418">
        <ele>1177.271728515625</ele>
        <time>2008-07-27T15:01:48Z</time>
      </trkpt>
      <trkpt lat="46.186501979827881" lon="8.094520568847656">
        <ele>1177.271728515625</ele>
        <time>2008-07-27T15:01:50Z</time>
      </trkpt>
      <trkpt lat="46.186566352844238" lon="8.094649314880371">
        <ele>1177.752197265625</ele>
        <time>2008-07-27T15:01:55Z</time>
      </trkpt>
      <trkpt lat="46.186630725860596" lon="8.094756603240967">
        <ele>1177.271728515625</ele>
        <time>2008-07-27T15:02:01Z</time>
      </trkpt>
      <trkpt lat="46.186759471893311" lon="8.094992637634277">
        <ele>1177.752197265625</ele>
        <time>2008-07-27T15:02:13Z</time>
      </trkpt>
      <trkpt lat="46.186845302581787" lon="8.095207214355469">
        <ele>1178.23291015625</ele>
        <time>2008-07-27T15:02:31Z</time>
      </trkpt>
      <trkpt lat="46.186866760253906" lon="8.095250129699707">
        <ele>1178.713623046875</ele>
        <time>2008-07-27T15:02:41Z</time>
      </trkpt>
      <trkpt lat="46.187059879302979" lon="8.095378875732422">
        <ele>1178.713623046875</ele>
        <time>2008-07-27T15:03:25Z</time>
      </trkpt>
      <trkpt lat="46.187102794647217" lon="8.095378875732422">
        <ele>1178.713623046875</ele>
        <time>2008-07-27T15:03:35Z</time>
      </trkpt>
      <trkpt lat="46.187081336975098" lon="8.095293045043945">
        <ele>1178.23291015625</ele>
        <time>2008-07-27T15:03:41Z</time>
      </trkpt>
      <trkpt lat="46.187124252319336" lon="8.095250129699707">
        <ele>1178.23291015625</ele>
        <time>2008-07-27T15:03:46Z</time>
      </trkpt>
      <trkpt lat="46.187210083007813" lon="8.09518575668335">
        <ele>1178.23291015625</ele>
        <time>2008-07-27T15:03:53Z</time>
      </trkpt>
      <trkpt lat="46.187231540679932" lon="8.095142841339111">
        <ele>1178.713623046875</ele>
        <time>2008-07-27T15:04:01Z</time>
      </trkpt>
      <trkpt lat="46.187360286712646" lon="8.095164299011231">
        <ele>1178.713623046875</ele>
        <time>2008-07-27T15:04:13Z</time>
      </trkpt>
      <trkpt lat="46.18751049041748" lon="8.095271587371826">
        <ele>1178.713623046875</ele>
        <time>2008-07-27T15:04:20Z</time>
      </trkpt>
      <trkpt lat="46.190063953399658" lon="8.101387023925781">
        <ele>1175.82958984375</ele>
        <time>2008-07-27T15:10:10Z</time>
      </trkpt>
      <trkpt lat="46.190063953399658" lon="8.10142993927002">
        <ele>1173.426513671875</ele>
        <time>2008-07-27T15:10:13Z</time>
      </trkpt>
      <trkpt lat="46.190085411071777" lon="8.101537227630615">
        <ele>1172.465087890625</ele>
        <time>2008-07-27T15:10:19Z</time>
      </trkpt>
      <trkpt lat="46.190085411071777" lon="8.101708889007568">
        <ele>1171.984375</ele>
        <time>2008-07-27T15:10:31Z</time>
      </trkpt>
      <trkpt lat="46.190085411071777" lon="8.101730346679688">
        <ele>1171.984375</ele>
        <time>2008-07-27T15:10:33Z</time>
      </trkpt>
      <trkpt lat="46.190149784088135" lon="8.102009296417236">
        <ele>1171.984375</ele>
        <time>2008-07-27T15:10:41Z</time>
      </trkpt>
      <trkpt lat="46.190171241760254" lon="8.102095127105713">
        <ele>1171.984375</ele>
        <time>2008-07-27T15:10:43Z</time>
      </trkpt>
      <trkpt lat="46.190235614776611" lon="8.102245330810547">
        <ele>1171.503662109375</ele>
        <time>2008-07-27T15:10:48Z</time>
      </trkpt>
      <trkpt lat="46.190793514251709" lon="8.10316801071167">
        <ele>1171.503662109375</ele>
        <time>2008-07-27T15:11:08Z</time>
      </trkpt>
      <trkpt lat="46.1910080909729" lon="8.103833198547363">
        <ele>1171.503662109375</ele>
        <time>2008-07-27T15:11:17Z</time>
      </trkpt>
      <trkpt lat="46.191115379333496" lon="8.104197978973389">
        <ele>1171.023193359375</ele>
        <time>2008-07-27T15:11:24Z</time>
      </trkpt>
      <trkpt lat="46.191136837005615" lon="8.104240894317627">
        <ele>1171.023193359375</ele>
        <time>2008-07-27T15:11:25Z</time>
      </trkpt>
      <trkpt lat="46.19152307510376" lon="8.104798793792725">
        <ele>1171.023193359375</ele>
        <time>2008-07-27T15:11:34Z</time>
      </trkpt>
      <trkpt lat="46.191995143890381" lon="8.105463981628418">
        <ele>1170.54248046875</ele>
        <time>2008-07-27T15:11:45Z</time>
      </trkpt>
      <trkpt lat="46.192317008972168" lon="8.105721473693848">
        <ele>1170.54248046875</ele>
        <time>2008-07-27T15:11:52Z</time>
      </trkpt>
      <trkpt lat="46.192553043365479" lon="8.106043338775635">
        <ele>1170.54248046875</ele>
        <time>2008-07-27T15:11:58Z</time>
      </trkpt>
      <trkpt lat="46.192638874053955" lon="8.105871677398682">
        <ele>1170.54248046875</ele>
        <time>2008-07-27T15:12:01Z</time>
      </trkpt>
      <trkpt lat="46.192810535430908" lon="8.105893135070801">
        <ele>1170.54248046875</ele>
        <time>2008-07-27T15:12:06Z</time>
      </trkpt>
      <trkpt lat="46.1930251121521" lon="8.106279373168945">
        <ele>1170.54248046875</ele>
        <time>2008-07-27T15:12:15Z</time>
      </trkpt>
      <trkpt lat="46.193089485168457" lon="8.106451034545898">
        <ele>1170.54248046875</ele>
        <time>2008-07-27T15:12:18Z</time>
      </trkpt>
      <trkpt lat="46.193046569824219" lon="8.106794357299805">
        <ele>1170.54248046875</ele>
        <time>2008-07-27T15:12:22Z</time>
      </trkpt>
      <trkpt lat="46.193110942840576" lon="8.107631206512451">
        <ele>1170.54248046875</ele>
        <time>2008-07-27T15:12:31Z</time>
      </trkpt>
      <trkpt lat="46.193110942840576" lon="8.107802867889404">
        <ele>1170.54248046875</ele>
        <time>2008-07-27T15:12:33Z</time>
      </trkpt>
      <trkpt lat="46.193411350250244" lon="8.109519481658936">
        <ele>1170.54248046875</ele>
        <time>2008-07-27T15:12:59Z</time>
      </trkpt>
      <trkpt lat="46.19377613067627" lon="8.111085891723633">
        <ele>1170.54248046875</ele>
        <time>2008-07-27T15:13:24Z</time>
      </trkpt>
      <trkpt lat="46.193819046020508" lon="8.110978603363037">
        <ele>1170.54248046875</ele>
        <time>2008-07-27T15:14:25Z</time>
      </trkpt>
      <trkpt lat="46.193840503692627" lon="8.111085891723633">
        <ele>1170.54248046875</ele>
        <time>2008-07-27T15:14:38Z</time>
      </trkpt>
      <trkpt lat="46.193840503692627" lon="8.111085891723633">
        <ele>1170.54248046875</ele>
        <time>2008-07-27T15:14:40Z</time>
      </trkpt>
      <trkpt lat="46.193969249725342" lon="8.111321926116943">
        <ele>1170.54248046875</ele>
        <time>2008-07-27T15:14:52Z</time>
      </trkpt>
      <trkpt lat="46.194119453430176" lon="8.111686706542969">
        <ele>1170.54248046875</ele>
        <time>2008-07-27T15:15:05Z</time>
      </trkpt>
      <trkpt lat="46.194226741790771" lon="8.111686706542969">
        <ele>1170.54248046875</ele>
        <time>2008-07-27T15:15:09Z</time>
      </trkpt>
      <trkpt lat="46.194376945495605" lon="8.111729621887207">
        <ele>1170.54248046875</ele>
        <time>2008-07-27T15:15:14Z</time>
      </trkpt>
      <trkpt lat="46.194462776184082" lon="8.111965656280518">
        <ele>1170.54248046875</ele>
        <time>2008-07-27T15:15:18Z</time>
      </trkpt>
      <trkpt lat="46.194548606872559" lon="8.112695217132568">
        <ele>1170.54248046875</ele>
        <time>2008-07-27T15:15:26Z</time>
      </trkpt>
      <trkpt lat="46.194570064544678" lon="8.112866878509522">
        <ele>1170.54248046875</ele>
        <time>2008-07-27T15:15:28Z</time>
      </trkpt>
      <trkpt lat="46.194827556610107" lon="8.113467693328857">
        <ele>1170.54248046875</ele>
        <time>2008-07-27T15:15:38Z</time>
      </trkpt>
      <trkpt lat="46.194849014282227" lon="8.113510608673096">
        <ele>1170.54248046875</ele>
        <time>2008-07-27T15:15:47Z</time>
      </trkpt>
      <trkpt lat="46.194934844970703" lon="8.113639354705811">
        <ele>1170.54248046875</ele>
        <time>2008-07-27T15:16:02Z</time>
      </trkpt>
      <trkpt lat="46.194977760314941" lon="8.113768100738525">
        <ele>1170.54248046875</ele>
        <time>2008-07-27T15:16:16Z</time>
      </trkpt>
      <trkpt lat="46.19502067565918" lon="8.113875389099121">
        <ele>1170.54248046875</ele>
        <time>2008-07-27T15:16:28Z</time>
      </trkpt>
      <trkpt lat="46.195085048675537" lon="8.113875389099121">
        <ele>1170.54248046875</ele>
        <time>2008-07-27T15:16:36Z</time>
      </trkpt>
      <trkpt lat="46.195170879364014" lon="8.113918304443359">
        <ele>1170.54248046875</ele>
        <time>2008-07-27T15:16:47Z</time>
      </trkpt>
      <trkpt lat="46.195278167724609" lon="8.114068508148193">
        <ele>1170.54248046875</ele>
        <time>2008-07-27T15:17:07Z</time>
      </trkpt>
      <trkpt lat="46.195986270904541" lon="8.11664342880249">
        <ele>1170.54248046875</ele>
        <time>2008-07-27T15:23:26Z</time>
      </trkpt>
      <trkpt lat="46.19675874710083" lon="8.117716312408447">
        <ele>1057.587646484375</ele>
        <time>2008-07-27T15:23:33Z</time>
      </trkpt>
      <trkpt lat="46.196587085723877" lon="8.11765193939209">
        <ele>1037.880615234375</ele>
        <time>2008-07-27T15:23:42Z</time>
      </trkpt>
      <trkpt lat="46.19675874710083" lon="8.117866516113281">
        <ele>1058.068359375</ele>
        <time>2008-07-27T15:25:12Z</time>
      </trkpt>
      <trkpt lat="46.196823120117188" lon="8.117823600769043">
        <ele>1055.184326171875</ele>
        <time>2008-07-27T15:25:21Z</time>
      </trkpt>
      <trkpt lat="46.196823120117188" lon="8.117845058441162">
        <ele>1053.742431640625</ele>
        <time>2008-07-27T15:25:29Z</time>
      </trkpt>
      <trkpt lat="46.196823120117188" lon="8.117930889129639">
        <ele>1050.858154296875</ele>
        <time>2008-07-27T15:25:41Z</time>
      </trkpt>
      <trkpt lat="46.196780204772949" lon="8.117973804473877">
        <ele>1049.416259765625</ele>
        <time>2008-07-27T15:25:49Z</time>
      </trkpt>
      <trkpt lat="46.19675874710083" lon="8.118016719818115">
        <ele>1047.974365234375</ele>
        <time>2008-07-27T15:25:55Z</time>
      </trkpt>
      <trkpt lat="46.196737289428711" lon="8.118124008178711">
        <ele>1047.974365234375</ele>
        <time>2008-07-27T15:26:06Z</time>
      </trkpt>
      <trkpt lat="46.196737289428711" lon="8.118166923522949">
        <ele>1047.012939453125</ele>
        <time>2008-07-27T15:26:15Z</time>
      </trkpt>
      <trkpt lat="46.196737289428711" lon="8.118166923522949">
        <ele>1044.129150390625</ele>
        <time>2008-07-27T15:26:30Z</time>
      </trkpt>
      <trkpt lat="46.196801662445068" lon="8.118124008178711">
        <ele>1043.6484375</ele>
        <time>2008-07-27T15:26:38Z</time>
      </trkpt>
      <trkpt lat="46.196823120117188" lon="8.118124008178711">
        <ele>1041.725830078125</ele>
        <time>2008-07-27T15:26:46Z</time>
      </trkpt>
      <trkpt lat="46.196844577789307" lon="8.118059635162354">
        <ele>1042.20654296875</ele>
        <time>2008-07-27T15:27:00Z</time>
      </trkpt>
      <trkpt lat="46.196866035461426" lon="8.118016719818115">
        <ele>1040.764404296875</ele>
        <time>2008-07-27T15:27:07Z</time>
      </trkpt>
      <trkpt lat="46.196866035461426" lon="8.117995262145996">
        <ele>1040.283935546875</ele>
        <time>2008-07-27T15:27:17Z</time>
      </trkpt>
      <trkpt lat="46.196866035461426" lon="8.118038177490234">
        <ele>1039.322509765625</ele>
        <time>2008-07-27T15:27:24Z</time>
      </trkpt>
      <trkpt lat="46.196887493133545" lon="8.118166923522949">
        <ele>1036.438720703125</ele>
        <time>2008-07-27T15:27:37Z</time>
      </trkpt>
      <trkpt lat="46.196908950805664" lon="8.118274211883545">
        <ele>1031.6318359375</ele>
        <time>2008-07-27T15:27:54Z</time>
      </trkpt>
      <trkpt lat="46.196951866149902" lon="8.118252754211426">
        <ele>1030.670654296875</ele>
        <time>2008-07-27T15:28:03Z</time>
      </trkpt>
      <trkpt lat="46.196973323822021" lon="8.118166923522949">
        <ele>1028.748046875</ele>
        <time>2008-07-27T15:28:14Z</time>
      </trkpt>
      <trkpt lat="46.196973323822021" lon="8.118124008178711">
        <ele>1028.267333984375</ele>
        <time>2008-07-27T15:28:20Z</time>
      </trkpt>
      <trkpt lat="46.196994781494141" lon="8.118188381195068">
        <ele>1025.864013671875</ele>
        <time>2008-07-27T15:28:29Z</time>
      </trkpt>
      <trkpt lat="46.196973323822021" lon="8.118274211883545">
        <ele>1023.4609375</ele>
        <time>2008-07-27T15:28:40Z</time>
      </trkpt>
      <trkpt lat="46.19701623916626" lon="8.118295669555664">
        <ele>1015.770263671875</ele>
        <time>2008-07-27T15:29:21Z</time>
      </trkpt>
      <trkpt lat="46.196994781494141" lon="8.118381500244141">
        <ele>1011.925048828125</ele>
        <time>2008-07-27T15:29:36Z</time>
      </trkpt>
      <trkpt lat="46.197080612182617" lon="8.118467330932617">
        <ele>1018.654052734375</ele>
        <time>2008-07-27T15:30:00Z</time>
      </trkpt>
      <trkpt lat="46.197080612182617" lon="8.118510246276856">
        <ele>1015.28955078125</ele>
        <time>2008-07-27T15:30:11Z</time>
      </trkpt>
      <trkpt lat="46.197080612182617" lon="8.11863899230957">
        <ele>1015.28955078125</ele>
        <time>2008-07-27T15:30:23Z</time>
      </trkpt>
      <trkpt lat="46.19701623916626" lon="8.11863899230957">
        <ele>1015.770263671875</ele>
        <time>2008-07-27T15:30:25Z</time>
      </trkpt>
      <trkpt lat="46.196951866149902" lon="8.11863899230957">
        <ele>1015.770263671875</ele>
        <time>2008-07-27T15:30:27Z</time>
      </trkpt>
      <trkpt lat="46.196951866149902" lon="8.118746280670166">
        <ele>1015.28955078125</ele>
        <time>2008-07-27T15:30:31Z</time>
      </trkpt>
      <trkpt lat="46.196951866149902" lon="8.118875026702881">
        <ele>1014.808837890625</ele>
        <time>2008-07-27T15:30:35Z</time>
      </trkpt>
      <trkpt lat="46.196908950805664" lon="8.119132518768311">
        <ele>1010.963623046875</ele>
        <time>2008-07-27T15:30:44Z</time>
      </trkpt>
      <trkpt lat="46.196973323822021" lon="8.11939001083374">
        <ele>1006.6376953125</ele>
        <time>2008-07-27T15:30:52Z</time>
      </trkpt>
      <trkpt lat="46.196994781494141" lon="8.119475841522217">
        <ele>1005.19580078125</ele>
        <time>2008-07-27T15:30:59Z</time>
      </trkpt>
      <trkpt lat="46.197037696838379" lon="8.119690418243408">
        <ele>1001.350341796875</ele>
        <time>2008-07-27T15:31:15Z</time>
      </trkpt>
      <trkpt lat="46.197080612182617" lon="8.119819164276123">
        <ele>998.947021484375</ele>
        <time>2008-07-27T15:31:27Z</time>
      </trkpt>
      <trkpt lat="46.197187900543213" lon="8.119990825653076">
        <ele>996.5439453125</ele>
        <time>2008-07-27T15:31:41Z</time>
      </trkpt>
      <trkpt lat="46.197209358215332" lon="8.120033740997315">
        <ele>994.62109375</ele>
        <time>2008-07-27T15:31:46Z</time>
      </trkpt>
      <trkpt lat="46.19725227355957" lon="8.120162487030029">
        <ele>992.218017578125</ele>
        <time>2008-07-27T15:31:52Z</time>
      </trkpt>
      <trkpt lat="46.197316646575928" lon="8.120484352111816">
        <ele>990.77587890625</ele>
        <time>2008-07-27T15:31:57Z</time>
      </trkpt>
      <trkpt lat="46.197359561920166" lon="8.120806217193604">
        <ele>989.814697265625</ele>
        <time>2008-07-27T15:32:04Z</time>
      </trkpt>
      <trkpt lat="46.197445392608643" lon="8.121020793914795">
        <ele>988.853515625</ele>
        <time>2008-07-27T15:32:11Z</time>
      </trkpt>
      <trkpt lat="46.197488307952881" lon="8.121321201324463">
        <ele>986.930419921875</ele>
        <time>2008-07-27T15:32:19Z</time>
      </trkpt>
      <trkpt lat="46.197531223297119" lon="8.121685981750488">
        <ele>985.96923828125</ele>
        <time>2008-07-27T15:32:27Z</time>
      </trkpt>
      <trkpt lat="46.197574138641357" lon="8.121879100799561">
        <ele>985.96923828125</ele>
        <time>2008-07-27T15:32:34Z</time>
      </trkpt>
      <trkpt lat="46.197574138641357" lon="8.121922016143799">
        <ele>985.96923828125</ele>
        <time>2008-07-27T15:32:37Z</time>
      </trkpt>
      <trkpt lat="46.197617053985596" lon="8.122050762176514">
        <ele>986.449951171875</ele>
        <time>2008-07-27T15:32:46Z</time>
      </trkpt>
      <trkpt lat="46.197681427001953" lon="8.122200965881348">
        <ele>987.4111328125</ele>
        <time>2008-07-27T15:32:59Z</time>
      </trkpt>
      <trkpt lat="46.197724342346191" lon="8.122308254241943">
        <ele>987.4111328125</ele>
        <time>2008-07-27T15:33:13Z</time>
      </trkpt>
      <trkpt lat="46.19776725769043" lon="8.122501373291016">
        <ele>986.449951171875</ele>
        <time>2008-07-27T15:33:30Z</time>
      </trkpt>
      <trkpt lat="46.197853088378906" lon="8.122737407684326">
        <ele>985.488525390625</ele>
        <time>2008-07-27T15:33:46Z</time>
      </trkpt>
      <trkpt lat="46.197874546051025" lon="8.122866153717041">
        <ele>987.891845703125</ele>
        <time>2008-07-27T15:33:57Z</time>
      </trkpt>
      <trkpt lat="46.197874546051025" lon="8.122866153717041">
        <ele>993.659912109375</ele>
        <time>2008-07-27T15:34:39Z</time>
      </trkpt>
      <trkpt lat="46.197917461395264" lon="8.122973442077637">
        <ele>993.17919921875</ele>
        <time>2008-07-27T15:34:51Z</time>
      </trkpt>
      <trkpt lat="46.197960376739502" lon="8.122951984405518">
        <ele>991.256591796875</ele>
        <time>2008-07-27T15:35:04Z</time>
      </trkpt>
      <trkpt lat="46.198024749755859" lon="8.122994899749756">
        <ele>985.488525390625</ele>
        <time>2008-07-27T15:35:17Z</time>
      </trkpt>
      <trkpt lat="46.197981834411621" lon="8.123080730438232">
        <ele>986.930419921875</ele>
        <time>2008-07-27T15:35:26Z</time>
      </trkpt>
      <trkpt lat="46.197981834411621" lon="8.12314510345459">
        <ele>986.930419921875</ele>
        <time>2008-07-27T15:35:31Z</time>
      </trkpt>
      <trkpt lat="46.197938919067383" lon="8.123230934143066">
        <ele>988.853515625</ele>
        <time>2008-07-27T15:35:41Z</time>
      </trkpt>
      <trkpt lat="46.197981834411621" lon="8.123273849487305">
        <ele>996.063232421875</ele>
        <time>2008-07-27T15:36:20Z</time>
      </trkpt>
      <trkpt lat="46.197981834411621" lon="8.123295307159424">
        <ele>995.58251953125</ele>
        <time>2008-07-27T15:36:38Z</time>
      </trkpt>
      <trkpt lat="46.197981834411621" lon="8.123466968536377">
        <ele>994.140625</ele>
        <time>2008-07-27T15:36:43Z</time>
      </trkpt>
      <trkpt lat="46.198217868804932" lon="8.124067783355713">
        <ele>992.69873046875</ele>
        <time>2008-07-27T15:37:09Z</time>
      </trkpt>
      <trkpt lat="46.198346614837646" lon="8.124175071716309">
        <ele>988.853515625</ele>
        <time>2008-07-27T15:37:52Z</time>
      </trkpt>
      <trkpt lat="46.198346614837646" lon="8.124325275421143">
        <ele>989.333984375</ele>
        <time>2008-07-27T15:37:58Z</time>
      </trkpt>
      <trkpt lat="46.198303699493408" lon="8.124496936798096">
        <ele>989.333984375</ele>
        <time>2008-07-27T15:38:00Z</time>
      </trkpt>
      <trkpt lat="46.198239326477051" lon="8.124754428863525">
        <ele>990.29541015625</ele>
        <time>2008-07-27T15:38:05Z</time>
      </trkpt>
      <trkpt lat="46.198089122772217" lon="8.124582767486572">
        <ele>992.69873046875</ele>
        <time>2008-07-27T15:38:41Z</time>
      </trkpt>
      <trkpt lat="46.198089122772217" lon="8.124582767486572">
        <ele>992.69873046875</ele>
        <time>2008-07-27T15:38:52Z</time>
      </trkpt>
      <trkpt lat="46.198110580444336" lon="8.124775886535645">
        <ele>992.69873046875</ele>
        <time>2008-07-27T15:38:56Z</time>
      </trkpt>
      <trkpt lat="46.198196411132812" lon="8.125076293945313">
        <ele>992.69873046875</ele>
        <time>2008-07-27T15:38:59Z</time>
      </trkpt>
      <trkpt lat="46.198711395263672" lon="8.127114772796631">
        <ele>991.7373046875</ele>
        <time>2008-07-27T15:39:05Z</time>
      </trkpt>
      <trkpt lat="46.199033260345459" lon="8.127415180206299">
        <ele>989.814697265625</ele>
        <time>2008-07-27T15:39:09Z</time>
      </trkpt>
      <trkpt lat="46.198861598968506" lon="8.12762975692749">
        <ele>988.853515625</ele>
        <time>2008-07-27T15:39:12Z</time>
      </trkpt>
      <trkpt lat="46.198711395263672" lon="8.127565383911133">
        <ele>987.891845703125</ele>
        <time>2008-07-27T15:39:14Z</time>
      </trkpt>
      <trkpt lat="46.198668479919434" lon="8.127501010894775">
        <ele>987.4111328125</ele>
        <time>2008-07-27T15:39:15Z</time>
      </trkpt>
      <trkpt lat="46.19849681854248" lon="8.127286434173584">
        <ele>985.488525390625</ele>
        <time>2008-07-27T15:39:18Z</time>
      </trkpt>
      <trkpt lat="46.198303699493408" lon="8.127007484436035">
        <ele>984.046630859375</ele>
        <time>2008-07-27T15:39:22Z</time>
      </trkpt>
      <trkpt lat="46.198196411132812" lon="8.126513957977295">
        <ele>984.046630859375</ele>
        <time>2008-07-27T15:39:29Z</time>
      </trkpt>
      <trkpt lat="46.198153495788574" lon="8.12638521194458">
        <ele>984.52734375</ele>
        <time>2008-07-27T15:39:33Z</time>
      </trkpt>
    </trkseg>
  </trk>

</gpx>
